<?xml version="1.0"?>
<gpx
 version="1.1"
 creator="Satmap Active 20"
 xmlns:xsi="http://www.w3.org/2001/XMLSchema-instance"
 xmlns="http://www.topografix.com/GPX/1/1"
 xmlns:satmap="http://www.satmap.com/updates/xmlschemas/GpxExtensions/v2/GpxExtensions_v2.xsd"
 xsi:schemaLocation="http://www.topografix.com/GPX/1/1 http://www.topografix.com/GPX/1/1/gpx.xsd">
<metadata>
<time>2024-06-01T09:24:44Z</time>
<extensions>
<satmap:platform>43</satmap:platform>
<satmap:software version="3.12.831">SM15.exe</satmap:software>
<satmap:username>Jim Grant</satmap:username>
<satmap:network_ids>
<satmap:network_id type="wifi">00-23-A7-EC-D5-78</satmap:network_id>
<satmap:network_id type="bluetooth">80-BB-EB-D7-5B-7C</satmap:network_id>
</satmap:network_ids>
<satmap:snap_type>simple</satmap:snap_type>
</extensions>
</metadata>
<trk>
<name>2024-06-01_0926</name>
<desc>Track 1</desc>
<number>1</number>
<trkseg>
<trkpt lat="54.603738" lon="-3.188911"><ele>83</ele><time>2024-06-01T09:24:44Z</time><name>PT1</name></trkpt>
<trkpt lat="54.603736" lon="-3.188917"><ele>83</ele><time>2024-06-01T09:26:49Z</time><name>PT2</name></trkpt>
<trkpt lat="54.603736" lon="-3.188906"><ele>83</ele><time>2024-06-01T09:26:53Z</time><name>PT3</name></trkpt>
<trkpt lat="54.603722" lon="-3.188915"><ele>84</ele><time>2024-06-01T09:28:08Z</time><name>PT4</name></trkpt>
<trkpt lat="54.603707" lon="-3.188937"><ele>84</ele><time>2024-06-01T09:28:12Z</time><name>PT5</name></trkpt>
<trkpt lat="54.603705" lon="-3.188953"><ele>85</ele><time>2024-06-01T09:28:15Z</time><name>PT6</name></trkpt>
<trkpt lat="54.603685" lon="-3.188956"><ele>84</ele><time>2024-06-01T09:28:19Z</time><name>PT7</name></trkpt>
<trkpt lat="54.603666" lon="-3.188986"><ele>84</ele><time>2024-06-01T09:28:22Z</time><name>PT8</name></trkpt>
<trkpt lat="54.603642" lon="-3.189029"><ele>83</ele><time>2024-06-01T09:28:26Z</time><name>PT9</name></trkpt>
<trkpt lat="54.603616" lon="-3.189066"><ele>84</ele><time>2024-06-01T09:28:30Z</time><name>PT10</name></trkpt>
<trkpt lat="54.603591" lon="-3.189098"><ele>83</ele><time>2024-06-01T09:28:33Z</time><name>PT11</name></trkpt>
<trkpt lat="54.603567" lon="-3.189137"><ele>83</ele><time>2024-06-01T09:28:36Z</time><name>PT12</name></trkpt>
<trkpt lat="54.603542" lon="-3.189176"><ele>82</ele><time>2024-06-01T09:28:40Z</time><name>PT13</name></trkpt>
<trkpt lat="54.603518" lon="-3.189194"><ele>82</ele><time>2024-06-01T09:28:43Z</time><name>PT14</name></trkpt>
<trkpt lat="54.603496" lon="-3.189252"><ele>83</ele><time>2024-06-01T09:28:46Z</time><name>PT15</name></trkpt>
<trkpt lat="54.603471" lon="-3.189316"><ele>83</ele><time>2024-06-01T09:28:49Z</time><name>PT16</name></trkpt>
<trkpt lat="54.603436" lon="-3.189381"><ele>83</ele><time>2024-06-01T09:28:53Z</time><name>PT17</name></trkpt>
<trkpt lat="54.603414" lon="-3.189438"><ele>83</ele><time>2024-06-01T09:28:56Z</time><name>PT18</name></trkpt>
<trkpt lat="54.603384" lon="-3.189487"><ele>84</ele><time>2024-06-01T09:29:00Z</time><name>PT19</name></trkpt>
<trkpt lat="54.603343" lon="-3.189540"><ele>86</ele><time>2024-06-01T09:29:04Z</time><name>PT20</name></trkpt>
<trkpt lat="54.603311" lon="-3.189573"><ele>85</ele><time>2024-06-01T09:29:07Z</time><name>PT21</name></trkpt>
<trkpt lat="54.603273" lon="-3.189626"><ele>84</ele><time>2024-06-01T09:29:11Z</time><name>PT22</name></trkpt>
<trkpt lat="54.603244" lon="-3.189661"><ele>83</ele><time>2024-06-01T09:29:15Z</time><name>PT23</name></trkpt>
<trkpt lat="54.603193" lon="-3.189746"><ele>84</ele><time>2024-06-01T09:29:19Z</time><name>PT24</name></trkpt>
<trkpt lat="54.603167" lon="-3.189792"><ele>85</ele><time>2024-06-01T09:29:22Z</time><name>PT25</name></trkpt>
<trkpt lat="54.603143" lon="-3.189842"><ele>84</ele><time>2024-06-01T09:29:25Z</time><name>PT26</name></trkpt>
<trkpt lat="54.603101" lon="-3.189915"><ele>85</ele><time>2024-06-01T09:29:29Z</time><name>PT27</name></trkpt>
<trkpt lat="54.603073" lon="-3.189970"><ele>83</ele><time>2024-06-01T09:29:33Z</time><name>PT28</name></trkpt>
<trkpt lat="54.603044" lon="-3.190025"><ele>84</ele><time>2024-06-01T09:29:36Z</time><name>PT29</name></trkpt>
<trkpt lat="54.603024" lon="-3.190062"><ele>84</ele><time>2024-06-01T09:29:40Z</time><name>PT30</name></trkpt>
<trkpt lat="54.602997" lon="-3.190112"><ele>82</ele><time>2024-06-01T09:29:44Z</time><name>PT31</name></trkpt>
<trkpt lat="54.602974" lon="-3.190171"><ele>83</ele><time>2024-06-01T09:29:47Z</time><name>PT32</name></trkpt>
<trkpt lat="54.602954" lon="-3.190237"><ele>84</ele><time>2024-06-01T09:29:51Z</time><name>PT33</name></trkpt>
<trkpt lat="54.602938" lon="-3.190310"><ele>84</ele><time>2024-06-01T09:29:55Z</time><name>PT34</name></trkpt>
<trkpt lat="54.602919" lon="-3.190352"><ele>84</ele><time>2024-06-01T09:29:58Z</time><name>PT35</name></trkpt>
<trkpt lat="54.602888" lon="-3.190443"><ele>86</ele><time>2024-06-01T09:30:02Z</time><name>PT36</name></trkpt>
<trkpt lat="54.602858" lon="-3.190486"><ele>87</ele><time>2024-06-01T09:30:05Z</time><name>PT37</name></trkpt>
<trkpt lat="54.602832" lon="-3.190546"><ele>88</ele><time>2024-06-01T09:30:08Z</time><name>PT38</name></trkpt>
<trkpt lat="54.602802" lon="-3.190605"><ele>88</ele><time>2024-06-01T09:30:12Z</time><name>PT39</name></trkpt>
<trkpt lat="54.602777" lon="-3.190651"><ele>89</ele><time>2024-06-01T09:30:15Z</time><name>PT40</name></trkpt>
<trkpt lat="54.602745" lon="-3.190711"><ele>88</ele><time>2024-06-01T09:30:19Z</time><name>PT41</name></trkpt>
<trkpt lat="54.602713" lon="-3.190785"><ele>88</ele><time>2024-06-01T09:30:23Z</time><name>PT42</name></trkpt>
<trkpt lat="54.602678" lon="-3.190861"><ele>88</ele><time>2024-06-01T09:30:27Z</time><name>PT43</name></trkpt>
<trkpt lat="54.602653" lon="-3.190903"><ele>88</ele><time>2024-06-01T09:30:30Z</time><name>PT44</name></trkpt>
<trkpt lat="54.602629" lon="-3.190951"><ele>86</ele><time>2024-06-01T09:30:33Z</time><name>PT45</name></trkpt>
<trkpt lat="54.602608" lon="-3.190991"><ele>86</ele><time>2024-06-01T09:30:36Z</time><name>PT46</name></trkpt>
<trkpt lat="54.602576" lon="-3.191020"><ele>88</ele><time>2024-06-01T09:30:39Z</time><name>PT47</name></trkpt>
<trkpt lat="54.602536" lon="-3.191057"><ele>89</ele><time>2024-06-01T09:30:43Z</time><name>PT48</name></trkpt>
<trkpt lat="54.602510" lon="-3.191104"><ele>89</ele><time>2024-06-01T09:30:46Z</time><name>PT49</name></trkpt>
<trkpt lat="54.602485" lon="-3.191139"><ele>88</ele><time>2024-06-01T09:30:49Z</time><name>PT50</name></trkpt>
<trkpt lat="54.602459" lon="-3.191202"><ele>88</ele><time>2024-06-01T09:30:53Z</time><name>PT51</name></trkpt>
<trkpt lat="54.602445" lon="-3.191269"><ele>88</ele><time>2024-06-01T09:30:57Z</time><name>PT52</name></trkpt>
<trkpt lat="54.602442" lon="-3.191297"><ele>87</ele><time>2024-06-01T09:31:00Z</time><name>PT53</name></trkpt>
<trkpt lat="54.602444" lon="-3.191318"><ele>87</ele><time>2024-06-01T09:31:03Z</time><name>PT54</name></trkpt>
<trkpt lat="54.602442" lon="-3.191319"><ele>87</ele><time>2024-06-01T09:31:06Z</time><name>PT55</name></trkpt>
<trkpt lat="54.602441" lon="-3.191312"><ele>87</ele><time>2024-06-01T09:31:24Z</time><name>PT56</name></trkpt>
<trkpt lat="54.602442" lon="-3.191305"><ele>88</ele><time>2024-06-01T09:31:27Z</time><name>PT57</name></trkpt>
<trkpt lat="54.602437" lon="-3.191311"><ele>88</ele><time>2024-06-01T09:31:31Z</time><name>PT58</name></trkpt>
<trkpt lat="54.602437" lon="-3.191310"><ele>88</ele><time>2024-06-01T09:31:53Z</time><name>PT59</name></trkpt>
<trkpt lat="54.602438" lon="-3.191324"><ele>88</ele><time>2024-06-01T09:32:13Z</time><name>PT60</name></trkpt>
<trkpt lat="54.602441" lon="-3.191327"><ele>88</ele><time>2024-06-01T09:32:16Z</time><name>PT61</name></trkpt>
<trkpt lat="54.602439" lon="-3.191333"><ele>89</ele><time>2024-06-01T09:32:19Z</time><name>PT62</name></trkpt>
<trkpt lat="54.602440" lon="-3.191331"><ele>89</ele><time>2024-06-01T09:32:22Z</time><name>PT63</name></trkpt>
<trkpt lat="54.602441" lon="-3.191335"><ele>89</ele><time>2024-06-01T09:32:29Z</time><name>PT64</name></trkpt>
<trkpt lat="54.602442" lon="-3.191350"><ele>89</ele><time>2024-06-01T09:32:50Z</time><name>PT65</name></trkpt>
<trkpt lat="54.602444" lon="-3.191449"><ele>90</ele><time>2024-06-01T09:32:54Z</time><name>PT66</name></trkpt>
<trkpt lat="54.602431" lon="-3.191515"><ele>90</ele><time>2024-06-01T09:32:58Z</time><name>PT67</name></trkpt>
<trkpt lat="54.602422" lon="-3.191590"><ele>91</ele><time>2024-06-01T09:33:01Z</time><name>PT68</name></trkpt>
<trkpt lat="54.602412" lon="-3.191657"><ele>89</ele><time>2024-06-01T09:33:05Z</time><name>PT69</name></trkpt>
<trkpt lat="54.602416" lon="-3.191754"><ele>88</ele><time>2024-06-01T09:33:09Z</time><name>PT70</name></trkpt>
<trkpt lat="54.602413" lon="-3.191838"><ele>88</ele><time>2024-06-01T09:33:12Z</time><name>PT71</name></trkpt>
<trkpt lat="54.602428" lon="-3.191926"><ele>89</ele><time>2024-06-01T09:33:16Z</time><name>PT72</name></trkpt>
<trkpt lat="54.602431" lon="-3.191997"><ele>87</ele><time>2024-06-01T09:33:20Z</time><name>PT73</name></trkpt>
<trkpt lat="54.602429" lon="-3.192077"><ele>86</ele><time>2024-06-01T09:33:23Z</time><name>PT74</name></trkpt>
<trkpt lat="54.602425" lon="-3.192134"><ele>86</ele><time>2024-06-01T09:33:27Z</time><name>PT75</name></trkpt>
<trkpt lat="54.602406" lon="-3.192206"><ele>83</ele><time>2024-06-01T09:33:31Z</time><name>PT76</name></trkpt>
<trkpt lat="54.602382" lon="-3.192248"><ele>83</ele><time>2024-06-01T09:33:34Z</time><name>PT77</name></trkpt>
<trkpt lat="54.602339" lon="-3.192297"><ele>82</ele><time>2024-06-01T09:33:37Z</time><name>PT78</name></trkpt>
<trkpt lat="54.602278" lon="-3.192354"><ele>83</ele><time>2024-06-01T09:33:41Z</time><name>PT79</name></trkpt>
<trkpt lat="54.602244" lon="-3.192388"><ele>84</ele><time>2024-06-01T09:33:44Z</time><name>PT80</name></trkpt>
<trkpt lat="54.602177" lon="-3.192445"><ele>85</ele><time>2024-06-01T09:33:48Z</time><name>PT81</name></trkpt>
<trkpt lat="54.602131" lon="-3.192512"><ele>84</ele><time>2024-06-01T09:33:52Z</time><name>PT82</name></trkpt>
<trkpt lat="54.602093" lon="-3.192548"><ele>83</ele><time>2024-06-01T09:33:55Z</time><name>PT83</name></trkpt>
<trkpt lat="54.602047" lon="-3.192607"><ele>85</ele><time>2024-06-01T09:33:59Z</time><name>PT84</name></trkpt>
<trkpt lat="54.602027" lon="-3.192653"><ele>84</ele><time>2024-06-01T09:34:02Z</time><name>PT85</name></trkpt>
<trkpt lat="54.601988" lon="-3.192732"><ele>86</ele><time>2024-06-01T09:34:06Z</time><name>PT86</name></trkpt>
<trkpt lat="54.601975" lon="-3.192843"><ele>87</ele><time>2024-06-01T09:34:10Z</time><name>PT87</name></trkpt>
<trkpt lat="54.601966" lon="-3.192893"><ele>88</ele><time>2024-06-01T09:34:13Z</time><name>PT88</name></trkpt>
<trkpt lat="54.601959" lon="-3.192937"><ele>87</ele><time>2024-06-01T09:34:16Z</time><name>PT89</name></trkpt>
<trkpt lat="54.601969" lon="-3.192986"><ele>87</ele><time>2024-06-01T09:34:19Z</time><name>PT90</name></trkpt>
<trkpt lat="54.601985" lon="-3.193047"><ele>86</ele><time>2024-06-01T09:34:23Z</time><name>PT91</name></trkpt>
<trkpt lat="54.601991" lon="-3.193116"><ele>87</ele><time>2024-06-01T09:34:27Z</time><name>PT92</name></trkpt>
<trkpt lat="54.601998" lon="-3.193159"><ele>87</ele><time>2024-06-01T09:34:30Z</time><name>PT93</name></trkpt>
<trkpt lat="54.601997" lon="-3.193213"><ele>87</ele><time>2024-06-01T09:34:34Z</time><name>PT94</name></trkpt>
<trkpt lat="54.601997" lon="-3.193228"><ele>87</ele><time>2024-06-01T09:34:37Z</time><name>PT95</name></trkpt>
<trkpt lat="54.602008" lon="-3.193244"><ele>88</ele><time>2024-06-01T09:34:40Z</time><name>PT96</name></trkpt>
<trkpt lat="54.602018" lon="-3.193296"><ele>88</ele><time>2024-06-01T09:34:44Z</time><name>PT97</name></trkpt>
<trkpt lat="54.602015" lon="-3.193365"><ele>90</ele><time>2024-06-01T09:34:48Z</time><name>PT98</name></trkpt>
<trkpt lat="54.602015" lon="-3.193427"><ele>89</ele><time>2024-06-01T09:34:51Z</time><name>PT99</name></trkpt>
<trkpt lat="54.602043" lon="-3.193481"><ele>90</ele><time>2024-06-01T09:34:55Z</time><name>PT100</name></trkpt>
<trkpt lat="54.602046" lon="-3.193568"><ele>89</ele><time>2024-06-01T09:34:59Z</time><name>PT101</name></trkpt>
<trkpt lat="54.602052" lon="-3.193644"><ele>90</ele><time>2024-06-01T09:35:03Z</time><name>PT102</name></trkpt>
<trkpt lat="54.602086" lon="-3.193731"><ele>88</ele><time>2024-06-01T09:35:07Z</time><name>PT103</name></trkpt>
<trkpt lat="54.602091" lon="-3.193811"><ele>85</ele><time>2024-06-01T09:35:11Z</time><name>PT104</name></trkpt>
<trkpt lat="54.602111" lon="-3.193887"><ele>81</ele><time>2024-06-01T09:35:15Z</time><name>PT105</name></trkpt>
<trkpt lat="54.602088" lon="-3.193963"><ele>80</ele><time>2024-06-01T09:35:18Z</time><name>PT106</name></trkpt>
<trkpt lat="54.602110" lon="-3.194058"><ele>82</ele><time>2024-06-01T09:35:22Z</time><name>PT107</name></trkpt>
<trkpt lat="54.602131" lon="-3.194107"><ele>79</ele><time>2024-06-01T09:35:25Z</time><name>PT108</name></trkpt>
<trkpt lat="54.602152" lon="-3.194165"><ele>76</ele><time>2024-06-01T09:35:28Z</time><name>PT109</name></trkpt>
<trkpt lat="54.602157" lon="-3.194226"><ele>74</ele><time>2024-06-01T09:35:31Z</time><name>PT110</name></trkpt>
<trkpt lat="54.602152" lon="-3.194309"><ele>74</ele><time>2024-06-01T09:35:35Z</time><name>PT111</name></trkpt>
<trkpt lat="54.602142" lon="-3.194410"><ele>75</ele><time>2024-06-01T09:35:39Z</time><name>PT112</name></trkpt>
<trkpt lat="54.602129" lon="-3.194490"><ele>77</ele><time>2024-06-01T09:35:43Z</time><name>PT113</name></trkpt>
<trkpt lat="54.602111" lon="-3.194562"><ele>79</ele><time>2024-06-01T09:35:47Z</time><name>PT114</name></trkpt>
<trkpt lat="54.602091" lon="-3.194642"><ele>79</ele><time>2024-06-01T09:35:51Z</time><name>PT115</name></trkpt>
<trkpt lat="54.602054" lon="-3.194719"><ele>82</ele><time>2024-06-01T09:35:54Z</time><name>PT116</name></trkpt>
<trkpt lat="54.602023" lon="-3.194782"><ele>85</ele><time>2024-06-01T09:35:58Z</time><name>PT117</name></trkpt>
<trkpt lat="54.602017" lon="-3.194870"><ele>84</ele><time>2024-06-01T09:36:02Z</time><name>PT118</name></trkpt>
<trkpt lat="54.601992" lon="-3.195008"><ele>89</ele><time>2024-06-01T09:36:06Z</time><name>PT119</name></trkpt>
<trkpt lat="54.601977" lon="-3.195065"><ele>89</ele><time>2024-06-01T09:36:09Z</time><name>PT120</name></trkpt>
<trkpt lat="54.601933" lon="-3.195181"><ele>95</ele><time>2024-06-01T09:36:13Z</time><name>PT121</name></trkpt>
<trkpt lat="54.601893" lon="-3.195275"><ele>99</ele><time>2024-06-01T09:36:17Z</time><name>PT122</name></trkpt>
<trkpt lat="54.601870" lon="-3.195370"><ele>101</ele><time>2024-06-01T09:36:21Z</time><name>PT123</name></trkpt>
<trkpt lat="54.601847" lon="-3.195436"><ele>105</ele><time>2024-06-01T09:36:25Z</time><name>PT124</name></trkpt>
<trkpt lat="54.601833" lon="-3.195499"><ele>106</ele><time>2024-06-01T09:36:28Z</time><name>PT125</name></trkpt>
<trkpt lat="54.601830" lon="-3.195562"><ele>109</ele><time>2024-06-01T09:36:32Z</time><name>PT126</name></trkpt>
<trkpt lat="54.601825" lon="-3.195605"><ele>112</ele><time>2024-06-01T09:36:35Z</time><name>PT127</name></trkpt>
<trkpt lat="54.601824" lon="-3.195665"><ele>117</ele><time>2024-06-01T09:36:39Z</time><name>PT128</name></trkpt>
<trkpt lat="54.601813" lon="-3.195711"><ele>119</ele><time>2024-06-01T09:36:42Z</time><name>PT129</name></trkpt>
<trkpt lat="54.601821" lon="-3.195768"><ele>120</ele><time>2024-06-01T09:36:45Z</time><name>PT130</name></trkpt>
<trkpt lat="54.601830" lon="-3.195815"><ele>118</ele><time>2024-06-01T09:36:48Z</time><name>PT131</name></trkpt>
<trkpt lat="54.601820" lon="-3.195890"><ele>118</ele><time>2024-06-01T09:36:51Z</time><name>PT132</name></trkpt>
<trkpt lat="54.601828" lon="-3.195963"><ele>116</ele><time>2024-06-01T09:36:54Z</time><name>PT133</name></trkpt>
<trkpt lat="54.601837" lon="-3.196016"><ele>114</ele><time>2024-06-01T09:36:57Z</time><name>PT134</name></trkpt>
<trkpt lat="54.601836" lon="-3.196096"><ele>114</ele><time>2024-06-01T09:37:01Z</time><name>PT135</name></trkpt>
<trkpt lat="54.601850" lon="-3.196152"><ele>115</ele><time>2024-06-01T09:37:04Z</time><name>PT136</name></trkpt>
<trkpt lat="54.601858" lon="-3.196207"><ele>114</ele><time>2024-06-01T09:37:08Z</time><name>PT137</name></trkpt>
<trkpt lat="54.601874" lon="-3.196265"><ele>114</ele><time>2024-06-01T09:37:11Z</time><name>PT138</name></trkpt>
<trkpt lat="54.601893" lon="-3.196323"><ele>114</ele><time>2024-06-01T09:37:15Z</time><name>PT139</name></trkpt>
<trkpt lat="54.601912" lon="-3.196379"><ele>115</ele><time>2024-06-01T09:37:19Z</time><name>PT140</name></trkpt>
<trkpt lat="54.601923" lon="-3.196412"><ele>116</ele><time>2024-06-01T09:37:22Z</time><name>PT141</name></trkpt>
<trkpt lat="54.601935" lon="-3.196457"><ele>115</ele><time>2024-06-01T09:37:25Z</time><name>PT142</name></trkpt>
<trkpt lat="54.601953" lon="-3.196495"><ele>115</ele><time>2024-06-01T09:37:29Z</time><name>PT143</name></trkpt>
<trkpt lat="54.601976" lon="-3.196530"><ele>115</ele><time>2024-06-01T09:37:33Z</time><name>PT144</name></trkpt>
<trkpt lat="54.601992" lon="-3.196571"><ele>114</ele><time>2024-06-01T09:37:36Z</time><name>PT145</name></trkpt>
<trkpt lat="54.602032" lon="-3.196609"><ele>114</ele><time>2024-06-01T09:37:39Z</time><name>PT146</name></trkpt>
<trkpt lat="54.602054" lon="-3.196645"><ele>114</ele><time>2024-06-01T09:37:43Z</time><name>PT147</name></trkpt>
<trkpt lat="54.602076" lon="-3.196662"><ele>113</ele><time>2024-06-01T09:37:46Z</time><name>PT148</name></trkpt>
<trkpt lat="54.602102" lon="-3.196677"><ele>112</ele><time>2024-06-01T09:37:49Z</time><name>PT149</name></trkpt>
<trkpt lat="54.602143" lon="-3.196724"><ele>114</ele><time>2024-06-01T09:37:53Z</time><name>PT150</name></trkpt>
<trkpt lat="54.602172" lon="-3.196739"><ele>117</ele><time>2024-06-01T09:37:56Z</time><name>PT151</name></trkpt>
<trkpt lat="54.602197" lon="-3.196761"><ele>118</ele><time>2024-06-01T09:37:59Z</time><name>PT152</name></trkpt>
<trkpt lat="54.602237" lon="-3.196792"><ele>118</ele><time>2024-06-01T09:38:02Z</time><name>PT153</name></trkpt>
<trkpt lat="54.602274" lon="-3.196820"><ele>120</ele><time>2024-06-01T09:38:06Z</time><name>PT154</name></trkpt>
<trkpt lat="54.602323" lon="-3.196847"><ele>120</ele><time>2024-06-01T09:38:10Z</time><name>PT155</name></trkpt>
<trkpt lat="54.602359" lon="-3.196888"><ele>120</ele><time>2024-06-01T09:38:14Z</time><name>PT156</name></trkpt>
<trkpt lat="54.602395" lon="-3.196904"><ele>121</ele><time>2024-06-01T09:38:17Z</time><name>PT157</name></trkpt>
<trkpt lat="54.602428" lon="-3.196928"><ele>121</ele><time>2024-06-01T09:38:20Z</time><name>PT158</name></trkpt>
<trkpt lat="54.602460" lon="-3.196980"><ele>119</ele><time>2024-06-01T09:38:24Z</time><name>PT159</name></trkpt>
<trkpt lat="54.602494" lon="-3.197000"><ele>121</ele><time>2024-06-01T09:38:27Z</time><name>PT160</name></trkpt>
<trkpt lat="54.602531" lon="-3.197053"><ele>120</ele><time>2024-06-01T09:38:31Z</time><name>PT161</name></trkpt>
<trkpt lat="54.602574" lon="-3.197077"><ele>121</ele><time>2024-06-01T09:38:35Z</time><name>PT162</name></trkpt>
<trkpt lat="54.602597" lon="-3.197096"><ele>122</ele><time>2024-06-01T09:38:38Z</time><name>PT163</name></trkpt>
<trkpt lat="54.602636" lon="-3.197149"><ele>122</ele><time>2024-06-01T09:38:42Z</time><name>PT164</name></trkpt>
<trkpt lat="54.602665" lon="-3.197165"><ele>124</ele><time>2024-06-01T09:38:45Z</time><name>PT165</name></trkpt>
<trkpt lat="54.602703" lon="-3.197184"><ele>122</ele><time>2024-06-01T09:38:49Z</time><name>PT166</name></trkpt>
<trkpt lat="54.602752" lon="-3.197225"><ele>122</ele><time>2024-06-01T09:38:53Z</time><name>PT167</name></trkpt>
<trkpt lat="54.602788" lon="-3.197266"><ele>121</ele><time>2024-06-01T09:38:57Z</time><name>PT168</name></trkpt>
<trkpt lat="54.602830" lon="-3.197287"><ele>122</ele><time>2024-06-01T09:39:01Z</time><name>PT169</name></trkpt>
<trkpt lat="54.602856" lon="-3.197310"><ele>123</ele><time>2024-06-01T09:39:04Z</time><name>PT170</name></trkpt>
<trkpt lat="54.602904" lon="-3.197355"><ele>125</ele><time>2024-06-01T09:39:08Z</time><name>PT171</name></trkpt>
<trkpt lat="54.602938" lon="-3.197383"><ele>128</ele><time>2024-06-01T09:39:12Z</time><name>PT172</name></trkpt>
<trkpt lat="54.602958" lon="-3.197395"><ele>129</ele><time>2024-06-01T09:39:15Z</time><name>PT173</name></trkpt>
<trkpt lat="54.602993" lon="-3.197418"><ele>130</ele><time>2024-06-01T09:39:18Z</time><name>PT174</name></trkpt>
<trkpt lat="54.603026" lon="-3.197446"><ele>127</ele><time>2024-06-01T09:39:22Z</time><name>PT175</name></trkpt>
<trkpt lat="54.603078" lon="-3.197502"><ele>127</ele><time>2024-06-01T09:39:26Z</time><name>PT176</name></trkpt>
<trkpt lat="54.603101" lon="-3.197528"><ele>127</ele><time>2024-06-01T09:39:29Z</time><name>PT177</name></trkpt>
<trkpt lat="54.603152" lon="-3.197578"><ele>128</ele><time>2024-06-01T09:39:33Z</time><name>PT178</name></trkpt>
<trkpt lat="54.603173" lon="-3.197623"><ele>128</ele><time>2024-06-01T09:39:37Z</time><name>PT179</name></trkpt>
<trkpt lat="54.603185" lon="-3.197677"><ele>128</ele><time>2024-06-01T09:39:41Z</time><name>PT180</name></trkpt>
<trkpt lat="54.603194" lon="-3.197694"><ele>129</ele><time>2024-06-01T09:39:44Z</time><name>PT181</name></trkpt>
<trkpt lat="54.603202" lon="-3.197695"><ele>128</ele><time>2024-06-01T09:39:47Z</time><name>PT182</name></trkpt>
<trkpt lat="54.603216" lon="-3.197735"><ele>128</ele><time>2024-06-01T09:39:54Z</time><name>PT183</name></trkpt>
<trkpt lat="54.603243" lon="-3.197756"><ele>128</ele><time>2024-06-01T09:39:57Z</time><name>PT184</name></trkpt>
<trkpt lat="54.603279" lon="-3.197832"><ele>130</ele><time>2024-06-01T09:40:01Z</time><name>PT185</name></trkpt>
<trkpt lat="54.603279" lon="-3.197835"><ele>131</ele><time>2024-06-01T09:40:05Z</time><name>PT186</name></trkpt>
<trkpt lat="54.603278" lon="-3.197834"><ele>133</ele><time>2024-06-01T09:40:08Z</time><name>PT187</name></trkpt>
<trkpt lat="54.603281" lon="-3.197838"><ele>133</ele><time>2024-06-01T09:40:12Z</time><name>PT188</name></trkpt>
<trkpt lat="54.603301" lon="-3.197814"><ele>132</ele><time>2024-06-01T09:40:16Z</time><name>PT189</name></trkpt>
<trkpt lat="54.603340" lon="-3.197816"><ele>133</ele><time>2024-06-01T09:40:20Z</time><name>PT190</name></trkpt>
<trkpt lat="54.603350" lon="-3.197814"><ele>134</ele><time>2024-06-01T09:40:23Z</time><name>PT191</name></trkpt>
<trkpt lat="54.603364" lon="-3.197812"><ele>135</ele><time>2024-06-01T09:40:27Z</time><name>PT192</name></trkpt>
<trkpt lat="54.603367" lon="-3.197833"><ele>136</ele><time>2024-06-01T09:40:30Z</time><name>PT193</name></trkpt>
<trkpt lat="54.603372" lon="-3.197865"><ele>137</ele><time>2024-06-01T09:40:33Z</time><name>PT194</name></trkpt>
<trkpt lat="54.603376" lon="-3.197894"><ele>137</ele><time>2024-06-01T09:40:37Z</time><name>PT195</name></trkpt>
<trkpt lat="54.603374" lon="-3.197897"><ele>138</ele><time>2024-06-01T09:40:41Z</time><name>PT196</name></trkpt>
<trkpt lat="54.603373" lon="-3.197901"><ele>139</ele><time>2024-06-01T09:40:45Z</time><name>PT197</name></trkpt>
<trkpt lat="54.603378" lon="-3.197899"><ele>141</ele><time>2024-06-01T09:40:48Z</time><name>PT198</name></trkpt>
<trkpt lat="54.603378" lon="-3.197896"><ele>142</ele><time>2024-06-01T09:40:51Z</time><name>PT199</name></trkpt>
<trkpt lat="54.603387" lon="-3.197907"><ele>143</ele><time>2024-06-01T09:40:55Z</time><name>PT200</name></trkpt>
<trkpt lat="54.603410" lon="-3.197906"><ele>144</ele><time>2024-06-01T09:40:59Z</time><name>PT201</name></trkpt>
<trkpt lat="54.603440" lon="-3.197929"><ele>143</ele><time>2024-06-01T09:41:03Z</time><name>PT202</name></trkpt>
<trkpt lat="54.603458" lon="-3.197959"><ele>142</ele><time>2024-06-01T09:41:06Z</time><name>PT203</name></trkpt>
<trkpt lat="54.603473" lon="-3.197991"><ele>143</ele><time>2024-06-01T09:41:09Z</time><name>PT204</name></trkpt>
<trkpt lat="54.603491" lon="-3.198037"><ele>144</ele><time>2024-06-01T09:41:12Z</time><name>PT205</name></trkpt>
<trkpt lat="54.603516" lon="-3.198065"><ele>144</ele><time>2024-06-01T09:41:16Z</time><name>PT206</name></trkpt>
<trkpt lat="54.603545" lon="-3.198135"><ele>144</ele><time>2024-06-01T09:41:20Z</time><name>PT207</name></trkpt>
<trkpt lat="54.603570" lon="-3.198169"><ele>144</ele><time>2024-06-01T09:41:23Z</time><name>PT208</name></trkpt>
<trkpt lat="54.603585" lon="-3.198193"><ele>144</ele><time>2024-06-01T09:41:26Z</time><name>PT209</name></trkpt>
<trkpt lat="54.603606" lon="-3.198215"><ele>143</ele><time>2024-06-01T09:41:29Z</time><name>PT210</name></trkpt>
<trkpt lat="54.603628" lon="-3.198222"><ele>145</ele><time>2024-06-01T09:41:33Z</time><name>PT211</name></trkpt>
<trkpt lat="54.603648" lon="-3.198234"><ele>146</ele><time>2024-06-01T09:41:36Z</time><name>PT212</name></trkpt>
<trkpt lat="54.603679" lon="-3.198272"><ele>147</ele><time>2024-06-01T09:41:40Z</time><name>PT213</name></trkpt>
<trkpt lat="54.603689" lon="-3.198297"><ele>149</ele><time>2024-06-01T09:41:43Z</time><name>PT214</name></trkpt>
<trkpt lat="54.603715" lon="-3.198319"><ele>150</ele><time>2024-06-01T09:41:47Z</time><name>PT215</name></trkpt>
<trkpt lat="54.603732" lon="-3.198345"><ele>150</ele><time>2024-06-01T09:41:50Z</time><name>PT216</name></trkpt>
<trkpt lat="54.603749" lon="-3.198389"><ele>151</ele><time>2024-06-01T09:41:54Z</time><name>PT217</name></trkpt>
<trkpt lat="54.603771" lon="-3.198411"><ele>152</ele><time>2024-06-01T09:41:57Z</time><name>PT218</name></trkpt>
<trkpt lat="54.603794" lon="-3.198462"><ele>152</ele><time>2024-06-01T09:42:01Z</time><name>PT219</name></trkpt>
<trkpt lat="54.603805" lon="-3.198477"><ele>154</ele><time>2024-06-01T09:42:04Z</time><name>PT220</name></trkpt>
<trkpt lat="54.603819" lon="-3.198503"><ele>156</ele><time>2024-06-01T09:42:08Z</time><name>PT221</name></trkpt>
<trkpt lat="54.603832" lon="-3.198522"><ele>157</ele><time>2024-06-01T09:42:11Z</time><name>PT222</name></trkpt>
<trkpt lat="54.603849" lon="-3.198551"><ele>158</ele><time>2024-06-01T09:42:14Z</time><name>PT223</name></trkpt>
<trkpt lat="54.603869" lon="-3.198569"><ele>158</ele><time>2024-06-01T09:42:18Z</time><name>PT224</name></trkpt>
<trkpt lat="54.603887" lon="-3.198563"><ele>155</ele><time>2024-06-01T09:42:21Z</time><name>PT225</name></trkpt>
<trkpt lat="54.603905" lon="-3.198599"><ele>155</ele><time>2024-06-01T09:42:24Z</time><name>PT226</name></trkpt>
<trkpt lat="54.603922" lon="-3.198629"><ele>155</ele><time>2024-06-01T09:42:27Z</time><name>PT227</name></trkpt>
<trkpt lat="54.603941" lon="-3.198666"><ele>155</ele><time>2024-06-01T09:42:31Z</time><name>PT228</name></trkpt>
<trkpt lat="54.603959" lon="-3.198669"><ele>156</ele><time>2024-06-01T09:42:34Z</time><name>PT229</name></trkpt>
<trkpt lat="54.603993" lon="-3.198713"><ele>156</ele><time>2024-06-01T09:42:38Z</time><name>PT230</name></trkpt>
<trkpt lat="54.603998" lon="-3.198750"><ele>155</ele><time>2024-06-01T09:42:42Z</time><name>PT231</name></trkpt>
<trkpt lat="54.604039" lon="-3.198762"><ele>156</ele><time>2024-06-01T09:42:46Z</time><name>PT232</name></trkpt>
<trkpt lat="54.604057" lon="-3.198776"><ele>159</ele><time>2024-06-01T09:42:49Z</time><name>PT233</name></trkpt>
<trkpt lat="54.604076" lon="-3.198791"><ele>160</ele><time>2024-06-01T09:42:52Z</time><name>PT234</name></trkpt>
<trkpt lat="54.604101" lon="-3.198822"><ele>164</ele><time>2024-06-01T09:42:56Z</time><name>PT235</name></trkpt>
<trkpt lat="54.604118" lon="-3.198830"><ele>165</ele><time>2024-06-01T09:42:59Z</time><name>PT236</name></trkpt>
<trkpt lat="54.604137" lon="-3.198841"><ele>167</ele><time>2024-06-01T09:43:02Z</time><name>PT237</name></trkpt>
<trkpt lat="54.604154" lon="-3.198852"><ele>169</ele><time>2024-06-01T09:43:05Z</time><name>PT238</name></trkpt>
<trkpt lat="54.604181" lon="-3.198872"><ele>170</ele><time>2024-06-01T09:43:09Z</time><name>PT239</name></trkpt>
<trkpt lat="54.604197" lon="-3.198897"><ele>171</ele><time>2024-06-01T09:43:12Z</time><name>PT240</name></trkpt>
<trkpt lat="54.604219" lon="-3.198926"><ele>172</ele><time>2024-06-01T09:43:16Z</time><name>PT241</name></trkpt>
<trkpt lat="54.604248" lon="-3.198947"><ele>173</ele><time>2024-06-01T09:43:20Z</time><name>PT242</name></trkpt>
<trkpt lat="54.604271" lon="-3.198967"><ele>174</ele><time>2024-06-01T09:43:23Z</time><name>PT243</name></trkpt>
<trkpt lat="54.604303" lon="-3.198985"><ele>174</ele><time>2024-06-01T09:43:27Z</time><name>PT244</name></trkpt>
<trkpt lat="54.604323" lon="-3.199002"><ele>175</ele><time>2024-06-01T09:43:30Z</time><name>PT245</name></trkpt>
<trkpt lat="54.604347" lon="-3.199021"><ele>175</ele><time>2024-06-01T09:43:34Z</time><name>PT246</name></trkpt>
<trkpt lat="54.604363" lon="-3.199051"><ele>175</ele><time>2024-06-01T09:43:37Z</time><name>PT247</name></trkpt>
<trkpt lat="54.604398" lon="-3.199068"><ele>174</ele><time>2024-06-01T09:43:41Z</time><name>PT248</name></trkpt>
<trkpt lat="54.604429" lon="-3.199095"><ele>174</ele><time>2024-06-01T09:43:45Z</time><name>PT249</name></trkpt>
<trkpt lat="54.604457" lon="-3.199110"><ele>175</ele><time>2024-06-01T09:43:48Z</time><name>PT250</name></trkpt>
<trkpt lat="54.604472" lon="-3.199141"><ele>175</ele><time>2024-06-01T09:43:51Z</time><name>PT251</name></trkpt>
<trkpt lat="54.604487" lon="-3.199164"><ele>176</ele><time>2024-06-01T09:43:54Z</time><name>PT252</name></trkpt>
<trkpt lat="54.604496" lon="-3.199214"><ele>176</ele><time>2024-06-01T09:43:57Z</time><name>PT253</name></trkpt>
<trkpt lat="54.604509" lon="-3.199261"><ele>178</ele><time>2024-06-01T09:44:01Z</time><name>PT254</name></trkpt>
<trkpt lat="54.604518" lon="-3.199301"><ele>178</ele><time>2024-06-01T09:44:04Z</time><name>PT255</name></trkpt>
<trkpt lat="54.604532" lon="-3.199347"><ele>180</ele><time>2024-06-01T09:44:07Z</time><name>PT256</name></trkpt>
<trkpt lat="54.604543" lon="-3.199375"><ele>182</ele><time>2024-06-01T09:44:10Z</time><name>PT257</name></trkpt>
<trkpt lat="54.604549" lon="-3.199416"><ele>182</ele><time>2024-06-01T09:44:14Z</time><name>PT258</name></trkpt>
<trkpt lat="54.604552" lon="-3.199451"><ele>182</ele><time>2024-06-01T09:44:17Z</time><name>PT259</name></trkpt>
<trkpt lat="54.604569" lon="-3.199481"><ele>182</ele><time>2024-06-01T09:44:20Z</time><name>PT260</name></trkpt>
<trkpt lat="54.604596" lon="-3.199519"><ele>183</ele><time>2024-06-01T09:44:24Z</time><name>PT261</name></trkpt>
<trkpt lat="54.604613" lon="-3.199544"><ele>185</ele><time>2024-06-01T09:44:27Z</time><name>PT262</name></trkpt>
<trkpt lat="54.604625" lon="-3.199573"><ele>185</ele><time>2024-06-01T09:44:31Z</time><name>PT263</name></trkpt>
<trkpt lat="54.604628" lon="-3.199578"><ele>185</ele><time>2024-06-01T09:44:34Z</time><name>PT264</name></trkpt>
<trkpt lat="54.604633" lon="-3.199611"><ele>186</ele><time>2024-06-01T09:44:59Z</time><name>PT265</name></trkpt>
<trkpt lat="54.604632" lon="-3.199625"><ele>186</ele><time>2024-06-01T09:45:03Z</time><name>PT266</name></trkpt>
<trkpt lat="54.604628" lon="-3.199641"><ele>187</ele><time>2024-06-01T09:45:12Z</time><name>PT267</name></trkpt>
<trkpt lat="54.604612" lon="-3.199676"><ele>188</ele><time>2024-06-01T09:45:16Z</time><name>PT268</name></trkpt>
<trkpt lat="54.604598" lon="-3.199703"><ele>188</ele><time>2024-06-01T09:45:19Z</time><name>PT269</name></trkpt>
<trkpt lat="54.604576" lon="-3.199743"><ele>189</ele><time>2024-06-01T09:45:23Z</time><name>PT270</name></trkpt>
<trkpt lat="54.604563" lon="-3.199803"><ele>190</ele><time>2024-06-01T09:45:27Z</time><name>PT271</name></trkpt>
<trkpt lat="54.604561" lon="-3.199860"><ele>193</ele><time>2024-06-01T09:45:31Z</time><name>PT272</name></trkpt>
<trkpt lat="54.604553" lon="-3.199897"><ele>194</ele><time>2024-06-01T09:45:34Z</time><name>PT273</name></trkpt>
<trkpt lat="54.604543" lon="-3.199945"><ele>193</ele><time>2024-06-01T09:45:38Z</time><name>PT274</name></trkpt>
<trkpt lat="54.604536" lon="-3.199978"><ele>195</ele><time>2024-06-01T09:45:41Z</time><name>PT275</name></trkpt>
<trkpt lat="54.604520" lon="-3.200020"><ele>195</ele><time>2024-06-01T09:45:44Z</time><name>PT276</name></trkpt>
<trkpt lat="54.604505" lon="-3.200055"><ele>197</ele><time>2024-06-01T09:45:48Z</time><name>PT277</name></trkpt>
<trkpt lat="54.604483" lon="-3.200066"><ele>196</ele><time>2024-06-01T09:45:52Z</time><name>PT278</name></trkpt>
<trkpt lat="54.604457" lon="-3.200084"><ele>195</ele><time>2024-06-01T09:45:56Z</time><name>PT279</name></trkpt>
<trkpt lat="54.604439" lon="-3.200101"><ele>197</ele><time>2024-06-01T09:45:59Z</time><name>PT280</name></trkpt>
<trkpt lat="54.604426" lon="-3.200110"><ele>199</ele><time>2024-06-01T09:46:03Z</time><name>PT281</name></trkpt>
<trkpt lat="54.604404" lon="-3.200117"><ele>202</ele><time>2024-06-01T09:46:07Z</time><name>PT282</name></trkpt>
<trkpt lat="54.604382" lon="-3.200107"><ele>203</ele><time>2024-06-01T09:46:11Z</time><name>PT283</name></trkpt>
<trkpt lat="54.604365" lon="-3.200107"><ele>204</ele><time>2024-06-01T09:46:14Z</time><name>PT284</name></trkpt>
<trkpt lat="54.604337" lon="-3.200121"><ele>205</ele><time>2024-06-01T09:46:18Z</time><name>PT285</name></trkpt>
<trkpt lat="54.604301" lon="-3.200141"><ele>205</ele><time>2024-06-01T09:46:22Z</time><name>PT286</name></trkpt>
<trkpt lat="54.604289" lon="-3.200153"><ele>206</ele><time>2024-06-01T09:46:25Z</time><name>PT287</name></trkpt>
<trkpt lat="54.604263" lon="-3.200173"><ele>206</ele><time>2024-06-01T09:46:28Z</time><name>PT288</name></trkpt>
<trkpt lat="54.604235" lon="-3.200193"><ele>207</ele><time>2024-06-01T09:46:32Z</time><name>PT289</name></trkpt>
<trkpt lat="54.604213" lon="-3.200199"><ele>208</ele><time>2024-06-01T09:46:35Z</time><name>PT290</name></trkpt>
<trkpt lat="54.604187" lon="-3.200235"><ele>207</ele><time>2024-06-01T09:46:39Z</time><name>PT291</name></trkpt>
<trkpt lat="54.604161" lon="-3.200256"><ele>208</ele><time>2024-06-01T09:46:43Z</time><name>PT292</name></trkpt>
<trkpt lat="54.604138" lon="-3.200257"><ele>209</ele><time>2024-06-01T09:46:47Z</time><name>PT293</name></trkpt>
<trkpt lat="54.604111" lon="-3.200273"><ele>211</ele><time>2024-06-01T09:46:51Z</time><name>PT294</name></trkpt>
<trkpt lat="54.604084" lon="-3.200280"><ele>212</ele><time>2024-06-01T09:46:55Z</time><name>PT295</name></trkpt>
<trkpt lat="54.604051" lon="-3.200291"><ele>211</ele><time>2024-06-01T09:46:59Z</time><name>PT296</name></trkpt>
<trkpt lat="54.604040" lon="-3.200292"><ele>212</ele><time>2024-06-01T09:47:02Z</time><name>PT297</name></trkpt>
<trkpt lat="54.604017" lon="-3.200305"><ele>213</ele><time>2024-06-01T09:47:05Z</time><name>PT298</name></trkpt>
<trkpt lat="54.603991" lon="-3.200297"><ele>213</ele><time>2024-06-01T09:47:08Z</time><name>PT299</name></trkpt>
<trkpt lat="54.603972" lon="-3.200292"><ele>213</ele><time>2024-06-01T09:47:11Z</time><name>PT300</name></trkpt>
<trkpt lat="54.603959" lon="-3.200286"><ele>215</ele><time>2024-06-01T09:47:14Z</time><name>PT301</name></trkpt>
<trkpt lat="54.603933" lon="-3.200280"><ele>215</ele><time>2024-06-01T09:47:17Z</time><name>PT302</name></trkpt>
<trkpt lat="54.603908" lon="-3.200278"><ele>216</ele><time>2024-06-01T09:47:21Z</time><name>PT303</name></trkpt>
<trkpt lat="54.603888" lon="-3.200294"><ele>216</ele><time>2024-06-01T09:47:25Z</time><name>PT304</name></trkpt>
<trkpt lat="54.603868" lon="-3.200321"><ele>217</ele><time>2024-06-01T09:47:29Z</time><name>PT305</name></trkpt>
<trkpt lat="54.603849" lon="-3.200320"><ele>219</ele><time>2024-06-01T09:47:33Z</time><name>PT306</name></trkpt>
<trkpt lat="54.603826" lon="-3.200316"><ele>219</ele><time>2024-06-01T09:47:36Z</time><name>PT307</name></trkpt>
<trkpt lat="54.603807" lon="-3.200305"><ele>219</ele><time>2024-06-01T09:47:39Z</time><name>PT308</name></trkpt>
<trkpt lat="54.603792" lon="-3.200297"><ele>220</ele><time>2024-06-01T09:47:42Z</time><name>PT309</name></trkpt>
<trkpt lat="54.603766" lon="-3.200294"><ele>221</ele><time>2024-06-01T09:47:46Z</time><name>PT310</name></trkpt>
<trkpt lat="54.603737" lon="-3.200292"><ele>222</ele><time>2024-06-01T09:47:50Z</time><name>PT311</name></trkpt>
<trkpt lat="54.603704" lon="-3.200283"><ele>222</ele><time>2024-06-01T09:47:54Z</time><name>PT312</name></trkpt>
<trkpt lat="54.603682" lon="-3.200297"><ele>223</ele><time>2024-06-01T09:47:57Z</time><name>PT313</name></trkpt>
<trkpt lat="54.603663" lon="-3.200319"><ele>224</ele><time>2024-06-01T09:48:01Z</time><name>PT314</name></trkpt>
<trkpt lat="54.603638" lon="-3.200332"><ele>224</ele><time>2024-06-01T09:48:04Z</time><name>PT315</name></trkpt>
<trkpt lat="54.603616" lon="-3.200337"><ele>225</ele><time>2024-06-01T09:48:07Z</time><name>PT316</name></trkpt>
<trkpt lat="54.603579" lon="-3.200342"><ele>226</ele><time>2024-06-01T09:48:11Z</time><name>PT317</name></trkpt>
<trkpt lat="54.603552" lon="-3.200324"><ele>227</ele><time>2024-06-01T09:48:14Z</time><name>PT318</name></trkpt>
<trkpt lat="54.603524" lon="-3.200303"><ele>228</ele><time>2024-06-01T09:48:18Z</time><name>PT319</name></trkpt>
<trkpt lat="54.603504" lon="-3.200292"><ele>228</ele><time>2024-06-01T09:48:21Z</time><name>PT320</name></trkpt>
<trkpt lat="54.603476" lon="-3.200286"><ele>228</ele><time>2024-06-01T09:48:25Z</time><name>PT321</name></trkpt>
<trkpt lat="54.603453" lon="-3.200282"><ele>227</ele><time>2024-06-01T09:48:28Z</time><name>PT322</name></trkpt>
<trkpt lat="54.603420" lon="-3.200279"><ele>226</ele><time>2024-06-01T09:48:32Z</time><name>PT323</name></trkpt>
<trkpt lat="54.603387" lon="-3.200265"><ele>226</ele><time>2024-06-01T09:48:36Z</time><name>PT324</name></trkpt>
<trkpt lat="54.603350" lon="-3.200256"><ele>227</ele><time>2024-06-01T09:48:40Z</time><name>PT325</name></trkpt>
<trkpt lat="54.603319" lon="-3.200249"><ele>227</ele><time>2024-06-01T09:48:43Z</time><name>PT326</name></trkpt>
<trkpt lat="54.603285" lon="-3.200223"><ele>228</ele><time>2024-06-01T09:48:47Z</time><name>PT327</name></trkpt>
<trkpt lat="54.603256" lon="-3.200212"><ele>229</ele><time>2024-06-01T09:48:50Z</time><name>PT328</name></trkpt>
<trkpt lat="54.603220" lon="-3.200204"><ele>229</ele><time>2024-06-01T09:48:54Z</time><name>PT329</name></trkpt>
<trkpt lat="54.603187" lon="-3.200203"><ele>229</ele><time>2024-06-01T09:48:57Z</time><name>PT330</name></trkpt>
<trkpt lat="54.603147" lon="-3.200197"><ele>230</ele><time>2024-06-01T09:49:01Z</time><name>PT331</name></trkpt>
<trkpt lat="54.603112" lon="-3.200195"><ele>231</ele><time>2024-06-01T09:49:05Z</time><name>PT332</name></trkpt>
<trkpt lat="54.603074" lon="-3.200189"><ele>232</ele><time>2024-06-01T09:49:09Z</time><name>PT333</name></trkpt>
<trkpt lat="54.603046" lon="-3.200185"><ele>233</ele><time>2024-06-01T09:49:12Z</time><name>PT334</name></trkpt>
<trkpt lat="54.603005" lon="-3.200185"><ele>233</ele><time>2024-06-01T09:49:16Z</time><name>PT335</name></trkpt>
<trkpt lat="54.602979" lon="-3.200179"><ele>233</ele><time>2024-06-01T09:49:19Z</time><name>PT336</name></trkpt>
<trkpt lat="54.602958" lon="-3.200179"><ele>233</ele><time>2024-06-01T09:49:22Z</time><name>PT337</name></trkpt>
<trkpt lat="54.602947" lon="-3.200184"><ele>233</ele><time>2024-06-01T09:49:26Z</time><name>PT338</name></trkpt>
<trkpt lat="54.602947" lon="-3.200187"><ele>233</ele><time>2024-06-01T09:49:30Z</time><name>PT339</name></trkpt>
<trkpt lat="54.602942" lon="-3.200190"><ele>234</ele><time>2024-06-01T09:50:07Z</time><name>PT340</name></trkpt>
<trkpt lat="54.602936" lon="-3.200191"><ele>234</ele><time>2024-06-01T09:50:11Z</time><name>PT341</name></trkpt>
<trkpt lat="54.602927" lon="-3.200195"><ele>235</ele><time>2024-06-01T09:50:18Z</time><name>PT342</name></trkpt>
<trkpt lat="54.602922" lon="-3.200203"><ele>235</ele><time>2024-06-01T09:50:21Z</time><name>PT343</name></trkpt>
<trkpt lat="54.602908" lon="-3.200197"><ele>235</ele><time>2024-06-01T09:50:31Z</time><name>PT344</name></trkpt>
<trkpt lat="54.602886" lon="-3.200183"><ele>235</ele><time>2024-06-01T09:50:34Z</time><name>PT345</name></trkpt>
<trkpt lat="54.602862" lon="-3.200176"><ele>235</ele><time>2024-06-01T09:50:38Z</time><name>PT346</name></trkpt>
<trkpt lat="54.602831" lon="-3.200168"><ele>235</ele><time>2024-06-01T09:50:42Z</time><name>PT347</name></trkpt>
<trkpt lat="54.602793" lon="-3.200157"><ele>234</ele><time>2024-06-01T09:50:46Z</time><name>PT348</name></trkpt>
<trkpt lat="54.602758" lon="-3.200150"><ele>234</ele><time>2024-06-01T09:50:50Z</time><name>PT349</name></trkpt>
<trkpt lat="54.602722" lon="-3.200143"><ele>234</ele><time>2024-06-01T09:50:53Z</time><name>PT350</name></trkpt>
<trkpt lat="54.602693" lon="-3.200147"><ele>234</ele><time>2024-06-01T09:50:56Z</time><name>PT351</name></trkpt>
<trkpt lat="54.602653" lon="-3.200168"><ele>234</ele><time>2024-06-01T09:51:00Z</time><name>PT352</name></trkpt>
<trkpt lat="54.602628" lon="-3.200173"><ele>234</ele><time>2024-06-01T09:51:03Z</time><name>PT353</name></trkpt>
<trkpt lat="54.602589" lon="-3.200182"><ele>233</ele><time>2024-06-01T09:51:07Z</time><name>PT354</name></trkpt>
<trkpt lat="54.602565" lon="-3.200195"><ele>233</ele><time>2024-06-01T09:51:12Z</time><name>PT355</name></trkpt>
<trkpt lat="54.602557" lon="-3.200194"><ele>233</ele><time>2024-06-01T09:51:33Z</time><name>PT356</name></trkpt>
<trkpt lat="54.602538" lon="-3.200208"><ele>233</ele><time>2024-06-01T09:51:36Z</time><name>PT357</name></trkpt>
<trkpt lat="54.602505" lon="-3.200210"><ele>234</ele><time>2024-06-01T09:51:40Z</time><name>PT358</name></trkpt>
<trkpt lat="54.602475" lon="-3.200217"><ele>234</ele><time>2024-06-01T09:51:44Z</time><name>PT359</name></trkpt>
<trkpt lat="54.602433" lon="-3.200234"><ele>234</ele><time>2024-06-01T09:51:48Z</time><name>PT360</name></trkpt>
<trkpt lat="54.602403" lon="-3.200248"><ele>235</ele><time>2024-06-01T09:51:52Z</time><name>PT361</name></trkpt>
<trkpt lat="54.602362" lon="-3.200252"><ele>236</ele><time>2024-06-01T09:51:56Z</time><name>PT362</name></trkpt>
<trkpt lat="54.602324" lon="-3.200280"><ele>237</ele><time>2024-06-01T09:52:00Z</time><name>PT363</name></trkpt>
<trkpt lat="54.602292" lon="-3.200280"><ele>238</ele><time>2024-06-01T09:52:04Z</time><name>PT364</name></trkpt>
<trkpt lat="54.602245" lon="-3.200296"><ele>238</ele><time>2024-06-01T09:52:08Z</time><name>PT365</name></trkpt>
<trkpt lat="54.602214" lon="-3.200315"><ele>239</ele><time>2024-06-01T09:52:12Z</time><name>PT366</name></trkpt>
<trkpt lat="54.602178" lon="-3.200348"><ele>240</ele><time>2024-06-01T09:52:16Z</time><name>PT367</name></trkpt>
<trkpt lat="54.602140" lon="-3.200393"><ele>241</ele><time>2024-06-01T09:52:20Z</time><name>PT368</name></trkpt>
<trkpt lat="54.602118" lon="-3.200411"><ele>242</ele><time>2024-06-01T09:52:23Z</time><name>PT369</name></trkpt>
<trkpt lat="54.602088" lon="-3.200432"><ele>243</ele><time>2024-06-01T09:52:26Z</time><name>PT370</name></trkpt>
<trkpt lat="54.602056" lon="-3.200447"><ele>244</ele><time>2024-06-01T09:52:30Z</time><name>PT371</name></trkpt>
<trkpt lat="54.602024" lon="-3.200472"><ele>245</ele><time>2024-06-01T09:52:33Z</time><name>PT372</name></trkpt>
<trkpt lat="54.602002" lon="-3.200496"><ele>247</ele><time>2024-06-01T09:52:37Z</time><name>PT373</name></trkpt>
<trkpt lat="54.601971" lon="-3.200546"><ele>247</ele><time>2024-06-01T09:52:41Z</time><name>PT374</name></trkpt>
<trkpt lat="54.601955" lon="-3.200600"><ele>247</ele><time>2024-06-01T09:52:44Z</time><name>PT375</name></trkpt>
<trkpt lat="54.601929" lon="-3.200651"><ele>247</ele><time>2024-06-01T09:52:48Z</time><name>PT376</name></trkpt>
<trkpt lat="54.601902" lon="-3.200704"><ele>247</ele><time>2024-06-01T09:52:52Z</time><name>PT377</name></trkpt>
<trkpt lat="54.601868" lon="-3.200724"><ele>247</ele><time>2024-06-01T09:52:56Z</time><name>PT378</name></trkpt>
<trkpt lat="54.601831" lon="-3.200712"><ele>246</ele><time>2024-06-01T09:53:00Z</time><name>PT379</name></trkpt>
<trkpt lat="54.601786" lon="-3.200725"><ele>247</ele><time>2024-06-01T09:53:04Z</time><name>PT380</name></trkpt>
<trkpt lat="54.601747" lon="-3.200745"><ele>247</ele><time>2024-06-01T09:53:08Z</time><name>PT381</name></trkpt>
<trkpt lat="54.601713" lon="-3.200773"><ele>247</ele><time>2024-06-01T09:53:11Z</time><name>PT382</name></trkpt>
<trkpt lat="54.601686" lon="-3.200799"><ele>248</ele><time>2024-06-01T09:53:14Z</time><name>PT383</name></trkpt>
<trkpt lat="54.601661" lon="-3.200874"><ele>248</ele><time>2024-06-01T09:53:18Z</time><name>PT384</name></trkpt>
<trkpt lat="54.601646" lon="-3.200924"><ele>249</ele><time>2024-06-01T09:53:21Z</time><name>PT385</name></trkpt>
<trkpt lat="54.601616" lon="-3.200966"><ele>250</ele><time>2024-06-01T09:53:24Z</time><name>PT386</name></trkpt>
<trkpt lat="54.601594" lon="-3.200996"><ele>251</ele><time>2024-06-01T09:53:27Z</time><name>PT387</name></trkpt>
<trkpt lat="54.601555" lon="-3.201055"><ele>250</ele><time>2024-06-01T09:53:31Z</time><name>PT388</name></trkpt>
<trkpt lat="54.601532" lon="-3.201105"><ele>250</ele><time>2024-06-01T09:53:35Z</time><name>PT389</name></trkpt>
<trkpt lat="54.601500" lon="-3.201165"><ele>250</ele><time>2024-06-01T09:53:39Z</time><name>PT390</name></trkpt>
<trkpt lat="54.601473" lon="-3.201227"><ele>250</ele><time>2024-06-01T09:53:43Z</time><name>PT391</name></trkpt>
<trkpt lat="54.601452" lon="-3.201280"><ele>251</ele><time>2024-06-01T09:53:47Z</time><name>PT392</name></trkpt>
<trkpt lat="54.601422" lon="-3.201342"><ele>252</ele><time>2024-06-01T09:53:51Z</time><name>PT393</name></trkpt>
<trkpt lat="54.601406" lon="-3.201371"><ele>252</ele><time>2024-06-01T09:53:54Z</time><name>PT394</name></trkpt>
<trkpt lat="54.601388" lon="-3.201440"><ele>254</ele><time>2024-06-01T09:53:58Z</time><name>PT395</name></trkpt>
<trkpt lat="54.601365" lon="-3.201497"><ele>256</ele><time>2024-06-01T09:54:02Z</time><name>PT396</name></trkpt>
<trkpt lat="54.601347" lon="-3.201549"><ele>257</ele><time>2024-06-01T09:54:06Z</time><name>PT397</name></trkpt>
<trkpt lat="54.601333" lon="-3.201601"><ele>257</ele><time>2024-06-01T09:54:09Z</time><name>PT398</name></trkpt>
<trkpt lat="54.601323" lon="-3.201639"><ele>257</ele><time>2024-06-01T09:54:12Z</time><name>PT399</name></trkpt>
<trkpt lat="54.601313" lon="-3.201709"><ele>258</ele><time>2024-06-01T09:54:16Z</time><name>PT400</name></trkpt>
<trkpt lat="54.601300" lon="-3.201752"><ele>258</ele><time>2024-06-01T09:54:19Z</time><name>PT401</name></trkpt>
<trkpt lat="54.601276" lon="-3.201795"><ele>259</ele><time>2024-06-01T09:54:23Z</time><name>PT402</name></trkpt>
<trkpt lat="54.601258" lon="-3.201847"><ele>259</ele><time>2024-06-01T09:54:27Z</time><name>PT403</name></trkpt>
<trkpt lat="54.601241" lon="-3.201879"><ele>260</ele><time>2024-06-01T09:54:31Z</time><name>PT404</name></trkpt>
<trkpt lat="54.601227" lon="-3.201944"><ele>260</ele><time>2024-06-01T09:54:35Z</time><name>PT405</name></trkpt>
<trkpt lat="54.601219" lon="-3.201990"><ele>261</ele><time>2024-06-01T09:54:38Z</time><name>PT406</name></trkpt>
<trkpt lat="54.601209" lon="-3.202043"><ele>261</ele><time>2024-06-01T09:54:42Z</time><name>PT407</name></trkpt>
<trkpt lat="54.601205" lon="-3.202098"><ele>262</ele><time>2024-06-01T09:54:46Z</time><name>PT408</name></trkpt>
<trkpt lat="54.601196" lon="-3.202155"><ele>264</ele><time>2024-06-01T09:54:50Z</time><name>PT409</name></trkpt>
<trkpt lat="54.601195" lon="-3.202191"><ele>266</ele><time>2024-06-01T09:54:54Z</time><name>PT410</name></trkpt>
<trkpt lat="54.601192" lon="-3.202228"><ele>266</ele><time>2024-06-01T09:54:57Z</time><name>PT411</name></trkpt>
<trkpt lat="54.601190" lon="-3.202261"><ele>268</ele><time>2024-06-01T09:55:00Z</time><name>PT412</name></trkpt>
<trkpt lat="54.601181" lon="-3.202303"><ele>268</ele><time>2024-06-01T09:55:04Z</time><name>PT413</name></trkpt>
<trkpt lat="54.601172" lon="-3.202349"><ele>268</ele><time>2024-06-01T09:55:08Z</time><name>PT414</name></trkpt>
<trkpt lat="54.601161" lon="-3.202383"><ele>269</ele><time>2024-06-01T09:55:11Z</time><name>PT415</name></trkpt>
<trkpt lat="54.601145" lon="-3.202441"><ele>269</ele><time>2024-06-01T09:55:15Z</time><name>PT416</name></trkpt>
<trkpt lat="54.601136" lon="-3.202502"><ele>271</ele><time>2024-06-01T09:55:19Z</time><name>PT417</name></trkpt>
<trkpt lat="54.601123" lon="-3.202550"><ele>271</ele><time>2024-06-01T09:55:23Z</time><name>PT418</name></trkpt>
<trkpt lat="54.601114" lon="-3.202586"><ele>272</ele><time>2024-06-01T09:55:26Z</time><name>PT419</name></trkpt>
<trkpt lat="54.601103" lon="-3.202641"><ele>272</ele><time>2024-06-01T09:55:30Z</time><name>PT420</name></trkpt>
<trkpt lat="54.601090" lon="-3.202704"><ele>272</ele><time>2024-06-01T09:55:34Z</time><name>PT421</name></trkpt>
<trkpt lat="54.601085" lon="-3.202748"><ele>273</ele><time>2024-06-01T09:55:37Z</time><name>PT422</name></trkpt>
<trkpt lat="54.601079" lon="-3.202790"><ele>273</ele><time>2024-06-01T09:55:40Z</time><name>PT423</name></trkpt>
<trkpt lat="54.601074" lon="-3.202826"><ele>273</ele><time>2024-06-01T09:55:43Z</time><name>PT424</name></trkpt>
<trkpt lat="54.601060" lon="-3.202873"><ele>274</ele><time>2024-06-01T09:55:47Z</time><name>PT425</name></trkpt>
<trkpt lat="54.601042" lon="-3.202898"><ele>274</ele><time>2024-06-01T09:55:50Z</time><name>PT426</name></trkpt>
<trkpt lat="54.601027" lon="-3.202925"><ele>275</ele><time>2024-06-01T09:55:53Z</time><name>PT427</name></trkpt>
<trkpt lat="54.601010" lon="-3.202963"><ele>275</ele><time>2024-06-01T09:55:57Z</time><name>PT428</name></trkpt>
<trkpt lat="54.601000" lon="-3.202995"><ele>275</ele><time>2024-06-01T09:56:00Z</time><name>PT429</name></trkpt>
<trkpt lat="54.600992" lon="-3.203023"><ele>276</ele><time>2024-06-01T09:56:03Z</time><name>PT430</name></trkpt>
<trkpt lat="54.600987" lon="-3.203053"><ele>277</ele><time>2024-06-01T09:56:06Z</time><name>PT431</name></trkpt>
<trkpt lat="54.600976" lon="-3.203099"><ele>277</ele><time>2024-06-01T09:56:10Z</time><name>PT432</name></trkpt>
<trkpt lat="54.600961" lon="-3.203133"><ele>278</ele><time>2024-06-01T09:56:14Z</time><name>PT433</name></trkpt>
<trkpt lat="54.600948" lon="-3.203157"><ele>278</ele><time>2024-06-01T09:56:17Z</time><name>PT434</name></trkpt>
<trkpt lat="54.600941" lon="-3.203189"><ele>279</ele><time>2024-06-01T09:56:20Z</time><name>PT435</name></trkpt>
<trkpt lat="54.600940" lon="-3.203232"><ele>281</ele><time>2024-06-01T09:56:24Z</time><name>PT436</name></trkpt>
<trkpt lat="54.600933" lon="-3.203278"><ele>282</ele><time>2024-06-01T09:56:28Z</time><name>PT437</name></trkpt>
<trkpt lat="54.600929" lon="-3.203312"><ele>283</ele><time>2024-06-01T09:56:31Z</time><name>PT438</name></trkpt>
<trkpt lat="54.600928" lon="-3.203340"><ele>284</ele><time>2024-06-01T09:56:34Z</time><name>PT439</name></trkpt>
<trkpt lat="54.600924" lon="-3.203399"><ele>283</ele><time>2024-06-01T09:56:38Z</time><name>PT440</name></trkpt>
<trkpt lat="54.600919" lon="-3.203443"><ele>284</ele><time>2024-06-01T09:56:41Z</time><name>PT441</name></trkpt>
<trkpt lat="54.600909" lon="-3.203462"><ele>284</ele><time>2024-06-01T09:56:44Z</time><name>PT442</name></trkpt>
<trkpt lat="54.600904" lon="-3.203519"><ele>285</ele><time>2024-06-01T09:56:48Z</time><name>PT443</name></trkpt>
<trkpt lat="54.600891" lon="-3.203563"><ele>285</ele><time>2024-06-01T09:56:51Z</time><name>PT444</name></trkpt>
<trkpt lat="54.600882" lon="-3.203598"><ele>286</ele><time>2024-06-01T09:56:54Z</time><name>PT445</name></trkpt>
<trkpt lat="54.600875" lon="-3.203644"><ele>286</ele><time>2024-06-01T09:56:57Z</time><name>PT446</name></trkpt>
<trkpt lat="54.600864" lon="-3.203700"><ele>287</ele><time>2024-06-01T09:57:01Z</time><name>PT447</name></trkpt>
<trkpt lat="54.600859" lon="-3.203725"><ele>288</ele><time>2024-06-01T09:57:04Z</time><name>PT448</name></trkpt>
<trkpt lat="54.600848" lon="-3.203774"><ele>289</ele><time>2024-06-01T09:57:08Z</time><name>PT449</name></trkpt>
<trkpt lat="54.600841" lon="-3.203827"><ele>289</ele><time>2024-06-01T09:57:11Z</time><name>PT450</name></trkpt>
<trkpt lat="54.600833" lon="-3.203866"><ele>289</ele><time>2024-06-01T09:57:15Z</time><name>PT451</name></trkpt>
<trkpt lat="54.600830" lon="-3.203896"><ele>290</ele><time>2024-06-01T09:57:18Z</time><name>PT452</name></trkpt>
<trkpt lat="54.600826" lon="-3.203940"><ele>292</ele><time>2024-06-01T09:57:21Z</time><name>PT453</name></trkpt>
<trkpt lat="54.600817" lon="-3.203982"><ele>292</ele><time>2024-06-01T09:57:25Z</time><name>PT454</name></trkpt>
<trkpt lat="54.600808" lon="-3.204027"><ele>293</ele><time>2024-06-01T09:57:29Z</time><name>PT455</name></trkpt>
<trkpt lat="54.600794" lon="-3.204070"><ele>293</ele><time>2024-06-01T09:57:33Z</time><name>PT456</name></trkpt>
<trkpt lat="54.600779" lon="-3.204113"><ele>294</ele><time>2024-06-01T09:57:37Z</time><name>PT457</name></trkpt>
<trkpt lat="54.600777" lon="-3.204141"><ele>295</ele><time>2024-06-01T09:57:40Z</time><name>PT458</name></trkpt>
<trkpt lat="54.600770" lon="-3.204169"><ele>296</ele><time>2024-06-01T09:57:43Z</time><name>PT459</name></trkpt>
<trkpt lat="54.600754" lon="-3.204210"><ele>297</ele><time>2024-06-01T09:57:47Z</time><name>PT460</name></trkpt>
<trkpt lat="54.600735" lon="-3.204257"><ele>297</ele><time>2024-06-01T09:57:51Z</time><name>PT461</name></trkpt>
<trkpt lat="54.600721" lon="-3.204297"><ele>298</ele><time>2024-06-01T09:57:54Z</time><name>PT462</name></trkpt>
<trkpt lat="54.600704" lon="-3.204337"><ele>299</ele><time>2024-06-01T09:57:58Z</time><name>PT463</name></trkpt>
<trkpt lat="54.600691" lon="-3.204377"><ele>300</ele><time>2024-06-01T09:58:02Z</time><name>PT464</name></trkpt>
<trkpt lat="54.600680" lon="-3.204421"><ele>301</ele><time>2024-06-01T09:58:06Z</time><name>PT465</name></trkpt>
<trkpt lat="54.600671" lon="-3.204463"><ele>301</ele><time>2024-06-01T09:58:09Z</time><name>PT466</name></trkpt>
<trkpt lat="54.600661" lon="-3.204503"><ele>302</ele><time>2024-06-01T09:58:12Z</time><name>PT467</name></trkpt>
<trkpt lat="54.600644" lon="-3.204535"><ele>303</ele><time>2024-06-01T09:58:16Z</time><name>PT468</name></trkpt>
<trkpt lat="54.600631" lon="-3.204571"><ele>304</ele><time>2024-06-01T09:58:19Z</time><name>PT469</name></trkpt>
<trkpt lat="54.600614" lon="-3.204621"><ele>304</ele><time>2024-06-01T09:58:23Z</time><name>PT470</name></trkpt>
<trkpt lat="54.600608" lon="-3.204647"><ele>305</ele><time>2024-06-01T09:58:26Z</time><name>PT471</name></trkpt>
<trkpt lat="54.600599" lon="-3.204682"><ele>306</ele><time>2024-06-01T09:58:29Z</time><name>PT472</name></trkpt>
<trkpt lat="54.600590" lon="-3.204727"><ele>306</ele><time>2024-06-01T09:58:33Z</time><name>PT473</name></trkpt>
<trkpt lat="54.600585" lon="-3.204756"><ele>307</ele><time>2024-06-01T09:58:36Z</time><name>PT474</name></trkpt>
<trkpt lat="54.600570" lon="-3.204797"><ele>308</ele><time>2024-06-01T09:58:40Z</time><name>PT475</name></trkpt>
<trkpt lat="54.600560" lon="-3.204838"><ele>308</ele><time>2024-06-01T09:58:43Z</time><name>PT476</name></trkpt>
<trkpt lat="54.600550" lon="-3.204878"><ele>309</ele><time>2024-06-01T09:58:47Z</time><name>PT477</name></trkpt>
<trkpt lat="54.600537" lon="-3.204904"><ele>309</ele><time>2024-06-01T09:58:50Z</time><name>PT478</name></trkpt>
<trkpt lat="54.600525" lon="-3.204941"><ele>310</ele><time>2024-06-01T09:58:54Z</time><name>PT479</name></trkpt>
<trkpt lat="54.600514" lon="-3.204981"><ele>311</ele><time>2024-06-01T09:58:58Z</time><name>PT480</name></trkpt>
<trkpt lat="54.600504" lon="-3.205008"><ele>312</ele><time>2024-06-01T09:59:01Z</time><name>PT481</name></trkpt>
<trkpt lat="54.600494" lon="-3.205031"><ele>312</ele><time>2024-06-01T09:59:04Z</time><name>PT482</name></trkpt>
<trkpt lat="54.600484" lon="-3.205076"><ele>313</ele><time>2024-06-01T09:59:08Z</time><name>PT483</name></trkpt>
<trkpt lat="54.600475" lon="-3.205114"><ele>315</ele><time>2024-06-01T09:59:12Z</time><name>PT484</name></trkpt>
<trkpt lat="54.600472" lon="-3.205143"><ele>315</ele><time>2024-06-01T09:59:15Z</time><name>PT485</name></trkpt>
<trkpt lat="54.600466" lon="-3.205185"><ele>317</ele><time>2024-06-01T09:59:19Z</time><name>PT486</name></trkpt>
<trkpt lat="54.600466" lon="-3.205218"><ele>318</ele><time>2024-06-01T09:59:23Z</time><name>PT487</name></trkpt>
<trkpt lat="54.600457" lon="-3.205267"><ele>319</ele><time>2024-06-01T09:59:27Z</time><name>PT488</name></trkpt>
<trkpt lat="54.600447" lon="-3.205302"><ele>320</ele><time>2024-06-01T09:59:31Z</time><name>PT489</name></trkpt>
<trkpt lat="54.600439" lon="-3.205342"><ele>321</ele><time>2024-06-01T09:59:35Z</time><name>PT490</name></trkpt>
<trkpt lat="54.600428" lon="-3.205389"><ele>322</ele><time>2024-06-01T09:59:39Z</time><name>PT491</name></trkpt>
<trkpt lat="54.600422" lon="-3.205424"><ele>322</ele><time>2024-06-01T09:59:42Z</time><name>PT492</name></trkpt>
<trkpt lat="54.600414" lon="-3.205476"><ele>322</ele><time>2024-06-01T09:59:46Z</time><name>PT493</name></trkpt>
<trkpt lat="54.600405" lon="-3.205526"><ele>322</ele><time>2024-06-01T09:59:50Z</time><name>PT494</name></trkpt>
<trkpt lat="54.600398" lon="-3.205562"><ele>322</ele><time>2024-06-01T09:59:53Z</time><name>PT495</name></trkpt>
<trkpt lat="54.600390" lon="-3.205611"><ele>323</ele><time>2024-06-01T09:59:57Z</time><name>PT496</name></trkpt>
<trkpt lat="54.600384" lon="-3.205644"><ele>324</ele><time>2024-06-01T10:00:00Z</time><name>PT497</name></trkpt>
<trkpt lat="54.600375" lon="-3.205682"><ele>325</ele><time>2024-06-01T10:00:03Z</time><name>PT498</name></trkpt>
<trkpt lat="54.600371" lon="-3.205721"><ele>326</ele><time>2024-06-01T10:00:06Z</time><name>PT499</name></trkpt>
<trkpt lat="54.600363" lon="-3.205771"><ele>327</ele><time>2024-06-01T10:00:10Z</time><name>PT500</name></trkpt>
<trkpt lat="54.600357" lon="-3.205811"><ele>327</ele><time>2024-06-01T10:00:14Z</time><name>PT501</name></trkpt>
<trkpt lat="54.600352" lon="-3.205839"><ele>328</ele><time>2024-06-01T10:00:17Z</time><name>PT502</name></trkpt>
<trkpt lat="54.600343" lon="-3.205882"><ele>329</ele><time>2024-06-01T10:00:21Z</time><name>PT503</name></trkpt>
<trkpt lat="54.600335" lon="-3.205917"><ele>329</ele><time>2024-06-01T10:00:24Z</time><name>PT504</name></trkpt>
<trkpt lat="54.600327" lon="-3.205953"><ele>329</ele><time>2024-06-01T10:00:27Z</time><name>PT505</name></trkpt>
<trkpt lat="54.600320" lon="-3.205974"><ele>329</ele><time>2024-06-01T10:00:30Z</time><name>PT506</name></trkpt>
<trkpt lat="54.600312" lon="-3.206015"><ele>330</ele><time>2024-06-01T10:00:34Z</time><name>PT507</name></trkpt>
<trkpt lat="54.600304" lon="-3.206063"><ele>331</ele><time>2024-06-01T10:00:38Z</time><name>PT508</name></trkpt>
<trkpt lat="54.600298" lon="-3.206115"><ele>331</ele><time>2024-06-01T10:00:42Z</time><name>PT509</name></trkpt>
<trkpt lat="54.600294" lon="-3.206150"><ele>332</ele><time>2024-06-01T10:00:45Z</time><name>PT510</name></trkpt>
<trkpt lat="54.600288" lon="-3.206205"><ele>332</ele><time>2024-06-01T10:00:49Z</time><name>PT511</name></trkpt>
<trkpt lat="54.600280" lon="-3.206241"><ele>333</ele><time>2024-06-01T10:00:52Z</time><name>PT512</name></trkpt>
<trkpt lat="54.600272" lon="-3.206279"><ele>334</ele><time>2024-06-01T10:00:55Z</time><name>PT513</name></trkpt>
<trkpt lat="54.600266" lon="-3.206327"><ele>335</ele><time>2024-06-01T10:00:59Z</time><name>PT514</name></trkpt>
<trkpt lat="54.600261" lon="-3.206355"><ele>335</ele><time>2024-06-01T10:01:02Z</time><name>PT515</name></trkpt>
<trkpt lat="54.600259" lon="-3.206406"><ele>336</ele><time>2024-06-01T10:01:06Z</time><name>PT516</name></trkpt>
<trkpt lat="54.600253" lon="-3.206448"><ele>336</ele><time>2024-06-01T10:01:09Z</time><name>PT517</name></trkpt>
<trkpt lat="54.600245" lon="-3.206492"><ele>337</ele><time>2024-06-01T10:01:13Z</time><name>PT518</name></trkpt>
<trkpt lat="54.600248" lon="-3.206548"><ele>338</ele><time>2024-06-01T10:01:17Z</time><name>PT519</name></trkpt>
<trkpt lat="54.600245" lon="-3.206586"><ele>338</ele><time>2024-06-01T10:01:21Z</time><name>PT520</name></trkpt>
<trkpt lat="54.600241" lon="-3.206635"><ele>339</ele><time>2024-06-01T10:01:25Z</time><name>PT521</name></trkpt>
<trkpt lat="54.600239" lon="-3.206675"><ele>340</ele><time>2024-06-01T10:01:29Z</time><name>PT522</name></trkpt>
<trkpt lat="54.600233" lon="-3.206711"><ele>341</ele><time>2024-06-01T10:01:33Z</time><name>PT523</name></trkpt>
<trkpt lat="54.600228" lon="-3.206751"><ele>342</ele><time>2024-06-01T10:01:37Z</time><name>PT524</name></trkpt>
<trkpt lat="54.600224" lon="-3.206785"><ele>342</ele><time>2024-06-01T10:01:40Z</time><name>PT525</name></trkpt>
<trkpt lat="54.600223" lon="-3.206832"><ele>343</ele><time>2024-06-01T10:01:44Z</time><name>PT526</name></trkpt>
<trkpt lat="54.600216" lon="-3.206874"><ele>344</ele><time>2024-06-01T10:01:48Z</time><name>PT527</name></trkpt>
<trkpt lat="54.600214" lon="-3.206912"><ele>345</ele><time>2024-06-01T10:01:51Z</time><name>PT528</name></trkpt>
<trkpt lat="54.600206" lon="-3.206941"><ele>346</ele><time>2024-06-01T10:01:54Z</time><name>PT529</name></trkpt>
<trkpt lat="54.600202" lon="-3.206991"><ele>348</ele><time>2024-06-01T10:01:58Z</time><name>PT530</name></trkpt>
<trkpt lat="54.600202" lon="-3.207022"><ele>348</ele><time>2024-06-01T10:02:01Z</time><name>PT531</name></trkpt>
<trkpt lat="54.600207" lon="-3.207067"><ele>348</ele><time>2024-06-01T10:02:05Z</time><name>PT532</name></trkpt>
<trkpt lat="54.600211" lon="-3.207116"><ele>348</ele><time>2024-06-01T10:02:09Z</time><name>PT533</name></trkpt>
<trkpt lat="54.600208" lon="-3.207150"><ele>348</ele><time>2024-06-01T10:02:12Z</time><name>PT534</name></trkpt>
<trkpt lat="54.600191" lon="-3.207197"><ele>348</ele><time>2024-06-01T10:02:16Z</time><name>PT535</name></trkpt>
<trkpt lat="54.600174" lon="-3.207251"><ele>348</ele><time>2024-06-01T10:02:20Z</time><name>PT536</name></trkpt>
<trkpt lat="54.600160" lon="-3.207268"><ele>350</ele><time>2024-06-01T10:02:23Z</time><name>PT537</name></trkpt>
<trkpt lat="54.600135" lon="-3.207308"><ele>350</ele><time>2024-06-01T10:02:27Z</time><name>PT538</name></trkpt>
<trkpt lat="54.600120" lon="-3.207337"><ele>351</ele><time>2024-06-01T10:02:30Z</time><name>PT539</name></trkpt>
<trkpt lat="54.600103" lon="-3.207362"><ele>351</ele><time>2024-06-01T10:02:33Z</time><name>PT540</name></trkpt>
<trkpt lat="54.600083" lon="-3.207393"><ele>352</ele><time>2024-06-01T10:02:36Z</time><name>PT541</name></trkpt>
<trkpt lat="54.600059" lon="-3.207438"><ele>353</ele><time>2024-06-01T10:02:40Z</time><name>PT542</name></trkpt>
<trkpt lat="54.600036" lon="-3.207476"><ele>353</ele><time>2024-06-01T10:02:44Z</time><name>PT543</name></trkpt>
<trkpt lat="54.600015" lon="-3.207509"><ele>354</ele><time>2024-06-01T10:02:47Z</time><name>PT544</name></trkpt>
<trkpt lat="54.599994" lon="-3.207542"><ele>354</ele><time>2024-06-01T10:02:50Z</time><name>PT545</name></trkpt>
<trkpt lat="54.599979" lon="-3.207582"><ele>354</ele><time>2024-06-01T10:02:53Z</time><name>PT546</name></trkpt>
<trkpt lat="54.599950" lon="-3.207643"><ele>355</ele><time>2024-06-01T10:02:57Z</time><name>PT547</name></trkpt>
<trkpt lat="54.599928" lon="-3.207674"><ele>356</ele><time>2024-06-01T10:03:00Z</time><name>PT548</name></trkpt>
<trkpt lat="54.599910" lon="-3.207698"><ele>356</ele><time>2024-06-01T10:03:03Z</time><name>PT549</name></trkpt>
<trkpt lat="54.599886" lon="-3.207742"><ele>356</ele><time>2024-06-01T10:03:07Z</time><name>PT550</name></trkpt>
<trkpt lat="54.599863" lon="-3.207781"><ele>357</ele><time>2024-06-01T10:03:10Z</time><name>PT551</name></trkpt>
<trkpt lat="54.599837" lon="-3.207820"><ele>358</ele><time>2024-06-01T10:03:14Z</time><name>PT552</name></trkpt>
<trkpt lat="54.599806" lon="-3.207856"><ele>359</ele><time>2024-06-01T10:03:18Z</time><name>PT553</name></trkpt>
<trkpt lat="54.599779" lon="-3.207893"><ele>359</ele><time>2024-06-01T10:03:21Z</time><name>PT554</name></trkpt>
<trkpt lat="54.599759" lon="-3.207930"><ele>360</ele><time>2024-06-01T10:03:24Z</time><name>PT555</name></trkpt>
<trkpt lat="54.599735" lon="-3.207970"><ele>361</ele><time>2024-06-01T10:03:27Z</time><name>PT556</name></trkpt>
<trkpt lat="54.599699" lon="-3.208026"><ele>360</ele><time>2024-06-01T10:03:31Z</time><name>PT557</name></trkpt>
<trkpt lat="54.599673" lon="-3.208071"><ele>361</ele><time>2024-06-01T10:03:35Z</time><name>PT558</name></trkpt>
<trkpt lat="54.599649" lon="-3.208105"><ele>361</ele><time>2024-06-01T10:03:38Z</time><name>PT559</name></trkpt>
<trkpt lat="54.599621" lon="-3.208132"><ele>360</ele><time>2024-06-01T10:03:42Z</time><name>PT560</name></trkpt>
<trkpt lat="54.599598" lon="-3.208162"><ele>361</ele><time>2024-06-01T10:03:46Z</time><name>PT561</name></trkpt>
<trkpt lat="54.599571" lon="-3.208208"><ele>362</ele><time>2024-06-01T10:03:50Z</time><name>PT562</name></trkpt>
<trkpt lat="54.599551" lon="-3.208236"><ele>362</ele><time>2024-06-01T10:03:53Z</time><name>PT563</name></trkpt>
<trkpt lat="54.599533" lon="-3.208260"><ele>363</ele><time>2024-06-01T10:03:56Z</time><name>PT564</name></trkpt>
<trkpt lat="54.599509" lon="-3.208282"><ele>362</ele><time>2024-06-01T10:03:59Z</time><name>PT565</name></trkpt>
<trkpt lat="54.599484" lon="-3.208319"><ele>363</ele><time>2024-06-01T10:04:03Z</time><name>PT566</name></trkpt>
<trkpt lat="54.599460" lon="-3.208362"><ele>363</ele><time>2024-06-01T10:04:06Z</time><name>PT567</name></trkpt>
<trkpt lat="54.599435" lon="-3.208407"><ele>365</ele><time>2024-06-01T10:04:10Z</time><name>PT568</name></trkpt>
<trkpt lat="54.599411" lon="-3.208437"><ele>365</ele><time>2024-06-01T10:04:13Z</time><name>PT569</name></trkpt>
<trkpt lat="54.599390" lon="-3.208467"><ele>366</ele><time>2024-06-01T10:04:16Z</time><name>PT570</name></trkpt>
<trkpt lat="54.599363" lon="-3.208518"><ele>367</ele><time>2024-06-01T10:04:20Z</time><name>PT571</name></trkpt>
<trkpt lat="54.599333" lon="-3.208578"><ele>368</ele><time>2024-06-01T10:04:24Z</time><name>PT572</name></trkpt>
<trkpt lat="54.599317" lon="-3.208609"><ele>369</ele><time>2024-06-01T10:04:27Z</time><name>PT573</name></trkpt>
<trkpt lat="54.599298" lon="-3.208661"><ele>369</ele><time>2024-06-01T10:04:30Z</time><name>PT574</name></trkpt>
<trkpt lat="54.599276" lon="-3.208716"><ele>370</ele><time>2024-06-01T10:04:34Z</time><name>PT575</name></trkpt>
<trkpt lat="54.599253" lon="-3.208768"><ele>371</ele><time>2024-06-01T10:04:37Z</time><name>PT576</name></trkpt>
<trkpt lat="54.599227" lon="-3.208818"><ele>372</ele><time>2024-06-01T10:04:41Z</time><name>PT577</name></trkpt>
<trkpt lat="54.599189" lon="-3.208880"><ele>373</ele><time>2024-06-01T10:04:45Z</time><name>PT578</name></trkpt>
<trkpt lat="54.599166" lon="-3.208922"><ele>373</ele><time>2024-06-01T10:04:48Z</time><name>PT579</name></trkpt>
<trkpt lat="54.599123" lon="-3.208982"><ele>373</ele><time>2024-06-01T10:04:52Z</time><name>PT580</name></trkpt>
<trkpt lat="54.599085" lon="-3.209027"><ele>373</ele><time>2024-06-01T10:04:56Z</time><name>PT581</name></trkpt>
<trkpt lat="54.599049" lon="-3.209076"><ele>374</ele><time>2024-06-01T10:05:00Z</time><name>PT582</name></trkpt>
<trkpt lat="54.599027" lon="-3.209104"><ele>374</ele><time>2024-06-01T10:05:04Z</time><name>PT583</name></trkpt>
<trkpt lat="54.599027" lon="-3.209103"><ele>374</ele><time>2024-06-01T10:05:08Z</time><name>PT584</name></trkpt>
<trkpt lat="54.599026" lon="-3.209101"><ele>374</ele><time>2024-06-01T10:05:15Z</time><name>PT585</name></trkpt>
<trkpt lat="54.599025" lon="-3.209099"><ele>374</ele><time>2024-06-01T10:05:19Z</time><name>PT586</name></trkpt>
<trkpt lat="54.599024" lon="-3.209098"><ele>374</ele><time>2024-06-01T10:05:28Z</time><name>PT587</name></trkpt>
<trkpt lat="54.598979" lon="-3.209168"><ele>375</ele><time>2024-06-01T10:05:32Z</time><name>PT588</name></trkpt>
<trkpt lat="54.598938" lon="-3.209229"><ele>375</ele><time>2024-06-01T10:05:35Z</time><name>PT589</name></trkpt>
<trkpt lat="54.598901" lon="-3.209270"><ele>374</ele><time>2024-06-01T10:05:39Z</time><name>PT590</name></trkpt>
<trkpt lat="54.598852" lon="-3.209344"><ele>374</ele><time>2024-06-01T10:05:43Z</time><name>PT591</name></trkpt>
<trkpt lat="54.598817" lon="-3.209394"><ele>374</ele><time>2024-06-01T10:05:47Z</time><name>PT592</name></trkpt>
<trkpt lat="54.598775" lon="-3.209463"><ele>375</ele><time>2024-06-01T10:05:51Z</time><name>PT593</name></trkpt>
<trkpt lat="54.598739" lon="-3.209522"><ele>376</ele><time>2024-06-01T10:05:55Z</time><name>PT594</name></trkpt>
<trkpt lat="54.598704" lon="-3.209585"><ele>377</ele><time>2024-06-01T10:05:59Z</time><name>PT595</name></trkpt>
<trkpt lat="54.598680" lon="-3.209650"><ele>378</ele><time>2024-06-01T10:06:02Z</time><name>PT596</name></trkpt>
<trkpt lat="54.598659" lon="-3.209695"><ele>377</ele><time>2024-06-01T10:06:05Z</time><name>PT597</name></trkpt>
<trkpt lat="54.598621" lon="-3.209777"><ele>377</ele><time>2024-06-01T10:06:09Z</time><name>PT598</name></trkpt>
<trkpt lat="54.598583" lon="-3.209840"><ele>376</ele><time>2024-06-01T10:06:12Z</time><name>PT599</name></trkpt>
<trkpt lat="54.598545" lon="-3.209879"><ele>377</ele><time>2024-06-01T10:06:16Z</time><name>PT600</name></trkpt>
<trkpt lat="54.598508" lon="-3.209911"><ele>376</ele><time>2024-06-01T10:06:19Z</time><name>PT601</name></trkpt>
<trkpt lat="54.598464" lon="-3.209957"><ele>377</ele><time>2024-06-01T10:06:22Z</time><name>PT602</name></trkpt>
<trkpt lat="54.598425" lon="-3.209981"><ele>377</ele><time>2024-06-01T10:06:25Z</time><name>PT603</name></trkpt>
<trkpt lat="54.598391" lon="-3.210023"><ele>377</ele><time>2024-06-01T10:06:29Z</time><name>PT604</name></trkpt>
<trkpt lat="54.598356" lon="-3.210083"><ele>378</ele><time>2024-06-01T10:06:32Z</time><name>PT605</name></trkpt>
<trkpt lat="54.598324" lon="-3.210123"><ele>378</ele><time>2024-06-01T10:06:35Z</time><name>PT606</name></trkpt>
<trkpt lat="54.598299" lon="-3.210160"><ele>378</ele><time>2024-06-01T10:06:38Z</time><name>PT607</name></trkpt>
<trkpt lat="54.598249" lon="-3.210224"><ele>378</ele><time>2024-06-01T10:06:42Z</time><name>PT608</name></trkpt>
<trkpt lat="54.598222" lon="-3.210262"><ele>378</ele><time>2024-06-01T10:06:45Z</time><name>PT609</name></trkpt>
<trkpt lat="54.598205" lon="-3.210302"><ele>377</ele><time>2024-06-01T10:06:48Z</time><name>PT610</name></trkpt>
<trkpt lat="54.598166" lon="-3.210384"><ele>376</ele><time>2024-06-01T10:06:52Z</time><name>PT611</name></trkpt>
<trkpt lat="54.598124" lon="-3.210436"><ele>377</ele><time>2024-06-01T10:06:55Z</time><name>PT612</name></trkpt>
<trkpt lat="54.598090" lon="-3.210487"><ele>377</ele><time>2024-06-01T10:06:59Z</time><name>PT613</name></trkpt>
<trkpt lat="54.598048" lon="-3.210539"><ele>377</ele><time>2024-06-01T10:07:03Z</time><name>PT614</name></trkpt>
<trkpt lat="54.597998" lon="-3.210608"><ele>376</ele><time>2024-06-01T10:07:07Z</time><name>PT615</name></trkpt>
<trkpt lat="54.597953" lon="-3.210644"><ele>376</ele><time>2024-06-01T10:07:11Z</time><name>PT616</name></trkpt>
<trkpt lat="54.597921" lon="-3.210664"><ele>375</ele><time>2024-06-01T10:07:14Z</time><name>PT617</name></trkpt>
<trkpt lat="54.597875" lon="-3.210703"><ele>375</ele><time>2024-06-01T10:07:18Z</time><name>PT618</name></trkpt>
<trkpt lat="54.597820" lon="-3.210755"><ele>375</ele><time>2024-06-01T10:07:22Z</time><name>PT619</name></trkpt>
<trkpt lat="54.597791" lon="-3.210776"><ele>375</ele><time>2024-06-01T10:07:25Z</time><name>PT620</name></trkpt>
<trkpt lat="54.597773" lon="-3.210797"><ele>374</ele><time>2024-06-01T10:07:29Z</time><name>PT621</name></trkpt>
<trkpt lat="54.597773" lon="-3.210800"><ele>374</ele><time>2024-06-01T10:07:32Z</time><name>PT622</name></trkpt>
<trkpt lat="54.597756" lon="-3.210841"><ele>374</ele><time>2024-06-01T10:07:39Z</time><name>PT623</name></trkpt>
<trkpt lat="54.597705" lon="-3.210898"><ele>374</ele><time>2024-06-01T10:07:43Z</time><name>PT624</name></trkpt>
<trkpt lat="54.597668" lon="-3.210939"><ele>374</ele><time>2024-06-01T10:07:46Z</time><name>PT625</name></trkpt>
<trkpt lat="54.597634" lon="-3.210994"><ele>373</ele><time>2024-06-01T10:07:50Z</time><name>PT626</name></trkpt>
<trkpt lat="54.597595" lon="-3.211075"><ele>374</ele><time>2024-06-01T10:07:54Z</time><name>PT627</name></trkpt>
<trkpt lat="54.597560" lon="-3.211140"><ele>375</ele><time>2024-06-01T10:07:57Z</time><name>PT628</name></trkpt>
<trkpt lat="54.597534" lon="-3.211170"><ele>374</ele><time>2024-06-01T10:08:00Z</time><name>PT629</name></trkpt>
<trkpt lat="54.597503" lon="-3.211244"><ele>374</ele><time>2024-06-01T10:08:04Z</time><name>PT630</name></trkpt>
<trkpt lat="54.597474" lon="-3.211310"><ele>374</ele><time>2024-06-01T10:08:07Z</time><name>PT631</name></trkpt>
<trkpt lat="54.597445" lon="-3.211366"><ele>373</ele><time>2024-06-01T10:08:11Z</time><name>PT632</name></trkpt>
<trkpt lat="54.597395" lon="-3.211431"><ele>373</ele><time>2024-06-01T10:08:15Z</time><name>PT633</name></trkpt>
<trkpt lat="54.597363" lon="-3.211468"><ele>373</ele><time>2024-06-01T10:08:18Z</time><name>PT634</name></trkpt>
<trkpt lat="54.597330" lon="-3.211515"><ele>372</ele><time>2024-06-01T10:08:22Z</time><name>PT635</name></trkpt>
<trkpt lat="54.597300" lon="-3.211567"><ele>373</ele><time>2024-06-01T10:08:25Z</time><name>PT636</name></trkpt>
<trkpt lat="54.597272" lon="-3.211643"><ele>373</ele><time>2024-06-01T10:08:29Z</time><name>PT637</name></trkpt>
<trkpt lat="54.597244" lon="-3.211720"><ele>373</ele><time>2024-06-01T10:08:33Z</time><name>PT638</name></trkpt>
<trkpt lat="54.597224" lon="-3.211768"><ele>372</ele><time>2024-06-01T10:08:36Z</time><name>PT639</name></trkpt>
<trkpt lat="54.597190" lon="-3.211827"><ele>371</ele><time>2024-06-01T10:08:40Z</time><name>PT640</name></trkpt>
<trkpt lat="54.597155" lon="-3.211923"><ele>369</ele><time>2024-06-01T10:08:44Z</time><name>PT641</name></trkpt>
<trkpt lat="54.597139" lon="-3.211970"><ele>370</ele><time>2024-06-01T10:08:47Z</time><name>PT642</name></trkpt>
<trkpt lat="54.597117" lon="-3.212018"><ele>369</ele><time>2024-06-01T10:08:50Z</time><name>PT643</name></trkpt>
<trkpt lat="54.597076" lon="-3.212095"><ele>370</ele><time>2024-06-01T10:08:54Z</time><name>PT644</name></trkpt>
<trkpt lat="54.597060" lon="-3.212141"><ele>371</ele><time>2024-06-01T10:08:58Z</time><name>PT645</name></trkpt>
<trkpt lat="54.597037" lon="-3.212206"><ele>371</ele><time>2024-06-01T10:09:02Z</time><name>PT646</name></trkpt>
<trkpt lat="54.597009" lon="-3.212258"><ele>372</ele><time>2024-06-01T10:09:06Z</time><name>PT647</name></trkpt>
<trkpt lat="54.596975" lon="-3.212316"><ele>372</ele><time>2024-06-01T10:09:09Z</time><name>PT648</name></trkpt>
<trkpt lat="54.596936" lon="-3.212374"><ele>371</ele><time>2024-06-01T10:09:13Z</time><name>PT649</name></trkpt>
<trkpt lat="54.596909" lon="-3.212421"><ele>372</ele><time>2024-06-01T10:09:16Z</time><name>PT650</name></trkpt>
<trkpt lat="54.596887" lon="-3.212477"><ele>372</ele><time>2024-06-01T10:09:19Z</time><name>PT651</name></trkpt>
<trkpt lat="54.596859" lon="-3.212537"><ele>372</ele><time>2024-06-01T10:09:23Z</time><name>PT652</name></trkpt>
<trkpt lat="54.596838" lon="-3.212583"><ele>372</ele><time>2024-06-01T10:09:26Z</time><name>PT653</name></trkpt>
<trkpt lat="54.596828" lon="-3.212652"><ele>373</ele><time>2024-06-01T10:09:29Z</time><name>PT654</name></trkpt>
<trkpt lat="54.596811" lon="-3.212720"><ele>372</ele><time>2024-06-01T10:09:32Z</time><name>PT655</name></trkpt>
<trkpt lat="54.596789" lon="-3.212778"><ele>372</ele><time>2024-06-01T10:09:36Z</time><name>PT656</name></trkpt>
<trkpt lat="54.596770" lon="-3.212840"><ele>370</ele><time>2024-06-01T10:09:39Z</time><name>PT657</name></trkpt>
<trkpt lat="54.596750" lon="-3.212900"><ele>370</ele><time>2024-06-01T10:09:42Z</time><name>PT658</name></trkpt>
<trkpt lat="54.596742" lon="-3.212941"><ele>370</ele><time>2024-06-01T10:09:45Z</time><name>PT659</name></trkpt>
<trkpt lat="54.596713" lon="-3.213011"><ele>369</ele><time>2024-06-01T10:09:49Z</time><name>PT660</name></trkpt>
<trkpt lat="54.596685" lon="-3.213065"><ele>369</ele><time>2024-06-01T10:09:52Z</time><name>PT661</name></trkpt>
<trkpt lat="54.596658" lon="-3.213138"><ele>369</ele><time>2024-06-01T10:09:55Z</time><name>PT662</name></trkpt>
<trkpt lat="54.596628" lon="-3.213211"><ele>368</ele><time>2024-06-01T10:09:59Z</time><name>PT663</name></trkpt>
<trkpt lat="54.596608" lon="-3.213264"><ele>367</ele><time>2024-06-01T10:10:02Z</time><name>PT664</name></trkpt>
<trkpt lat="54.596575" lon="-3.213362"><ele>366</ele><time>2024-06-01T10:10:06Z</time><name>PT665</name></trkpt>
<trkpt lat="54.596561" lon="-3.213411"><ele>366</ele><time>2024-06-01T10:10:09Z</time><name>PT666</name></trkpt>
<trkpt lat="54.596539" lon="-3.213494"><ele>367</ele><time>2024-06-01T10:10:13Z</time><name>PT667</name></trkpt>
<trkpt lat="54.596515" lon="-3.213552"><ele>367</ele><time>2024-06-01T10:10:17Z</time><name>PT668</name></trkpt>
<trkpt lat="54.596495" lon="-3.213621"><ele>366</ele><time>2024-06-01T10:10:20Z</time><name>PT669</name></trkpt>
<trkpt lat="54.596476" lon="-3.213660"><ele>366</ele><time>2024-06-01T10:10:23Z</time><name>PT670</name></trkpt>
<trkpt lat="54.596443" lon="-3.213722"><ele>365</ele><time>2024-06-01T10:10:27Z</time><name>PT671</name></trkpt>
<trkpt lat="54.596397" lon="-3.213778"><ele>364</ele><time>2024-06-01T10:10:31Z</time><name>PT672</name></trkpt>
<trkpt lat="54.596366" lon="-3.213817"><ele>364</ele><time>2024-06-01T10:10:35Z</time><name>PT673</name></trkpt>
<trkpt lat="54.596323" lon="-3.213865"><ele>363</ele><time>2024-06-01T10:10:39Z</time><name>PT674</name></trkpt>
<trkpt lat="54.596281" lon="-3.213910"><ele>362</ele><time>2024-06-01T10:10:43Z</time><name>PT675</name></trkpt>
<trkpt lat="54.596257" lon="-3.213970"><ele>363</ele><time>2024-06-01T10:10:47Z</time><name>PT676</name></trkpt>
<trkpt lat="54.596228" lon="-3.214016"><ele>363</ele><time>2024-06-01T10:10:50Z</time><name>PT677</name></trkpt>
<trkpt lat="54.596181" lon="-3.214082"><ele>364</ele><time>2024-06-01T10:10:54Z</time><name>PT678</name></trkpt>
<trkpt lat="54.596142" lon="-3.214121"><ele>363</ele><time>2024-06-01T10:10:58Z</time><name>PT679</name></trkpt>
<trkpt lat="54.596109" lon="-3.214169"><ele>363</ele><time>2024-06-01T10:11:01Z</time><name>PT680</name></trkpt>
<trkpt lat="54.596082" lon="-3.214234"><ele>363</ele><time>2024-06-01T10:11:05Z</time><name>PT681</name></trkpt>
<trkpt lat="54.596061" lon="-3.214298"><ele>362</ele><time>2024-06-01T10:11:08Z</time><name>PT682</name></trkpt>
<trkpt lat="54.596026" lon="-3.214373"><ele>362</ele><time>2024-06-01T10:11:12Z</time><name>PT683</name></trkpt>
<trkpt lat="54.595995" lon="-3.214427"><ele>361</ele><time>2024-06-01T10:11:16Z</time><name>PT684</name></trkpt>
<trkpt lat="54.595963" lon="-3.214493"><ele>362</ele><time>2024-06-01T10:11:20Z</time><name>PT685</name></trkpt>
<trkpt lat="54.595939" lon="-3.214547"><ele>361</ele><time>2024-06-01T10:11:23Z</time><name>PT686</name></trkpt>
<trkpt lat="54.595915" lon="-3.214613"><ele>362</ele><time>2024-06-01T10:11:26Z</time><name>PT687</name></trkpt>
<trkpt lat="54.595899" lon="-3.214685"><ele>362</ele><time>2024-06-01T10:11:30Z</time><name>PT688</name></trkpt>
<trkpt lat="54.595885" lon="-3.214752"><ele>363</ele><time>2024-06-01T10:11:33Z</time><name>PT689</name></trkpt>
<trkpt lat="54.595873" lon="-3.214784"><ele>363</ele><time>2024-06-01T10:11:36Z</time><name>PT690</name></trkpt>
<trkpt lat="54.595872" lon="-3.214790"><ele>363</ele><time>2024-06-01T10:11:39Z</time><name>PT691</name></trkpt>
<trkpt lat="54.595872" lon="-3.214789"><ele>363</ele><time>2024-06-01T10:11:43Z</time><name>PT692</name></trkpt>
<trkpt lat="54.595872" lon="-3.214791"><ele>363</ele><time>2024-06-01T10:11:46Z</time><name>PT693</name></trkpt>
<trkpt lat="54.595845" lon="-3.214872"><ele>363</ele><time>2024-06-01T10:11:50Z</time><name>PT694</name></trkpt>
<trkpt lat="54.595829" lon="-3.214941"><ele>363</ele><time>2024-06-01T10:11:53Z</time><name>PT695</name></trkpt>
<trkpt lat="54.595799" lon="-3.215007"><ele>362</ele><time>2024-06-01T10:11:57Z</time><name>PT696</name></trkpt>
<trkpt lat="54.595790" lon="-3.215075"><ele>362</ele><time>2024-06-01T10:12:00Z</time><name>PT697</name></trkpt>
<trkpt lat="54.595787" lon="-3.215133"><ele>362</ele><time>2024-06-01T10:12:03Z</time><name>PT698</name></trkpt>
<trkpt lat="54.595779" lon="-3.215214"><ele>362</ele><time>2024-06-01T10:12:07Z</time><name>PT699</name></trkpt>
<trkpt lat="54.595775" lon="-3.215293"><ele>363</ele><time>2024-06-01T10:12:11Z</time><name>PT700</name></trkpt>
<trkpt lat="54.595770" lon="-3.215350"><ele>364</ele><time>2024-06-01T10:12:14Z</time><name>PT701</name></trkpt>
<trkpt lat="54.595763" lon="-3.215454"><ele>363</ele><time>2024-06-01T10:12:18Z</time><name>PT702</name></trkpt>
<trkpt lat="54.595754" lon="-3.215512"><ele>363</ele><time>2024-06-01T10:12:21Z</time><name>PT703</name></trkpt>
<trkpt lat="54.595743" lon="-3.215576"><ele>364</ele><time>2024-06-01T10:12:24Z</time><name>PT704</name></trkpt>
<trkpt lat="54.595732" lon="-3.215647"><ele>364</ele><time>2024-06-01T10:12:28Z</time><name>PT705</name></trkpt>
<trkpt lat="54.595712" lon="-3.215710"><ele>365</ele><time>2024-06-01T10:12:32Z</time><name>PT706</name></trkpt>
<trkpt lat="54.595689" lon="-3.215800"><ele>365</ele><time>2024-06-01T10:12:36Z</time><name>PT707</name></trkpt>
<trkpt lat="54.595675" lon="-3.215839"><ele>365</ele><time>2024-06-01T10:12:39Z</time><name>PT708</name></trkpt>
<trkpt lat="54.595663" lon="-3.215896"><ele>364</ele><time>2024-06-01T10:12:42Z</time><name>PT709</name></trkpt>
<trkpt lat="54.595650" lon="-3.215957"><ele>365</ele><time>2024-06-01T10:12:46Z</time><name>PT710</name></trkpt>
<trkpt lat="54.595639" lon="-3.216019"><ele>366</ele><time>2024-06-01T10:12:50Z</time><name>PT711</name></trkpt>
<trkpt lat="54.595623" lon="-3.216090"><ele>366</ele><time>2024-06-01T10:12:54Z</time><name>PT712</name></trkpt>
<trkpt lat="54.595609" lon="-3.216148"><ele>366</ele><time>2024-06-01T10:12:58Z</time><name>PT713</name></trkpt>
<trkpt lat="54.595594" lon="-3.216205"><ele>366</ele><time>2024-06-01T10:13:01Z</time><name>PT714</name></trkpt>
<trkpt lat="54.595565" lon="-3.216267"><ele>365</ele><time>2024-06-01T10:13:05Z</time><name>PT715</name></trkpt>
<trkpt lat="54.595550" lon="-3.216326"><ele>365</ele><time>2024-06-01T10:13:09Z</time><name>PT716</name></trkpt>
<trkpt lat="54.595536" lon="-3.216380"><ele>365</ele><time>2024-06-01T10:13:12Z</time><name>PT717</name></trkpt>
<trkpt lat="54.595523" lon="-3.216434"><ele>366</ele><time>2024-06-01T10:13:16Z</time><name>PT718</name></trkpt>
<trkpt lat="54.595528" lon="-3.216492"><ele>366</ele><time>2024-06-01T10:13:20Z</time><name>PT719</name></trkpt>
<trkpt lat="54.595509" lon="-3.216559"><ele>367</ele><time>2024-06-01T10:13:24Z</time><name>PT720</name></trkpt>
<trkpt lat="54.595488" lon="-3.216605"><ele>369</ele><time>2024-06-01T10:13:28Z</time><name>PT721</name></trkpt>
<trkpt lat="54.595463" lon="-3.216651"><ele>369</ele><time>2024-06-01T10:13:31Z</time><name>PT722</name></trkpt>
<trkpt lat="54.595434" lon="-3.216692"><ele>369</ele><time>2024-06-01T10:13:35Z</time><name>PT723</name></trkpt>
<trkpt lat="54.595411" lon="-3.216748"><ele>370</ele><time>2024-06-01T10:13:38Z</time><name>PT724</name></trkpt>
<trkpt lat="54.595402" lon="-3.216788"><ele>370</ele><time>2024-06-01T10:13:41Z</time><name>PT725</name></trkpt>
<trkpt lat="54.595373" lon="-3.216835"><ele>371</ele><time>2024-06-01T10:13:44Z</time><name>PT726</name></trkpt>
<trkpt lat="54.595337" lon="-3.216871"><ele>370</ele><time>2024-06-01T10:13:48Z</time><name>PT727</name></trkpt>
<trkpt lat="54.595309" lon="-3.216924"><ele>371</ele><time>2024-06-01T10:13:51Z</time><name>PT728</name></trkpt>
<trkpt lat="54.595308" lon="-3.216993"><ele>371</ele><time>2024-06-01T10:13:55Z</time><name>PT729</name></trkpt>
<trkpt lat="54.595312" lon="-3.217077"><ele>370</ele><time>2024-06-01T10:13:59Z</time><name>PT730</name></trkpt>
<trkpt lat="54.595302" lon="-3.217153"><ele>369</ele><time>2024-06-01T10:14:03Z</time><name>PT731</name></trkpt>
<trkpt lat="54.595293" lon="-3.217235"><ele>370</ele><time>2024-06-01T10:14:07Z</time><name>PT732</name></trkpt>
<trkpt lat="54.595281" lon="-3.217331"><ele>370</ele><time>2024-06-01T10:14:11Z</time><name>PT733</name></trkpt>
<trkpt lat="54.595268" lon="-3.217400"><ele>371</ele><time>2024-06-01T10:14:15Z</time><name>PT734</name></trkpt>
<trkpt lat="54.595250" lon="-3.217460"><ele>371</ele><time>2024-06-01T10:14:18Z</time><name>PT735</name></trkpt>
<trkpt lat="54.595235" lon="-3.217530"><ele>372</ele><time>2024-06-01T10:14:22Z</time><name>PT736</name></trkpt>
<trkpt lat="54.595225" lon="-3.217587"><ele>373</ele><time>2024-06-01T10:14:25Z</time><name>PT737</name></trkpt>
<trkpt lat="54.595216" lon="-3.217653"><ele>374</ele><time>2024-06-01T10:14:29Z</time><name>PT738</name></trkpt>
<trkpt lat="54.595205" lon="-3.217702"><ele>375</ele><time>2024-06-01T10:14:32Z</time><name>PT739</name></trkpt>
<trkpt lat="54.595196" lon="-3.217764"><ele>376</ele><time>2024-06-01T10:14:35Z</time><name>PT740</name></trkpt>
<trkpt lat="54.595187" lon="-3.217826"><ele>377</ele><time>2024-06-01T10:14:39Z</time><name>PT741</name></trkpt>
<trkpt lat="54.595175" lon="-3.217906"><ele>377</ele><time>2024-06-01T10:14:43Z</time><name>PT742</name></trkpt>
<trkpt lat="54.595167" lon="-3.217969"><ele>377</ele><time>2024-06-01T10:14:47Z</time><name>PT743</name></trkpt>
<trkpt lat="54.595155" lon="-3.218032"><ele>378</ele><time>2024-06-01T10:14:51Z</time><name>PT744</name></trkpt>
<trkpt lat="54.595157" lon="-3.218104"><ele>379</ele><time>2024-06-01T10:14:55Z</time><name>PT745</name></trkpt>
<trkpt lat="54.595153" lon="-3.218152"><ele>379</ele><time>2024-06-01T10:14:58Z</time><name>PT746</name></trkpt>
<trkpt lat="54.595145" lon="-3.218216"><ele>380</ele><time>2024-06-01T10:15:02Z</time><name>PT747</name></trkpt>
<trkpt lat="54.595138" lon="-3.218275"><ele>381</ele><time>2024-06-01T10:15:05Z</time><name>PT748</name></trkpt>
<trkpt lat="54.595130" lon="-3.218322"><ele>381</ele><time>2024-06-01T10:15:08Z</time><name>PT749</name></trkpt>
<trkpt lat="54.595123" lon="-3.218380"><ele>381</ele><time>2024-06-01T10:15:11Z</time><name>PT750</name></trkpt>
<trkpt lat="54.595113" lon="-3.218429"><ele>382</ele><time>2024-06-01T10:15:14Z</time><name>PT751</name></trkpt>
<trkpt lat="54.595102" lon="-3.218475"><ele>382</ele><time>2024-06-01T10:15:17Z</time><name>PT752</name></trkpt>
<trkpt lat="54.595075" lon="-3.218542"><ele>382</ele><time>2024-06-01T10:15:21Z</time><name>PT753</name></trkpt>
<trkpt lat="54.595062" lon="-3.218586"><ele>382</ele><time>2024-06-01T10:15:24Z</time><name>PT754</name></trkpt>
<trkpt lat="54.595049" lon="-3.218641"><ele>383</ele><time>2024-06-01T10:15:27Z</time><name>PT755</name></trkpt>
<trkpt lat="54.595040" lon="-3.218714"><ele>384</ele><time>2024-06-01T10:15:31Z</time><name>PT756</name></trkpt>
<trkpt lat="54.595027" lon="-3.218770"><ele>385</ele><time>2024-06-01T10:15:35Z</time><name>PT757</name></trkpt>
<trkpt lat="54.595006" lon="-3.218826"><ele>384</ele><time>2024-06-01T10:15:38Z</time><name>PT758</name></trkpt>
<trkpt lat="54.594986" lon="-3.218880"><ele>385</ele><time>2024-06-01T10:15:42Z</time><name>PT759</name></trkpt>
<trkpt lat="54.594960" lon="-3.218939"><ele>386</ele><time>2024-06-01T10:15:46Z</time><name>PT760</name></trkpt>
<trkpt lat="54.594953" lon="-3.218966"><ele>386</ele><time>2024-06-01T10:15:49Z</time><name>PT761</name></trkpt>
<trkpt lat="54.594943" lon="-3.219037"><ele>386</ele><time>2024-06-01T10:15:53Z</time><name>PT762</name></trkpt>
<trkpt lat="54.594938" lon="-3.219081"><ele>387</ele><time>2024-06-01T10:15:56Z</time><name>PT763</name></trkpt>
<trkpt lat="54.594924" lon="-3.219138"><ele>387</ele><time>2024-06-01T10:15:59Z</time><name>PT764</name></trkpt>
<trkpt lat="54.594919" lon="-3.219199"><ele>388</ele><time>2024-06-01T10:16:03Z</time><name>PT765</name></trkpt>
<trkpt lat="54.594914" lon="-3.219263"><ele>388</ele><time>2024-06-01T10:16:07Z</time><name>PT766</name></trkpt>
<trkpt lat="54.594894" lon="-3.219336"><ele>388</ele><time>2024-06-01T10:16:11Z</time><name>PT767</name></trkpt>
<trkpt lat="54.594889" lon="-3.219370"><ele>388</ele><time>2024-06-01T10:16:14Z</time><name>PT768</name></trkpt>
<trkpt lat="54.594873" lon="-3.219441"><ele>389</ele><time>2024-06-01T10:16:18Z</time><name>PT769</name></trkpt>
<trkpt lat="54.594868" lon="-3.219501"><ele>389</ele><time>2024-06-01T10:16:22Z</time><name>PT770</name></trkpt>
<trkpt lat="54.594862" lon="-3.219559"><ele>390</ele><time>2024-06-01T10:16:26Z</time><name>PT771</name></trkpt>
<trkpt lat="54.594858" lon="-3.219603"><ele>390</ele><time>2024-06-01T10:16:29Z</time><name>PT772</name></trkpt>
<trkpt lat="54.594853" lon="-3.219671"><ele>391</ele><time>2024-06-01T10:16:33Z</time><name>PT773</name></trkpt>
<trkpt lat="54.594840" lon="-3.219709"><ele>391</ele><time>2024-06-01T10:16:36Z</time><name>PT774</name></trkpt>
<trkpt lat="54.594823" lon="-3.219765"><ele>392</ele><time>2024-06-01T10:16:40Z</time><name>PT775</name></trkpt>
<trkpt lat="54.594815" lon="-3.219803"><ele>392</ele><time>2024-06-01T10:16:43Z</time><name>PT776</name></trkpt>
<trkpt lat="54.594807" lon="-3.219849"><ele>393</ele><time>2024-06-01T10:16:46Z</time><name>PT777</name></trkpt>
<trkpt lat="54.594799" lon="-3.219892"><ele>393</ele><time>2024-06-01T10:16:49Z</time><name>PT778</name></trkpt>
<trkpt lat="54.594792" lon="-3.219955"><ele>395</ele><time>2024-06-01T10:16:53Z</time><name>PT779</name></trkpt>
<trkpt lat="54.594800" lon="-3.220015"><ele>396</ele><time>2024-06-01T10:16:57Z</time><name>PT780</name></trkpt>
<trkpt lat="54.594800" lon="-3.220062"><ele>396</ele><time>2024-06-01T10:17:00Z</time><name>PT781</name></trkpt>
<trkpt lat="54.594801" lon="-3.220121"><ele>397</ele><time>2024-06-01T10:17:04Z</time><name>PT782</name></trkpt>
<trkpt lat="54.594799" lon="-3.220163"><ele>397</ele><time>2024-06-01T10:17:07Z</time><name>PT783</name></trkpt>
<trkpt lat="54.594794" lon="-3.220221"><ele>398</ele><time>2024-06-01T10:17:11Z</time><name>PT784</name></trkpt>
<trkpt lat="54.594793" lon="-3.220259"><ele>399</ele><time>2024-06-01T10:17:14Z</time><name>PT785</name></trkpt>
<trkpt lat="54.594797" lon="-3.220331"><ele>400</ele><time>2024-06-01T10:17:18Z</time><name>PT786</name></trkpt>
<trkpt lat="54.594805" lon="-3.220390"><ele>401</ele><time>2024-06-01T10:17:22Z</time><name>PT787</name></trkpt>
<trkpt lat="54.594808" lon="-3.220443"><ele>403</ele><time>2024-06-01T10:17:26Z</time><name>PT788</name></trkpt>
<trkpt lat="54.594810" lon="-3.220504"><ele>403</ele><time>2024-06-01T10:17:30Z</time><name>PT789</name></trkpt>
<trkpt lat="54.594815" lon="-3.220541"><ele>403</ele><time>2024-06-01T10:17:33Z</time><name>PT790</name></trkpt>
<trkpt lat="54.594817" lon="-3.220603"><ele>401</ele><time>2024-06-01T10:17:37Z</time><name>PT791</name></trkpt>
<trkpt lat="54.594825" lon="-3.220660"><ele>401</ele><time>2024-06-01T10:17:41Z</time><name>PT792</name></trkpt>
<trkpt lat="54.594831" lon="-3.220701"><ele>402</ele><time>2024-06-01T10:17:44Z</time><name>PT793</name></trkpt>
<trkpt lat="54.594824" lon="-3.220754"><ele>403</ele><time>2024-06-01T10:17:48Z</time><name>PT794</name></trkpt>
<trkpt lat="54.594825" lon="-3.220782"><ele>403</ele><time>2024-06-01T10:17:51Z</time><name>PT795</name></trkpt>
<trkpt lat="54.594828" lon="-3.220838"><ele>404</ele><time>2024-06-01T10:17:55Z</time><name>PT796</name></trkpt>
<trkpt lat="54.594827" lon="-3.220871"><ele>405</ele><time>2024-06-01T10:17:58Z</time><name>PT797</name></trkpt>
<trkpt lat="54.594837" lon="-3.220916"><ele>406</ele><time>2024-06-01T10:18:02Z</time><name>PT798</name></trkpt>
<trkpt lat="54.594858" lon="-3.220983"><ele>407</ele><time>2024-06-01T10:18:06Z</time><name>PT799</name></trkpt>
<trkpt lat="54.594856" lon="-3.221015"><ele>406</ele><time>2024-06-01T10:18:09Z</time><name>PT800</name></trkpt>
<trkpt lat="54.594862" lon="-3.221070"><ele>407</ele><time>2024-06-01T10:18:13Z</time><name>PT801</name></trkpt>
<trkpt lat="54.594863" lon="-3.221110"><ele>407</ele><time>2024-06-01T10:18:17Z</time><name>PT802</name></trkpt>
<trkpt lat="54.594865" lon="-3.221151"><ele>408</ele><time>2024-06-01T10:18:20Z</time><name>PT803</name></trkpt>
<trkpt lat="54.594870" lon="-3.221198"><ele>409</ele><time>2024-06-01T10:18:24Z</time><name>PT804</name></trkpt>
<trkpt lat="54.594875" lon="-3.221223"><ele>410</ele><time>2024-06-01T10:18:27Z</time><name>PT805</name></trkpt>
<trkpt lat="54.594880" lon="-3.221268"><ele>409</ele><time>2024-06-01T10:18:30Z</time><name>PT806</name></trkpt>
<trkpt lat="54.594890" lon="-3.221301"><ele>411</ele><time>2024-06-01T10:18:34Z</time><name>PT807</name></trkpt>
<trkpt lat="54.594894" lon="-3.221331"><ele>412</ele><time>2024-06-01T10:18:37Z</time><name>PT808</name></trkpt>
<trkpt lat="54.594904" lon="-3.221376"><ele>413</ele><time>2024-06-01T10:18:41Z</time><name>PT809</name></trkpt>
<trkpt lat="54.594908" lon="-3.221414"><ele>414</ele><time>2024-06-01T10:18:45Z</time><name>PT810</name></trkpt>
<trkpt lat="54.594916" lon="-3.221441"><ele>414</ele><time>2024-06-01T10:18:48Z</time><name>PT811</name></trkpt>
<trkpt lat="54.594922" lon="-3.221474"><ele>416</ele><time>2024-06-01T10:18:52Z</time><name>PT812</name></trkpt>
<trkpt lat="54.594924" lon="-3.221509"><ele>416</ele><time>2024-06-01T10:18:56Z</time><name>PT813</name></trkpt>
<trkpt lat="54.594929" lon="-3.221537"><ele>417</ele><time>2024-06-01T10:18:59Z</time><name>PT814</name></trkpt>
<trkpt lat="54.594934" lon="-3.221587"><ele>418</ele><time>2024-06-01T10:19:03Z</time><name>PT815</name></trkpt>
<trkpt lat="54.594939" lon="-3.221614"><ele>417</ele><time>2024-06-01T10:19:07Z</time><name>PT816</name></trkpt>
<trkpt lat="54.594949" lon="-3.221644"><ele>418</ele><time>2024-06-01T10:19:11Z</time><name>PT817</name></trkpt>
<trkpt lat="54.594951" lon="-3.221679"><ele>419</ele><time>2024-06-01T10:19:15Z</time><name>PT818</name></trkpt>
<trkpt lat="54.594958" lon="-3.221714"><ele>420</ele><time>2024-06-01T10:19:19Z</time><name>PT819</name></trkpt>
<trkpt lat="54.594966" lon="-3.221747"><ele>421</ele><time>2024-06-01T10:19:23Z</time><name>PT820</name></trkpt>
<trkpt lat="54.594966" lon="-3.221763"><ele>421</ele><time>2024-06-01T10:19:27Z</time><name>PT821</name></trkpt>
<trkpt lat="54.594972" lon="-3.221794"><ele>422</ele><time>2024-06-01T10:19:30Z</time><name>PT822</name></trkpt>
<trkpt lat="54.594978" lon="-3.221820"><ele>422</ele><time>2024-06-01T10:19:33Z</time><name>PT823</name></trkpt>
<trkpt lat="54.594985" lon="-3.221865"><ele>423</ele><time>2024-06-01T10:19:37Z</time><name>PT824</name></trkpt>
<trkpt lat="54.594987" lon="-3.221910"><ele>424</ele><time>2024-06-01T10:19:41Z</time><name>PT825</name></trkpt>
<trkpt lat="54.594984" lon="-3.221942"><ele>425</ele><time>2024-06-01T10:19:44Z</time><name>PT826</name></trkpt>
<trkpt lat="54.594981" lon="-3.221978"><ele>426</ele><time>2024-06-01T10:19:48Z</time><name>PT827</name></trkpt>
<trkpt lat="54.594985" lon="-3.222006"><ele>426</ele><time>2024-06-01T10:19:51Z</time><name>PT828</name></trkpt>
<trkpt lat="54.594984" lon="-3.222031"><ele>427</ele><time>2024-06-01T10:19:54Z</time><name>PT829</name></trkpt>
<trkpt lat="54.594984" lon="-3.222065"><ele>428</ele><time>2024-06-01T10:19:58Z</time><name>PT830</name></trkpt>
<trkpt lat="54.594992" lon="-3.222090"><ele>429</ele><time>2024-06-01T10:20:02Z</time><name>PT831</name></trkpt>
<trkpt lat="54.595006" lon="-3.222118"><ele>430</ele><time>2024-06-01T10:20:06Z</time><name>PT832</name></trkpt>
<trkpt lat="54.595012" lon="-3.222147"><ele>430</ele><time>2024-06-01T10:20:09Z</time><name>PT833</name></trkpt>
<trkpt lat="54.595019" lon="-3.222189"><ele>431</ele><time>2024-06-01T10:20:13Z</time><name>PT834</name></trkpt>
<trkpt lat="54.595024" lon="-3.222225"><ele>433</ele><time>2024-06-01T10:20:17Z</time><name>PT835</name></trkpt>
<trkpt lat="54.595021" lon="-3.222249"><ele>433</ele><time>2024-06-01T10:20:20Z</time><name>PT836</name></trkpt>
<trkpt lat="54.595031" lon="-3.222288"><ele>434</ele><time>2024-06-01T10:20:24Z</time><name>PT837</name></trkpt>
<trkpt lat="54.595034" lon="-3.222314"><ele>435</ele><time>2024-06-01T10:20:27Z</time><name>PT838</name></trkpt>
<trkpt lat="54.595040" lon="-3.222336"><ele>436</ele><time>2024-06-01T10:20:31Z</time><name>PT839</name></trkpt>
<trkpt lat="54.595048" lon="-3.222357"><ele>437</ele><time>2024-06-01T10:20:35Z</time><name>PT840</name></trkpt>
<trkpt lat="54.595050" lon="-3.222380"><ele>437</ele><time>2024-06-01T10:20:38Z</time><name>PT841</name></trkpt>
<trkpt lat="54.595055" lon="-3.222417"><ele>438</ele><time>2024-06-01T10:20:42Z</time><name>PT842</name></trkpt>
<trkpt lat="54.595060" lon="-3.222451"><ele>438</ele><time>2024-06-01T10:20:46Z</time><name>PT843</name></trkpt>
<trkpt lat="54.595066" lon="-3.222479"><ele>440</ele><time>2024-06-01T10:20:50Z</time><name>PT844</name></trkpt>
<trkpt lat="54.595072" lon="-3.222503"><ele>440</ele><time>2024-06-01T10:20:53Z</time><name>PT845</name></trkpt>
<trkpt lat="54.595073" lon="-3.222530"><ele>441</ele><time>2024-06-01T10:20:57Z</time><name>PT846</name></trkpt>
<trkpt lat="54.595073" lon="-3.222557"><ele>441</ele><time>2024-06-01T10:21:00Z</time><name>PT847</name></trkpt>
<trkpt lat="54.595069" lon="-3.222595"><ele>442</ele><time>2024-06-01T10:21:04Z</time><name>PT848</name></trkpt>
<trkpt lat="54.595071" lon="-3.222619"><ele>443</ele><time>2024-06-01T10:21:07Z</time><name>PT849</name></trkpt>
<trkpt lat="54.595072" lon="-3.222634"><ele>444</ele><time>2024-06-01T10:21:10Z</time><name>PT850</name></trkpt>
<trkpt lat="54.595079" lon="-3.222667"><ele>445</ele><time>2024-06-01T10:21:14Z</time><name>PT851</name></trkpt>
<trkpt lat="54.595084" lon="-3.222693"><ele>445</ele><time>2024-06-01T10:21:18Z</time><name>PT852</name></trkpt>
<trkpt lat="54.595087" lon="-3.222734"><ele>446</ele><time>2024-06-01T10:21:22Z</time><name>PT853</name></trkpt>
<trkpt lat="54.595092" lon="-3.222768"><ele>447</ele><time>2024-06-01T10:21:26Z</time><name>PT854</name></trkpt>
<trkpt lat="54.595101" lon="-3.222798"><ele>447</ele><time>2024-06-01T10:21:30Z</time><name>PT855</name></trkpt>
<trkpt lat="54.595112" lon="-3.222829"><ele>448</ele><time>2024-06-01T10:21:34Z</time><name>PT856</name></trkpt>
<trkpt lat="54.595110" lon="-3.222857"><ele>449</ele><time>2024-06-01T10:21:37Z</time><name>PT857</name></trkpt>
<trkpt lat="54.595115" lon="-3.222899"><ele>449</ele><time>2024-06-01T10:21:41Z</time><name>PT858</name></trkpt>
<trkpt lat="54.595121" lon="-3.222919"><ele>450</ele><time>2024-06-01T10:21:45Z</time><name>PT859</name></trkpt>
<trkpt lat="54.595136" lon="-3.222936"><ele>450</ele><time>2024-06-01T10:21:49Z</time><name>PT860</name></trkpt>
<trkpt lat="54.595141" lon="-3.222960"><ele>450</ele><time>2024-06-01T10:21:52Z</time><name>PT861</name></trkpt>
<trkpt lat="54.595145" lon="-3.222981"><ele>451</ele><time>2024-06-01T10:21:55Z</time><name>PT862</name></trkpt>
<trkpt lat="54.595152" lon="-3.223013"><ele>452</ele><time>2024-06-01T10:21:59Z</time><name>PT863</name></trkpt>
<trkpt lat="54.595165" lon="-3.223047"><ele>453</ele><time>2024-06-01T10:22:03Z</time><name>PT864</name></trkpt>
<trkpt lat="54.595170" lon="-3.223070"><ele>453</ele><time>2024-06-01T10:22:06Z</time><name>PT865</name></trkpt>
<trkpt lat="54.595176" lon="-3.223098"><ele>453</ele><time>2024-06-01T10:22:09Z</time><name>PT866</name></trkpt>
<trkpt lat="54.595184" lon="-3.223134"><ele>454</ele><time>2024-06-01T10:22:13Z</time><name>PT867</name></trkpt>
<trkpt lat="54.595193" lon="-3.223159"><ele>455</ele><time>2024-06-01T10:22:16Z</time><name>PT868</name></trkpt>
<trkpt lat="54.595196" lon="-3.223190"><ele>456</ele><time>2024-06-01T10:22:19Z</time><name>PT869</name></trkpt>
<trkpt lat="54.595203" lon="-3.223216"><ele>456</ele><time>2024-06-01T10:22:22Z</time><name>PT870</name></trkpt>
<trkpt lat="54.595210" lon="-3.223258"><ele>457</ele><time>2024-06-01T10:22:26Z</time><name>PT871</name></trkpt>
<trkpt lat="54.595204" lon="-3.223296"><ele>458</ele><time>2024-06-01T10:22:30Z</time><name>PT872</name></trkpt>
<trkpt lat="54.595216" lon="-3.223317"><ele>459</ele><time>2024-06-01T10:22:33Z</time><name>PT873</name></trkpt>
<trkpt lat="54.595220" lon="-3.223342"><ele>460</ele><time>2024-06-01T10:22:36Z</time><name>PT874</name></trkpt>
<trkpt lat="54.595226" lon="-3.223373"><ele>461</ele><time>2024-06-01T10:22:40Z</time><name>PT875</name></trkpt>
<trkpt lat="54.595232" lon="-3.223397"><ele>462</ele><time>2024-06-01T10:22:43Z</time><name>PT876</name></trkpt>
<trkpt lat="54.595237" lon="-3.223420"><ele>462</ele><time>2024-06-01T10:22:46Z</time><name>PT877</name></trkpt>
<trkpt lat="54.595252" lon="-3.223452"><ele>464</ele><time>2024-06-01T10:22:50Z</time><name>PT878</name></trkpt>
<trkpt lat="54.595259" lon="-3.223476"><ele>465</ele><time>2024-06-01T10:22:53Z</time><name>PT879</name></trkpt>
<trkpt lat="54.595260" lon="-3.223500"><ele>466</ele><time>2024-06-01T10:22:56Z</time><name>PT880</name></trkpt>
<trkpt lat="54.595255" lon="-3.223531"><ele>466</ele><time>2024-06-01T10:22:59Z</time><name>PT881</name></trkpt>
<trkpt lat="54.595252" lon="-3.223575"><ele>466</ele><time>2024-06-01T10:23:03Z</time><name>PT882</name></trkpt>
<trkpt lat="54.595251" lon="-3.223607"><ele>467</ele><time>2024-06-01T10:23:06Z</time><name>PT883</name></trkpt>
<trkpt lat="54.595248" lon="-3.223655"><ele>467</ele><time>2024-06-01T10:23:10Z</time><name>PT884</name></trkpt>
<trkpt lat="54.595248" lon="-3.223697"><ele>468</ele><time>2024-06-01T10:23:14Z</time><name>PT885</name></trkpt>
<trkpt lat="54.595246" lon="-3.223728"><ele>469</ele><time>2024-06-01T10:23:17Z</time><name>PT886</name></trkpt>
<trkpt lat="54.595242" lon="-3.223768"><ele>470</ele><time>2024-06-01T10:23:21Z</time><name>PT887</name></trkpt>
<trkpt lat="54.595243" lon="-3.223800"><ele>471</ele><time>2024-06-01T10:23:24Z</time><name>PT888</name></trkpt>
<trkpt lat="54.595242" lon="-3.223845"><ele>471</ele><time>2024-06-01T10:23:28Z</time><name>PT889</name></trkpt>
<trkpt lat="54.595235" lon="-3.223893"><ele>472</ele><time>2024-06-01T10:23:32Z</time><name>PT890</name></trkpt>
<trkpt lat="54.595229" lon="-3.223926"><ele>472</ele><time>2024-06-01T10:23:35Z</time><name>PT891</name></trkpt>
<trkpt lat="54.595226" lon="-3.223962"><ele>472</ele><time>2024-06-01T10:23:39Z</time><name>PT892</name></trkpt>
<trkpt lat="54.595215" lon="-3.223993"><ele>473</ele><time>2024-06-01T10:23:43Z</time><name>PT893</name></trkpt>
<trkpt lat="54.595203" lon="-3.224023"><ele>473</ele><time>2024-06-01T10:23:47Z</time><name>PT894</name></trkpt>
<trkpt lat="54.595194" lon="-3.224055"><ele>474</ele><time>2024-06-01T10:23:50Z</time><name>PT895</name></trkpt>
<trkpt lat="54.595194" lon="-3.224087"><ele>475</ele><time>2024-06-01T10:23:54Z</time><name>PT896</name></trkpt>
<trkpt lat="54.595198" lon="-3.224112"><ele>475</ele><time>2024-06-01T10:23:57Z</time><name>PT897</name></trkpt>
<trkpt lat="54.595182" lon="-3.224153"><ele>475</ele><time>2024-06-01T10:24:01Z</time><name>PT898</name></trkpt>
<trkpt lat="54.595177" lon="-3.224182"><ele>476</ele><time>2024-06-01T10:24:04Z</time><name>PT899</name></trkpt>
<trkpt lat="54.595170" lon="-3.224217"><ele>476</ele><time>2024-06-01T10:24:08Z</time><name>PT900</name></trkpt>
<trkpt lat="54.595173" lon="-3.224241"><ele>477</ele><time>2024-06-01T10:24:11Z</time><name>PT901</name></trkpt>
<trkpt lat="54.595165" lon="-3.224262"><ele>477</ele><time>2024-06-01T10:24:14Z</time><name>PT902</name></trkpt>
<trkpt lat="54.595166" lon="-3.224299"><ele>478</ele><time>2024-06-01T10:24:18Z</time><name>PT903</name></trkpt>
<trkpt lat="54.595164" lon="-3.224319"><ele>478</ele><time>2024-06-01T10:24:21Z</time><name>PT904</name></trkpt>
<trkpt lat="54.595165" lon="-3.224348"><ele>479</ele><time>2024-06-01T10:24:24Z</time><name>PT905</name></trkpt>
<trkpt lat="54.595162" lon="-3.224385"><ele>480</ele><time>2024-06-01T10:24:27Z</time><name>PT906</name></trkpt>
<trkpt lat="54.595157" lon="-3.224423"><ele>480</ele><time>2024-06-01T10:24:31Z</time><name>PT907</name></trkpt>
<trkpt lat="54.595158" lon="-3.224450"><ele>481</ele><time>2024-06-01T10:24:34Z</time><name>PT908</name></trkpt>
<trkpt lat="54.595161" lon="-3.224472"><ele>482</ele><time>2024-06-01T10:24:38Z</time><name>PT909</name></trkpt>
<trkpt lat="54.595166" lon="-3.224494"><ele>483</ele><time>2024-06-01T10:24:41Z</time><name>PT910</name></trkpt>
<trkpt lat="54.595166" lon="-3.224524"><ele>484</ele><time>2024-06-01T10:24:44Z</time><name>PT911</name></trkpt>
<trkpt lat="54.595169" lon="-3.224568"><ele>485</ele><time>2024-06-01T10:24:48Z</time><name>PT912</name></trkpt>
<trkpt lat="54.595168" lon="-3.224609"><ele>486</ele><time>2024-06-01T10:24:52Z</time><name>PT913</name></trkpt>
<trkpt lat="54.595168" lon="-3.224641"><ele>486</ele><time>2024-06-01T10:24:55Z</time><name>PT914</name></trkpt>
<trkpt lat="54.595167" lon="-3.224678"><ele>486</ele><time>2024-06-01T10:24:59Z</time><name>PT915</name></trkpt>
<trkpt lat="54.595158" lon="-3.224704"><ele>487</ele><time>2024-06-01T10:25:02Z</time><name>PT916</name></trkpt>
<trkpt lat="54.595151" lon="-3.224740"><ele>487</ele><time>2024-06-01T10:25:05Z</time><name>PT917</name></trkpt>
<trkpt lat="54.595144" lon="-3.224779"><ele>488</ele><time>2024-06-01T10:25:09Z</time><name>PT918</name></trkpt>
<trkpt lat="54.595137" lon="-3.224806"><ele>488</ele><time>2024-06-01T10:25:12Z</time><name>PT919</name></trkpt>
<trkpt lat="54.595127" lon="-3.224840"><ele>488</ele><time>2024-06-01T10:25:16Z</time><name>PT920</name></trkpt>
<trkpt lat="54.595125" lon="-3.224877"><ele>488</ele><time>2024-06-01T10:25:19Z</time><name>PT921</name></trkpt>
<trkpt lat="54.595121" lon="-3.224917"><ele>490</ele><time>2024-06-01T10:25:23Z</time><name>PT922</name></trkpt>
<trkpt lat="54.595110" lon="-3.224943"><ele>490</ele><time>2024-06-01T10:25:26Z</time><name>PT923</name></trkpt>
<trkpt lat="54.595100" lon="-3.224986"><ele>491</ele><time>2024-06-01T10:25:30Z</time><name>PT924</name></trkpt>
<trkpt lat="54.595089" lon="-3.225029"><ele>492</ele><time>2024-06-01T10:25:34Z</time><name>PT925</name></trkpt>
<trkpt lat="54.595086" lon="-3.225059"><ele>494</ele><time>2024-06-01T10:25:38Z</time><name>PT926</name></trkpt>
<trkpt lat="54.595091" lon="-3.225091"><ele>494</ele><time>2024-06-01T10:25:41Z</time><name>PT927</name></trkpt>
<trkpt lat="54.595089" lon="-3.225133"><ele>495</ele><time>2024-06-01T10:25:44Z</time><name>PT928</name></trkpt>
<trkpt lat="54.595084" lon="-3.225162"><ele>495</ele><time>2024-06-01T10:25:47Z</time><name>PT929</name></trkpt>
<trkpt lat="54.595084" lon="-3.225209"><ele>495</ele><time>2024-06-01T10:25:51Z</time><name>PT930</name></trkpt>
<trkpt lat="54.595079" lon="-3.225248"><ele>496</ele><time>2024-06-01T10:25:55Z</time><name>PT931</name></trkpt>
<trkpt lat="54.595072" lon="-3.225287"><ele>497</ele><time>2024-06-01T10:25:59Z</time><name>PT932</name></trkpt>
<trkpt lat="54.595066" lon="-3.225320"><ele>497</ele><time>2024-06-01T10:26:02Z</time><name>PT933</name></trkpt>
<trkpt lat="54.595060" lon="-3.225356"><ele>498</ele><time>2024-06-01T10:26:06Z</time><name>PT934</name></trkpt>
<trkpt lat="54.595060" lon="-3.225398"><ele>499</ele><time>2024-06-01T10:26:10Z</time><name>PT935</name></trkpt>
<trkpt lat="54.595059" lon="-3.225425"><ele>500</ele><time>2024-06-01T10:26:13Z</time><name>PT936</name></trkpt>
<trkpt lat="54.595064" lon="-3.225464"><ele>500</ele><time>2024-06-01T10:26:17Z</time><name>PT937</name></trkpt>
<trkpt lat="54.595067" lon="-3.225500"><ele>501</ele><time>2024-06-01T10:26:20Z</time><name>PT938</name></trkpt>
<trkpt lat="54.595065" lon="-3.225549"><ele>503</ele><time>2024-06-01T10:26:24Z</time><name>PT939</name></trkpt>
<trkpt lat="54.595056" lon="-3.225582"><ele>503</ele><time>2024-06-01T10:26:27Z</time><name>PT940</name></trkpt>
<trkpt lat="54.595044" lon="-3.225618"><ele>505</ele><time>2024-06-01T10:26:31Z</time><name>PT941</name></trkpt>
<trkpt lat="54.595039" lon="-3.225657"><ele>506</ele><time>2024-06-01T10:26:35Z</time><name>PT942</name></trkpt>
<trkpt lat="54.595031" lon="-3.225697"><ele>506</ele><time>2024-06-01T10:26:39Z</time><name>PT943</name></trkpt>
<trkpt lat="54.595023" lon="-3.225729"><ele>506</ele><time>2024-06-01T10:26:42Z</time><name>PT944</name></trkpt>
<trkpt lat="54.595017" lon="-3.225767"><ele>506</ele><time>2024-06-01T10:26:46Z</time><name>PT945</name></trkpt>
<trkpt lat="54.595004" lon="-3.225814"><ele>506</ele><time>2024-06-01T10:26:50Z</time><name>PT946</name></trkpt>
<trkpt lat="54.594990" lon="-3.225844"><ele>507</ele><time>2024-06-01T10:26:53Z</time><name>PT947</name></trkpt>
<trkpt lat="54.594980" lon="-3.225871"><ele>508</ele><time>2024-06-01T10:26:56Z</time><name>PT948</name></trkpt>
<trkpt lat="54.594974" lon="-3.225900"><ele>508</ele><time>2024-06-01T10:26:59Z</time><name>PT949</name></trkpt>
<trkpt lat="54.594974" lon="-3.225917"><ele>510</ele><time>2024-06-01T10:27:03Z</time><name>PT950</name></trkpt>
<trkpt lat="54.594978" lon="-3.225931"><ele>510</ele><time>2024-06-01T10:27:06Z</time><name>PT951</name></trkpt>
<trkpt lat="54.594976" lon="-3.225940"><ele>511</ele><time>2024-06-01T10:27:09Z</time><name>PT952</name></trkpt>
<trkpt lat="54.594972" lon="-3.225970"><ele>512</ele><time>2024-06-01T10:27:13Z</time><name>PT953</name></trkpt>
<trkpt lat="54.594963" lon="-3.226019"><ele>512</ele><time>2024-06-01T10:27:17Z</time><name>PT954</name></trkpt>
<trkpt lat="54.594958" lon="-3.226055"><ele>513</ele><time>2024-06-01T10:27:20Z</time><name>PT955</name></trkpt>
<trkpt lat="54.594954" lon="-3.226088"><ele>513</ele><time>2024-06-01T10:27:23Z</time><name>PT956</name></trkpt>
<trkpt lat="54.594952" lon="-3.226142"><ele>514</ele><time>2024-06-01T10:27:27Z</time><name>PT957</name></trkpt>
<trkpt lat="54.594949" lon="-3.226192"><ele>515</ele><time>2024-06-01T10:27:31Z</time><name>PT958</name></trkpt>
<trkpt lat="54.594944" lon="-3.226208"><ele>516</ele><time>2024-06-01T10:27:34Z</time><name>PT959</name></trkpt>
<trkpt lat="54.594929" lon="-3.226259"><ele>516</ele><time>2024-06-01T10:27:38Z</time><name>PT960</name></trkpt>
<trkpt lat="54.594923" lon="-3.226301"><ele>517</ele><time>2024-06-01T10:27:42Z</time><name>PT961</name></trkpt>
<trkpt lat="54.594920" lon="-3.226337"><ele>518</ele><time>2024-06-01T10:27:46Z</time><name>PT962</name></trkpt>
<trkpt lat="54.594916" lon="-3.226365"><ele>517</ele><time>2024-06-01T10:27:49Z</time><name>PT963</name></trkpt>
<trkpt lat="54.594922" lon="-3.226405"><ele>518</ele><time>2024-06-01T10:27:53Z</time><name>PT964</name></trkpt>
<trkpt lat="54.594923" lon="-3.226432"><ele>519</ele><time>2024-06-01T10:27:56Z</time><name>PT965</name></trkpt>
<trkpt lat="54.594923" lon="-3.226464"><ele>520</ele><time>2024-06-01T10:28:00Z</time><name>PT966</name></trkpt>
<trkpt lat="54.594921" lon="-3.226489"><ele>521</ele><time>2024-06-01T10:28:04Z</time><name>PT967</name></trkpt>
<trkpt lat="54.594916" lon="-3.226529"><ele>522</ele><time>2024-06-01T10:28:08Z</time><name>PT968</name></trkpt>
<trkpt lat="54.594908" lon="-3.226578"><ele>521</ele><time>2024-06-01T10:28:12Z</time><name>PT969</name></trkpt>
<trkpt lat="54.594909" lon="-3.226604"><ele>523</ele><time>2024-06-01T10:28:15Z</time><name>PT970</name></trkpt>
<trkpt lat="54.594898" lon="-3.226637"><ele>523</ele><time>2024-06-01T10:28:19Z</time><name>PT971</name></trkpt>
<trkpt lat="54.594890" lon="-3.226667"><ele>524</ele><time>2024-06-01T10:28:22Z</time><name>PT972</name></trkpt>
<trkpt lat="54.594880" lon="-3.226692"><ele>525</ele><time>2024-06-01T10:28:25Z</time><name>PT973</name></trkpt>
<trkpt lat="54.594877" lon="-3.226732"><ele>526</ele><time>2024-06-01T10:28:29Z</time><name>PT974</name></trkpt>
<trkpt lat="54.594865" lon="-3.226767"><ele>527</ele><time>2024-06-01T10:28:33Z</time><name>PT975</name></trkpt>
<trkpt lat="54.594852" lon="-3.226798"><ele>527</ele><time>2024-06-01T10:28:36Z</time><name>PT976</name></trkpt>
<trkpt lat="54.594841" lon="-3.226842"><ele>528</ele><time>2024-06-01T10:28:40Z</time><name>PT977</name></trkpt>
<trkpt lat="54.594827" lon="-3.226896"><ele>527</ele><time>2024-06-01T10:28:44Z</time><name>PT978</name></trkpt>
<trkpt lat="54.594803" lon="-3.226937"><ele>528</ele><time>2024-06-01T10:28:48Z</time><name>PT979</name></trkpt>
<trkpt lat="54.594787" lon="-3.226974"><ele>529</ele><time>2024-06-01T10:28:52Z</time><name>PT980</name></trkpt>
<trkpt lat="54.594771" lon="-3.227001"><ele>530</ele><time>2024-06-01T10:28:56Z</time><name>PT981</name></trkpt>
<trkpt lat="54.594759" lon="-3.227034"><ele>530</ele><time>2024-06-01T10:28:59Z</time><name>PT982</name></trkpt>
<trkpt lat="54.594760" lon="-3.227063"><ele>531</ele><time>2024-06-01T10:29:02Z</time><name>PT983</name></trkpt>
<trkpt lat="54.594755" lon="-3.227088"><ele>531</ele><time>2024-06-01T10:29:05Z</time><name>PT984</name></trkpt>
<trkpt lat="54.594742" lon="-3.227134"><ele>532</ele><time>2024-06-01T10:29:09Z</time><name>PT985</name></trkpt>
<trkpt lat="54.594742" lon="-3.227167"><ele>533</ele><time>2024-06-01T10:29:12Z</time><name>PT986</name></trkpt>
<trkpt lat="54.594736" lon="-3.227218"><ele>534</ele><time>2024-06-01T10:29:16Z</time><name>PT987</name></trkpt>
<trkpt lat="54.594730" lon="-3.227254"><ele>534</ele><time>2024-06-01T10:29:19Z</time><name>PT988</name></trkpt>
<trkpt lat="54.594725" lon="-3.227305"><ele>535</ele><time>2024-06-01T10:29:23Z</time><name>PT989</name></trkpt>
<trkpt lat="54.594723" lon="-3.227346"><ele>537</ele><time>2024-06-01T10:29:27Z</time><name>PT990</name></trkpt>
<trkpt lat="54.594713" lon="-3.227400"><ele>538</ele><time>2024-06-01T10:29:31Z</time><name>PT991</name></trkpt>
<trkpt lat="54.594702" lon="-3.227443"><ele>538</ele><time>2024-06-01T10:29:34Z</time><name>PT992</name></trkpt>
<trkpt lat="54.594693" lon="-3.227481"><ele>538</ele><time>2024-06-01T10:29:38Z</time><name>PT993</name></trkpt>
<trkpt lat="54.594684" lon="-3.227521"><ele>539</ele><time>2024-06-01T10:29:41Z</time><name>PT994</name></trkpt>
<trkpt lat="54.594677" lon="-3.227563"><ele>540</ele><time>2024-06-01T10:29:44Z</time><name>PT995</name></trkpt>
<trkpt lat="54.594673" lon="-3.227615"><ele>540</ele><time>2024-06-01T10:29:48Z</time><name>PT996</name></trkpt>
<trkpt lat="54.594679" lon="-3.227670"><ele>540</ele><time>2024-06-01T10:29:52Z</time><name>PT997</name></trkpt>
<trkpt lat="54.594687" lon="-3.227724"><ele>542</ele><time>2024-06-01T10:29:55Z</time><name>PT998</name></trkpt>
<trkpt lat="54.594685" lon="-3.227770"><ele>543</ele><time>2024-06-01T10:29:59Z</time><name>PT999</name></trkpt>
<trkpt lat="54.594685" lon="-3.227810"><ele>543</ele><time>2024-06-01T10:30:02Z</time><name>PT1000</name></trkpt>
<trkpt lat="54.594676" lon="-3.227861"><ele>544</ele><time>2024-06-01T10:30:06Z</time><name>PT1001</name></trkpt>
<trkpt lat="54.594677" lon="-3.227893"><ele>545</ele><time>2024-06-01T10:30:09Z</time><name>PT1002</name></trkpt>
<trkpt lat="54.594665" lon="-3.227938"><ele>545</ele><time>2024-06-01T10:30:13Z</time><name>PT1003</name></trkpt>
<trkpt lat="54.594654" lon="-3.227973"><ele>545</ele><time>2024-06-01T10:30:16Z</time><name>PT1004</name></trkpt>
<trkpt lat="54.594649" lon="-3.228021"><ele>546</ele><time>2024-06-01T10:30:19Z</time><name>PT1005</name></trkpt>
<trkpt lat="54.594626" lon="-3.228072"><ele>548</ele><time>2024-06-01T10:30:23Z</time><name>PT1006</name></trkpt>
<trkpt lat="54.594602" lon="-3.228084"><ele>549</ele><time>2024-06-01T10:30:26Z</time><name>PT1007</name></trkpt>
<trkpt lat="54.594575" lon="-3.228110"><ele>548</ele><time>2024-06-01T10:30:30Z</time><name>PT1008</name></trkpt>
<trkpt lat="54.594561" lon="-3.228133"><ele>549</ele><time>2024-06-01T10:30:33Z</time><name>PT1009</name></trkpt>
<trkpt lat="54.594552" lon="-3.228162"><ele>549</ele><time>2024-06-01T10:30:36Z</time><name>PT1010</name></trkpt>
<trkpt lat="54.594529" lon="-3.228180"><ele>550</ele><time>2024-06-01T10:30:40Z</time><name>PT1011</name></trkpt>
<trkpt lat="54.594521" lon="-3.228208"><ele>551</ele><time>2024-06-01T10:30:43Z</time><name>PT1012</name></trkpt>
<trkpt lat="54.594513" lon="-3.228249"><ele>552</ele><time>2024-06-01T10:30:47Z</time><name>PT1013</name></trkpt>
<trkpt lat="54.594492" lon="-3.228274"><ele>553</ele><time>2024-06-01T10:30:50Z</time><name>PT1014</name></trkpt>
<trkpt lat="54.594467" lon="-3.228295"><ele>554</ele><time>2024-06-01T10:30:54Z</time><name>PT1015</name></trkpt>
<trkpt lat="54.594453" lon="-3.228324"><ele>555</ele><time>2024-06-01T10:30:58Z</time><name>PT1016</name></trkpt>
<trkpt lat="54.594429" lon="-3.228353"><ele>557</ele><time>2024-06-01T10:31:02Z</time><name>PT1017</name></trkpt>
<trkpt lat="54.594407" lon="-3.228375"><ele>557</ele><time>2024-06-01T10:31:05Z</time><name>PT1018</name></trkpt>
<trkpt lat="54.594379" lon="-3.228390"><ele>557</ele><time>2024-06-01T10:31:08Z</time><name>PT1019</name></trkpt>
<trkpt lat="54.594353" lon="-3.228400"><ele>557</ele><time>2024-06-01T10:31:11Z</time><name>PT1020</name></trkpt>
<trkpt lat="54.594323" lon="-3.228450"><ele>559</ele><time>2024-06-01T10:31:15Z</time><name>PT1021</name></trkpt>
<trkpt lat="54.594296" lon="-3.228492"><ele>559</ele><time>2024-06-01T10:31:18Z</time><name>PT1022</name></trkpt>
<trkpt lat="54.594268" lon="-3.228548"><ele>558</ele><time>2024-06-01T10:31:22Z</time><name>PT1023</name></trkpt>
<trkpt lat="54.594251" lon="-3.228606"><ele>558</ele><time>2024-06-01T10:31:25Z</time><name>PT1024</name></trkpt>
<trkpt lat="54.594237" lon="-3.228674"><ele>559</ele><time>2024-06-01T10:31:29Z</time><name>PT1025</name></trkpt>
<trkpt lat="54.594225" lon="-3.228735"><ele>557</ele><time>2024-06-01T10:31:32Z</time><name>PT1026</name></trkpt>
<trkpt lat="54.594217" lon="-3.228786"><ele>558</ele><time>2024-06-01T10:31:35Z</time><name>PT1027</name></trkpt>
<trkpt lat="54.594199" lon="-3.228851"><ele>558</ele><time>2024-06-01T10:31:39Z</time><name>PT1028</name></trkpt>
<trkpt lat="54.594179" lon="-3.228903"><ele>558</ele><time>2024-06-01T10:31:42Z</time><name>PT1029</name></trkpt>
<trkpt lat="54.594146" lon="-3.228977"><ele>557</ele><time>2024-06-01T10:31:46Z</time><name>PT1030</name></trkpt>
<trkpt lat="54.594124" lon="-3.229037"><ele>558</ele><time>2024-06-01T10:31:50Z</time><name>PT1031</name></trkpt>
<trkpt lat="54.594087" lon="-3.229084"><ele>558</ele><time>2024-06-01T10:31:54Z</time><name>PT1032</name></trkpt>
<trkpt lat="54.594052" lon="-3.229141"><ele>559</ele><time>2024-06-01T10:31:58Z</time><name>PT1033</name></trkpt>
<trkpt lat="54.594035" lon="-3.229173"><ele>559</ele><time>2024-06-01T10:32:01Z</time><name>PT1034</name></trkpt>
<trkpt lat="54.593998" lon="-3.229237"><ele>560</ele><time>2024-06-01T10:32:05Z</time><name>PT1035</name></trkpt>
<trkpt lat="54.593985" lon="-3.229284"><ele>561</ele><time>2024-06-01T10:32:08Z</time><name>PT1036</name></trkpt>
<trkpt lat="54.593959" lon="-3.229340"><ele>561</ele><time>2024-06-01T10:32:11Z</time><name>PT1037</name></trkpt>
<trkpt lat="54.593940" lon="-3.229370"><ele>561</ele><time>2024-06-01T10:32:14Z</time><name>PT1038</name></trkpt>
<trkpt lat="54.593916" lon="-3.229444"><ele>562</ele><time>2024-06-01T10:32:18Z</time><name>PT1039</name></trkpt>
<trkpt lat="54.593906" lon="-3.229464"><ele>563</ele><time>2024-06-01T10:32:21Z</time><name>PT1040</name></trkpt>
<trkpt lat="54.593875" lon="-3.229510"><ele>563</ele><time>2024-06-01T10:32:25Z</time><name>PT1041</name></trkpt>
<trkpt lat="54.593852" lon="-3.229554"><ele>562</ele><time>2024-06-01T10:32:28Z</time><name>PT1042</name></trkpt>
<trkpt lat="54.593824" lon="-3.229605"><ele>562</ele><time>2024-06-01T10:32:32Z</time><name>PT1043</name></trkpt>
<trkpt lat="54.593793" lon="-3.229677"><ele>563</ele><time>2024-06-01T10:32:36Z</time><name>PT1044</name></trkpt>
<trkpt lat="54.593781" lon="-3.229724"><ele>564</ele><time>2024-06-01T10:32:39Z</time><name>PT1045</name></trkpt>
<trkpt lat="54.593764" lon="-3.229778"><ele>565</ele><time>2024-06-01T10:32:42Z</time><name>PT1046</name></trkpt>
<trkpt lat="54.593749" lon="-3.229813"><ele>565</ele><time>2024-06-01T10:32:45Z</time><name>PT1047</name></trkpt>
<trkpt lat="54.593734" lon="-3.229866"><ele>566</ele><time>2024-06-01T10:32:49Z</time><name>PT1048</name></trkpt>
<trkpt lat="54.593709" lon="-3.229928"><ele>566</ele><time>2024-06-01T10:32:53Z</time><name>PT1049</name></trkpt>
<trkpt lat="54.593690" lon="-3.229978"><ele>567</ele><time>2024-06-01T10:32:57Z</time><name>PT1050</name></trkpt>
<trkpt lat="54.593680" lon="-3.230045"><ele>568</ele><time>2024-06-01T10:33:01Z</time><name>PT1051</name></trkpt>
<trkpt lat="54.593663" lon="-3.230107"><ele>568</ele><time>2024-06-01T10:33:04Z</time><name>PT1052</name></trkpt>
<trkpt lat="54.593653" lon="-3.230158"><ele>568</ele><time>2024-06-01T10:33:07Z</time><name>PT1053</name></trkpt>
<trkpt lat="54.593643" lon="-3.230230"><ele>570</ele><time>2024-06-01T10:33:11Z</time><name>PT1054</name></trkpt>
<trkpt lat="54.593631" lon="-3.230318"><ele>570</ele><time>2024-06-01T10:33:15Z</time><name>PT1055</name></trkpt>
<trkpt lat="54.593612" lon="-3.230350"><ele>569</ele><time>2024-06-01T10:33:18Z</time><name>PT1056</name></trkpt>
<trkpt lat="54.593598" lon="-3.230425"><ele>570</ele><time>2024-06-01T10:33:22Z</time><name>PT1057</name></trkpt>
<trkpt lat="54.593586" lon="-3.230466"><ele>569</ele><time>2024-06-01T10:33:25Z</time><name>PT1058</name></trkpt>
<trkpt lat="54.593588" lon="-3.230529"><ele>569</ele><time>2024-06-01T10:33:28Z</time><name>PT1059</name></trkpt>
<trkpt lat="54.593581" lon="-3.230579"><ele>569</ele><time>2024-06-01T10:33:31Z</time><name>PT1060</name></trkpt>
<trkpt lat="54.593571" lon="-3.230661"><ele>570</ele><time>2024-06-01T10:33:35Z</time><name>PT1061</name></trkpt>
<trkpt lat="54.593559" lon="-3.230702"><ele>571</ele><time>2024-06-01T10:33:38Z</time><name>PT1062</name></trkpt>
<trkpt lat="54.593545" lon="-3.230775"><ele>572</ele><time>2024-06-01T10:33:42Z</time><name>PT1063</name></trkpt>
<trkpt lat="54.593527" lon="-3.230845"><ele>571</ele><time>2024-06-01T10:33:46Z</time><name>PT1064</name></trkpt>
<trkpt lat="54.593510" lon="-3.230888"><ele>572</ele><time>2024-06-01T10:33:49Z</time><name>PT1065</name></trkpt>
<trkpt lat="54.593490" lon="-3.230947"><ele>571</ele><time>2024-06-01T10:33:52Z</time><name>PT1066</name></trkpt>
<trkpt lat="54.593473" lon="-3.231019"><ele>571</ele><time>2024-06-01T10:33:56Z</time><name>PT1067</name></trkpt>
<trkpt lat="54.593450" lon="-3.231067"><ele>571</ele><time>2024-06-01T10:33:59Z</time><name>PT1068</name></trkpt>
<trkpt lat="54.593429" lon="-3.231124"><ele>571</ele><time>2024-06-01T10:34:03Z</time><name>PT1069</name></trkpt>
<trkpt lat="54.593421" lon="-3.231215"><ele>571</ele><time>2024-06-01T10:34:07Z</time><name>PT1070</name></trkpt>
<trkpt lat="54.593400" lon="-3.231269"><ele>572</ele><time>2024-06-01T10:34:10Z</time><name>PT1071</name></trkpt>
<trkpt lat="54.593373" lon="-3.231328"><ele>572</ele><time>2024-06-01T10:34:14Z</time><name>PT1072</name></trkpt>
<trkpt lat="54.593350" lon="-3.231432"><ele>573</ele><time>2024-06-01T10:34:18Z</time><name>PT1073</name></trkpt>
<trkpt lat="54.593332" lon="-3.231487"><ele>574</ele><time>2024-06-01T10:34:21Z</time><name>PT1074</name></trkpt>
<trkpt lat="54.593311" lon="-3.231571"><ele>574</ele><time>2024-06-01T10:34:25Z</time><name>PT1075</name></trkpt>
<trkpt lat="54.593292" lon="-3.231645"><ele>575</ele><time>2024-06-01T10:34:29Z</time><name>PT1076</name></trkpt>
<trkpt lat="54.593276" lon="-3.231692"><ele>576</ele><time>2024-06-01T10:34:32Z</time><name>PT1077</name></trkpt>
<trkpt lat="54.593261" lon="-3.231743"><ele>576</ele><time>2024-06-01T10:34:35Z</time><name>PT1078</name></trkpt>
<trkpt lat="54.593247" lon="-3.231779"><ele>576</ele><time>2024-06-01T10:34:38Z</time><name>PT1079</name></trkpt>
<trkpt lat="54.593221" lon="-3.231828"><ele>577</ele><time>2024-06-01T10:34:42Z</time><name>PT1080</name></trkpt>
<trkpt lat="54.593209" lon="-3.231861"><ele>577</ele><time>2024-06-01T10:34:45Z</time><name>PT1081</name></trkpt>
<trkpt lat="54.593194" lon="-3.231911"><ele>577</ele><time>2024-06-01T10:34:49Z</time><name>PT1082</name></trkpt>
<trkpt lat="54.593181" lon="-3.231972"><ele>579</ele><time>2024-06-01T10:34:53Z</time><name>PT1083</name></trkpt>
<trkpt lat="54.593175" lon="-3.232006"><ele>580</ele><time>2024-06-01T10:34:56Z</time><name>PT1084</name></trkpt>
<trkpt lat="54.593155" lon="-3.232045"><ele>579</ele><time>2024-06-01T10:34:59Z</time><name>PT1085</name></trkpt>
<trkpt lat="54.593146" lon="-3.232090"><ele>579</ele><time>2024-06-01T10:35:03Z</time><name>PT1086</name></trkpt>
<trkpt lat="54.593140" lon="-3.232127"><ele>579</ele><time>2024-06-01T10:35:06Z</time><name>PT1087</name></trkpt>
<trkpt lat="54.593123" lon="-3.232165"><ele>580</ele><time>2024-06-01T10:35:10Z</time><name>PT1088</name></trkpt>
<trkpt lat="54.593106" lon="-3.232198"><ele>580</ele><time>2024-06-01T10:35:13Z</time><name>PT1089</name></trkpt>
<trkpt lat="54.593088" lon="-3.232249"><ele>581</ele><time>2024-06-01T10:35:17Z</time><name>PT1090</name></trkpt>
<trkpt lat="54.593080" lon="-3.232279"><ele>581</ele><time>2024-06-01T10:35:20Z</time><name>PT1091</name></trkpt>
<trkpt lat="54.593064" lon="-3.232323"><ele>582</ele><time>2024-06-01T10:35:24Z</time><name>PT1092</name></trkpt>
<trkpt lat="54.593053" lon="-3.232374"><ele>582</ele><time>2024-06-01T10:35:28Z</time><name>PT1093</name></trkpt>
<trkpt lat="54.593053" lon="-3.232405"><ele>582</ele><time>2024-06-01T10:35:31Z</time><name>PT1094</name></trkpt>
<trkpt lat="54.593051" lon="-3.232447"><ele>582</ele><time>2024-06-01T10:35:35Z</time><name>PT1095</name></trkpt>
<trkpt lat="54.593045" lon="-3.232479"><ele>583</ele><time>2024-06-01T10:35:38Z</time><name>PT1096</name></trkpt>
<trkpt lat="54.593036" lon="-3.232539"><ele>584</ele><time>2024-06-01T10:35:42Z</time><name>PT1097</name></trkpt>
<trkpt lat="54.593022" lon="-3.232588"><ele>584</ele><time>2024-06-01T10:35:46Z</time><name>PT1098</name></trkpt>
<trkpt lat="54.593012" lon="-3.232623"><ele>586</ele><time>2024-06-01T10:35:49Z</time><name>PT1099</name></trkpt>
<trkpt lat="54.592997" lon="-3.232675"><ele>586</ele><time>2024-06-01T10:35:53Z</time><name>PT1100</name></trkpt>
<trkpt lat="54.592977" lon="-3.232734"><ele>586</ele><time>2024-06-01T10:35:57Z</time><name>PT1101</name></trkpt>
<trkpt lat="54.592964" lon="-3.232795"><ele>587</ele><time>2024-06-01T10:36:01Z</time><name>PT1102</name></trkpt>
<trkpt lat="54.592957" lon="-3.232830"><ele>587</ele><time>2024-06-01T10:36:04Z</time><name>PT1103</name></trkpt>
<trkpt lat="54.592951" lon="-3.232879"><ele>587</ele><time>2024-06-01T10:36:08Z</time><name>PT1104</name></trkpt>
<trkpt lat="54.592940" lon="-3.232912"><ele>588</ele><time>2024-06-01T10:36:11Z</time><name>PT1105</name></trkpt>
<trkpt lat="54.592931" lon="-3.232959"><ele>588</ele><time>2024-06-01T10:36:15Z</time><name>PT1106</name></trkpt>
<trkpt lat="54.592924" lon="-3.232994"><ele>589</ele><time>2024-06-01T10:36:19Z</time><name>PT1107</name></trkpt>
<trkpt lat="54.592919" lon="-3.233022"><ele>590</ele><time>2024-06-01T10:36:22Z</time><name>PT1108</name></trkpt>
<trkpt lat="54.592910" lon="-3.233056"><ele>590</ele><time>2024-06-01T10:36:25Z</time><name>PT1109</name></trkpt>
<trkpt lat="54.592902" lon="-3.233086"><ele>591</ele><time>2024-06-01T10:36:28Z</time><name>PT1110</name></trkpt>
<trkpt lat="54.592890" lon="-3.233118"><ele>591</ele><time>2024-06-01T10:36:32Z</time><name>PT1111</name></trkpt>
<trkpt lat="54.592882" lon="-3.233153"><ele>592</ele><time>2024-06-01T10:36:36Z</time><name>PT1112</name></trkpt>
<trkpt lat="54.592871" lon="-3.233182"><ele>592</ele><time>2024-06-01T10:36:39Z</time><name>PT1113</name></trkpt>
<trkpt lat="54.592856" lon="-3.233211"><ele>593</ele><time>2024-06-01T10:36:43Z</time><name>PT1114</name></trkpt>
<trkpt lat="54.592852" lon="-3.233236"><ele>593</ele><time>2024-06-01T10:36:46Z</time><name>PT1115</name></trkpt>
<trkpt lat="54.592852" lon="-3.233277"><ele>594</ele><time>2024-06-01T10:36:49Z</time><name>PT1116</name></trkpt>
<trkpt lat="54.592842" lon="-3.233325"><ele>594</ele><time>2024-06-01T10:36:52Z</time><name>PT1117</name></trkpt>
<trkpt lat="54.592852" lon="-3.233374"><ele>595</ele><time>2024-06-01T10:36:56Z</time><name>PT1118</name></trkpt>
<trkpt lat="54.592860" lon="-3.233416"><ele>595</ele><time>2024-06-01T10:36:59Z</time><name>PT1119</name></trkpt>
<trkpt lat="54.592868" lon="-3.233472"><ele>595</ele><time>2024-06-01T10:37:02Z</time><name>PT1120</name></trkpt>
<trkpt lat="54.592869" lon="-3.233514"><ele>595</ele><time>2024-06-01T10:37:05Z</time><name>PT1121</name></trkpt>
<trkpt lat="54.592870" lon="-3.233570"><ele>595</ele><time>2024-06-01T10:37:09Z</time><name>PT1122</name></trkpt>
<trkpt lat="54.592863" lon="-3.233628"><ele>596</ele><time>2024-06-01T10:37:13Z</time><name>PT1123</name></trkpt>
<trkpt lat="54.592862" lon="-3.233676"><ele>597</ele><time>2024-06-01T10:37:17Z</time><name>PT1124</name></trkpt>
<trkpt lat="54.592864" lon="-3.233703"><ele>598</ele><time>2024-06-01T10:37:20Z</time><name>PT1125</name></trkpt>
<trkpt lat="54.592857" lon="-3.233727"><ele>599</ele><time>2024-06-01T10:37:23Z</time><name>PT1126</name></trkpt>
<trkpt lat="54.592856" lon="-3.233755"><ele>599</ele><time>2024-06-01T10:37:26Z</time><name>PT1127</name></trkpt>
<trkpt lat="54.592852" lon="-3.233788"><ele>600</ele><time>2024-06-01T10:37:30Z</time><name>PT1128</name></trkpt>
<trkpt lat="54.592850" lon="-3.233823"><ele>601</ele><time>2024-06-01T10:37:33Z</time><name>PT1129</name></trkpt>
<trkpt lat="54.592848" lon="-3.233861"><ele>602</ele><time>2024-06-01T10:37:37Z</time><name>PT1130</name></trkpt>
<trkpt lat="54.592838" lon="-3.233903"><ele>603</ele><time>2024-06-01T10:37:40Z</time><name>PT1131</name></trkpt>
<trkpt lat="54.592824" lon="-3.233944"><ele>604</ele><time>2024-06-01T10:37:44Z</time><name>PT1132</name></trkpt>
<trkpt lat="54.592811" lon="-3.233974"><ele>604</ele><time>2024-06-01T10:37:47Z</time><name>PT1133</name></trkpt>
<trkpt lat="54.592801" lon="-3.234010"><ele>603</ele><time>2024-06-01T10:37:50Z</time><name>PT1134</name></trkpt>
<trkpt lat="54.592798" lon="-3.234065"><ele>604</ele><time>2024-06-01T10:37:54Z</time><name>PT1135</name></trkpt>
<trkpt lat="54.592794" lon="-3.234097"><ele>605</ele><time>2024-06-01T10:37:57Z</time><name>PT1136</name></trkpt>
<trkpt lat="54.592801" lon="-3.234126"><ele>606</ele><time>2024-06-01T10:38:01Z</time><name>PT1137</name></trkpt>
<trkpt lat="54.592806" lon="-3.234179"><ele>607</ele><time>2024-06-01T10:38:05Z</time><name>PT1138</name></trkpt>
<trkpt lat="54.592805" lon="-3.234217"><ele>609</ele><time>2024-06-01T10:38:08Z</time><name>PT1139</name></trkpt>
<trkpt lat="54.592800" lon="-3.234268"><ele>610</ele><time>2024-06-01T10:38:12Z</time><name>PT1140</name></trkpt>
<trkpt lat="54.592790" lon="-3.234316"><ele>610</ele><time>2024-06-01T10:38:16Z</time><name>PT1141</name></trkpt>
<trkpt lat="54.592779" lon="-3.234353"><ele>610</ele><time>2024-06-01T10:38:19Z</time><name>PT1142</name></trkpt>
<trkpt lat="54.592785" lon="-3.234389"><ele>612</ele><time>2024-06-01T10:38:23Z</time><name>PT1143</name></trkpt>
<trkpt lat="54.592787" lon="-3.234408"><ele>613</ele><time>2024-06-01T10:38:27Z</time><name>PT1144</name></trkpt>
<trkpt lat="54.592785" lon="-3.234437"><ele>613</ele><time>2024-06-01T10:38:30Z</time><name>PT1145</name></trkpt>
<trkpt lat="54.592779" lon="-3.234467"><ele>614</ele><time>2024-06-01T10:38:34Z</time><name>PT1146</name></trkpt>
<trkpt lat="54.592772" lon="-3.234504"><ele>615</ele><time>2024-06-01T10:38:38Z</time><name>PT1147</name></trkpt>
<trkpt lat="54.592767" lon="-3.234520"><ele>615</ele><time>2024-06-01T10:38:41Z</time><name>PT1148</name></trkpt>
<trkpt lat="54.592760" lon="-3.234553"><ele>615</ele><time>2024-06-01T10:38:45Z</time><name>PT1149</name></trkpt>
<trkpt lat="54.592762" lon="-3.234579"><ele>615</ele><time>2024-06-01T10:38:49Z</time><name>PT1150</name></trkpt>
<trkpt lat="54.592748" lon="-3.234609"><ele>615</ele><time>2024-06-01T10:38:53Z</time><name>PT1151</name></trkpt>
<trkpt lat="54.592741" lon="-3.234630"><ele>616</ele><time>2024-06-01T10:38:56Z</time><name>PT1152</name></trkpt>
<trkpt lat="54.592740" lon="-3.234649"><ele>617</ele><time>2024-06-01T10:38:59Z</time><name>PT1153</name></trkpt>
<trkpt lat="54.592735" lon="-3.234694"><ele>618</ele><time>2024-06-01T10:39:03Z</time><name>PT1154</name></trkpt>
<trkpt lat="54.592727" lon="-3.234723"><ele>618</ele><time>2024-06-01T10:39:06Z</time><name>PT1155</name></trkpt>
<trkpt lat="54.592725" lon="-3.234753"><ele>620</ele><time>2024-06-01T10:39:09Z</time><name>PT1156</name></trkpt>
<trkpt lat="54.592711" lon="-3.234781"><ele>620</ele><time>2024-06-01T10:39:12Z</time><name>PT1157</name></trkpt>
<trkpt lat="54.592694" lon="-3.234810"><ele>620</ele><time>2024-06-01T10:39:16Z</time><name>PT1158</name></trkpt>
<trkpt lat="54.592688" lon="-3.234832"><ele>620</ele><time>2024-06-01T10:39:19Z</time><name>PT1159</name></trkpt>
<trkpt lat="54.592692" lon="-3.234847"><ele>621</ele><time>2024-06-01T10:39:22Z</time><name>PT1160</name></trkpt>
<trkpt lat="54.592688" lon="-3.234883"><ele>621</ele><time>2024-06-01T10:39:25Z</time><name>PT1161</name></trkpt>
<trkpt lat="54.592692" lon="-3.234934"><ele>622</ele><time>2024-06-01T10:39:29Z</time><name>PT1162</name></trkpt>
<trkpt lat="54.592696" lon="-3.234979"><ele>623</ele><time>2024-06-01T10:39:32Z</time><name>PT1163</name></trkpt>
<trkpt lat="54.592698" lon="-3.235031"><ele>624</ele><time>2024-06-01T10:39:36Z</time><name>PT1164</name></trkpt>
<trkpt lat="54.592689" lon="-3.235074"><ele>625</ele><time>2024-06-01T10:39:40Z</time><name>PT1165</name></trkpt>
<trkpt lat="54.592668" lon="-3.235112"><ele>624</ele><time>2024-06-01T10:39:44Z</time><name>PT1166</name></trkpt>
<trkpt lat="54.592656" lon="-3.235156"><ele>625</ele><time>2024-06-01T10:39:47Z</time><name>PT1167</name></trkpt>
<trkpt lat="54.592656" lon="-3.235197"><ele>625</ele><time>2024-06-01T10:39:50Z</time><name>PT1168</name></trkpt>
<trkpt lat="54.592644" lon="-3.235253"><ele>625</ele><time>2024-06-01T10:39:54Z</time><name>PT1169</name></trkpt>
<trkpt lat="54.592629" lon="-3.235308"><ele>625</ele><time>2024-06-01T10:39:58Z</time><name>PT1170</name></trkpt>
<trkpt lat="54.592623" lon="-3.235364"><ele>626</ele><time>2024-06-01T10:40:01Z</time><name>PT1171</name></trkpt>
<trkpt lat="54.592613" lon="-3.235418"><ele>625</ele><time>2024-06-01T10:40:04Z</time><name>PT1172</name></trkpt>
<trkpt lat="54.592601" lon="-3.235455"><ele>627</ele><time>2024-06-01T10:40:07Z</time><name>PT1173</name></trkpt>
<trkpt lat="54.592591" lon="-3.235488"><ele>627</ele><time>2024-06-01T10:40:10Z</time><name>PT1174</name></trkpt>
<trkpt lat="54.592586" lon="-3.235524"><ele>628</ele><time>2024-06-01T10:40:13Z</time><name>PT1175</name></trkpt>
<trkpt lat="54.592577" lon="-3.235551"><ele>629</ele><time>2024-06-01T10:40:16Z</time><name>PT1176</name></trkpt>
<trkpt lat="54.592566" lon="-3.235600"><ele>630</ele><time>2024-06-01T10:40:20Z</time><name>PT1177</name></trkpt>
<trkpt lat="54.592552" lon="-3.235636"><ele>630</ele><time>2024-06-01T10:40:23Z</time><name>PT1178</name></trkpt>
<trkpt lat="54.592543" lon="-3.235676"><ele>630</ele><time>2024-06-01T10:40:27Z</time><name>PT1179</name></trkpt>
<trkpt lat="54.592541" lon="-3.235712"><ele>631</ele><time>2024-06-01T10:40:31Z</time><name>PT1180</name></trkpt>
<trkpt lat="54.592540" lon="-3.235742"><ele>631</ele><time>2024-06-01T10:40:34Z</time><name>PT1181</name></trkpt>
<trkpt lat="54.592530" lon="-3.235764"><ele>632</ele><time>2024-06-01T10:40:37Z</time><name>PT1182</name></trkpt>
<trkpt lat="54.592514" lon="-3.235798"><ele>632</ele><time>2024-06-01T10:40:40Z</time><name>PT1183</name></trkpt>
<trkpt lat="54.592500" lon="-3.235822"><ele>632</ele><time>2024-06-01T10:40:44Z</time><name>PT1184</name></trkpt>
<trkpt lat="54.592490" lon="-3.235861"><ele>633</ele><time>2024-06-01T10:40:48Z</time><name>PT1185</name></trkpt>
<trkpt lat="54.592481" lon="-3.235904"><ele>634</ele><time>2024-06-01T10:40:52Z</time><name>PT1186</name></trkpt>
<trkpt lat="54.592481" lon="-3.235946"><ele>635</ele><time>2024-06-01T10:40:56Z</time><name>PT1187</name></trkpt>
<trkpt lat="54.592489" lon="-3.235973"><ele>637</ele><time>2024-06-01T10:40:59Z</time><name>PT1188</name></trkpt>
<trkpt lat="54.592500" lon="-3.235990"><ele>638</ele><time>2024-06-01T10:41:03Z</time><name>PT1189</name></trkpt>
<trkpt lat="54.592495" lon="-3.236024"><ele>639</ele><time>2024-06-01T10:41:07Z</time><name>PT1190</name></trkpt>
<trkpt lat="54.592496" lon="-3.236042"><ele>640</ele><time>2024-06-01T10:41:10Z</time><name>PT1191</name></trkpt>
<trkpt lat="54.592498" lon="-3.236072"><ele>641</ele><time>2024-06-01T10:41:13Z</time><name>PT1192</name></trkpt>
<trkpt lat="54.592498" lon="-3.236107"><ele>642</ele><time>2024-06-01T10:41:17Z</time><name>PT1193</name></trkpt>
<trkpt lat="54.592492" lon="-3.236134"><ele>642</ele><time>2024-06-01T10:41:20Z</time><name>PT1194</name></trkpt>
<trkpt lat="54.592489" lon="-3.236159"><ele>642</ele><time>2024-06-01T10:41:23Z</time><name>PT1195</name></trkpt>
<trkpt lat="54.592485" lon="-3.236187"><ele>643</ele><time>2024-06-01T10:41:26Z</time><name>PT1196</name></trkpt>
<trkpt lat="54.592477" lon="-3.236217"><ele>643</ele><time>2024-06-01T10:41:30Z</time><name>PT1197</name></trkpt>
<trkpt lat="54.592476" lon="-3.236250"><ele>645</ele><time>2024-06-01T10:41:34Z</time><name>PT1198</name></trkpt>
<trkpt lat="54.592470" lon="-3.236252"><ele>646</ele><time>2024-06-01T10:41:37Z</time><name>PT1199</name></trkpt>
<trkpt lat="54.592458" lon="-3.236287"><ele>647</ele><time>2024-06-01T10:41:41Z</time><name>PT1200</name></trkpt>
<trkpt lat="54.592452" lon="-3.236322"><ele>648</ele><time>2024-06-01T10:41:44Z</time><name>PT1201</name></trkpt>
<trkpt lat="54.592448" lon="-3.236363"><ele>649</ele><time>2024-06-01T10:41:48Z</time><name>PT1202</name></trkpt>
<trkpt lat="54.592451" lon="-3.236392"><ele>649</ele><time>2024-06-01T10:41:51Z</time><name>PT1203</name></trkpt>
<trkpt lat="54.592450" lon="-3.236437"><ele>649</ele><time>2024-06-01T10:41:55Z</time><name>PT1204</name></trkpt>
<trkpt lat="54.592448" lon="-3.236473"><ele>650</ele><time>2024-06-01T10:41:58Z</time><name>PT1205</name></trkpt>
<trkpt lat="54.592435" lon="-3.236517"><ele>650</ele><time>2024-06-01T10:42:02Z</time><name>PT1206</name></trkpt>
<trkpt lat="54.592427" lon="-3.236558"><ele>650</ele><time>2024-06-01T10:42:06Z</time><name>PT1207</name></trkpt>
<trkpt lat="54.592428" lon="-3.236591"><ele>651</ele><time>2024-06-01T10:42:10Z</time><name>PT1208</name></trkpt>
<trkpt lat="54.592434" lon="-3.236629"><ele>651</ele><time>2024-06-01T10:42:14Z</time><name>PT1209</name></trkpt>
<trkpt lat="54.592428" lon="-3.236670"><ele>651</ele><time>2024-06-01T10:42:18Z</time><name>PT1210</name></trkpt>
<trkpt lat="54.592430" lon="-3.236705"><ele>652</ele><time>2024-06-01T10:42:21Z</time><name>PT1211</name></trkpt>
<trkpt lat="54.592434" lon="-3.236745"><ele>653</ele><time>2024-06-01T10:42:25Z</time><name>PT1212</name></trkpt>
<trkpt lat="54.592428" lon="-3.236777"><ele>653</ele><time>2024-06-01T10:42:28Z</time><name>PT1213</name></trkpt>
<trkpt lat="54.592434" lon="-3.236807"><ele>654</ele><time>2024-06-01T10:42:31Z</time><name>PT1214</name></trkpt>
<trkpt lat="54.592438" lon="-3.236836"><ele>654</ele><time>2024-06-01T10:42:34Z</time><name>PT1215</name></trkpt>
<trkpt lat="54.592431" lon="-3.236876"><ele>655</ele><time>2024-06-01T10:42:38Z</time><name>PT1216</name></trkpt>
<trkpt lat="54.592426" lon="-3.236896"><ele>656</ele><time>2024-06-01T10:42:41Z</time><name>PT1217</name></trkpt>
<trkpt lat="54.592430" lon="-3.236917"><ele>657</ele><time>2024-06-01T10:42:44Z</time><name>PT1218</name></trkpt>
<trkpt lat="54.592428" lon="-3.236928"><ele>657</ele><time>2024-06-01T10:42:48Z</time><name>PT1219</name></trkpt>
<trkpt lat="54.592425" lon="-3.236948"><ele>658</ele><time>2024-06-01T10:42:51Z</time><name>PT1220</name></trkpt>
<trkpt lat="54.592421" lon="-3.236975"><ele>658</ele><time>2024-06-01T10:42:54Z</time><name>PT1221</name></trkpt>
<trkpt lat="54.592421" lon="-3.237021"><ele>659</ele><time>2024-06-01T10:42:58Z</time><name>PT1222</name></trkpt>
<trkpt lat="54.592426" lon="-3.237054"><ele>659</ele><time>2024-06-01T10:43:02Z</time><name>PT1223</name></trkpt>
<trkpt lat="54.592418" lon="-3.237077"><ele>659</ele><time>2024-06-01T10:43:06Z</time><name>PT1224</name></trkpt>
<trkpt lat="54.592407" lon="-3.237114"><ele>659</ele><time>2024-06-01T10:43:10Z</time><name>PT1225</name></trkpt>
<trkpt lat="54.592411" lon="-3.237139"><ele>660</ele><time>2024-06-01T10:43:13Z</time><name>PT1226</name></trkpt>
<trkpt lat="54.592401" lon="-3.237181"><ele>661</ele><time>2024-06-01T10:43:17Z</time><name>PT1227</name></trkpt>
<trkpt lat="54.592386" lon="-3.237198"><ele>661</ele><time>2024-06-01T10:43:20Z</time><name>PT1228</name></trkpt>
<trkpt lat="54.592371" lon="-3.237224"><ele>662</ele><time>2024-06-01T10:43:24Z</time><name>PT1229</name></trkpt>
<trkpt lat="54.592360" lon="-3.237264"><ele>662</ele><time>2024-06-01T10:43:28Z</time><name>PT1230</name></trkpt>
<trkpt lat="54.592356" lon="-3.237294"><ele>662</ele><time>2024-06-01T10:43:31Z</time><name>PT1231</name></trkpt>
<trkpt lat="54.592360" lon="-3.237327"><ele>663</ele><time>2024-06-01T10:43:35Z</time><name>PT1232</name></trkpt>
<trkpt lat="54.592365" lon="-3.237351"><ele>664</ele><time>2024-06-01T10:43:38Z</time><name>PT1233</name></trkpt>
<trkpt lat="54.592379" lon="-3.237386"><ele>667</ele><time>2024-06-01T10:43:42Z</time><name>PT1234</name></trkpt>
<trkpt lat="54.592384" lon="-3.237413"><ele>668</ele><time>2024-06-01T10:43:45Z</time><name>PT1235</name></trkpt>
<trkpt lat="54.592383" lon="-3.237439"><ele>668</ele><time>2024-06-01T10:43:48Z</time><name>PT1236</name></trkpt>
<trkpt lat="54.592385" lon="-3.237474"><ele>670</ele><time>2024-06-01T10:43:52Z</time><name>PT1237</name></trkpt>
<trkpt lat="54.592386" lon="-3.237504"><ele>671</ele><time>2024-06-01T10:43:56Z</time><name>PT1238</name></trkpt>
<trkpt lat="54.592376" lon="-3.237525"><ele>673</ele><time>2024-06-01T10:44:00Z</time><name>PT1239</name></trkpt>
<trkpt lat="54.592362" lon="-3.237539"><ele>673</ele><time>2024-06-01T10:44:03Z</time><name>PT1240</name></trkpt>
<trkpt lat="54.592356" lon="-3.237557"><ele>673</ele><time>2024-06-01T10:44:06Z</time><name>PT1241</name></trkpt>
<trkpt lat="54.592344" lon="-3.237598"><ele>673</ele><time>2024-06-01T10:44:10Z</time><name>PT1242</name></trkpt>
<trkpt lat="54.592339" lon="-3.237629"><ele>674</ele><time>2024-06-01T10:44:14Z</time><name>PT1243</name></trkpt>
<trkpt lat="54.592328" lon="-3.237645"><ele>675</ele><time>2024-06-01T10:44:17Z</time><name>PT1244</name></trkpt>
<trkpt lat="54.592316" lon="-3.237674"><ele>675</ele><time>2024-06-01T10:44:21Z</time><name>PT1245</name></trkpt>
<trkpt lat="54.592315" lon="-3.237696"><ele>675</ele><time>2024-06-01T10:44:24Z</time><name>PT1246</name></trkpt>
<trkpt lat="54.592316" lon="-3.237717"><ele>676</ele><time>2024-06-01T10:44:27Z</time><name>PT1247</name></trkpt>
<trkpt lat="54.592328" lon="-3.237745"><ele>677</ele><time>2024-06-01T10:44:31Z</time><name>PT1248</name></trkpt>
<trkpt lat="54.592326" lon="-3.237763"><ele>678</ele><time>2024-06-01T10:44:35Z</time><name>PT1249</name></trkpt>
<trkpt lat="54.592337" lon="-3.237788"><ele>679</ele><time>2024-06-01T10:44:39Z</time><name>PT1250</name></trkpt>
<trkpt lat="54.592355" lon="-3.237804"><ele>681</ele><time>2024-06-01T10:44:43Z</time><name>PT1251</name></trkpt>
<trkpt lat="54.592368" lon="-3.237824"><ele>682</ele><time>2024-06-01T10:44:47Z</time><name>PT1252</name></trkpt>
<trkpt lat="54.592366" lon="-3.237854"><ele>683</ele><time>2024-06-01T10:44:51Z</time><name>PT1253</name></trkpt>
<trkpt lat="54.592365" lon="-3.237876"><ele>684</ele><time>2024-06-01T10:44:54Z</time><name>PT1254</name></trkpt>
<trkpt lat="54.592363" lon="-3.237906"><ele>683</ele><time>2024-06-01T10:44:58Z</time><name>PT1255</name></trkpt>
<trkpt lat="54.592345" lon="-3.237897"><ele>684</ele><time>2024-06-01T10:45:02Z</time><name>PT1256</name></trkpt>
<trkpt lat="54.592335" lon="-3.237898"><ele>685</ele><time>2024-06-01T10:45:05Z</time><name>PT1257</name></trkpt>
<trkpt lat="54.592321" lon="-3.237912"><ele>685</ele><time>2024-06-01T10:45:08Z</time><name>PT1258</name></trkpt>
<trkpt lat="54.592310" lon="-3.237915"><ele>685</ele><time>2024-06-01T10:45:12Z</time><name>PT1259</name></trkpt>
<trkpt lat="54.592303" lon="-3.237928"><ele>686</ele><time>2024-06-01T10:45:16Z</time><name>PT1260</name></trkpt>
<trkpt lat="54.592311" lon="-3.237951"><ele>688</ele><time>2024-06-01T10:45:19Z</time><name>PT1261</name></trkpt>
<trkpt lat="54.592307" lon="-3.237966"><ele>688</ele><time>2024-06-01T10:45:23Z</time><name>PT1262</name></trkpt>
<trkpt lat="54.592297" lon="-3.237975"><ele>688</ele><time>2024-06-01T10:45:26Z</time><name>PT1263</name></trkpt>
<trkpt lat="54.592295" lon="-3.237986"><ele>688</ele><time>2024-06-01T10:45:30Z</time><name>PT1264</name></trkpt>
<trkpt lat="54.592284" lon="-3.238005"><ele>690</ele><time>2024-06-01T10:45:34Z</time><name>PT1265</name></trkpt>
<trkpt lat="54.592279" lon="-3.238016"><ele>691</ele><time>2024-06-01T10:45:38Z</time><name>PT1266</name></trkpt>
<trkpt lat="54.592290" lon="-3.238028"><ele>691</ele><time>2024-06-01T10:45:41Z</time><name>PT1267</name></trkpt>
<trkpt lat="54.592294" lon="-3.238045"><ele>692</ele><time>2024-06-01T10:45:44Z</time><name>PT1268</name></trkpt>
<trkpt lat="54.592296" lon="-3.238058"><ele>692</ele><time>2024-06-01T10:45:47Z</time><name>PT1269</name></trkpt>
<trkpt lat="54.592301" lon="-3.238083"><ele>694</ele><time>2024-06-01T10:45:51Z</time><name>PT1270</name></trkpt>
<trkpt lat="54.592297" lon="-3.238113"><ele>695</ele><time>2024-06-01T10:45:54Z</time><name>PT1271</name></trkpt>
<trkpt lat="54.592292" lon="-3.238133"><ele>695</ele><time>2024-06-01T10:45:58Z</time><name>PT1272</name></trkpt>
<trkpt lat="54.592293" lon="-3.238144"><ele>695</ele><time>2024-06-01T10:46:01Z</time><name>PT1273</name></trkpt>
<trkpt lat="54.592297" lon="-3.238168"><ele>695</ele><time>2024-06-01T10:46:05Z</time><name>PT1274</name></trkpt>
<trkpt lat="54.592303" lon="-3.238197"><ele>697</ele><time>2024-06-01T10:46:09Z</time><name>PT1275</name></trkpt>
<trkpt lat="54.592299" lon="-3.238214"><ele>698</ele><time>2024-06-01T10:46:12Z</time><name>PT1276</name></trkpt>
<trkpt lat="54.592293" lon="-3.238233"><ele>699</ele><time>2024-06-01T10:46:16Z</time><name>PT1277</name></trkpt>
<trkpt lat="54.592292" lon="-3.238244"><ele>699</ele><time>2024-06-01T10:46:19Z</time><name>PT1278</name></trkpt>
<trkpt lat="54.592292" lon="-3.238267"><ele>699</ele><time>2024-06-01T10:46:22Z</time><name>PT1279</name></trkpt>
<trkpt lat="54.592296" lon="-3.238289"><ele>700</ele><time>2024-06-01T10:46:25Z</time><name>PT1280</name></trkpt>
<trkpt lat="54.592296" lon="-3.238312"><ele>701</ele><time>2024-06-01T10:46:28Z</time><name>PT1281</name></trkpt>
<trkpt lat="54.592294" lon="-3.238330"><ele>702</ele><time>2024-06-01T10:46:31Z</time><name>PT1282</name></trkpt>
<trkpt lat="54.592290" lon="-3.238352"><ele>702</ele><time>2024-06-01T10:46:38Z</time><name>PT1283</name></trkpt>
<trkpt lat="54.592297" lon="-3.238376"><ele>703</ele><time>2024-06-01T10:46:41Z</time><name>PT1284</name></trkpt>
<trkpt lat="54.592302" lon="-3.238401"><ele>703</ele><time>2024-06-01T10:46:44Z</time><name>PT1285</name></trkpt>
<trkpt lat="54.592301" lon="-3.238427"><ele>704</ele><time>2024-06-01T10:46:47Z</time><name>PT1286</name></trkpt>
<trkpt lat="54.592298" lon="-3.238452"><ele>704</ele><time>2024-06-01T10:46:51Z</time><name>PT1287</name></trkpt>
<trkpt lat="54.592293" lon="-3.238475"><ele>705</ele><time>2024-06-01T10:46:54Z</time><name>PT1288</name></trkpt>
<trkpt lat="54.592291" lon="-3.238484"><ele>705</ele><time>2024-06-01T10:46:57Z</time><name>PT1289</name></trkpt>
<trkpt lat="54.592284" lon="-3.238516"><ele>706</ele><time>2024-06-01T10:47:00Z</time><name>PT1290</name></trkpt>
<trkpt lat="54.592283" lon="-3.238522"><ele>705</ele><time>2024-06-01T10:47:03Z</time><name>PT1291</name></trkpt>
<trkpt lat="54.592258" lon="-3.238522"><ele>706</ele><time>2024-06-01T10:47:07Z</time><name>PT1292</name></trkpt>
<trkpt lat="54.592252" lon="-3.238524"><ele>706</ele><time>2024-06-01T10:47:10Z</time><name>PT1293</name></trkpt>
<trkpt lat="54.592249" lon="-3.238559"><ele>707</ele><time>2024-06-01T10:47:14Z</time><name>PT1294</name></trkpt>
<trkpt lat="54.592247" lon="-3.238596"><ele>708</ele><time>2024-06-01T10:47:18Z</time><name>PT1295</name></trkpt>
<trkpt lat="54.592240" lon="-3.238614"><ele>708</ele><time>2024-06-01T10:47:22Z</time><name>PT1296</name></trkpt>
<trkpt lat="54.592245" lon="-3.238639"><ele>710</ele><time>2024-06-01T10:47:25Z</time><name>PT1297</name></trkpt>
<trkpt lat="54.592245" lon="-3.238671"><ele>711</ele><time>2024-06-01T10:47:29Z</time><name>PT1298</name></trkpt>
<trkpt lat="54.592239" lon="-3.238696"><ele>711</ele><time>2024-06-01T10:47:33Z</time><name>PT1299</name></trkpt>
<trkpt lat="54.592241" lon="-3.238721"><ele>711</ele><time>2024-06-01T10:47:36Z</time><name>PT1300</name></trkpt>
<trkpt lat="54.592227" lon="-3.238743"><ele>711</ele><time>2024-06-01T10:47:40Z</time><name>PT1301</name></trkpt>
<trkpt lat="54.592219" lon="-3.238764"><ele>711</ele><time>2024-06-01T10:47:44Z</time><name>PT1302</name></trkpt>
<trkpt lat="54.592213" lon="-3.238791"><ele>712</ele><time>2024-06-01T10:47:47Z</time><name>PT1303</name></trkpt>
<trkpt lat="54.592207" lon="-3.238809"><ele>713</ele><time>2024-06-01T10:47:50Z</time><name>PT1304</name></trkpt>
<trkpt lat="54.592203" lon="-3.238819"><ele>713</ele><time>2024-06-01T10:47:53Z</time><name>PT1305</name></trkpt>
<trkpt lat="54.592198" lon="-3.238834"><ele>713</ele><time>2024-06-01T10:47:57Z</time><name>PT1306</name></trkpt>
<trkpt lat="54.592194" lon="-3.238837"><ele>713</ele><time>2024-06-01T10:48:00Z</time><name>PT1307</name></trkpt>
<trkpt lat="54.592192" lon="-3.238883"><ele>715</ele><time>2024-06-01T10:48:04Z</time><name>PT1308</name></trkpt>
<trkpt lat="54.592192" lon="-3.238915"><ele>715</ele><time>2024-06-01T10:48:07Z</time><name>PT1309</name></trkpt>
<trkpt lat="54.592196" lon="-3.238943"><ele>716</ele><time>2024-06-01T10:48:11Z</time><name>PT1310</name></trkpt>
<trkpt lat="54.592197" lon="-3.238962"><ele>716</ele><time>2024-06-01T10:48:14Z</time><name>PT1311</name></trkpt>
<trkpt lat="54.592199" lon="-3.238996"><ele>717</ele><time>2024-06-01T10:48:18Z</time><name>PT1312</name></trkpt>
<trkpt lat="54.592196" lon="-3.239026"><ele>718</ele><time>2024-06-01T10:48:25Z</time><name>PT1313</name></trkpt>
<trkpt lat="54.592196" lon="-3.239063"><ele>718</ele><time>2024-06-01T10:48:29Z</time><name>PT1314</name></trkpt>
<trkpt lat="54.592199" lon="-3.239090"><ele>719</ele><time>2024-06-01T10:48:32Z</time><name>PT1315</name></trkpt>
<trkpt lat="54.592199" lon="-3.239129"><ele>720</ele><time>2024-06-01T10:48:36Z</time><name>PT1316</name></trkpt>
<trkpt lat="54.592200" lon="-3.239146"><ele>720</ele><time>2024-06-01T10:48:39Z</time><name>PT1317</name></trkpt>
<trkpt lat="54.592196" lon="-3.239180"><ele>721</ele><time>2024-06-01T10:48:43Z</time><name>PT1318</name></trkpt>
<trkpt lat="54.592191" lon="-3.239209"><ele>721</ele><time>2024-06-01T10:48:47Z</time><name>PT1319</name></trkpt>
<trkpt lat="54.592187" lon="-3.239238"><ele>722</ele><time>2024-06-01T10:48:51Z</time><name>PT1320</name></trkpt>
<trkpt lat="54.592178" lon="-3.239267"><ele>723</ele><time>2024-06-01T10:48:55Z</time><name>PT1321</name></trkpt>
<trkpt lat="54.592183" lon="-3.239288"><ele>724</ele><time>2024-06-01T10:48:58Z</time><name>PT1322</name></trkpt>
<trkpt lat="54.592189" lon="-3.239309"><ele>724</ele><time>2024-06-01T10:49:02Z</time><name>PT1323</name></trkpt>
<trkpt lat="54.592197" lon="-3.239339"><ele>725</ele><time>2024-06-01T10:49:06Z</time><name>PT1324</name></trkpt>
<trkpt lat="54.592200" lon="-3.239360"><ele>726</ele><time>2024-06-01T10:49:09Z</time><name>PT1325</name></trkpt>
<trkpt lat="54.592200" lon="-3.239385"><ele>727</ele><time>2024-06-01T10:49:12Z</time><name>PT1326</name></trkpt>
<trkpt lat="54.592195" lon="-3.239406"><ele>728</ele><time>2024-06-01T10:49:16Z</time><name>PT1327</name></trkpt>
<trkpt lat="54.592203" lon="-3.239439"><ele>729</ele><time>2024-06-01T10:49:20Z</time><name>PT1328</name></trkpt>
<trkpt lat="54.592197" lon="-3.239456"><ele>729</ele><time>2024-06-01T10:49:23Z</time><name>PT1329</name></trkpt>
<trkpt lat="54.592195" lon="-3.239480"><ele>730</ele><time>2024-06-01T10:49:27Z</time><name>PT1330</name></trkpt>
<trkpt lat="54.592193" lon="-3.239504"><ele>730</ele><time>2024-06-01T10:49:31Z</time><name>PT1331</name></trkpt>
<trkpt lat="54.592179" lon="-3.239516"><ele>731</ele><time>2024-06-01T10:49:35Z</time><name>PT1332</name></trkpt>
<trkpt lat="54.592177" lon="-3.239520"><ele>731</ele><time>2024-06-01T10:49:38Z</time><name>PT1333</name></trkpt>
<trkpt lat="54.592167" lon="-3.239536"><ele>731</ele><time>2024-06-01T10:49:41Z</time><name>PT1334</name></trkpt>
<trkpt lat="54.592163" lon="-3.239564"><ele>732</ele><time>2024-06-01T10:49:45Z</time><name>PT1335</name></trkpt>
<trkpt lat="54.592161" lon="-3.239595"><ele>733</ele><time>2024-06-01T10:49:49Z</time><name>PT1336</name></trkpt>
<trkpt lat="54.592157" lon="-3.239624"><ele>733</ele><time>2024-06-01T10:49:53Z</time><name>PT1337</name></trkpt>
<trkpt lat="54.592152" lon="-3.239642"><ele>734</ele><time>2024-06-01T10:49:57Z</time><name>PT1338</name></trkpt>
<trkpt lat="54.592157" lon="-3.239660"><ele>734</ele><time>2024-06-01T10:50:00Z</time><name>PT1339</name></trkpt>
<trkpt lat="54.592170" lon="-3.239683"><ele>735</ele><time>2024-06-01T10:50:04Z</time><name>PT1340</name></trkpt>
<trkpt lat="54.592178" lon="-3.239697"><ele>735</ele><time>2024-06-01T10:50:07Z</time><name>PT1341</name></trkpt>
<trkpt lat="54.592179" lon="-3.239713"><ele>736</ele><time>2024-06-01T10:50:11Z</time><name>PT1342</name></trkpt>
<trkpt lat="54.592180" lon="-3.239747"><ele>737</ele><time>2024-06-01T10:50:15Z</time><name>PT1343</name></trkpt>
<trkpt lat="54.592192" lon="-3.239767"><ele>738</ele><time>2024-06-01T10:50:18Z</time><name>PT1344</name></trkpt>
<trkpt lat="54.592193" lon="-3.239790"><ele>739</ele><time>2024-06-01T10:50:21Z</time><name>PT1345</name></trkpt>
<trkpt lat="54.592198" lon="-3.239821"><ele>739</ele><time>2024-06-01T10:50:25Z</time><name>PT1346</name></trkpt>
<trkpt lat="54.592201" lon="-3.239841"><ele>739</ele><time>2024-06-01T10:50:29Z</time><name>PT1347</name></trkpt>
<trkpt lat="54.592196" lon="-3.239871"><ele>740</ele><time>2024-06-01T10:50:33Z</time><name>PT1348</name></trkpt>
<trkpt lat="54.592197" lon="-3.239900"><ele>741</ele><time>2024-06-01T10:50:36Z</time><name>PT1349</name></trkpt>
<trkpt lat="54.592196" lon="-3.239911"><ele>741</ele><time>2024-06-01T10:50:40Z</time><name>PT1350</name></trkpt>
<trkpt lat="54.592204" lon="-3.239932"><ele>742</ele><time>2024-06-01T10:50:44Z</time><name>PT1351</name></trkpt>
<trkpt lat="54.592206" lon="-3.239951"><ele>743</ele><time>2024-06-01T10:50:48Z</time><name>PT1352</name></trkpt>
<trkpt lat="54.592198" lon="-3.239978"><ele>743</ele><time>2024-06-01T10:50:52Z</time><name>PT1353</name></trkpt>
<trkpt lat="54.592199" lon="-3.239992"><ele>743</ele><time>2024-06-01T10:50:55Z</time><name>PT1354</name></trkpt>
<trkpt lat="54.592205" lon="-3.240014"><ele>744</ele><time>2024-06-01T10:50:58Z</time><name>PT1355</name></trkpt>
<trkpt lat="54.592208" lon="-3.240024"><ele>744</ele><time>2024-06-01T10:51:02Z</time><name>PT1356</name></trkpt>
<trkpt lat="54.592204" lon="-3.240041"><ele>745</ele><time>2024-06-01T10:51:05Z</time><name>PT1357</name></trkpt>
<trkpt lat="54.592202" lon="-3.240070"><ele>745</ele><time>2024-06-01T10:51:09Z</time><name>PT1358</name></trkpt>
<trkpt lat="54.592202" lon="-3.240083"><ele>745</ele><time>2024-06-01T10:51:12Z</time><name>PT1359</name></trkpt>
<trkpt lat="54.592199" lon="-3.240105"><ele>745</ele><time>2024-06-01T10:51:16Z</time><name>PT1360</name></trkpt>
<trkpt lat="54.592189" lon="-3.240121"><ele>746</ele><time>2024-06-01T10:51:19Z</time><name>PT1361</name></trkpt>
<trkpt lat="54.592184" lon="-3.240126"><ele>746</ele><time>2024-06-01T10:51:22Z</time><name>PT1362</name></trkpt>
<trkpt lat="54.592185" lon="-3.240128"><ele>748</ele><time>2024-06-01T10:51:26Z</time><name>PT1363</name></trkpt>
<trkpt lat="54.592192" lon="-3.240148"><ele>749</ele><time>2024-06-01T10:51:30Z</time><name>PT1364</name></trkpt>
<trkpt lat="54.592193" lon="-3.240165"><ele>750</ele><time>2024-06-01T10:51:33Z</time><name>PT1365</name></trkpt>
<trkpt lat="54.592194" lon="-3.240186"><ele>751</ele><time>2024-06-01T10:51:36Z</time><name>PT1366</name></trkpt>
<trkpt lat="54.592195" lon="-3.240205"><ele>751</ele><time>2024-06-01T10:51:39Z</time><name>PT1367</name></trkpt>
<trkpt lat="54.592187" lon="-3.240214"><ele>752</ele><time>2024-06-01T10:51:43Z</time><name>PT1368</name></trkpt>
<trkpt lat="54.592178" lon="-3.240234"><ele>753</ele><time>2024-06-01T10:51:46Z</time><name>PT1369</name></trkpt>
<trkpt lat="54.592175" lon="-3.240246"><ele>754</ele><time>2024-06-01T10:51:49Z</time><name>PT1370</name></trkpt>
<trkpt lat="54.592186" lon="-3.240269"><ele>754</ele><time>2024-06-01T10:51:53Z</time><name>PT1371</name></trkpt>
<trkpt lat="54.592192" lon="-3.240297"><ele>755</ele><time>2024-06-01T10:51:57Z</time><name>PT1372</name></trkpt>
<trkpt lat="54.592187" lon="-3.240314"><ele>755</ele><time>2024-06-01T10:52:00Z</time><name>PT1373</name></trkpt>
<trkpt lat="54.592190" lon="-3.240325"><ele>757</ele><time>2024-06-01T10:52:04Z</time><name>PT1374</name></trkpt>
<trkpt lat="54.592190" lon="-3.240334"><ele>758</ele><time>2024-06-01T10:52:07Z</time><name>PT1375</name></trkpt>
<trkpt lat="54.592200" lon="-3.240355"><ele>758</ele><time>2024-06-01T10:52:10Z</time><name>PT1376</name></trkpt>
<trkpt lat="54.592208" lon="-3.240379"><ele>759</ele><time>2024-06-01T10:52:13Z</time><name>PT1377</name></trkpt>
<trkpt lat="54.592211" lon="-3.240397"><ele>760</ele><time>2024-06-01T10:52:17Z</time><name>PT1378</name></trkpt>
<trkpt lat="54.592214" lon="-3.240414"><ele>760</ele><time>2024-06-01T10:52:20Z</time><name>PT1379</name></trkpt>
<trkpt lat="54.592213" lon="-3.240427"><ele>761</ele><time>2024-06-01T10:52:24Z</time><name>PT1380</name></trkpt>
<trkpt lat="54.592223" lon="-3.240453"><ele>763</ele><time>2024-06-01T10:52:28Z</time><name>PT1381</name></trkpt>
<trkpt lat="54.592225" lon="-3.240479"><ele>764</ele><time>2024-06-01T10:52:32Z</time><name>PT1382</name></trkpt>
<trkpt lat="54.592231" lon="-3.240502"><ele>764</ele><time>2024-06-01T10:52:36Z</time><name>PT1383</name></trkpt>
<trkpt lat="54.592226" lon="-3.240516"><ele>765</ele><time>2024-06-01T10:52:39Z</time><name>PT1384</name></trkpt>
<trkpt lat="54.592226" lon="-3.240536"><ele>766</ele><time>2024-06-01T10:52:42Z</time><name>PT1385</name></trkpt>
<trkpt lat="54.592232" lon="-3.240554"><ele>765</ele><time>2024-06-01T10:52:45Z</time><name>PT1386</name></trkpt>
<trkpt lat="54.592230" lon="-3.240547"><ele>765</ele><time>2024-06-01T10:52:49Z</time><name>PT1387</name></trkpt>
<trkpt lat="54.592237" lon="-3.240572"><ele>765</ele><time>2024-06-01T10:52:52Z</time><name>PT1388</name></trkpt>
<trkpt lat="54.592249" lon="-3.240583"><ele>765</ele><time>2024-06-01T10:52:56Z</time><name>PT1389</name></trkpt>
<trkpt lat="54.592262" lon="-3.240600"><ele>766</ele><time>2024-06-01T10:52:59Z</time><name>PT1390</name></trkpt>
<trkpt lat="54.592274" lon="-3.240619"><ele>766</ele><time>2024-06-01T10:53:03Z</time><name>PT1391</name></trkpt>
<trkpt lat="54.592271" lon="-3.240632"><ele>766</ele><time>2024-06-01T10:53:07Z</time><name>PT1392</name></trkpt>
<trkpt lat="54.592286" lon="-3.240648"><ele>768</ele><time>2024-06-01T10:53:11Z</time><name>PT1393</name></trkpt>
<trkpt lat="54.592308" lon="-3.240676"><ele>769</ele><time>2024-06-01T10:53:15Z</time><name>PT1394</name></trkpt>
<trkpt lat="54.592319" lon="-3.240694"><ele>769</ele><time>2024-06-01T10:53:18Z</time><name>PT1395</name></trkpt>
<trkpt lat="54.592335" lon="-3.240725"><ele>770</ele><time>2024-06-01T10:53:22Z</time><name>PT1396</name></trkpt>
<trkpt lat="54.592347" lon="-3.240746"><ele>771</ele><time>2024-06-01T10:53:25Z</time><name>PT1397</name></trkpt>
<trkpt lat="54.592361" lon="-3.240772"><ele>771</ele><time>2024-06-01T10:53:28Z</time><name>PT1398</name></trkpt>
<trkpt lat="54.592359" lon="-3.240801"><ele>772</ele><time>2024-06-01T10:53:32Z</time><name>PT1399</name></trkpt>
<trkpt lat="54.592356" lon="-3.240824"><ele>772</ele><time>2024-06-01T10:53:35Z</time><name>PT1400</name></trkpt>
<trkpt lat="54.592362" lon="-3.240839"><ele>773</ele><time>2024-06-01T10:53:38Z</time><name>PT1401</name></trkpt>
<trkpt lat="54.592371" lon="-3.240877"><ele>773</ele><time>2024-06-01T10:53:42Z</time><name>PT1402</name></trkpt>
<trkpt lat="54.592376" lon="-3.240912"><ele>775</ele><time>2024-06-01T10:53:46Z</time><name>PT1403</name></trkpt>
<trkpt lat="54.592386" lon="-3.240947"><ele>775</ele><time>2024-06-01T10:53:49Z</time><name>PT1404</name></trkpt>
<trkpt lat="54.592391" lon="-3.240982"><ele>775</ele><time>2024-06-01T10:53:52Z</time><name>PT1405</name></trkpt>
<trkpt lat="54.592395" lon="-3.241012"><ele>776</ele><time>2024-06-01T10:53:55Z</time><name>PT1406</name></trkpt>
<trkpt lat="54.592405" lon="-3.241043"><ele>778</ele><time>2024-06-01T10:53:59Z</time><name>PT1407</name></trkpt>
<trkpt lat="54.592389" lon="-3.241063"><ele>779</ele><time>2024-06-01T10:54:03Z</time><name>PT1408</name></trkpt>
<trkpt lat="54.592387" lon="-3.241095"><ele>780</ele><time>2024-06-01T10:54:06Z</time><name>PT1409</name></trkpt>
<trkpt lat="54.592387" lon="-3.241139"><ele>781</ele><time>2024-06-01T10:54:10Z</time><name>PT1410</name></trkpt>
<trkpt lat="54.592374" lon="-3.241167"><ele>782</ele><time>2024-06-01T10:54:13Z</time><name>PT1411</name></trkpt>
<trkpt lat="54.592357" lon="-3.241203"><ele>784</ele><time>2024-06-01T10:54:17Z</time><name>PT1412</name></trkpt>
<trkpt lat="54.592333" lon="-3.241226"><ele>785</ele><time>2024-06-01T10:54:21Z</time><name>PT1413</name></trkpt>
<trkpt lat="54.592316" lon="-3.241241"><ele>786</ele><time>2024-06-01T10:54:24Z</time><name>PT1414</name></trkpt>
<trkpt lat="54.592300" lon="-3.241259"><ele>787</ele><time>2024-06-01T10:54:27Z</time><name>PT1415</name></trkpt>
<trkpt lat="54.592285" lon="-3.241284"><ele>787</ele><time>2024-06-01T10:54:31Z</time><name>PT1416</name></trkpt>
<trkpt lat="54.592261" lon="-3.241312"><ele>787</ele><time>2024-06-01T10:54:35Z</time><name>PT1417</name></trkpt>
<trkpt lat="54.592236" lon="-3.241341"><ele>787</ele><time>2024-06-01T10:54:39Z</time><name>PT1418</name></trkpt>
<trkpt lat="54.592213" lon="-3.241364"><ele>788</ele><time>2024-06-01T10:54:42Z</time><name>PT1419</name></trkpt>
<trkpt lat="54.592195" lon="-3.241386"><ele>789</ele><time>2024-06-01T10:54:45Z</time><name>PT1420</name></trkpt>
<trkpt lat="54.592178" lon="-3.241404"><ele>790</ele><time>2024-06-01T10:54:48Z</time><name>PT1421</name></trkpt>
<trkpt lat="54.592149" lon="-3.241435"><ele>791</ele><time>2024-06-01T10:54:52Z</time><name>PT1422</name></trkpt>
<trkpt lat="54.592127" lon="-3.241462"><ele>792</ele><time>2024-06-01T10:54:55Z</time><name>PT1423</name></trkpt>
<trkpt lat="54.592106" lon="-3.241494"><ele>792</ele><time>2024-06-01T10:54:58Z</time><name>PT1424</name></trkpt>
<trkpt lat="54.592083" lon="-3.241530"><ele>793</ele><time>2024-06-01T10:55:02Z</time><name>PT1425</name></trkpt>
<trkpt lat="54.592069" lon="-3.241556"><ele>793</ele><time>2024-06-01T10:55:05Z</time><name>PT1426</name></trkpt>
<trkpt lat="54.592057" lon="-3.241596"><ele>793</ele><time>2024-06-01T10:55:08Z</time><name>PT1427</name></trkpt>
<trkpt lat="54.592031" lon="-3.241647"><ele>794</ele><time>2024-06-01T10:55:12Z</time><name>PT1428</name></trkpt>
<trkpt lat="54.592013" lon="-3.241686"><ele>794</ele><time>2024-06-01T10:55:15Z</time><name>PT1429</name></trkpt>
<trkpt lat="54.591987" lon="-3.241729"><ele>795</ele><time>2024-06-01T10:55:19Z</time><name>PT1430</name></trkpt>
<trkpt lat="54.591973" lon="-3.241730"><ele>798</ele><time>2024-06-01T10:55:22Z</time><name>PT1431</name></trkpt>
<trkpt lat="54.591948" lon="-3.241759"><ele>798</ele><time>2024-06-01T10:55:26Z</time><name>PT1432</name></trkpt>
<trkpt lat="54.591930" lon="-3.241794"><ele>798</ele><time>2024-06-01T10:55:29Z</time><name>PT1433</name></trkpt>
<trkpt lat="54.591906" lon="-3.241833"><ele>798</ele><time>2024-06-01T10:55:33Z</time><name>PT1434</name></trkpt>
<trkpt lat="54.591892" lon="-3.241875"><ele>798</ele><time>2024-06-01T10:55:36Z</time><name>PT1435</name></trkpt>
<trkpt lat="54.591875" lon="-3.241911"><ele>798</ele><time>2024-06-01T10:55:39Z</time><name>PT1436</name></trkpt>
<trkpt lat="54.591860" lon="-3.241939"><ele>797</ele><time>2024-06-01T10:55:42Z</time><name>PT1437</name></trkpt>
<trkpt lat="54.591839" lon="-3.241974"><ele>798</ele><time>2024-06-01T10:55:46Z</time><name>PT1438</name></trkpt>
<trkpt lat="54.591822" lon="-3.241979"><ele>798</ele><time>2024-06-01T10:55:49Z</time><name>PT1439</name></trkpt>
<trkpt lat="54.591820" lon="-3.241983"><ele>798</ele><time>2024-06-01T10:55:52Z</time><name>PT1440</name></trkpt>
<trkpt lat="54.591821" lon="-3.241987"><ele>797</ele><time>2024-06-01T10:55:55Z</time><name>PT1441</name></trkpt>
<trkpt lat="54.591815" lon="-3.241998"><ele>797</ele><time>2024-06-01T10:55:59Z</time><name>PT1442</name></trkpt>
<trkpt lat="54.591807" lon="-3.242002"><ele>798</ele><time>2024-06-01T10:56:02Z</time><name>PT1443</name></trkpt>
<trkpt lat="54.591773" lon="-3.242024"><ele>798</ele><time>2024-06-01T10:56:06Z</time><name>PT1444</name></trkpt>
<trkpt lat="54.591767" lon="-3.242031"><ele>798</ele><time>2024-06-01T10:56:10Z</time><name>PT1445</name></trkpt>
<trkpt lat="54.591765" lon="-3.242028"><ele>798</ele><time>2024-06-01T10:56:13Z</time><name>PT1446</name></trkpt>
<trkpt lat="54.591755" lon="-3.242045"><ele>798</ele><time>2024-06-01T10:56:33Z</time><name>PT1447</name></trkpt>
<trkpt lat="54.591737" lon="-3.242054"><ele>798</ele><time>2024-06-01T10:56:36Z</time><name>PT1448</name></trkpt>
<trkpt lat="54.591727" lon="-3.242062"><ele>798</ele><time>2024-06-01T10:56:39Z</time><name>PT1449</name></trkpt>
<trkpt lat="54.591724" lon="-3.242068"><ele>799</ele><time>2024-06-01T10:56:42Z</time><name>PT1450</name></trkpt>
<trkpt lat="54.591725" lon="-3.242067"><ele>799</ele><time>2024-06-01T10:56:56Z</time><name>PT1451</name></trkpt>
<trkpt lat="54.591729" lon="-3.242068"><ele>799</ele><time>2024-06-01T10:57:00Z</time><name>PT1452</name></trkpt>
<trkpt lat="54.591728" lon="-3.242073"><ele>799</ele><time>2024-06-01T10:58:28Z</time><name>PT1453</name></trkpt>
<trkpt lat="54.591752" lon="-3.242054"><ele>799</ele><time>2024-06-01T10:58:31Z</time><name>PT1454</name></trkpt>
<trkpt lat="54.591775" lon="-3.242022"><ele>798</ele><time>2024-06-01T10:58:35Z</time><name>PT1455</name></trkpt>
<trkpt lat="54.591781" lon="-3.242004"><ele>798</ele><time>2024-06-01T10:58:38Z</time><name>PT1456</name></trkpt>
<trkpt lat="54.591792" lon="-3.241980"><ele>797</ele><time>2024-06-01T10:58:42Z</time><name>PT1457</name></trkpt>
<trkpt lat="54.591793" lon="-3.241965"><ele>797</ele><time>2024-06-01T10:58:45Z</time><name>PT1458</name></trkpt>
<trkpt lat="54.591793" lon="-3.241966"><ele>797</ele><time>2024-06-01T10:58:49Z</time><name>PT1459</name></trkpt>
<trkpt lat="54.591794" lon="-3.241969"><ele>797</ele><time>2024-06-01T11:00:39Z</time><name>PT1460</name></trkpt>
<trkpt lat="54.591793" lon="-3.241972"><ele>797</ele><time>2024-06-01T11:01:04Z</time><name>PT1461</name></trkpt>
<trkpt lat="54.591781" lon="-3.241962"><ele>796</ele><time>2024-06-01T11:01:08Z</time><name>PT1462</name></trkpt>
<trkpt lat="54.591765" lon="-3.241980"><ele>793</ele><time>2024-06-01T11:01:12Z</time><name>PT1463</name></trkpt>
<trkpt lat="54.591766" lon="-3.241982"><ele>793</ele><time>2024-06-01T11:01:16Z</time><name>PT1464</name></trkpt>
<trkpt lat="54.591759" lon="-3.241986"><ele>793</ele><time>2024-06-01T11:02:06Z</time><name>PT1465</name></trkpt>
<trkpt lat="54.591760" lon="-3.241986"><ele>793</ele><time>2024-06-01T11:02:09Z</time><name>PT1466</name></trkpt>
<trkpt lat="54.591762" lon="-3.241989"><ele>793</ele><time>2024-06-01T11:03:05Z</time><name>PT1467</name></trkpt>
<trkpt lat="54.591766" lon="-3.241977"><ele>792</ele><time>2024-06-01T11:04:26Z</time><name>PT1468</name></trkpt>
<trkpt lat="54.591763" lon="-3.241982"><ele>792</ele><time>2024-06-01T11:05:36Z</time><name>PT1469</name></trkpt>
<trkpt lat="54.591764" lon="-3.241982"><ele>793</ele><time>2024-06-01T11:05:40Z</time><name>PT1470</name></trkpt>
<trkpt lat="54.591761" lon="-3.241963"><ele>792</ele><time>2024-06-01T11:06:44Z</time><name>PT1471</name></trkpt>
<trkpt lat="54.591761" lon="-3.241969"><ele>792</ele><time>2024-06-01T11:06:47Z</time><name>PT1472</name></trkpt>
<trkpt lat="54.591760" lon="-3.241972"><ele>792</ele><time>2024-06-01T11:07:08Z</time><name>PT1473</name></trkpt>
<trkpt lat="54.591778" lon="-3.241952"><ele>793</ele><time>2024-06-01T11:07:11Z</time><name>PT1474</name></trkpt>
<trkpt lat="54.591792" lon="-3.241953"><ele>793</ele><time>2024-06-01T11:07:15Z</time><name>PT1475</name></trkpt>
<trkpt lat="54.591792" lon="-3.241962"><ele>793</ele><time>2024-06-01T11:07:19Z</time><name>PT1476</name></trkpt>
<trkpt lat="54.591795" lon="-3.241958"><ele>794</ele><time>2024-06-01T11:10:40Z</time><name>PT1477</name></trkpt>
<trkpt lat="54.591795" lon="-3.241959"><ele>794</ele><time>2024-06-01T11:10:43Z</time><name>PT1478</name></trkpt>
<trkpt lat="54.591788" lon="-3.241955"><ele>793</ele><time>2024-06-01T11:12:28Z</time><name>PT1479</name></trkpt>
<trkpt lat="54.591787" lon="-3.241963"><ele>793</ele><time>2024-06-01T11:12:31Z</time><name>PT1480</name></trkpt>
<trkpt lat="54.591745" lon="-3.241970"><ele>792</ele><time>2024-06-01T11:13:10Z</time><name>PT1481</name></trkpt>
<trkpt lat="54.591735" lon="-3.241985"><ele>792</ele><time>2024-06-01T11:13:14Z</time><name>PT1482</name></trkpt>
<trkpt lat="54.591731" lon="-3.241989"><ele>792</ele><time>2024-06-01T11:13:25Z</time><name>PT1483</name></trkpt>
<trkpt lat="54.591716" lon="-3.241990"><ele>792</ele><time>2024-06-01T11:13:29Z</time><name>PT1484</name></trkpt>
<trkpt lat="54.591709" lon="-3.242000"><ele>793</ele><time>2024-06-01T11:13:37Z</time><name>PT1485</name></trkpt>
<trkpt lat="54.591663" lon="-3.242054"><ele>792</ele><time>2024-06-01T11:13:41Z</time><name>PT1486</name></trkpt>
<trkpt lat="54.591634" lon="-3.242099"><ele>792</ele><time>2024-06-01T11:13:45Z</time><name>PT1487</name></trkpt>
<trkpt lat="54.591601" lon="-3.242159"><ele>791</ele><time>2024-06-01T11:13:49Z</time><name>PT1488</name></trkpt>
<trkpt lat="54.591580" lon="-3.242196"><ele>790</ele><time>2024-06-01T11:13:52Z</time><name>PT1489</name></trkpt>
<trkpt lat="54.591543" lon="-3.242235"><ele>789</ele><time>2024-06-01T11:13:56Z</time><name>PT1490</name></trkpt>
<trkpt lat="54.591520" lon="-3.242279"><ele>788</ele><time>2024-06-01T11:13:59Z</time><name>PT1491</name></trkpt>
<trkpt lat="54.591503" lon="-3.242316"><ele>787</ele><time>2024-06-01T11:14:02Z</time><name>PT1492</name></trkpt>
<trkpt lat="54.591493" lon="-3.242360"><ele>787</ele><time>2024-06-01T11:14:06Z</time><name>PT1493</name></trkpt>
<trkpt lat="54.591487" lon="-3.242392"><ele>786</ele><time>2024-06-01T11:14:09Z</time><name>PT1494</name></trkpt>
<trkpt lat="54.591487" lon="-3.242432"><ele>786</ele><time>2024-06-01T11:14:13Z</time><name>PT1495</name></trkpt>
<trkpt lat="54.591487" lon="-3.242477"><ele>786</ele><time>2024-06-01T11:14:16Z</time><name>PT1496</name></trkpt>
<trkpt lat="54.591480" lon="-3.242525"><ele>785</ele><time>2024-06-01T11:14:19Z</time><name>PT1497</name></trkpt>
<trkpt lat="54.591466" lon="-3.242585"><ele>784</ele><time>2024-06-01T11:14:23Z</time><name>PT1498</name></trkpt>
<trkpt lat="54.591446" lon="-3.242646"><ele>783</ele><time>2024-06-01T11:14:27Z</time><name>PT1499</name></trkpt>
<trkpt lat="54.591430" lon="-3.242675"><ele>782</ele><time>2024-06-01T11:14:30Z</time><name>PT1500</name></trkpt>
<trkpt lat="54.591389" lon="-3.242726"><ele>782</ele><time>2024-06-01T11:14:34Z</time><name>PT1501</name></trkpt>
<trkpt lat="54.591355" lon="-3.242778"><ele>781</ele><time>2024-06-01T11:14:38Z</time><name>PT1502</name></trkpt>
<trkpt lat="54.591330" lon="-3.242819"><ele>779</ele><time>2024-06-01T11:14:42Z</time><name>PT1503</name></trkpt>
<trkpt lat="54.591299" lon="-3.242858"><ele>779</ele><time>2024-06-01T11:14:46Z</time><name>PT1504</name></trkpt>
<trkpt lat="54.591264" lon="-3.242887"><ele>778</ele><time>2024-06-01T11:14:49Z</time><name>PT1505</name></trkpt>
<trkpt lat="54.591238" lon="-3.242915"><ele>777</ele><time>2024-06-01T11:14:52Z</time><name>PT1506</name></trkpt>
<trkpt lat="54.591214" lon="-3.242942"><ele>776</ele><time>2024-06-01T11:14:55Z</time><name>PT1507</name></trkpt>
<trkpt lat="54.591186" lon="-3.242964"><ele>776</ele><time>2024-06-01T11:14:59Z</time><name>PT1508</name></trkpt>
<trkpt lat="54.591166" lon="-3.242977"><ele>775</ele><time>2024-06-01T11:15:02Z</time><name>PT1509</name></trkpt>
<trkpt lat="54.591141" lon="-3.243013"><ele>774</ele><time>2024-06-01T11:15:06Z</time><name>PT1510</name></trkpt>
<trkpt lat="54.591132" lon="-3.243061"><ele>774</ele><time>2024-06-01T11:15:10Z</time><name>PT1511</name></trkpt>
<trkpt lat="54.591123" lon="-3.243119"><ele>773</ele><time>2024-06-01T11:15:14Z</time><name>PT1512</name></trkpt>
<trkpt lat="54.591109" lon="-3.243162"><ele>772</ele><time>2024-06-01T11:15:17Z</time><name>PT1513</name></trkpt>
<trkpt lat="54.591082" lon="-3.243201"><ele>771</ele><time>2024-06-01T11:15:21Z</time><name>PT1514</name></trkpt>
<trkpt lat="54.591070" lon="-3.243238"><ele>770</ele><time>2024-06-01T11:15:25Z</time><name>PT1515</name></trkpt>
<trkpt lat="54.591056" lon="-3.243269"><ele>769</ele><time>2024-06-01T11:15:28Z</time><name>PT1516</name></trkpt>
<trkpt lat="54.591038" lon="-3.243300"><ele>768</ele><time>2024-06-01T11:15:32Z</time><name>PT1517</name></trkpt>
<trkpt lat="54.591017" lon="-3.243326"><ele>767</ele><time>2024-06-01T11:15:35Z</time><name>PT1518</name></trkpt>
<trkpt lat="54.590992" lon="-3.243360"><ele>767</ele><time>2024-06-01T11:15:39Z</time><name>PT1519</name></trkpt>
<trkpt lat="54.590978" lon="-3.243381"><ele>768</ele><time>2024-06-01T11:15:42Z</time><name>PT1520</name></trkpt>
<trkpt lat="54.590960" lon="-3.243406"><ele>767</ele><time>2024-06-01T11:15:46Z</time><name>PT1521</name></trkpt>
<trkpt lat="54.590944" lon="-3.243431"><ele>767</ele><time>2024-06-01T11:15:49Z</time><name>PT1522</name></trkpt>
<trkpt lat="54.590925" lon="-3.243445"><ele>766</ele><time>2024-06-01T11:15:52Z</time><name>PT1523</name></trkpt>
<trkpt lat="54.590900" lon="-3.243462"><ele>765</ele><time>2024-06-01T11:15:56Z</time><name>PT1524</name></trkpt>
<trkpt lat="54.590884" lon="-3.243479"><ele>765</ele><time>2024-06-01T11:15:59Z</time><name>PT1525</name></trkpt>
<trkpt lat="54.590860" lon="-3.243499"><ele>764</ele><time>2024-06-01T11:16:03Z</time><name>PT1526</name></trkpt>
<trkpt lat="54.590850" lon="-3.243524"><ele>764</ele><time>2024-06-01T11:16:06Z</time><name>PT1527</name></trkpt>
<trkpt lat="54.590833" lon="-3.243561"><ele>763</ele><time>2024-06-01T11:16:09Z</time><name>PT1528</name></trkpt>
<trkpt lat="54.590819" lon="-3.243602"><ele>761</ele><time>2024-06-01T11:16:13Z</time><name>PT1529</name></trkpt>
<trkpt lat="54.590803" lon="-3.243639"><ele>760</ele><time>2024-06-01T11:16:17Z</time><name>PT1530</name></trkpt>
<trkpt lat="54.590783" lon="-3.243693"><ele>759</ele><time>2024-06-01T11:16:21Z</time><name>PT1531</name></trkpt>
<trkpt lat="54.590752" lon="-3.243736"><ele>758</ele><time>2024-06-01T11:16:25Z</time><name>PT1532</name></trkpt>
<trkpt lat="54.590730" lon="-3.243760"><ele>758</ele><time>2024-06-01T11:16:28Z</time><name>PT1533</name></trkpt>
<trkpt lat="54.590699" lon="-3.243790"><ele>757</ele><time>2024-06-01T11:16:32Z</time><name>PT1534</name></trkpt>
<trkpt lat="54.590682" lon="-3.243809"><ele>756</ele><time>2024-06-01T11:16:35Z</time><name>PT1535</name></trkpt>
<trkpt lat="54.590667" lon="-3.243846"><ele>756</ele><time>2024-06-01T11:16:38Z</time><name>PT1536</name></trkpt>
<trkpt lat="54.590640" lon="-3.243875"><ele>755</ele><time>2024-06-01T11:16:42Z</time><name>PT1537</name></trkpt>
<trkpt lat="54.590610" lon="-3.243919"><ele>753</ele><time>2024-06-01T11:16:46Z</time><name>PT1538</name></trkpt>
<trkpt lat="54.590588" lon="-3.243963"><ele>753</ele><time>2024-06-01T11:16:50Z</time><name>PT1539</name></trkpt>
<trkpt lat="54.590557" lon="-3.244012"><ele>752</ele><time>2024-06-01T11:16:54Z</time><name>PT1540</name></trkpt>
<trkpt lat="54.590535" lon="-3.244038"><ele>751</ele><time>2024-06-01T11:16:57Z</time><name>PT1541</name></trkpt>
<trkpt lat="54.590509" lon="-3.244076"><ele>751</ele><time>2024-06-01T11:17:01Z</time><name>PT1542</name></trkpt>
<trkpt lat="54.590482" lon="-3.244113"><ele>750</ele><time>2024-06-01T11:17:04Z</time><name>PT1543</name></trkpt>
<trkpt lat="54.590460" lon="-3.244161"><ele>750</ele><time>2024-06-01T11:17:08Z</time><name>PT1544</name></trkpt>
<trkpt lat="54.590428" lon="-3.244208"><ele>749</ele><time>2024-06-01T11:17:11Z</time><name>PT1545</name></trkpt>
<trkpt lat="54.590404" lon="-3.244249"><ele>751</ele><time>2024-06-01T11:17:14Z</time><name>PT1546</name></trkpt>
<trkpt lat="54.590389" lon="-3.244293"><ele>750</ele><time>2024-06-01T11:17:17Z</time><name>PT1547</name></trkpt>
<trkpt lat="54.590364" lon="-3.244341"><ele>749</ele><time>2024-06-01T11:17:21Z</time><name>PT1548</name></trkpt>
<trkpt lat="54.590353" lon="-3.244389"><ele>748</ele><time>2024-06-01T11:17:25Z</time><name>PT1549</name></trkpt>
<trkpt lat="54.590339" lon="-3.244418"><ele>748</ele><time>2024-06-01T11:17:28Z</time><name>PT1550</name></trkpt>
<trkpt lat="54.590321" lon="-3.244437"><ele>747</ele><time>2024-06-01T11:17:32Z</time><name>PT1551</name></trkpt>
<trkpt lat="54.590304" lon="-3.244447"><ele>747</ele><time>2024-06-01T11:17:36Z</time><name>PT1552</name></trkpt>
<trkpt lat="54.590289" lon="-3.244461"><ele>747</ele><time>2024-06-01T11:17:39Z</time><name>PT1553</name></trkpt>
<trkpt lat="54.590273" lon="-3.244482"><ele>746</ele><time>2024-06-01T11:17:42Z</time><name>PT1554</name></trkpt>
<trkpt lat="54.590248" lon="-3.244521"><ele>746</ele><time>2024-06-01T11:17:46Z</time><name>PT1555</name></trkpt>
<trkpt lat="54.590220" lon="-3.244555"><ele>746</ele><time>2024-06-01T11:17:49Z</time><name>PT1556</name></trkpt>
<trkpt lat="54.590183" lon="-3.244613"><ele>746</ele><time>2024-06-01T11:17:53Z</time><name>PT1557</name></trkpt>
<trkpt lat="54.590146" lon="-3.244664"><ele>745</ele><time>2024-06-01T11:17:57Z</time><name>PT1558</name></trkpt>
<trkpt lat="54.590118" lon="-3.244721"><ele>744</ele><time>2024-06-01T11:18:01Z</time><name>PT1559</name></trkpt>
<trkpt lat="54.590096" lon="-3.244764"><ele>742</ele><time>2024-06-01T11:18:04Z</time><name>PT1560</name></trkpt>
<trkpt lat="54.590065" lon="-3.244775"><ele>742</ele><time>2024-06-01T11:18:08Z</time><name>PT1561</name></trkpt>
<trkpt lat="54.590049" lon="-3.244760"><ele>741</ele><time>2024-06-01T11:18:12Z</time><name>PT1562</name></trkpt>
<trkpt lat="54.590041" lon="-3.244751"><ele>740</ele><time>2024-06-01T11:18:15Z</time><name>PT1563</name></trkpt>
<trkpt lat="54.590035" lon="-3.244753"><ele>740</ele><time>2024-06-01T11:18:19Z</time><name>PT1564</name></trkpt>
<trkpt lat="54.589997" lon="-3.244715"><ele>738</ele><time>2024-06-01T11:18:23Z</time><name>PT1565</name></trkpt>
<trkpt lat="54.589967" lon="-3.244682"><ele>736</ele><time>2024-06-01T11:18:27Z</time><name>PT1566</name></trkpt>
<trkpt lat="54.589946" lon="-3.244655"><ele>735</ele><time>2024-06-01T11:18:31Z</time><name>PT1567</name></trkpt>
<trkpt lat="54.589924" lon="-3.244659"><ele>734</ele><time>2024-06-01T11:18:35Z</time><name>PT1568</name></trkpt>
<trkpt lat="54.589904" lon="-3.244675"><ele>734</ele><time>2024-06-01T11:18:39Z</time><name>PT1569</name></trkpt>
<trkpt lat="54.589882" lon="-3.244691"><ele>734</ele><time>2024-06-01T11:18:43Z</time><name>PT1570</name></trkpt>
<trkpt lat="54.589863" lon="-3.244691"><ele>734</ele><time>2024-06-01T11:18:46Z</time><name>PT1571</name></trkpt>
<trkpt lat="54.589836" lon="-3.244680"><ele>733</ele><time>2024-06-01T11:18:50Z</time><name>PT1572</name></trkpt>
<trkpt lat="54.589808" lon="-3.244683"><ele>733</ele><time>2024-06-01T11:18:53Z</time><name>PT1573</name></trkpt>
<trkpt lat="54.589792" lon="-3.244705"><ele>732</ele><time>2024-06-01T11:18:56Z</time><name>PT1574</name></trkpt>
<trkpt lat="54.589775" lon="-3.244745"><ele>732</ele><time>2024-06-01T11:19:00Z</time><name>PT1575</name></trkpt>
<trkpt lat="54.589760" lon="-3.244774"><ele>730</ele><time>2024-06-01T11:19:04Z</time><name>PT1576</name></trkpt>
<trkpt lat="54.589738" lon="-3.244806"><ele>730</ele><time>2024-06-01T11:19:08Z</time><name>PT1577</name></trkpt>
<trkpt lat="54.589721" lon="-3.244810"><ele>729</ele><time>2024-06-01T11:19:11Z</time><name>PT1578</name></trkpt>
<trkpt lat="54.589702" lon="-3.244829"><ele>727</ele><time>2024-06-01T11:19:15Z</time><name>PT1579</name></trkpt>
<trkpt lat="54.589681" lon="-3.244848"><ele>726</ele><time>2024-06-01T11:19:19Z</time><name>PT1580</name></trkpt>
<trkpt lat="54.589658" lon="-3.244858"><ele>725</ele><time>2024-06-01T11:19:22Z</time><name>PT1581</name></trkpt>
<trkpt lat="54.589634" lon="-3.244879"><ele>724</ele><time>2024-06-01T11:19:26Z</time><name>PT1582</name></trkpt>
<trkpt lat="54.589609" lon="-3.244915"><ele>723</ele><time>2024-06-01T11:19:30Z</time><name>PT1583</name></trkpt>
<trkpt lat="54.589583" lon="-3.244949"><ele>722</ele><time>2024-06-01T11:19:34Z</time><name>PT1584</name></trkpt>
<trkpt lat="54.589558" lon="-3.244953"><ele>721</ele><time>2024-06-01T11:19:38Z</time><name>PT1585</name></trkpt>
<trkpt lat="54.589541" lon="-3.244939"><ele>720</ele><time>2024-06-01T11:19:41Z</time><name>PT1586</name></trkpt>
<trkpt lat="54.589524" lon="-3.244987"><ele>718</ele><time>2024-06-01T11:19:45Z</time><name>PT1587</name></trkpt>
<trkpt lat="54.589502" lon="-3.245026"><ele>717</ele><time>2024-06-01T11:19:48Z</time><name>PT1588</name></trkpt>
<trkpt lat="54.589471" lon="-3.245087"><ele>715</ele><time>2024-06-01T11:19:52Z</time><name>PT1589</name></trkpt>
<trkpt lat="54.589431" lon="-3.245140"><ele>714</ele><time>2024-06-01T11:19:56Z</time><name>PT1590</name></trkpt>
<trkpt lat="54.589406" lon="-3.245175"><ele>713</ele><time>2024-06-01T11:19:59Z</time><name>PT1591</name></trkpt>
<trkpt lat="54.589363" lon="-3.245219"><ele>712</ele><time>2024-06-01T11:20:03Z</time><name>PT1592</name></trkpt>
<trkpt lat="54.589320" lon="-3.245220"><ele>712</ele><time>2024-06-01T11:20:07Z</time><name>PT1593</name></trkpt>
<trkpt lat="54.589280" lon="-3.245207"><ele>712</ele><time>2024-06-01T11:20:10Z</time><name>PT1594</name></trkpt>
<trkpt lat="54.589241" lon="-3.245186"><ele>712</ele><time>2024-06-01T11:20:14Z</time><name>PT1595</name></trkpt>
<trkpt lat="54.589223" lon="-3.245170"><ele>712</ele><time>2024-06-01T11:20:17Z</time><name>PT1596</name></trkpt>
<trkpt lat="54.589206" lon="-3.245155"><ele>711</ele><time>2024-06-01T11:20:20Z</time><name>PT1597</name></trkpt>
<trkpt lat="54.589202" lon="-3.245127"><ele>711</ele><time>2024-06-01T11:20:23Z</time><name>PT1598</name></trkpt>
<trkpt lat="54.589199" lon="-3.245125"><ele>710</ele><time>2024-06-01T11:20:26Z</time><name>PT1599</name></trkpt>
<trkpt lat="54.589187" lon="-3.245140"><ele>709</ele><time>2024-06-01T11:20:30Z</time><name>PT1600</name></trkpt>
<trkpt lat="54.589161" lon="-3.245155"><ele>710</ele><time>2024-06-01T11:20:34Z</time><name>PT1601</name></trkpt>
<trkpt lat="54.589134" lon="-3.245188"><ele>709</ele><time>2024-06-01T11:20:37Z</time><name>PT1602</name></trkpt>
<trkpt lat="54.589099" lon="-3.245239"><ele>708</ele><time>2024-06-01T11:20:41Z</time><name>PT1603</name></trkpt>
<trkpt lat="54.589050" lon="-3.245287"><ele>707</ele><time>2024-06-01T11:20:45Z</time><name>PT1604</name></trkpt>
<trkpt lat="54.589013" lon="-3.245345"><ele>707</ele><time>2024-06-01T11:20:49Z</time><name>PT1605</name></trkpt>
<trkpt lat="54.588984" lon="-3.245382"><ele>706</ele><time>2024-06-01T11:20:52Z</time><name>PT1606</name></trkpt>
<trkpt lat="54.588939" lon="-3.245423"><ele>706</ele><time>2024-06-01T11:20:56Z</time><name>PT1607</name></trkpt>
<trkpt lat="54.588893" lon="-3.245468"><ele>705</ele><time>2024-06-01T11:21:00Z</time><name>PT1608</name></trkpt>
<trkpt lat="54.588856" lon="-3.245504"><ele>706</ele><time>2024-06-01T11:21:04Z</time><name>PT1609</name></trkpt>
<trkpt lat="54.588819" lon="-3.245529"><ele>706</ele><time>2024-06-01T11:21:07Z</time><name>PT1610</name></trkpt>
<trkpt lat="54.588786" lon="-3.245576"><ele>706</ele><time>2024-06-01T11:21:11Z</time><name>PT1611</name></trkpt>
<trkpt lat="54.588759" lon="-3.245621"><ele>706</ele><time>2024-06-01T11:21:15Z</time><name>PT1612</name></trkpt>
<trkpt lat="54.588735" lon="-3.245649"><ele>705</ele><time>2024-06-01T11:21:18Z</time><name>PT1613</name></trkpt>
<trkpt lat="54.588709" lon="-3.245679"><ele>705</ele><time>2024-06-01T11:21:21Z</time><name>PT1614</name></trkpt>
<trkpt lat="54.588682" lon="-3.245731"><ele>704</ele><time>2024-06-01T11:21:25Z</time><name>PT1615</name></trkpt>
<trkpt lat="54.588651" lon="-3.245772"><ele>704</ele><time>2024-06-01T11:21:28Z</time><name>PT1616</name></trkpt>
<trkpt lat="54.588618" lon="-3.245827"><ele>704</ele><time>2024-06-01T11:21:32Z</time><name>PT1617</name></trkpt>
<trkpt lat="54.588582" lon="-3.245884"><ele>705</ele><time>2024-06-01T11:21:36Z</time><name>PT1618</name></trkpt>
<trkpt lat="54.588563" lon="-3.245926"><ele>706</ele><time>2024-06-01T11:21:39Z</time><name>PT1619</name></trkpt>
<trkpt lat="54.588538" lon="-3.245964"><ele>706</ele><time>2024-06-01T11:21:42Z</time><name>PT1620</name></trkpt>
<trkpt lat="54.588503" lon="-3.246009"><ele>706</ele><time>2024-06-01T11:21:46Z</time><name>PT1621</name></trkpt>
<trkpt lat="54.588477" lon="-3.246051"><ele>706</ele><time>2024-06-01T11:21:49Z</time><name>PT1622</name></trkpt>
<trkpt lat="54.588453" lon="-3.246101"><ele>707</ele><time>2024-06-01T11:21:53Z</time><name>PT1623</name></trkpt>
<trkpt lat="54.588437" lon="-3.246169"><ele>707</ele><time>2024-06-01T11:21:57Z</time><name>PT1624</name></trkpt>
<trkpt lat="54.588422" lon="-3.246223"><ele>707</ele><time>2024-06-01T11:22:00Z</time><name>PT1625</name></trkpt>
<trkpt lat="54.588404" lon="-3.246281"><ele>707</ele><time>2024-06-01T11:22:03Z</time><name>PT1626</name></trkpt>
<trkpt lat="54.588375" lon="-3.246332"><ele>707</ele><time>2024-06-01T11:22:07Z</time><name>PT1627</name></trkpt>
<trkpt lat="54.588338" lon="-3.246382"><ele>707</ele><time>2024-06-01T11:22:11Z</time><name>PT1628</name></trkpt>
<trkpt lat="54.588313" lon="-3.246412"><ele>707</ele><time>2024-06-01T11:22:14Z</time><name>PT1629</name></trkpt>
<trkpt lat="54.588286" lon="-3.246455"><ele>708</ele><time>2024-06-01T11:22:17Z</time><name>PT1630</name></trkpt>
<trkpt lat="54.588259" lon="-3.246485"><ele>707</ele><time>2024-06-01T11:22:20Z</time><name>PT1631</name></trkpt>
<trkpt lat="54.588241" lon="-3.246528"><ele>708</ele><time>2024-06-01T11:22:23Z</time><name>PT1632</name></trkpt>
<trkpt lat="54.588227" lon="-3.246602"><ele>708</ele><time>2024-06-01T11:22:27Z</time><name>PT1633</name></trkpt>
<trkpt lat="54.588214" lon="-3.246648"><ele>708</ele><time>2024-06-01T11:22:30Z</time><name>PT1634</name></trkpt>
<trkpt lat="54.588187" lon="-3.246711"><ele>708</ele><time>2024-06-01T11:22:34Z</time><name>PT1635</name></trkpt>
<trkpt lat="54.588172" lon="-3.246785"><ele>707</ele><time>2024-06-01T11:22:38Z</time><name>PT1636</name></trkpt>
<trkpt lat="54.588158" lon="-3.246837"><ele>708</ele><time>2024-06-01T11:22:41Z</time><name>PT1637</name></trkpt>
<trkpt lat="54.588150" lon="-3.246893"><ele>708</ele><time>2024-06-01T11:22:44Z</time><name>PT1638</name></trkpt>
<trkpt lat="54.588137" lon="-3.246967"><ele>708</ele><time>2024-06-01T11:22:48Z</time><name>PT1639</name></trkpt>
<trkpt lat="54.588108" lon="-3.247026"><ele>708</ele><time>2024-06-01T11:22:52Z</time><name>PT1640</name></trkpt>
<trkpt lat="54.588095" lon="-3.247077"><ele>709</ele><time>2024-06-01T11:22:55Z</time><name>PT1641</name></trkpt>
<trkpt lat="54.588069" lon="-3.247134"><ele>709</ele><time>2024-06-01T11:22:59Z</time><name>PT1642</name></trkpt>
<trkpt lat="54.588049" lon="-3.247180"><ele>710</ele><time>2024-06-01T11:23:02Z</time><name>PT1643</name></trkpt>
<trkpt lat="54.588025" lon="-3.247238"><ele>711</ele><time>2024-06-01T11:23:06Z</time><name>PT1644</name></trkpt>
<trkpt lat="54.588010" lon="-3.247281"><ele>712</ele><time>2024-06-01T11:23:09Z</time><name>PT1645</name></trkpt>
<trkpt lat="54.587995" lon="-3.247333"><ele>713</ele><time>2024-06-01T11:23:13Z</time><name>PT1646</name></trkpt>
<trkpt lat="54.587978" lon="-3.247376"><ele>714</ele><time>2024-06-01T11:23:16Z</time><name>PT1647</name></trkpt>
<trkpt lat="54.587960" lon="-3.247429"><ele>714</ele><time>2024-06-01T11:23:20Z</time><name>PT1648</name></trkpt>
<trkpt lat="54.587935" lon="-3.247474"><ele>714</ele><time>2024-06-01T11:23:24Z</time><name>PT1649</name></trkpt>
<trkpt lat="54.587912" lon="-3.247515"><ele>715</ele><time>2024-06-01T11:23:28Z</time><name>PT1650</name></trkpt>
<trkpt lat="54.587896" lon="-3.247546"><ele>715</ele><time>2024-06-01T11:23:31Z</time><name>PT1651</name></trkpt>
<trkpt lat="54.587877" lon="-3.247588"><ele>715</ele><time>2024-06-01T11:23:34Z</time><name>PT1652</name></trkpt>
<trkpt lat="54.587855" lon="-3.247639"><ele>716</ele><time>2024-06-01T11:23:38Z</time><name>PT1653</name></trkpt>
<trkpt lat="54.587832" lon="-3.247696"><ele>716</ele><time>2024-06-01T11:23:42Z</time><name>PT1654</name></trkpt>
<trkpt lat="54.587806" lon="-3.247752"><ele>717</ele><time>2024-06-01T11:23:46Z</time><name>PT1655</name></trkpt>
<trkpt lat="54.587775" lon="-3.247802"><ele>718</ele><time>2024-06-01T11:23:50Z</time><name>PT1656</name></trkpt>
<trkpt lat="54.587749" lon="-3.247837"><ele>718</ele><time>2024-06-01T11:23:53Z</time><name>PT1657</name></trkpt>
<trkpt lat="54.587723" lon="-3.247885"><ele>718</ele><time>2024-06-01T11:23:57Z</time><name>PT1658</name></trkpt>
<trkpt lat="54.587705" lon="-3.247919"><ele>719</ele><time>2024-06-01T11:24:00Z</time><name>PT1659</name></trkpt>
<trkpt lat="54.587685" lon="-3.247971"><ele>720</ele><time>2024-06-01T11:24:04Z</time><name>PT1660</name></trkpt>
<trkpt lat="54.587665" lon="-3.248015"><ele>720</ele><time>2024-06-01T11:24:08Z</time><name>PT1661</name></trkpt>
<trkpt lat="54.587651" lon="-3.248048"><ele>720</ele><time>2024-06-01T11:24:11Z</time><name>PT1662</name></trkpt>
<trkpt lat="54.587628" lon="-3.248088"><ele>721</ele><time>2024-06-01T11:24:15Z</time><name>PT1663</name></trkpt>
<trkpt lat="54.587604" lon="-3.248123"><ele>722</ele><time>2024-06-01T11:24:19Z</time><name>PT1664</name></trkpt>
<trkpt lat="54.587576" lon="-3.248155"><ele>723</ele><time>2024-06-01T11:24:23Z</time><name>PT1665</name></trkpt>
<trkpt lat="54.587550" lon="-3.248173"><ele>723</ele><time>2024-06-01T11:24:27Z</time><name>PT1666</name></trkpt>
<trkpt lat="54.587520" lon="-3.248184"><ele>724</ele><time>2024-06-01T11:24:31Z</time><name>PT1667</name></trkpt>
<trkpt lat="54.587497" lon="-3.248195"><ele>724</ele><time>2024-06-01T11:24:34Z</time><name>PT1668</name></trkpt>
<trkpt lat="54.587478" lon="-3.248213"><ele>725</ele><time>2024-06-01T11:24:37Z</time><name>PT1669</name></trkpt>
<trkpt lat="54.587459" lon="-3.248258"><ele>726</ele><time>2024-06-01T11:24:41Z</time><name>PT1670</name></trkpt>
<trkpt lat="54.587452" lon="-3.248296"><ele>726</ele><time>2024-06-01T11:24:44Z</time><name>PT1671</name></trkpt>
<trkpt lat="54.587442" lon="-3.248335"><ele>727</ele><time>2024-06-01T11:24:47Z</time><name>PT1672</name></trkpt>
<trkpt lat="54.587433" lon="-3.248373"><ele>727</ele><time>2024-06-01T11:24:50Z</time><name>PT1673</name></trkpt>
<trkpt lat="54.587421" lon="-3.248422"><ele>728</ele><time>2024-06-01T11:24:54Z</time><name>PT1674</name></trkpt>
<trkpt lat="54.587416" lon="-3.248459"><ele>729</ele><time>2024-06-01T11:24:57Z</time><name>PT1675</name></trkpt>
<trkpt lat="54.587409" lon="-3.248509"><ele>729</ele><time>2024-06-01T11:25:01Z</time><name>PT1676</name></trkpt>
<trkpt lat="54.587393" lon="-3.248531"><ele>729</ele><time>2024-06-01T11:25:04Z</time><name>PT1677</name></trkpt>
<trkpt lat="54.587382" lon="-3.248518"><ele>729</ele><time>2024-06-01T11:25:08Z</time><name>PT1678</name></trkpt>
<trkpt lat="54.587369" lon="-3.248507"><ele>729</ele><time>2024-06-01T11:25:11Z</time><name>PT1679</name></trkpt>
<trkpt lat="54.587357" lon="-3.248480"><ele>730</ele><time>2024-06-01T11:25:14Z</time><name>PT1680</name></trkpt>
<trkpt lat="54.587333" lon="-3.248467"><ele>731</ele><time>2024-06-01T11:25:18Z</time><name>PT1681</name></trkpt>
<trkpt lat="54.587314" lon="-3.248476"><ele>731</ele><time>2024-06-01T11:25:21Z</time><name>PT1682</name></trkpt>
<trkpt lat="54.587287" lon="-3.248511"><ele>733</ele><time>2024-06-01T11:25:25Z</time><name>PT1683</name></trkpt>
<trkpt lat="54.587262" lon="-3.248533"><ele>734</ele><time>2024-06-01T11:25:29Z</time><name>PT1684</name></trkpt>
<trkpt lat="54.587244" lon="-3.248555"><ele>735</ele><time>2024-06-01T11:25:32Z</time><name>PT1685</name></trkpt>
<trkpt lat="54.587239" lon="-3.248583"><ele>736</ele><time>2024-06-01T11:25:35Z</time><name>PT1686</name></trkpt>
<trkpt lat="54.587231" lon="-3.248631"><ele>736</ele><time>2024-06-01T11:25:39Z</time><name>PT1687</name></trkpt>
<trkpt lat="54.587218" lon="-3.248666"><ele>736</ele><time>2024-06-01T11:25:43Z</time><name>PT1688</name></trkpt>
<trkpt lat="54.587211" lon="-3.248708"><ele>738</ele><time>2024-06-01T11:25:47Z</time><name>PT1689</name></trkpt>
<trkpt lat="54.587202" lon="-3.248743"><ele>739</ele><time>2024-06-01T11:25:50Z</time><name>PT1690</name></trkpt>
<trkpt lat="54.587195" lon="-3.248781"><ele>739</ele><time>2024-06-01T11:25:53Z</time><name>PT1691</name></trkpt>
<trkpt lat="54.587184" lon="-3.248831"><ele>740</ele><time>2024-06-01T11:25:57Z</time><name>PT1692</name></trkpt>
<trkpt lat="54.587168" lon="-3.248860"><ele>741</ele><time>2024-06-01T11:26:00Z</time><name>PT1693</name></trkpt>
<trkpt lat="54.587155" lon="-3.248906"><ele>741</ele><time>2024-06-01T11:26:04Z</time><name>PT1694</name></trkpt>
<trkpt lat="54.587144" lon="-3.248956"><ele>741</ele><time>2024-06-01T11:26:08Z</time><name>PT1695</name></trkpt>
<trkpt lat="54.587137" lon="-3.248992"><ele>742</ele><time>2024-06-01T11:26:11Z</time><name>PT1696</name></trkpt>
<trkpt lat="54.587130" lon="-3.249030"><ele>742</ele><time>2024-06-01T11:26:14Z</time><name>PT1697</name></trkpt>
<trkpt lat="54.587116" lon="-3.249066"><ele>742</ele><time>2024-06-01T11:26:17Z</time><name>PT1698</name></trkpt>
<trkpt lat="54.587106" lon="-3.249125"><ele>742</ele><time>2024-06-01T11:26:21Z</time><name>PT1699</name></trkpt>
<trkpt lat="54.587100" lon="-3.249138"><ele>742</ele><time>2024-06-01T11:26:25Z</time><name>PT1700</name></trkpt>
<trkpt lat="54.587110" lon="-3.249096"><ele>743</ele><time>2024-06-01T11:26:34Z</time><name>PT1701</name></trkpt>
<trkpt lat="54.587117" lon="-3.249073"><ele>743</ele><time>2024-06-01T11:26:38Z</time><name>PT1702</name></trkpt>
<trkpt lat="54.587126" lon="-3.249059"><ele>742</ele><time>2024-06-01T11:26:41Z</time><name>PT1703</name></trkpt>
<trkpt lat="54.587131" lon="-3.249049"><ele>743</ele><time>2024-06-01T11:26:44Z</time><name>PT1704</name></trkpt>
<trkpt lat="54.587132" lon="-3.249043"><ele>743</ele><time>2024-06-01T11:26:48Z</time><name>PT1705</name></trkpt>
<trkpt lat="54.587132" lon="-3.249044"><ele>742</ele><time>2024-06-01T11:26:51Z</time><name>PT1706</name></trkpt>
<trkpt lat="54.587132" lon="-3.249042"><ele>742</ele><time>2024-06-01T11:26:55Z</time><name>PT1707</name></trkpt>
<trkpt lat="54.587133" lon="-3.249033"><ele>742</ele><time>2024-06-01T11:27:07Z</time><name>PT1708</name></trkpt>
<trkpt lat="54.587140" lon="-3.249027"><ele>741</ele><time>2024-06-01T11:27:20Z</time><name>PT1709</name></trkpt>
<trkpt lat="54.587135" lon="-3.249044"><ele>741</ele><time>2024-06-01T11:27:24Z</time><name>PT1710</name></trkpt>
<trkpt lat="54.587135" lon="-3.249041"><ele>741</ele><time>2024-06-01T11:28:04Z</time><name>PT1711</name></trkpt>
<trkpt lat="54.587134" lon="-3.249040"><ele>740</ele><time>2024-06-01T11:28:08Z</time><name>PT1712</name></trkpt>
<trkpt lat="54.587133" lon="-3.249044"><ele>740</ele><time>2024-06-01T11:29:20Z</time><name>PT1713</name></trkpt>
<trkpt lat="54.587121" lon="-3.249083"><ele>741</ele><time>2024-06-01T11:30:26Z</time><name>PT1714</name></trkpt>
<trkpt lat="54.587106" lon="-3.249117"><ele>741</ele><time>2024-06-01T11:30:29Z</time><name>PT1715</name></trkpt>
<trkpt lat="54.587091" lon="-3.249155"><ele>741</ele><time>2024-06-01T11:30:33Z</time><name>PT1716</name></trkpt>
<trkpt lat="54.587074" lon="-3.249194"><ele>740</ele><time>2024-06-01T11:30:37Z</time><name>PT1717</name></trkpt>
<trkpt lat="54.587059" lon="-3.249233"><ele>739</ele><time>2024-06-01T11:30:40Z</time><name>PT1718</name></trkpt>
<trkpt lat="54.587036" lon="-3.249283"><ele>738</ele><time>2024-06-01T11:30:44Z</time><name>PT1719</name></trkpt>
<trkpt lat="54.587019" lon="-3.249316"><ele>737</ele><time>2024-06-01T11:30:47Z</time><name>PT1720</name></trkpt>
<trkpt lat="54.587002" lon="-3.249344"><ele>737</ele><time>2024-06-01T11:30:51Z</time><name>PT1721</name></trkpt>
<trkpt lat="54.586982" lon="-3.249384"><ele>735</ele><time>2024-06-01T11:30:55Z</time><name>PT1722</name></trkpt>
<trkpt lat="54.586956" lon="-3.249436"><ele>734</ele><time>2024-06-01T11:30:59Z</time><name>PT1723</name></trkpt>
<trkpt lat="54.586929" lon="-3.249476"><ele>734</ele><time>2024-06-01T11:31:03Z</time><name>PT1724</name></trkpt>
<trkpt lat="54.586915" lon="-3.249506"><ele>734</ele><time>2024-06-01T11:31:06Z</time><name>PT1725</name></trkpt>
<trkpt lat="54.586903" lon="-3.249544"><ele>734</ele><time>2024-06-01T11:31:09Z</time><name>PT1726</name></trkpt>
<trkpt lat="54.586885" lon="-3.249594"><ele>734</ele><time>2024-06-01T11:31:13Z</time><name>PT1727</name></trkpt>
<trkpt lat="54.586871" lon="-3.249647"><ele>734</ele><time>2024-06-01T11:31:16Z</time><name>PT1728</name></trkpt>
<trkpt lat="54.586860" lon="-3.249690"><ele>735</ele><time>2024-06-01T11:31:19Z</time><name>PT1729</name></trkpt>
<trkpt lat="54.586842" lon="-3.249736"><ele>733</ele><time>2024-06-01T11:31:23Z</time><name>PT1730</name></trkpt>
<trkpt lat="54.586821" lon="-3.249779"><ele>732</ele><time>2024-06-01T11:31:27Z</time><name>PT1731</name></trkpt>
<trkpt lat="54.586798" lon="-3.249840"><ele>731</ele><time>2024-06-01T11:31:31Z</time><name>PT1732</name></trkpt>
<trkpt lat="54.586767" lon="-3.249896"><ele>732</ele><time>2024-06-01T11:31:35Z</time><name>PT1733</name></trkpt>
<trkpt lat="54.586741" lon="-3.249953"><ele>732</ele><time>2024-06-01T11:31:39Z</time><name>PT1734</name></trkpt>
<trkpt lat="54.586724" lon="-3.249990"><ele>732</ele><time>2024-06-01T11:31:42Z</time><name>PT1735</name></trkpt>
<trkpt lat="54.586701" lon="-3.250040"><ele>732</ele><time>2024-06-01T11:31:46Z</time><name>PT1736</name></trkpt>
<trkpt lat="54.586694" lon="-3.250093"><ele>732</ele><time>2024-06-01T11:31:50Z</time><name>PT1737</name></trkpt>
<trkpt lat="54.586689" lon="-3.250128"><ele>731</ele><time>2024-06-01T11:31:53Z</time><name>PT1738</name></trkpt>
<trkpt lat="54.586688" lon="-3.250168"><ele>731</ele><time>2024-06-01T11:31:57Z</time><name>PT1739</name></trkpt>
<trkpt lat="54.586678" lon="-3.250190"><ele>731</ele><time>2024-06-01T11:32:01Z</time><name>PT1740</name></trkpt>
<trkpt lat="54.586682" lon="-3.250185"><ele>731</ele><time>2024-06-01T11:32:04Z</time><name>PT1741</name></trkpt>
<trkpt lat="54.586679" lon="-3.250185"><ele>730</ele><time>2024-06-01T11:32:19Z</time><name>PT1742</name></trkpt>
<trkpt lat="54.586679" lon="-3.250236"><ele>731</ele><time>2024-06-01T11:32:34Z</time><name>PT1743</name></trkpt>
<trkpt lat="54.586678" lon="-3.250279"><ele>731</ele><time>2024-06-01T11:32:37Z</time><name>PT1744</name></trkpt>
<trkpt lat="54.586674" lon="-3.250325"><ele>730</ele><time>2024-06-01T11:32:40Z</time><name>PT1745</name></trkpt>
<trkpt lat="54.586673" lon="-3.250372"><ele>730</ele><time>2024-06-01T11:32:43Z</time><name>PT1746</name></trkpt>
<trkpt lat="54.586671" lon="-3.250442"><ele>728</ele><time>2024-06-01T11:32:47Z</time><name>PT1747</name></trkpt>
<trkpt lat="54.586677" lon="-3.250494"><ele>728</ele><time>2024-06-01T11:32:50Z</time><name>PT1748</name></trkpt>
<trkpt lat="54.586685" lon="-3.250544"><ele>728</ele><time>2024-06-01T11:32:53Z</time><name>PT1749</name></trkpt>
<trkpt lat="54.586694" lon="-3.250599"><ele>727</ele><time>2024-06-01T11:32:57Z</time><name>PT1750</name></trkpt>
<trkpt lat="54.586693" lon="-3.250652"><ele>727</ele><time>2024-06-01T11:33:01Z</time><name>PT1751</name></trkpt>
<trkpt lat="54.586683" lon="-3.250713"><ele>726</ele><time>2024-06-01T11:33:05Z</time><name>PT1752</name></trkpt>
<trkpt lat="54.586664" lon="-3.250765"><ele>725</ele><time>2024-06-01T11:33:09Z</time><name>PT1753</name></trkpt>
<trkpt lat="54.586656" lon="-3.250825"><ele>724</ele><time>2024-06-01T11:33:13Z</time><name>PT1754</name></trkpt>
<trkpt lat="54.586650" lon="-3.250875"><ele>724</ele><time>2024-06-01T11:33:17Z</time><name>PT1755</name></trkpt>
<trkpt lat="54.586652" lon="-3.250915"><ele>723</ele><time>2024-06-01T11:33:20Z</time><name>PT1756</name></trkpt>
<trkpt lat="54.586658" lon="-3.250954"><ele>722</ele><time>2024-06-01T11:33:23Z</time><name>PT1757</name></trkpt>
<trkpt lat="54.586656" lon="-3.250992"><ele>722</ele><time>2024-06-01T11:33:26Z</time><name>PT1758</name></trkpt>
<trkpt lat="54.586653" lon="-3.251036"><ele>721</ele><time>2024-06-01T11:33:30Z</time><name>PT1759</name></trkpt>
<trkpt lat="54.586661" lon="-3.251082"><ele>721</ele><time>2024-06-01T11:33:34Z</time><name>PT1760</name></trkpt>
<trkpt lat="54.586658" lon="-3.251130"><ele>720</ele><time>2024-06-01T11:33:38Z</time><name>PT1761</name></trkpt>
<trkpt lat="54.586642" lon="-3.251165"><ele>719</ele><time>2024-06-01T11:33:41Z</time><name>PT1762</name></trkpt>
<trkpt lat="54.586633" lon="-3.251192"><ele>718</ele><time>2024-06-01T11:33:45Z</time><name>PT1763</name></trkpt>
<trkpt lat="54.586625" lon="-3.251235"><ele>717</ele><time>2024-06-01T11:33:49Z</time><name>PT1764</name></trkpt>
<trkpt lat="54.586615" lon="-3.251270"><ele>717</ele><time>2024-06-01T11:33:52Z</time><name>PT1765</name></trkpt>
<trkpt lat="54.586596" lon="-3.251298"><ele>716</ele><time>2024-06-01T11:33:55Z</time><name>PT1766</name></trkpt>
<trkpt lat="54.586588" lon="-3.251327"><ele>716</ele><time>2024-06-01T11:33:58Z</time><name>PT1767</name></trkpt>
<trkpt lat="54.586579" lon="-3.251371"><ele>715</ele><time>2024-06-01T11:34:02Z</time><name>PT1768</name></trkpt>
<trkpt lat="54.586573" lon="-3.251405"><ele>715</ele><time>2024-06-01T11:34:05Z</time><name>PT1769</name></trkpt>
<trkpt lat="54.586595" lon="-3.251438"><ele>713</ele><time>2024-06-01T11:34:09Z</time><name>PT1770</name></trkpt>
<trkpt lat="54.586608" lon="-3.251486"><ele>712</ele><time>2024-06-01T11:34:13Z</time><name>PT1771</name></trkpt>
<trkpt lat="54.586614" lon="-3.251526"><ele>711</ele><time>2024-06-01T11:34:16Z</time><name>PT1772</name></trkpt>
<trkpt lat="54.586621" lon="-3.251581"><ele>710</ele><time>2024-06-01T11:34:20Z</time><name>PT1773</name></trkpt>
<trkpt lat="54.586631" lon="-3.251616"><ele>709</ele><time>2024-06-01T11:34:23Z</time><name>PT1774</name></trkpt>
<trkpt lat="54.586645" lon="-3.251657"><ele>709</ele><time>2024-06-01T11:34:26Z</time><name>PT1775</name></trkpt>
<trkpt lat="54.586654" lon="-3.251694"><ele>708</ele><time>2024-06-01T11:34:29Z</time><name>PT1776</name></trkpt>
<trkpt lat="54.586665" lon="-3.251745"><ele>707</ele><time>2024-06-01T11:34:33Z</time><name>PT1777</name></trkpt>
<trkpt lat="54.586672" lon="-3.251783"><ele>706</ele><time>2024-06-01T11:34:36Z</time><name>PT1778</name></trkpt>
<trkpt lat="54.586677" lon="-3.251837"><ele>705</ele><time>2024-06-01T11:34:40Z</time><name>PT1779</name></trkpt>
<trkpt lat="54.586686" lon="-3.251898"><ele>705</ele><time>2024-06-01T11:34:44Z</time><name>PT1780</name></trkpt>
<trkpt lat="54.586692" lon="-3.251958"><ele>704</ele><time>2024-06-01T11:34:48Z</time><name>PT1781</name></trkpt>
<trkpt lat="54.586695" lon="-3.252009"><ele>703</ele><time>2024-06-01T11:34:52Z</time><name>PT1782</name></trkpt>
<trkpt lat="54.586696" lon="-3.252063"><ele>702</ele><time>2024-06-01T11:34:55Z</time><name>PT1783</name></trkpt>
<trkpt lat="54.586707" lon="-3.252138"><ele>701</ele><time>2024-06-01T11:34:59Z</time><name>PT1784</name></trkpt>
<trkpt lat="54.586718" lon="-3.252180"><ele>700</ele><time>2024-06-01T11:35:02Z</time><name>PT1785</name></trkpt>
<trkpt lat="54.586720" lon="-3.252216"><ele>699</ele><time>2024-06-01T11:35:05Z</time><name>PT1786</name></trkpt>
<trkpt lat="54.586718" lon="-3.252260"><ele>699</ele><time>2024-06-01T11:35:08Z</time><name>PT1787</name></trkpt>
<trkpt lat="54.586706" lon="-3.252313"><ele>697</ele><time>2024-06-01T11:35:12Z</time><name>PT1788</name></trkpt>
<trkpt lat="54.586680" lon="-3.252334"><ele>697</ele><time>2024-06-01T11:35:15Z</time><name>PT1789</name></trkpt>
<trkpt lat="54.586675" lon="-3.252367"><ele>696</ele><time>2024-06-01T11:35:18Z</time><name>PT1790</name></trkpt>
<trkpt lat="54.586696" lon="-3.252429"><ele>695</ele><time>2024-06-01T11:35:22Z</time><name>PT1791</name></trkpt>
<trkpt lat="54.586718" lon="-3.252458"><ele>695</ele><time>2024-06-01T11:35:25Z</time><name>PT1792</name></trkpt>
<trkpt lat="54.586714" lon="-3.252499"><ele>695</ele><time>2024-06-01T11:35:29Z</time><name>PT1793</name></trkpt>
<trkpt lat="54.586706" lon="-3.252541"><ele>694</ele><time>2024-06-01T11:35:32Z</time><name>PT1794</name></trkpt>
<trkpt lat="54.586691" lon="-3.252592"><ele>693</ele><time>2024-06-01T11:35:36Z</time><name>PT1795</name></trkpt>
<trkpt lat="54.586685" lon="-3.252634"><ele>693</ele><time>2024-06-01T11:35:39Z</time><name>PT1796</name></trkpt>
<trkpt lat="54.586683" lon="-3.252704"><ele>691</ele><time>2024-06-01T11:35:43Z</time><name>PT1797</name></trkpt>
<trkpt lat="54.586676" lon="-3.252770"><ele>690</ele><time>2024-06-01T11:35:47Z</time><name>PT1798</name></trkpt>
<trkpt lat="54.586670" lon="-3.252827"><ele>689</ele><time>2024-06-01T11:35:50Z</time><name>PT1799</name></trkpt>
<trkpt lat="54.586674" lon="-3.252890"><ele>688</ele><time>2024-06-01T11:35:53Z</time><name>PT1800</name></trkpt>
<trkpt lat="54.586682" lon="-3.252963"><ele>687</ele><time>2024-06-01T11:35:57Z</time><name>PT1801</name></trkpt>
<trkpt lat="54.586682" lon="-3.253032"><ele>686</ele><time>2024-06-01T11:36:01Z</time><name>PT1802</name></trkpt>
<trkpt lat="54.586680" lon="-3.253108"><ele>685</ele><time>2024-06-01T11:36:05Z</time><name>PT1803</name></trkpt>
<trkpt lat="54.586674" lon="-3.253162"><ele>684</ele><time>2024-06-01T11:36:08Z</time><name>PT1804</name></trkpt>
<trkpt lat="54.586671" lon="-3.253218"><ele>684</ele><time>2024-06-01T11:36:11Z</time><name>PT1805</name></trkpt>
<trkpt lat="54.586668" lon="-3.253287"><ele>683</ele><time>2024-06-01T11:36:15Z</time><name>PT1806</name></trkpt>
<trkpt lat="54.586674" lon="-3.253350"><ele>682</ele><time>2024-06-01T11:36:18Z</time><name>PT1807</name></trkpt>
<trkpt lat="54.586670" lon="-3.253442"><ele>680</ele><time>2024-06-01T11:36:22Z</time><name>PT1808</name></trkpt>
<trkpt lat="54.586665" lon="-3.253529"><ele>679</ele><time>2024-06-01T11:36:26Z</time><name>PT1809</name></trkpt>
<trkpt lat="54.586661" lon="-3.253596"><ele>679</ele><time>2024-06-01T11:36:29Z</time><name>PT1810</name></trkpt>
<trkpt lat="54.586664" lon="-3.253668"><ele>679</ele><time>2024-06-01T11:36:32Z</time><name>PT1811</name></trkpt>
<trkpt lat="54.586665" lon="-3.253735"><ele>678</ele><time>2024-06-01T11:36:35Z</time><name>PT1812</name></trkpt>
<trkpt lat="54.586656" lon="-3.253829"><ele>678</ele><time>2024-06-01T11:36:39Z</time><name>PT1813</name></trkpt>
<trkpt lat="54.586648" lon="-3.253889"><ele>677</ele><time>2024-06-01T11:36:42Z</time><name>PT1814</name></trkpt>
<trkpt lat="54.586637" lon="-3.253954"><ele>677</ele><time>2024-06-01T11:36:45Z</time><name>PT1815</name></trkpt>
<trkpt lat="54.586615" lon="-3.254035"><ele>677</ele><time>2024-06-01T11:36:49Z</time><name>PT1816</name></trkpt>
<trkpt lat="54.586604" lon="-3.254094"><ele>677</ele><time>2024-06-01T11:36:52Z</time><name>PT1817</name></trkpt>
<trkpt lat="54.586590" lon="-3.254181"><ele>677</ele><time>2024-06-01T11:36:56Z</time><name>PT1818</name></trkpt>
<trkpt lat="54.586579" lon="-3.254263"><ele>677</ele><time>2024-06-01T11:37:00Z</time><name>PT1819</name></trkpt>
<trkpt lat="54.586557" lon="-3.254335"><ele>677</ele><time>2024-06-01T11:37:04Z</time><name>PT1820</name></trkpt>
<trkpt lat="54.586538" lon="-3.254412"><ele>677</ele><time>2024-06-01T11:37:08Z</time><name>PT1821</name></trkpt>
<trkpt lat="54.586520" lon="-3.254471"><ele>677</ele><time>2024-06-01T11:37:11Z</time><name>PT1822</name></trkpt>
<trkpt lat="54.586499" lon="-3.254531"><ele>677</ele><time>2024-06-01T11:37:14Z</time><name>PT1823</name></trkpt>
<trkpt lat="54.586473" lon="-3.254592"><ele>677</ele><time>2024-06-01T11:37:18Z</time><name>PT1824</name></trkpt>
<trkpt lat="54.586455" lon="-3.254639"><ele>677</ele><time>2024-06-01T11:37:21Z</time><name>PT1825</name></trkpt>
<trkpt lat="54.586425" lon="-3.254702"><ele>678</ele><time>2024-06-01T11:37:25Z</time><name>PT1826</name></trkpt>
<trkpt lat="54.586405" lon="-3.254762"><ele>679</ele><time>2024-06-01T11:37:29Z</time><name>PT1827</name></trkpt>
<trkpt lat="54.586396" lon="-3.254799"><ele>680</ele><time>2024-06-01T11:37:32Z</time><name>PT1828</name></trkpt>
<trkpt lat="54.586392" lon="-3.254853"><ele>681</ele><time>2024-06-01T11:37:36Z</time><name>PT1829</name></trkpt>
<trkpt lat="54.586395" lon="-3.254911"><ele>682</ele><time>2024-06-01T11:37:40Z</time><name>PT1830</name></trkpt>
<trkpt lat="54.586404" lon="-3.254980"><ele>683</ele><time>2024-06-01T11:37:44Z</time><name>PT1831</name></trkpt>
<trkpt lat="54.586413" lon="-3.255038"><ele>683</ele><time>2024-06-01T11:37:48Z</time><name>PT1832</name></trkpt>
<trkpt lat="54.586417" lon="-3.255096"><ele>684</ele><time>2024-06-01T11:37:52Z</time><name>PT1833</name></trkpt>
<trkpt lat="54.586415" lon="-3.255130"><ele>684</ele><time>2024-06-01T11:37:55Z</time><name>PT1834</name></trkpt>
<trkpt lat="54.586411" lon="-3.255170"><ele>684</ele><time>2024-06-01T11:37:58Z</time><name>PT1835</name></trkpt>
<trkpt lat="54.586410" lon="-3.255201"><ele>685</ele><time>2024-06-01T11:38:01Z</time><name>PT1836</name></trkpt>
<trkpt lat="54.586412" lon="-3.255238"><ele>685</ele><time>2024-06-01T11:38:04Z</time><name>PT1837</name></trkpt>
<trkpt lat="54.586416" lon="-3.255288"><ele>686</ele><time>2024-06-01T11:38:08Z</time><name>PT1838</name></trkpt>
<trkpt lat="54.586413" lon="-3.255328"><ele>687</ele><time>2024-06-01T11:38:12Z</time><name>PT1839</name></trkpt>
<trkpt lat="54.586408" lon="-3.255357"><ele>687</ele><time>2024-06-01T11:38:15Z</time><name>PT1840</name></trkpt>
<trkpt lat="54.586408" lon="-3.255395"><ele>688</ele><time>2024-06-01T11:38:19Z</time><name>PT1841</name></trkpt>
<trkpt lat="54.586414" lon="-3.255422"><ele>688</ele><time>2024-06-01T11:38:22Z</time><name>PT1842</name></trkpt>
<trkpt lat="54.586414" lon="-3.255454"><ele>689</ele><time>2024-06-01T11:38:25Z</time><name>PT1843</name></trkpt>
<trkpt lat="54.586413" lon="-3.255484"><ele>689</ele><time>2024-06-01T11:38:28Z</time><name>PT1844</name></trkpt>
<trkpt lat="54.586412" lon="-3.255521"><ele>690</ele><time>2024-06-01T11:38:32Z</time><name>PT1845</name></trkpt>
<trkpt lat="54.586408" lon="-3.255569"><ele>691</ele><time>2024-06-01T11:38:36Z</time><name>PT1846</name></trkpt>
<trkpt lat="54.586396" lon="-3.255591"><ele>691</ele><time>2024-06-01T11:38:39Z</time><name>PT1847</name></trkpt>
<trkpt lat="54.586389" lon="-3.255617"><ele>692</ele><time>2024-06-01T11:38:42Z</time><name>PT1848</name></trkpt>
<trkpt lat="54.586382" lon="-3.255661"><ele>692</ele><time>2024-06-01T11:38:46Z</time><name>PT1849</name></trkpt>
<trkpt lat="54.586380" lon="-3.255688"><ele>693</ele><time>2024-06-01T11:38:49Z</time><name>PT1850</name></trkpt>
<trkpt lat="54.586380" lon="-3.255714"><ele>693</ele><time>2024-06-01T11:38:52Z</time><name>PT1851</name></trkpt>
<trkpt lat="54.586373" lon="-3.255740"><ele>694</ele><time>2024-06-01T11:38:55Z</time><name>PT1852</name></trkpt>
<trkpt lat="54.586375" lon="-3.255783"><ele>695</ele><time>2024-06-01T11:38:59Z</time><name>PT1853</name></trkpt>
<trkpt lat="54.586377" lon="-3.255806"><ele>695</ele><time>2024-06-01T11:39:02Z</time><name>PT1854</name></trkpt>
<trkpt lat="54.586377" lon="-3.255845"><ele>696</ele><time>2024-06-01T11:39:06Z</time><name>PT1855</name></trkpt>
<trkpt lat="54.586376" lon="-3.255880"><ele>697</ele><time>2024-06-01T11:39:09Z</time><name>PT1856</name></trkpt>
<trkpt lat="54.586374" lon="-3.255925"><ele>698</ele><time>2024-06-01T11:39:13Z</time><name>PT1857</name></trkpt>
<trkpt lat="54.586370" lon="-3.255972"><ele>699</ele><time>2024-06-01T11:39:17Z</time><name>PT1858</name></trkpt>
<trkpt lat="54.586373" lon="-3.256003"><ele>699</ele><time>2024-06-01T11:39:20Z</time><name>PT1859</name></trkpt>
<trkpt lat="54.586364" lon="-3.256049"><ele>698</ele><time>2024-06-01T11:39:24Z</time><name>PT1860</name></trkpt>
<trkpt lat="54.586363" lon="-3.256083"><ele>698</ele><time>2024-06-01T11:39:27Z</time><name>PT1861</name></trkpt>
<trkpt lat="54.586366" lon="-3.256136"><ele>699</ele><time>2024-06-01T11:39:31Z</time><name>PT1862</name></trkpt>
<trkpt lat="54.586361" lon="-3.256183"><ele>700</ele><time>2024-06-01T11:39:35Z</time><name>PT1863</name></trkpt>
<trkpt lat="54.586352" lon="-3.256212"><ele>701</ele><time>2024-06-01T11:39:38Z</time><name>PT1864</name></trkpt>
<trkpt lat="54.586345" lon="-3.256233"><ele>701</ele><time>2024-06-01T11:39:41Z</time><name>PT1865</name></trkpt>
<trkpt lat="54.586340" lon="-3.256261"><ele>702</ele><time>2024-06-01T11:39:44Z</time><name>PT1866</name></trkpt>
<trkpt lat="54.586329" lon="-3.256296"><ele>703</ele><time>2024-06-01T11:39:47Z</time><name>PT1867</name></trkpt>
<trkpt lat="54.586338" lon="-3.256327"><ele>703</ele><time>2024-06-01T11:39:51Z</time><name>PT1868</name></trkpt>
<trkpt lat="54.586345" lon="-3.256364"><ele>704</ele><time>2024-06-01T11:39:54Z</time><name>PT1869</name></trkpt>
<trkpt lat="54.586351" lon="-3.256412"><ele>705</ele><time>2024-06-01T11:39:58Z</time><name>PT1870</name></trkpt>
<trkpt lat="54.586344" lon="-3.256454"><ele>706</ele><time>2024-06-01T11:40:02Z</time><name>PT1871</name></trkpt>
<trkpt lat="54.586344" lon="-3.256491"><ele>707</ele><time>2024-06-01T11:40:05Z</time><name>PT1872</name></trkpt>
<trkpt lat="54.586360" lon="-3.256539"><ele>708</ele><time>2024-06-01T11:40:09Z</time><name>PT1873</name></trkpt>
<trkpt lat="54.586371" lon="-3.256593"><ele>708</ele><time>2024-06-01T11:40:13Z</time><name>PT1874</name></trkpt>
<trkpt lat="54.586386" lon="-3.256645"><ele>709</ele><time>2024-06-01T11:40:17Z</time><name>PT1875</name></trkpt>
<trkpt lat="54.586403" lon="-3.256693"><ele>710</ele><time>2024-06-01T11:40:21Z</time><name>PT1876</name></trkpt>
<trkpt lat="54.586421" lon="-3.256728"><ele>711</ele><time>2024-06-01T11:40:24Z</time><name>PT1877</name></trkpt>
<trkpt lat="54.586439" lon="-3.256780"><ele>712</ele><time>2024-06-01T11:40:28Z</time><name>PT1878</name></trkpt>
<trkpt lat="54.586445" lon="-3.256824"><ele>712</ele><time>2024-06-01T11:40:31Z</time><name>PT1879</name></trkpt>
<trkpt lat="54.586452" lon="-3.256867"><ele>713</ele><time>2024-06-01T11:40:34Z</time><name>PT1880</name></trkpt>
<trkpt lat="54.586464" lon="-3.256924"><ele>713</ele><time>2024-06-01T11:40:38Z</time><name>PT1881</name></trkpt>
<trkpt lat="54.586478" lon="-3.256963"><ele>714</ele><time>2024-06-01T11:40:41Z</time><name>PT1882</name></trkpt>
<trkpt lat="54.586500" lon="-3.257025"><ele>714</ele><time>2024-06-01T11:40:45Z</time><name>PT1883</name></trkpt>
<trkpt lat="54.586513" lon="-3.257086"><ele>715</ele><time>2024-06-01T11:40:49Z</time><name>PT1884</name></trkpt>
<trkpt lat="54.586526" lon="-3.257139"><ele>715</ele><time>2024-06-01T11:40:53Z</time><name>PT1885</name></trkpt>
<trkpt lat="54.586541" lon="-3.257192"><ele>716</ele><time>2024-06-01T11:40:57Z</time><name>PT1886</name></trkpt>
<trkpt lat="54.586555" lon="-3.257242"><ele>717</ele><time>2024-06-01T11:41:01Z</time><name>PT1887</name></trkpt>
<trkpt lat="54.586563" lon="-3.257278"><ele>718</ele><time>2024-06-01T11:41:04Z</time><name>PT1888</name></trkpt>
<trkpt lat="54.586569" lon="-3.257326"><ele>719</ele><time>2024-06-01T11:41:08Z</time><name>PT1889</name></trkpt>
<trkpt lat="54.586572" lon="-3.257368"><ele>719</ele><time>2024-06-01T11:41:11Z</time><name>PT1890</name></trkpt>
<trkpt lat="54.586583" lon="-3.257418"><ele>720</ele><time>2024-06-01T11:41:15Z</time><name>PT1891</name></trkpt>
<trkpt lat="54.586597" lon="-3.257473"><ele>721</ele><time>2024-06-01T11:41:19Z</time><name>PT1892</name></trkpt>
<trkpt lat="54.586606" lon="-3.257512"><ele>721</ele><time>2024-06-01T11:41:22Z</time><name>PT1893</name></trkpt>
<trkpt lat="54.586611" lon="-3.257556"><ele>721</ele><time>2024-06-01T11:41:25Z</time><name>PT1894</name></trkpt>
<trkpt lat="54.586622" lon="-3.257602"><ele>722</ele><time>2024-06-01T11:41:28Z</time><name>PT1895</name></trkpt>
<trkpt lat="54.586634" lon="-3.257642"><ele>723</ele><time>2024-06-01T11:41:31Z</time><name>PT1896</name></trkpt>
<trkpt lat="54.586656" lon="-3.257695"><ele>724</ele><time>2024-06-01T11:41:35Z</time><name>PT1897</name></trkpt>
<trkpt lat="54.586671" lon="-3.257730"><ele>724</ele><time>2024-06-01T11:41:38Z</time><name>PT1898</name></trkpt>
<trkpt lat="54.586692" lon="-3.257787"><ele>725</ele><time>2024-06-01T11:41:42Z</time><name>PT1899</name></trkpt>
<trkpt lat="54.586715" lon="-3.257847"><ele>725</ele><time>2024-06-01T11:41:46Z</time><name>PT1900</name></trkpt>
<trkpt lat="54.586725" lon="-3.257889"><ele>726</ele><time>2024-06-01T11:41:49Z</time><name>PT1901</name></trkpt>
<trkpt lat="54.586731" lon="-3.257926"><ele>726</ele><time>2024-06-01T11:41:52Z</time><name>PT1902</name></trkpt>
<trkpt lat="54.586742" lon="-3.257983"><ele>727</ele><time>2024-06-01T11:41:56Z</time><name>PT1903</name></trkpt>
<trkpt lat="54.586751" lon="-3.258040"><ele>728</ele><time>2024-06-01T11:42:00Z</time><name>PT1904</name></trkpt>
<trkpt lat="54.586760" lon="-3.258077"><ele>728</ele><time>2024-06-01T11:42:02Z</time><name>PT1905</name></trkpt>
<trkpt lat="54.586779" lon="-3.258136"><ele>729</ele><time>2024-06-01T11:42:07Z</time><name>PT1906</name></trkpt>
<trkpt lat="54.586789" lon="-3.258176"><ele>729</ele><time>2024-06-01T11:42:10Z</time><name>PT1907</name></trkpt>
<trkpt lat="54.586803" lon="-3.258240"><ele>729</ele><time>2024-06-01T11:42:14Z</time><name>PT1908</name></trkpt>
<trkpt lat="54.586818" lon="-3.258289"><ele>730</ele><time>2024-06-01T11:42:17Z</time><name>PT1909</name></trkpt>
<trkpt lat="54.586842" lon="-3.258344"><ele>730</ele><time>2024-06-01T11:42:21Z</time><name>PT1910</name></trkpt>
<trkpt lat="54.586850" lon="-3.258391"><ele>731</ele><time>2024-06-01T11:42:24Z</time><name>PT1911</name></trkpt>
<trkpt lat="54.586855" lon="-3.258431"><ele>731</ele><time>2024-06-01T11:42:27Z</time><name>PT1912</name></trkpt>
<trkpt lat="54.586869" lon="-3.258487"><ele>732</ele><time>2024-06-01T11:42:31Z</time><name>PT1913</name></trkpt>
<trkpt lat="54.586882" lon="-3.258521"><ele>733</ele><time>2024-06-01T11:42:34Z</time><name>PT1914</name></trkpt>
<trkpt lat="54.586905" lon="-3.258582"><ele>733</ele><time>2024-06-01T11:42:38Z</time><name>PT1915</name></trkpt>
<trkpt lat="54.586925" lon="-3.258624"><ele>733</ele><time>2024-06-01T11:42:41Z</time><name>PT1916</name></trkpt>
<trkpt lat="54.586952" lon="-3.258689"><ele>734</ele><time>2024-06-01T11:42:45Z</time><name>PT1917</name></trkpt>
<trkpt lat="54.586980" lon="-3.258751"><ele>733</ele><time>2024-06-01T11:42:49Z</time><name>PT1918</name></trkpt>
<trkpt lat="54.587004" lon="-3.258801"><ele>733</ele><time>2024-06-01T11:42:52Z</time><name>PT1919</name></trkpt>
<trkpt lat="54.587029" lon="-3.258863"><ele>734</ele><time>2024-06-01T11:42:56Z</time><name>PT1920</name></trkpt>
<trkpt lat="54.587062" lon="-3.258923"><ele>734</ele><time>2024-06-01T11:42:59Z</time><name>PT1921</name></trkpt>
<trkpt lat="54.587083" lon="-3.258972"><ele>734</ele><time>2024-06-01T11:43:03Z</time><name>PT1922</name></trkpt>
<trkpt lat="54.587109" lon="-3.259038"><ele>734</ele><time>2024-06-01T11:43:07Z</time><name>PT1923</name></trkpt>
<trkpt lat="54.587130" lon="-3.259086"><ele>735</ele><time>2024-06-01T11:43:10Z</time><name>PT1924</name></trkpt>
<trkpt lat="54.587155" lon="-3.259153"><ele>735</ele><time>2024-06-01T11:43:14Z</time><name>PT1925</name></trkpt>
<trkpt lat="54.587183" lon="-3.259212"><ele>736</ele><time>2024-06-01T11:43:18Z</time><name>PT1926</name></trkpt>
<trkpt lat="54.587209" lon="-3.259278"><ele>736</ele><time>2024-06-01T11:43:22Z</time><name>PT1927</name></trkpt>
<trkpt lat="54.587225" lon="-3.259325"><ele>736</ele><time>2024-06-01T11:43:25Z</time><name>PT1928</name></trkpt>
<trkpt lat="54.587244" lon="-3.259366"><ele>738</ele><time>2024-06-01T11:43:28Z</time><name>PT1929</name></trkpt>
<trkpt lat="54.587263" lon="-3.259405"><ele>738</ele><time>2024-06-01T11:43:31Z</time><name>PT1930</name></trkpt>
<trkpt lat="54.587290" lon="-3.259447"><ele>740</ele><time>2024-06-01T11:43:35Z</time><name>PT1931</name></trkpt>
<trkpt lat="54.587315" lon="-3.259470"><ele>740</ele><time>2024-06-01T11:43:38Z</time><name>PT1932</name></trkpt>
<trkpt lat="54.587327" lon="-3.259482"><ele>740</ele><time>2024-06-01T11:43:41Z</time><name>PT1933</name></trkpt>
<trkpt lat="54.587325" lon="-3.259476"><ele>740</ele><time>2024-06-01T11:43:44Z</time><name>PT1934</name></trkpt>
<trkpt lat="54.587352" lon="-3.259490"><ele>740</ele><time>2024-06-01T11:44:03Z</time><name>PT1935</name></trkpt>
<trkpt lat="54.587387" lon="-3.259512"><ele>739</ele><time>2024-06-01T11:44:06Z</time><name>PT1936</name></trkpt>
<trkpt lat="54.587423" lon="-3.259538"><ele>740</ele><time>2024-06-01T11:44:10Z</time><name>PT1937</name></trkpt>
<trkpt lat="54.587445" lon="-3.259548"><ele>740</ele><time>2024-06-01T11:44:13Z</time><name>PT1938</name></trkpt>
<trkpt lat="54.587466" lon="-3.259586"><ele>740</ele><time>2024-06-01T11:44:17Z</time><name>PT1939</name></trkpt>
<trkpt lat="54.587480" lon="-3.259626"><ele>741</ele><time>2024-06-01T11:44:20Z</time><name>PT1940</name></trkpt>
<trkpt lat="54.587492" lon="-3.259673"><ele>742</ele><time>2024-06-01T11:44:24Z</time><name>PT1941</name></trkpt>
<trkpt lat="54.587512" lon="-3.259720"><ele>742</ele><time>2024-06-01T11:44:28Z</time><name>PT1942</name></trkpt>
<trkpt lat="54.587529" lon="-3.259745"><ele>743</ele><time>2024-06-01T11:44:31Z</time><name>PT1943</name></trkpt>
<trkpt lat="54.587546" lon="-3.259772"><ele>743</ele><time>2024-06-01T11:44:34Z</time><name>PT1944</name></trkpt>
<trkpt lat="54.587568" lon="-3.259808"><ele>743</ele><time>2024-06-01T11:44:38Z</time><name>PT1945</name></trkpt>
<trkpt lat="54.587580" lon="-3.259855"><ele>745</ele><time>2024-06-01T11:44:41Z</time><name>PT1946</name></trkpt>
<trkpt lat="54.587575" lon="-3.259888"><ele>746</ele><time>2024-06-01T11:44:45Z</time><name>PT1947</name></trkpt>
<trkpt lat="54.587558" lon="-3.259923"><ele>746</ele><time>2024-06-01T11:44:49Z</time><name>PT1948</name></trkpt>
<trkpt lat="54.587551" lon="-3.259958"><ele>747</ele><time>2024-06-01T11:44:52Z</time><name>PT1949</name></trkpt>
<trkpt lat="54.587541" lon="-3.260006"><ele>747</ele><time>2024-06-01T11:44:56Z</time><name>PT1950</name></trkpt>
<trkpt lat="54.587535" lon="-3.260037"><ele>748</ele><time>2024-06-01T11:44:59Z</time><name>PT1951</name></trkpt>
<trkpt lat="54.587524" lon="-3.260076"><ele>749</ele><time>2024-06-01T11:45:03Z</time><name>PT1952</name></trkpt>
<trkpt lat="54.587523" lon="-3.260103"><ele>750</ele><time>2024-06-01T11:45:06Z</time><name>PT1953</name></trkpt>
<trkpt lat="54.587525" lon="-3.260142"><ele>750</ele><time>2024-06-01T11:45:10Z</time><name>PT1954</name></trkpt>
<trkpt lat="54.587525" lon="-3.260179"><ele>751</ele><time>2024-06-01T11:45:13Z</time><name>PT1955</name></trkpt>
<trkpt lat="54.587527" lon="-3.260214"><ele>752</ele><time>2024-06-01T11:45:17Z</time><name>PT1956</name></trkpt>
<trkpt lat="54.587536" lon="-3.260253"><ele>752</ele><time>2024-06-01T11:45:21Z</time><name>PT1957</name></trkpt>
<trkpt lat="54.587534" lon="-3.260286"><ele>753</ele><time>2024-06-01T11:45:25Z</time><name>PT1958</name></trkpt>
<trkpt lat="54.587535" lon="-3.260323"><ele>754</ele><time>2024-06-01T11:45:29Z</time><name>PT1959</name></trkpt>
<trkpt lat="54.587540" lon="-3.260368"><ele>755</ele><time>2024-06-01T11:45:32Z</time><name>PT1960</name></trkpt>
<trkpt lat="54.587545" lon="-3.260393"><ele>755</ele><time>2024-06-01T11:45:36Z</time><name>PT1961</name></trkpt>
<trkpt lat="54.587550" lon="-3.260441"><ele>756</ele><time>2024-06-01T11:45:40Z</time><name>PT1962</name></trkpt>
<trkpt lat="54.587559" lon="-3.260484"><ele>757</ele><time>2024-06-01T11:45:43Z</time><name>PT1963</name></trkpt>
<trkpt lat="54.587563" lon="-3.260529"><ele>757</ele><time>2024-06-01T11:45:46Z</time><name>PT1964</name></trkpt>
<trkpt lat="54.587569" lon="-3.260576"><ele>758</ele><time>2024-06-01T11:45:49Z</time><name>PT1965</name></trkpt>
<trkpt lat="54.587583" lon="-3.260627"><ele>759</ele><time>2024-06-01T11:45:53Z</time><name>PT1966</name></trkpt>
<trkpt lat="54.587600" lon="-3.260679"><ele>759</ele><time>2024-06-01T11:45:56Z</time><name>PT1967</name></trkpt>
<trkpt lat="54.587606" lon="-3.260725"><ele>760</ele><time>2024-06-01T11:46:00Z</time><name>PT1968</name></trkpt>
<trkpt lat="54.587616" lon="-3.260776"><ele>760</ele><time>2024-06-01T11:46:03Z</time><name>PT1969</name></trkpt>
<trkpt lat="54.587631" lon="-3.260852"><ele>761</ele><time>2024-06-01T11:46:07Z</time><name>PT1970</name></trkpt>
<trkpt lat="54.587641" lon="-3.260906"><ele>761</ele><time>2024-06-01T11:46:10Z</time><name>PT1971</name></trkpt>
<trkpt lat="54.587650" lon="-3.260983"><ele>761</ele><time>2024-06-01T11:46:14Z</time><name>PT1972</name></trkpt>
<trkpt lat="54.587666" lon="-3.261061"><ele>761</ele><time>2024-06-01T11:46:17Z</time><name>PT1973</name></trkpt>
<trkpt lat="54.587681" lon="-3.261109"><ele>761</ele><time>2024-06-01T11:46:21Z</time><name>PT1974</name></trkpt>
<trkpt lat="54.587702" lon="-3.261194"><ele>761</ele><time>2024-06-01T11:46:25Z</time><name>PT1975</name></trkpt>
<trkpt lat="54.587723" lon="-3.261234"><ele>761</ele><time>2024-06-01T11:46:28Z</time><name>PT1976</name></trkpt>
<trkpt lat="54.587745" lon="-3.261270"><ele>762</ele><time>2024-06-01T11:46:31Z</time><name>PT1977</name></trkpt>
<trkpt lat="54.587769" lon="-3.261309"><ele>762</ele><time>2024-06-01T11:46:35Z</time><name>PT1978</name></trkpt>
<trkpt lat="54.587793" lon="-3.261346"><ele>762</ele><time>2024-06-01T11:46:39Z</time><name>PT1979</name></trkpt>
<trkpt lat="54.587812" lon="-3.261374"><ele>763</ele><time>2024-06-01T11:46:42Z</time><name>PT1980</name></trkpt>
<trkpt lat="54.587837" lon="-3.261410"><ele>763</ele><time>2024-06-01T11:46:46Z</time><name>PT1981</name></trkpt>
<trkpt lat="54.587858" lon="-3.261442"><ele>763</ele><time>2024-06-01T11:46:49Z</time><name>PT1982</name></trkpt>
<trkpt lat="54.587884" lon="-3.261468"><ele>764</ele><time>2024-06-01T11:46:53Z</time><name>PT1983</name></trkpt>
<trkpt lat="54.587912" lon="-3.261506"><ele>765</ele><time>2024-06-01T11:46:57Z</time><name>PT1984</name></trkpt>
<trkpt lat="54.587929" lon="-3.261542"><ele>766</ele><time>2024-06-01T11:47:00Z</time><name>PT1985</name></trkpt>
<trkpt lat="54.587946" lon="-3.261565"><ele>766</ele><time>2024-06-01T11:47:03Z</time><name>PT1986</name></trkpt>
<trkpt lat="54.587967" lon="-3.261590"><ele>767</ele><time>2024-06-01T11:47:07Z</time><name>PT1987</name></trkpt>
<trkpt lat="54.587979" lon="-3.261610"><ele>768</ele><time>2024-06-01T11:47:10Z</time><name>PT1988</name></trkpt>
<trkpt lat="54.587997" lon="-3.261625"><ele>768</ele><time>2024-06-01T11:47:14Z</time><name>PT1989</name></trkpt>
<trkpt lat="54.588005" lon="-3.261631"><ele>768</ele><time>2024-06-01T11:47:17Z</time><name>PT1990</name></trkpt>
<trkpt lat="54.588015" lon="-3.261633"><ele>769</ele><time>2024-06-01T11:47:20Z</time><name>PT1991</name></trkpt>
<trkpt lat="54.588018" lon="-3.261633"><ele>769</ele><time>2024-06-01T11:47:23Z</time><name>PT1992</name></trkpt>
<trkpt lat="54.588042" lon="-3.261638"><ele>769</ele><time>2024-06-01T11:47:31Z</time><name>PT1993</name></trkpt>
<trkpt lat="54.588048" lon="-3.261640"><ele>769</ele><time>2024-06-01T11:47:34Z</time><name>PT1994</name></trkpt>
<trkpt lat="54.588057" lon="-3.261640"><ele>769</ele><time>2024-06-01T11:47:47Z</time><name>PT1995</name></trkpt>
<trkpt lat="54.588065" lon="-3.261640"><ele>769</ele><time>2024-06-01T11:48:05Z</time><name>PT1996</name></trkpt>
<trkpt lat="54.588070" lon="-3.261677"><ele>770</ele><time>2024-06-01T11:48:08Z</time><name>PT1997</name></trkpt>
<trkpt lat="54.588059" lon="-3.261688"><ele>769</ele><time>2024-06-01T11:48:11Z</time><name>PT1998</name></trkpt>
<trkpt lat="54.588058" lon="-3.261697"><ele>769</ele><time>2024-06-01T11:48:14Z</time><name>PT1999</name></trkpt>
<trkpt lat="54.588058" lon="-3.261701"><ele>769</ele><time>2024-06-01T11:48:18Z</time><name>PT2000</name></trkpt>
<trkpt lat="54.588058" lon="-3.261707"><ele>769</ele><time>2024-06-01T11:49:20Z</time><name>PT2001</name></trkpt>
<trkpt lat="54.588051" lon="-3.261746"><ele>769</ele><time>2024-06-01T11:49:23Z</time><name>PT2002</name></trkpt>
<trkpt lat="54.588045" lon="-3.261797"><ele>768</ele><time>2024-06-01T11:49:27Z</time><name>PT2003</name></trkpt>
<trkpt lat="54.588029" lon="-3.261803"><ele>767</ele><time>2024-06-01T11:49:31Z</time><name>PT2004</name></trkpt>
<trkpt lat="54.588019" lon="-3.261756"><ele>766</ele><time>2024-06-01T11:49:35Z</time><name>PT2005</name></trkpt>
<trkpt lat="54.588025" lon="-3.261745"><ele>766</ele><time>2024-06-01T11:49:39Z</time><name>PT2006</name></trkpt>
<trkpt lat="54.588029" lon="-3.261720"><ele>766</ele><time>2024-06-01T11:49:43Z</time><name>PT2007</name></trkpt>
<trkpt lat="54.588026" lon="-3.261719"><ele>765</ele><time>2024-06-01T11:49:46Z</time><name>PT2008</name></trkpt>
<trkpt lat="54.588026" lon="-3.261719"><ele>765</ele><time>2024-06-01T11:49:49Z</time><name>PT2009</name></trkpt>
<trkpt lat="54.588016" lon="-3.261675"><ele>765</ele><time>2024-06-01T11:50:37Z</time><name>PT2010</name></trkpt>
<trkpt lat="54.587990" lon="-3.261643"><ele>764</ele><time>2024-06-01T11:50:41Z</time><name>PT2011</name></trkpt>
<trkpt lat="54.587972" lon="-3.261596"><ele>764</ele><time>2024-06-01T11:50:44Z</time><name>PT2012</name></trkpt>
<trkpt lat="54.587957" lon="-3.261558"><ele>763</ele><time>2024-06-01T11:50:48Z</time><name>PT2013</name></trkpt>
<trkpt lat="54.587936" lon="-3.261522"><ele>763</ele><time>2024-06-01T11:50:52Z</time><name>PT2014</name></trkpt>
<trkpt lat="54.587912" lon="-3.261481"><ele>762</ele><time>2024-06-01T11:50:56Z</time><name>PT2015</name></trkpt>
<trkpt lat="54.587881" lon="-3.261449"><ele>762</ele><time>2024-06-01T11:50:59Z</time><name>PT2016</name></trkpt>
<trkpt lat="54.587857" lon="-3.261428"><ele>761</ele><time>2024-06-01T11:51:03Z</time><name>PT2017</name></trkpt>
<trkpt lat="54.587825" lon="-3.261397"><ele>760</ele><time>2024-06-01T11:51:07Z</time><name>PT2018</name></trkpt>
<trkpt lat="54.587803" lon="-3.261368"><ele>759</ele><time>2024-06-01T11:51:10Z</time><name>PT2019</name></trkpt>
<trkpt lat="54.587780" lon="-3.261333"><ele>759</ele><time>2024-06-01T11:51:13Z</time><name>PT2020</name></trkpt>
<trkpt lat="54.587756" lon="-3.261299"><ele>759</ele><time>2024-06-01T11:51:16Z</time><name>PT2021</name></trkpt>
<trkpt lat="54.587732" lon="-3.261270"><ele>759</ele><time>2024-06-01T11:51:19Z</time><name>PT2022</name></trkpt>
<trkpt lat="54.587696" lon="-3.261239"><ele>758</ele><time>2024-06-01T11:51:23Z</time><name>PT2023</name></trkpt>
<trkpt lat="54.587661" lon="-3.261219"><ele>757</ele><time>2024-06-01T11:51:26Z</time><name>PT2024</name></trkpt>
<trkpt lat="54.587630" lon="-3.261194"><ele>757</ele><time>2024-06-01T11:51:29Z</time><name>PT2025</name></trkpt>
<trkpt lat="54.587590" lon="-3.261163"><ele>757</ele><time>2024-06-01T11:51:32Z</time><name>PT2026</name></trkpt>
<trkpt lat="54.587561" lon="-3.261152"><ele>756</ele><time>2024-06-01T11:51:36Z</time><name>PT2027</name></trkpt>
<trkpt lat="54.587526" lon="-3.261120"><ele>756</ele><time>2024-06-01T11:51:40Z</time><name>PT2028</name></trkpt>
<trkpt lat="54.587486" lon="-3.261081"><ele>755</ele><time>2024-06-01T11:51:44Z</time><name>PT2029</name></trkpt>
<trkpt lat="54.587452" lon="-3.261060"><ele>754</ele><time>2024-06-01T11:51:47Z</time><name>PT2030</name></trkpt>
<trkpt lat="54.587419" lon="-3.261026"><ele>754</ele><time>2024-06-01T11:51:50Z</time><name>PT2031</name></trkpt>
<trkpt lat="54.587388" lon="-3.260994"><ele>754</ele><time>2024-06-01T11:51:53Z</time><name>PT2032</name></trkpt>
<trkpt lat="54.587360" lon="-3.260974"><ele>754</ele><time>2024-06-01T11:51:56Z</time><name>PT2033</name></trkpt>
<trkpt lat="54.587331" lon="-3.260937"><ele>753</ele><time>2024-06-01T11:51:59Z</time><name>PT2034</name></trkpt>
<trkpt lat="54.587313" lon="-3.260912"><ele>753</ele><time>2024-06-01T11:52:03Z</time><name>PT2035</name></trkpt>
<trkpt lat="54.587282" lon="-3.260899"><ele>752</ele><time>2024-06-01T11:52:07Z</time><name>PT2036</name></trkpt>
<trkpt lat="54.587258" lon="-3.260883"><ele>751</ele><time>2024-06-01T11:52:11Z</time><name>PT2037</name></trkpt>
<trkpt lat="54.587233" lon="-3.260856"><ele>750</ele><time>2024-06-01T11:52:15Z</time><name>PT2038</name></trkpt>
<trkpt lat="54.587210" lon="-3.260846"><ele>749</ele><time>2024-06-01T11:52:18Z</time><name>PT2039</name></trkpt>
<trkpt lat="54.587191" lon="-3.260836"><ele>748</ele><time>2024-06-01T11:52:21Z</time><name>PT2040</name></trkpt>
<trkpt lat="54.587161" lon="-3.260834"><ele>746</ele><time>2024-06-01T11:52:25Z</time><name>PT2041</name></trkpt>
<trkpt lat="54.587133" lon="-3.260844"><ele>745</ele><time>2024-06-01T11:52:28Z</time><name>PT2042</name></trkpt>
<trkpt lat="54.587094" lon="-3.260848"><ele>745</ele><time>2024-06-01T11:52:32Z</time><name>PT2043</name></trkpt>
<trkpt lat="54.587073" lon="-3.260830"><ele>743</ele><time>2024-06-01T11:52:35Z</time><name>PT2044</name></trkpt>
<trkpt lat="54.587050" lon="-3.260798"><ele>742</ele><time>2024-06-01T11:52:40Z</time><name>PT2045</name></trkpt>
<trkpt lat="54.587026" lon="-3.260754"><ele>741</ele><time>2024-06-01T11:52:44Z</time><name>PT2046</name></trkpt>
<trkpt lat="54.586997" lon="-3.260718"><ele>740</ele><time>2024-06-01T11:52:47Z</time><name>PT2047</name></trkpt>
<trkpt lat="54.586967" lon="-3.260698"><ele>740</ele><time>2024-06-01T11:52:50Z</time><name>PT2048</name></trkpt>
<trkpt lat="54.586921" lon="-3.260657"><ele>738</ele><time>2024-06-01T11:52:53Z</time><name>PT2049</name></trkpt>
<trkpt lat="54.586896" lon="-3.260635"><ele>738</ele><time>2024-06-01T11:52:56Z</time><name>PT2050</name></trkpt>
<trkpt lat="54.586866" lon="-3.260599"><ele>738</ele><time>2024-06-01T11:52:59Z</time><name>PT2051</name></trkpt>
<trkpt lat="54.586827" lon="-3.260534"><ele>739</ele><time>2024-06-01T11:53:04Z</time><name>PT2052</name></trkpt>
<trkpt lat="54.586793" lon="-3.260521"><ele>739</ele><time>2024-06-01T11:53:07Z</time><name>PT2053</name></trkpt>
<trkpt lat="54.586763" lon="-3.260518"><ele>739</ele><time>2024-06-01T11:53:10Z</time><name>PT2054</name></trkpt>
<trkpt lat="54.586721" lon="-3.260478"><ele>739</ele><time>2024-06-01T11:53:14Z</time><name>PT2055</name></trkpt>
<trkpt lat="54.586694" lon="-3.260453"><ele>739</ele><time>2024-06-01T11:53:17Z</time><name>PT2056</name></trkpt>
<trkpt lat="54.586655" lon="-3.260423"><ele>739</ele><time>2024-06-01T11:53:20Z</time><name>PT2057</name></trkpt>
<trkpt lat="54.586625" lon="-3.260395"><ele>740</ele><time>2024-06-01T11:53:24Z</time><name>PT2058</name></trkpt>
<trkpt lat="54.586586" lon="-3.260351"><ele>740</ele><time>2024-06-01T11:53:28Z</time><name>PT2059</name></trkpt>
<trkpt lat="54.586554" lon="-3.260321"><ele>740</ele><time>2024-06-01T11:53:31Z</time><name>PT2060</name></trkpt>
<trkpt lat="54.586515" lon="-3.260286"><ele>741</ele><time>2024-06-01T11:53:35Z</time><name>PT2061</name></trkpt>
<trkpt lat="54.586482" lon="-3.260251"><ele>742</ele><time>2024-06-01T11:53:38Z</time><name>PT2062</name></trkpt>
<trkpt lat="54.586445" lon="-3.260230"><ele>743</ele><time>2024-06-01T11:53:43Z</time><name>PT2063</name></trkpt>
<trkpt lat="54.586419" lon="-3.260206"><ele>743</ele><time>2024-06-01T11:53:46Z</time><name>PT2064</name></trkpt>
<trkpt lat="54.586392" lon="-3.260181"><ele>744</ele><time>2024-06-01T11:53:49Z</time><name>PT2065</name></trkpt>
<trkpt lat="54.586357" lon="-3.260166"><ele>745</ele><time>2024-06-01T11:53:53Z</time><name>PT2066</name></trkpt>
<trkpt lat="54.586331" lon="-3.260152"><ele>746</ele><time>2024-06-01T11:53:56Z</time><name>PT2067</name></trkpt>
<trkpt lat="54.586295" lon="-3.260132"><ele>747</ele><time>2024-06-01T11:53:59Z</time><name>PT2068</name></trkpt>
<trkpt lat="54.586263" lon="-3.260112"><ele>747</ele><time>2024-06-01T11:54:03Z</time><name>PT2069</name></trkpt>
<trkpt lat="54.586215" lon="-3.260077"><ele>748</ele><time>2024-06-01T11:54:07Z</time><name>PT2070</name></trkpt>
<trkpt lat="54.586179" lon="-3.260069"><ele>748</ele><time>2024-06-01T11:54:10Z</time><name>PT2071</name></trkpt>
<trkpt lat="54.586143" lon="-3.260061"><ele>748</ele><time>2024-06-01T11:54:13Z</time><name>PT2072</name></trkpt>
<trkpt lat="54.586094" lon="-3.260050"><ele>749</ele><time>2024-06-01T11:54:17Z</time><name>PT2073</name></trkpt>
<trkpt lat="54.586060" lon="-3.260043"><ele>749</ele><time>2024-06-01T11:54:20Z</time><name>PT2074</name></trkpt>
<trkpt lat="54.586027" lon="-3.260043"><ele>749</ele><time>2024-06-01T11:54:23Z</time><name>PT2075</name></trkpt>
<trkpt lat="54.585993" lon="-3.260046"><ele>749</ele><time>2024-06-01T11:54:26Z</time><name>PT2076</name></trkpt>
<trkpt lat="54.585950" lon="-3.260046"><ele>749</ele><time>2024-06-01T11:54:29Z</time><name>PT2077</name></trkpt>
<trkpt lat="54.585910" lon="-3.260027"><ele>750</ele><time>2024-06-01T11:54:34Z</time><name>PT2078</name></trkpt>
<trkpt lat="54.585881" lon="-3.260008"><ele>751</ele><time>2024-06-01T11:54:37Z</time><name>PT2079</name></trkpt>
<trkpt lat="54.585855" lon="-3.259984"><ele>752</ele><time>2024-06-01T11:54:40Z</time><name>PT2080</name></trkpt>
<trkpt lat="54.585822" lon="-3.259954"><ele>753</ele><time>2024-06-01T11:54:44Z</time><name>PT2081</name></trkpt>
<trkpt lat="54.585795" lon="-3.259936"><ele>753</ele><time>2024-06-01T11:54:47Z</time><name>PT2082</name></trkpt>
<trkpt lat="54.585764" lon="-3.259913"><ele>754</ele><time>2024-06-01T11:54:50Z</time><name>PT2083</name></trkpt>
<trkpt lat="54.585737" lon="-3.259884"><ele>754</ele><time>2024-06-01T11:54:53Z</time><name>PT2084</name></trkpt>
<trkpt lat="54.585701" lon="-3.259835"><ele>754</ele><time>2024-06-01T11:54:56Z</time><name>PT2085</name></trkpt>
<trkpt lat="54.585669" lon="-3.259796"><ele>755</ele><time>2024-06-01T11:55:01Z</time><name>PT2086</name></trkpt>
<trkpt lat="54.585649" lon="-3.259761"><ele>755</ele><time>2024-06-01T11:55:04Z</time><name>PT2087</name></trkpt>
<trkpt lat="54.585620" lon="-3.259714"><ele>755</ele><time>2024-06-01T11:55:08Z</time><name>PT2088</name></trkpt>
<trkpt lat="54.585589" lon="-3.259658"><ele>755</ele><time>2024-06-01T11:55:11Z</time><name>PT2089</name></trkpt>
<trkpt lat="54.585560" lon="-3.259602"><ele>755</ele><time>2024-06-01T11:55:16Z</time><name>PT2090</name></trkpt>
<trkpt lat="54.585527" lon="-3.259543"><ele>756</ele><time>2024-06-01T11:55:20Z</time><name>PT2091</name></trkpt>
<trkpt lat="54.585503" lon="-3.259508"><ele>756</ele><time>2024-06-01T11:55:23Z</time><name>PT2092</name></trkpt>
<trkpt lat="54.585468" lon="-3.259464"><ele>756</ele><time>2024-06-01T11:55:27Z</time><name>PT2093</name></trkpt>
<trkpt lat="54.585436" lon="-3.259431"><ele>756</ele><time>2024-06-01T11:55:31Z</time><name>PT2094</name></trkpt>
<trkpt lat="54.585411" lon="-3.259408"><ele>756</ele><time>2024-06-01T11:55:34Z</time><name>PT2095</name></trkpt>
<trkpt lat="54.585380" lon="-3.259380"><ele>756</ele><time>2024-06-01T11:55:38Z</time><name>PT2096</name></trkpt>
<trkpt lat="54.585364" lon="-3.259363"><ele>755</ele><time>2024-06-01T11:55:41Z</time><name>PT2097</name></trkpt>
<trkpt lat="54.585347" lon="-3.259348"><ele>754</ele><time>2024-06-01T11:55:44Z</time><name>PT2098</name></trkpt>
<trkpt lat="54.585323" lon="-3.259344"><ele>754</ele><time>2024-06-01T11:55:47Z</time><name>PT2099</name></trkpt>
<trkpt lat="54.585302" lon="-3.259334"><ele>753</ele><time>2024-06-01T11:55:52Z</time><name>PT2100</name></trkpt>
<trkpt lat="54.585288" lon="-3.259335"><ele>752</ele><time>2024-06-01T11:55:55Z</time><name>PT2101</name></trkpt>
<trkpt lat="54.585265" lon="-3.259342"><ele>752</ele><time>2024-06-01T11:55:59Z</time><name>PT2102</name></trkpt>
<trkpt lat="54.585245" lon="-3.259358"><ele>751</ele><time>2024-06-01T11:56:02Z</time><name>PT2103</name></trkpt>
<trkpt lat="54.585230" lon="-3.259339"><ele>750</ele><time>2024-06-01T11:56:05Z</time><name>PT2104</name></trkpt>
<trkpt lat="54.585214" lon="-3.259349"><ele>750</ele><time>2024-06-01T11:56:08Z</time><name>PT2105</name></trkpt>
<trkpt lat="54.585188" lon="-3.259336"><ele>750</ele><time>2024-06-01T11:56:13Z</time><name>PT2106</name></trkpt>
<trkpt lat="54.585180" lon="-3.259311"><ele>750</ele><time>2024-06-01T11:56:16Z</time><name>PT2107</name></trkpt>
<trkpt lat="54.585181" lon="-3.259278"><ele>750</ele><time>2024-06-01T11:56:19Z</time><name>PT2108</name></trkpt>
<trkpt lat="54.585181" lon="-3.259229"><ele>750</ele><time>2024-06-01T11:56:23Z</time><name>PT2109</name></trkpt>
<trkpt lat="54.585182" lon="-3.259194"><ele>749</ele><time>2024-06-01T11:56:26Z</time><name>PT2110</name></trkpt>
<trkpt lat="54.585174" lon="-3.259177"><ele>748</ele><time>2024-06-01T11:56:31Z</time><name>PT2111</name></trkpt>
<trkpt lat="54.585165" lon="-3.259149"><ele>748</ele><time>2024-06-01T11:56:34Z</time><name>PT2112</name></trkpt>
<trkpt lat="54.585163" lon="-3.259125"><ele>747</ele><time>2024-06-01T11:56:37Z</time><name>PT2113</name></trkpt>
<trkpt lat="54.585158" lon="-3.259113"><ele>747</ele><time>2024-06-01T11:56:40Z</time><name>PT2114</name></trkpt>
<trkpt lat="54.585161" lon="-3.259106"><ele>746</ele><time>2024-06-01T11:56:44Z</time><name>PT2115</name></trkpt>
<trkpt lat="54.585153" lon="-3.259056"><ele>745</ele><time>2024-06-01T11:56:47Z</time><name>PT2116</name></trkpt>
<trkpt lat="54.585146" lon="-3.259007"><ele>744</ele><time>2024-06-01T11:56:52Z</time><name>PT2117</name></trkpt>
<trkpt lat="54.585143" lon="-3.258971"><ele>743</ele><time>2024-06-01T11:56:55Z</time><name>PT2118</name></trkpt>
<trkpt lat="54.585135" lon="-3.258925"><ele>743</ele><time>2024-06-01T11:56:59Z</time><name>PT2119</name></trkpt>
<trkpt lat="54.585128" lon="-3.258896"><ele>742</ele><time>2024-06-01T11:57:02Z</time><name>PT2120</name></trkpt>
<trkpt lat="54.585124" lon="-3.258861"><ele>742</ele><time>2024-06-01T11:57:05Z</time><name>PT2121</name></trkpt>
<trkpt lat="54.585105" lon="-3.258840"><ele>740</ele><time>2024-06-01T11:57:10Z</time><name>PT2122</name></trkpt>
<trkpt lat="54.585072" lon="-3.258842"><ele>739</ele><time>2024-06-01T11:57:14Z</time><name>PT2123</name></trkpt>
<trkpt lat="54.585047" lon="-3.258852"><ele>738</ele><time>2024-06-01T11:57:17Z</time><name>PT2124</name></trkpt>
<trkpt lat="54.585013" lon="-3.258875"><ele>737</ele><time>2024-06-01T11:57:20Z</time><name>PT2125</name></trkpt>
<trkpt lat="54.584981" lon="-3.258890"><ele>735</ele><time>2024-06-01T11:57:25Z</time><name>PT2126</name></trkpt>
<trkpt lat="54.584948" lon="-3.258904"><ele>733</ele><time>2024-06-01T11:57:29Z</time><name>PT2127</name></trkpt>
<trkpt lat="54.584922" lon="-3.258922"><ele>732</ele><time>2024-06-01T11:57:32Z</time><name>PT2128</name></trkpt>
<trkpt lat="54.584901" lon="-3.258926"><ele>731</ele><time>2024-06-01T11:57:35Z</time><name>PT2129</name></trkpt>
<trkpt lat="54.584872" lon="-3.258921"><ele>730</ele><time>2024-06-01T11:57:38Z</time><name>PT2130</name></trkpt>
<trkpt lat="54.584844" lon="-3.258929"><ele>729</ele><time>2024-06-01T11:57:43Z</time><name>PT2131</name></trkpt>
<trkpt lat="54.584823" lon="-3.258931"><ele>728</ele><time>2024-06-01T11:57:46Z</time><name>PT2132</name></trkpt>
<trkpt lat="54.584793" lon="-3.258939"><ele>727</ele><time>2024-06-01T11:57:50Z</time><name>PT2133</name></trkpt>
<trkpt lat="54.584770" lon="-3.258937"><ele>726</ele><time>2024-06-01T11:57:53Z</time><name>PT2134</name></trkpt>
<trkpt lat="54.584740" lon="-3.258930"><ele>724</ele><time>2024-06-01T11:57:56Z</time><name>PT2135</name></trkpt>
<trkpt lat="54.584717" lon="-3.258923"><ele>723</ele><time>2024-06-01T11:57:59Z</time><name>PT2136</name></trkpt>
<trkpt lat="54.584681" lon="-3.258927"><ele>722</ele><time>2024-06-01T11:58:04Z</time><name>PT2137</name></trkpt>
<trkpt lat="54.584644" lon="-3.258908"><ele>721</ele><time>2024-06-01T11:58:08Z</time><name>PT2138</name></trkpt>
<trkpt lat="54.584614" lon="-3.258891"><ele>720</ele><time>2024-06-01T11:58:11Z</time><name>PT2139</name></trkpt>
<trkpt lat="54.584581" lon="-3.258896"><ele>719</ele><time>2024-06-01T11:58:14Z</time><name>PT2140</name></trkpt>
<trkpt lat="54.584538" lon="-3.258901"><ele>719</ele><time>2024-06-01T11:58:17Z</time><name>PT2141</name></trkpt>
<trkpt lat="54.584506" lon="-3.258903"><ele>718</ele><time>2024-06-01T11:58:20Z</time><name>PT2142</name></trkpt>
<trkpt lat="54.584467" lon="-3.258901"><ele>717</ele><time>2024-06-01T11:58:23Z</time><name>PT2143</name></trkpt>
<trkpt lat="54.584436" lon="-3.258893"><ele>717</ele><time>2024-06-01T11:58:26Z</time><name>PT2144</name></trkpt>
<trkpt lat="54.584401" lon="-3.258892"><ele>716</ele><time>2024-06-01T11:58:29Z</time><name>PT2145</name></trkpt>
<trkpt lat="54.584368" lon="-3.258882"><ele>716</ele><time>2024-06-01T11:58:33Z</time><name>PT2146</name></trkpt>
<trkpt lat="54.584328" lon="-3.258859"><ele>714</ele><time>2024-06-01T11:58:37Z</time><name>PT2147</name></trkpt>
<trkpt lat="54.584295" lon="-3.258854"><ele>713</ele><time>2024-06-01T11:58:40Z</time><name>PT2148</name></trkpt>
<trkpt lat="54.584259" lon="-3.258848"><ele>712</ele><time>2024-06-01T11:58:44Z</time><name>PT2149</name></trkpt>
<trkpt lat="54.584219" lon="-3.258845"><ele>711</ele><time>2024-06-01T11:58:47Z</time><name>PT2150</name></trkpt>
<trkpt lat="54.584179" lon="-3.258847"><ele>711</ele><time>2024-06-01T11:58:52Z</time><name>PT2151</name></trkpt>
<trkpt lat="54.584149" lon="-3.258848"><ele>712</ele><time>2024-06-01T11:58:55Z</time><name>PT2152</name></trkpt>
<trkpt lat="54.584105" lon="-3.258837"><ele>711</ele><time>2024-06-01T11:58:59Z</time><name>PT2153</name></trkpt>
<trkpt lat="54.584066" lon="-3.258813"><ele>709</ele><time>2024-06-01T11:59:02Z</time><name>PT2154</name></trkpt>
<trkpt lat="54.584030" lon="-3.258778"><ele>709</ele><time>2024-06-01T11:59:07Z</time><name>PT2155</name></trkpt>
<trkpt lat="54.583993" lon="-3.258737"><ele>707</ele><time>2024-06-01T11:59:11Z</time><name>PT2156</name></trkpt>
<trkpt lat="54.583968" lon="-3.258716"><ele>707</ele><time>2024-06-01T11:59:14Z</time><name>PT2157</name></trkpt>
<trkpt lat="54.583941" lon="-3.258689"><ele>706</ele><time>2024-06-01T11:59:17Z</time><name>PT2158</name></trkpt>
<trkpt lat="54.583912" lon="-3.258652"><ele>705</ele><time>2024-06-01T11:59:20Z</time><name>PT2159</name></trkpt>
<trkpt lat="54.583878" lon="-3.258617"><ele>704</ele><time>2024-06-01T11:59:25Z</time><name>PT2160</name></trkpt>
<trkpt lat="54.583842" lon="-3.258600"><ele>702</ele><time>2024-06-01T11:59:29Z</time><name>PT2161</name></trkpt>
<trkpt lat="54.583816" lon="-3.258569"><ele>701</ele><time>2024-06-01T11:59:33Z</time><name>PT2162</name></trkpt>
<trkpt lat="54.583789" lon="-3.258532"><ele>700</ele><time>2024-06-01T11:59:37Z</time><name>PT2163</name></trkpt>
<trkpt lat="54.583762" lon="-3.258508"><ele>700</ele><time>2024-06-01T11:59:40Z</time><name>PT2164</name></trkpt>
<trkpt lat="54.583725" lon="-3.258482"><ele>699</ele><time>2024-06-01T11:59:44Z</time><name>PT2165</name></trkpt>
<trkpt lat="54.583711" lon="-3.258463"><ele>699</ele><time>2024-06-01T11:59:47Z</time><name>PT2166</name></trkpt>
<trkpt lat="54.583701" lon="-3.258451"><ele>698</ele><time>2024-06-01T11:59:50Z</time><name>PT2167</name></trkpt>
<trkpt lat="54.583687" lon="-3.258461"><ele>698</ele><time>2024-06-01T11:59:53Z</time><name>PT2168</name></trkpt>
<trkpt lat="54.583664" lon="-3.258467"><ele>697</ele><time>2024-06-01T11:59:56Z</time><name>PT2169</name></trkpt>
<trkpt lat="54.583640" lon="-3.258479"><ele>696</ele><time>2024-06-01T12:00:01Z</time><name>PT2170</name></trkpt>
<trkpt lat="54.583623" lon="-3.258482"><ele>695</ele><time>2024-06-01T12:00:04Z</time><name>PT2171</name></trkpt>
<trkpt lat="54.583600" lon="-3.258457"><ele>694</ele><time>2024-06-01T12:00:08Z</time><name>PT2172</name></trkpt>
<trkpt lat="54.583583" lon="-3.258424"><ele>693</ele><time>2024-06-01T12:00:11Z</time><name>PT2173</name></trkpt>
<trkpt lat="54.583558" lon="-3.258406"><ele>692</ele><time>2024-06-01T12:00:14Z</time><name>PT2174</name></trkpt>
<trkpt lat="54.583538" lon="-3.258391"><ele>691</ele><time>2024-06-01T12:00:17Z</time><name>PT2175</name></trkpt>
<trkpt lat="54.583518" lon="-3.258373"><ele>690</ele><time>2024-06-01T12:00:21Z</time><name>PT2176</name></trkpt>
<trkpt lat="54.583491" lon="-3.258386"><ele>689</ele><time>2024-06-01T12:00:25Z</time><name>PT2177</name></trkpt>
<trkpt lat="54.583469" lon="-3.258370"><ele>688</ele><time>2024-06-01T12:00:28Z</time><name>PT2178</name></trkpt>
<trkpt lat="54.583451" lon="-3.258347"><ele>687</ele><time>2024-06-01T12:00:31Z</time><name>PT2179</name></trkpt>
<trkpt lat="54.583424" lon="-3.258329"><ele>686</ele><time>2024-06-01T12:00:35Z</time><name>PT2180</name></trkpt>
<trkpt lat="54.583406" lon="-3.258316"><ele>685</ele><time>2024-06-01T12:00:38Z</time><name>PT2181</name></trkpt>
<trkpt lat="54.583389" lon="-3.258293"><ele>685</ele><time>2024-06-01T12:00:41Z</time><name>PT2182</name></trkpt>
<trkpt lat="54.583374" lon="-3.258270"><ele>684</ele><time>2024-06-01T12:00:44Z</time><name>PT2183</name></trkpt>
<trkpt lat="54.583355" lon="-3.258244"><ele>685</ele><time>2024-06-01T12:00:47Z</time><name>PT2184</name></trkpt>
<trkpt lat="54.583333" lon="-3.258235"><ele>686</ele><time>2024-06-01T12:00:52Z</time><name>PT2185</name></trkpt>
<trkpt lat="54.583325" lon="-3.258250"><ele>684</ele><time>2024-06-01T12:00:56Z</time><name>PT2186</name></trkpt>
<trkpt lat="54.583307" lon="-3.258276"><ele>683</ele><time>2024-06-01T12:00:59Z</time><name>PT2187</name></trkpt>
<trkpt lat="54.583283" lon="-3.258262"><ele>682</ele><time>2024-06-01T12:01:04Z</time><name>PT2188</name></trkpt>
<trkpt lat="54.583259" lon="-3.258239"><ele>682</ele><time>2024-06-01T12:01:08Z</time><name>PT2189</name></trkpt>
<trkpt lat="54.583232" lon="-3.258220"><ele>681</ele><time>2024-06-01T12:01:11Z</time><name>PT2190</name></trkpt>
<trkpt lat="54.583212" lon="-3.258211"><ele>680</ele><time>2024-06-01T12:01:14Z</time><name>PT2191</name></trkpt>
<trkpt lat="54.583192" lon="-3.258209"><ele>679</ele><time>2024-06-01T12:01:17Z</time><name>PT2192</name></trkpt>
<trkpt lat="54.583164" lon="-3.258187"><ele>678</ele><time>2024-06-01T12:01:22Z</time><name>PT2193</name></trkpt>
<trkpt lat="54.583142" lon="-3.258191"><ele>677</ele><time>2024-06-01T12:01:26Z</time><name>PT2194</name></trkpt>
<trkpt lat="54.583116" lon="-3.258202"><ele>676</ele><time>2024-06-01T12:01:29Z</time><name>PT2195</name></trkpt>
<trkpt lat="54.583085" lon="-3.258215"><ele>675</ele><time>2024-06-01T12:01:34Z</time><name>PT2196</name></trkpt>
<trkpt lat="54.583055" lon="-3.258199"><ele>674</ele><time>2024-06-01T12:01:38Z</time><name>PT2197</name></trkpt>
<trkpt lat="54.583033" lon="-3.258182"><ele>673</ele><time>2024-06-01T12:01:41Z</time><name>PT2198</name></trkpt>
<trkpt lat="54.583011" lon="-3.258165"><ele>673</ele><time>2024-06-01T12:01:44Z</time><name>PT2199</name></trkpt>
<trkpt lat="54.582988" lon="-3.258170"><ele>671</ele><time>2024-06-01T12:01:47Z</time><name>PT2200</name></trkpt>
<trkpt lat="54.582958" lon="-3.258146"><ele>670</ele><time>2024-06-01T12:01:50Z</time><name>PT2201</name></trkpt>
<trkpt lat="54.582933" lon="-3.258118"><ele>670</ele><time>2024-06-01T12:01:54Z</time><name>PT2202</name></trkpt>
<trkpt lat="54.582894" lon="-3.258104"><ele>670</ele><time>2024-06-01T12:01:58Z</time><name>PT2203</name></trkpt>
<trkpt lat="54.582877" lon="-3.258079"><ele>669</ele><time>2024-06-01T12:02:01Z</time><name>PT2204</name></trkpt>
<trkpt lat="54.582850" lon="-3.258040"><ele>669</ele><time>2024-06-01T12:02:04Z</time><name>PT2205</name></trkpt>
<trkpt lat="54.582820" lon="-3.258022"><ele>667</ele><time>2024-06-01T12:02:09Z</time><name>PT2206</name></trkpt>
<trkpt lat="54.582799" lon="-3.258020"><ele>666</ele><time>2024-06-01T12:02:12Z</time><name>PT2207</name></trkpt>
<trkpt lat="54.582769" lon="-3.258011"><ele>665</ele><time>2024-06-01T12:02:16Z</time><name>PT2208</name></trkpt>
<trkpt lat="54.582752" lon="-3.258051"><ele>664</ele><time>2024-06-01T12:02:19Z</time><name>PT2209</name></trkpt>
<trkpt lat="54.582725" lon="-3.258028"><ele>663</ele><time>2024-06-01T12:02:24Z</time><name>PT2210</name></trkpt>
<trkpt lat="54.582703" lon="-3.258013"><ele>662</ele><time>2024-06-01T12:02:27Z</time><name>PT2211</name></trkpt>
<trkpt lat="54.582674" lon="-3.258013"><ele>661</ele><time>2024-06-01T12:02:30Z</time><name>PT2212</name></trkpt>
<trkpt lat="54.582643" lon="-3.257986"><ele>660</ele><time>2024-06-01T12:02:34Z</time><name>PT2213</name></trkpt>
<trkpt lat="54.582618" lon="-3.257966"><ele>659</ele><time>2024-06-01T12:02:37Z</time><name>PT2214</name></trkpt>
<trkpt lat="54.582582" lon="-3.257944"><ele>657</ele><time>2024-06-01T12:02:40Z</time><name>PT2215</name></trkpt>
<trkpt lat="54.582549" lon="-3.257948"><ele>656</ele><time>2024-06-01T12:02:45Z</time><name>PT2216</name></trkpt>
<trkpt lat="54.582525" lon="-3.257936"><ele>655</ele><time>2024-06-01T12:02:48Z</time><name>PT2217</name></trkpt>
<trkpt lat="54.582495" lon="-3.257922"><ele>654</ele><time>2024-06-01T12:02:52Z</time><name>PT2218</name></trkpt>
<trkpt lat="54.582469" lon="-3.257918"><ele>653</ele><time>2024-06-01T12:02:55Z</time><name>PT2219</name></trkpt>
<trkpt lat="54.582433" lon="-3.257888"><ele>652</ele><time>2024-06-01T12:02:58Z</time><name>PT2220</name></trkpt>
<trkpt lat="54.582401" lon="-3.257859"><ele>651</ele><time>2024-06-01T12:03:01Z</time><name>PT2221</name></trkpt>
<trkpt lat="54.582375" lon="-3.257841"><ele>650</ele><time>2024-06-01T12:03:04Z</time><name>PT2222</name></trkpt>
<trkpt lat="54.582354" lon="-3.257816"><ele>649</ele><time>2024-06-01T12:03:07Z</time><name>PT2223</name></trkpt>
<trkpt lat="54.582309" lon="-3.257782"><ele>649</ele><time>2024-06-01T12:03:12Z</time><name>PT2224</name></trkpt>
<trkpt lat="54.582277" lon="-3.257770"><ele>648</ele><time>2024-06-01T12:03:15Z</time><name>PT2225</name></trkpt>
<trkpt lat="54.582238" lon="-3.257752"><ele>647</ele><time>2024-06-01T12:03:19Z</time><name>PT2226</name></trkpt>
<trkpt lat="54.582209" lon="-3.257742"><ele>647</ele><time>2024-06-01T12:03:22Z</time><name>PT2227</name></trkpt>
<trkpt lat="54.582181" lon="-3.257724"><ele>646</ele><time>2024-06-01T12:03:25Z</time><name>PT2228</name></trkpt>
<trkpt lat="54.582145" lon="-3.257716"><ele>646</ele><time>2024-06-01T12:03:28Z</time><name>PT2229</name></trkpt>
<trkpt lat="54.582111" lon="-3.257692"><ele>644</ele><time>2024-06-01T12:03:31Z</time><name>PT2230</name></trkpt>
<trkpt lat="54.582086" lon="-3.257681"><ele>644</ele><time>2024-06-01T12:03:34Z</time><name>PT2231</name></trkpt>
<trkpt lat="54.582052" lon="-3.257666"><ele>643</ele><time>2024-06-01T12:03:39Z</time><name>PT2232</name></trkpt>
<trkpt lat="54.582021" lon="-3.257654"><ele>641</ele><time>2024-06-01T12:03:42Z</time><name>PT2233</name></trkpt>
<trkpt lat="54.581972" lon="-3.257636"><ele>638</ele><time>2024-06-01T12:03:46Z</time><name>PT2234</name></trkpt>
<trkpt lat="54.581937" lon="-3.257620"><ele>638</ele><time>2024-06-01T12:03:49Z</time><name>PT2235</name></trkpt>
<trkpt lat="54.581885" lon="-3.257601"><ele>638</ele><time>2024-06-01T12:03:52Z</time><name>PT2236</name></trkpt>
<trkpt lat="54.581847" lon="-3.257579"><ele>637</ele><time>2024-06-01T12:03:57Z</time><name>PT2237</name></trkpt>
<trkpt lat="54.581819" lon="-3.257577"><ele>637</ele><time>2024-06-01T12:04:00Z</time><name>PT2238</name></trkpt>
<trkpt lat="54.581767" lon="-3.257570"><ele>637</ele><time>2024-06-01T12:04:04Z</time><name>PT2239</name></trkpt>
<trkpt lat="54.581736" lon="-3.257575"><ele>636</ele><time>2024-06-01T12:04:07Z</time><name>PT2240</name></trkpt>
<trkpt lat="54.581695" lon="-3.257575"><ele>634</ele><time>2024-06-01T12:04:10Z</time><name>PT2241</name></trkpt>
<trkpt lat="54.581657" lon="-3.257545"><ele>632</ele><time>2024-06-01T12:04:15Z</time><name>PT2242</name></trkpt>
<trkpt lat="54.581625" lon="-3.257540"><ele>631</ele><time>2024-06-01T12:04:18Z</time><name>PT2243</name></trkpt>
<trkpt lat="54.581582" lon="-3.257523"><ele>630</ele><time>2024-06-01T12:04:22Z</time><name>PT2244</name></trkpt>
<trkpt lat="54.581557" lon="-3.257521"><ele>629</ele><time>2024-06-01T12:04:25Z</time><name>PT2245</name></trkpt>
<trkpt lat="54.581532" lon="-3.257504"><ele>629</ele><time>2024-06-01T12:04:28Z</time><name>PT2246</name></trkpt>
<trkpt lat="54.581505" lon="-3.257490"><ele>628</ele><time>2024-06-01T12:04:31Z</time><name>PT2247</name></trkpt>
<trkpt lat="54.581465" lon="-3.257479"><ele>628</ele><time>2024-06-01T12:04:34Z</time><name>PT2248</name></trkpt>
<trkpt lat="54.581440" lon="-3.257473"><ele>626</ele><time>2024-06-01T12:04:37Z</time><name>PT2249</name></trkpt>
<trkpt lat="54.581409" lon="-3.257472"><ele>625</ele><time>2024-06-01T12:04:40Z</time><name>PT2250</name></trkpt>
<trkpt lat="54.581371" lon="-3.257472"><ele>625</ele><time>2024-06-01T12:04:45Z</time><name>PT2251</name></trkpt>
<trkpt lat="54.581348" lon="-3.257472"><ele>624</ele><time>2024-06-01T12:04:48Z</time><name>PT2252</name></trkpt>
<trkpt lat="54.581323" lon="-3.257455"><ele>622</ele><time>2024-06-01T12:04:52Z</time><name>PT2253</name></trkpt>
<trkpt lat="54.581296" lon="-3.257439"><ele>622</ele><time>2024-06-01T12:04:55Z</time><name>PT2254</name></trkpt>
<trkpt lat="54.581256" lon="-3.257414"><ele>620</ele><time>2024-06-01T12:04:58Z</time><name>PT2255</name></trkpt>
<trkpt lat="54.581233" lon="-3.257402"><ele>619</ele><time>2024-06-01T12:05:01Z</time><name>PT2256</name></trkpt>
<trkpt lat="54.581201" lon="-3.257391"><ele>619</ele><time>2024-06-01T12:05:04Z</time><name>PT2257</name></trkpt>
<trkpt lat="54.581164" lon="-3.257364"><ele>618</ele><time>2024-06-01T12:05:09Z</time><name>PT2258</name></trkpt>
<trkpt lat="54.581145" lon="-3.257334"><ele>616</ele><time>2024-06-01T12:05:13Z</time><name>PT2259</name></trkpt>
<trkpt lat="54.581122" lon="-3.257311"><ele>616</ele><time>2024-06-01T12:05:16Z</time><name>PT2260</name></trkpt>
<trkpt lat="54.581082" lon="-3.257267"><ele>614</ele><time>2024-06-01T12:05:19Z</time><name>PT2261</name></trkpt>
<trkpt lat="54.581043" lon="-3.257236"><ele>613</ele><time>2024-06-01T12:05:22Z</time><name>PT2262</name></trkpt>
<trkpt lat="54.580993" lon="-3.257192"><ele>612</ele><time>2024-06-01T12:05:27Z</time><name>PT2263</name></trkpt>
<trkpt lat="54.580938" lon="-3.257170"><ele>611</ele><time>2024-06-01T12:05:31Z</time><name>PT2264</name></trkpt>
<trkpt lat="54.580898" lon="-3.257154"><ele>611</ele><time>2024-06-01T12:05:34Z</time><name>PT2265</name></trkpt>
<trkpt lat="54.580845" lon="-3.257122"><ele>612</ele><time>2024-06-01T12:05:37Z</time><name>PT2266</name></trkpt>
<trkpt lat="54.580787" lon="-3.257099"><ele>612</ele><time>2024-06-01T12:05:42Z</time><name>PT2267</name></trkpt>
<trkpt lat="54.580734" lon="-3.257055"><ele>611</ele><time>2024-06-01T12:05:46Z</time><name>PT2268</name></trkpt>
<trkpt lat="54.580691" lon="-3.257026"><ele>611</ele><time>2024-06-01T12:05:49Z</time><name>PT2269</name></trkpt>
<trkpt lat="54.580635" lon="-3.256997"><ele>611</ele><time>2024-06-01T12:05:54Z</time><name>PT2270</name></trkpt>
<trkpt lat="54.580600" lon="-3.256974"><ele>610</ele><time>2024-06-01T12:05:57Z</time><name>PT2271</name></trkpt>
<trkpt lat="54.580553" lon="-3.256935"><ele>609</ele><time>2024-06-01T12:06:01Z</time><name>PT2272</name></trkpt>
<trkpt lat="54.580513" lon="-3.256911"><ele>608</ele><time>2024-06-01T12:06:04Z</time><name>PT2273</name></trkpt>
<trkpt lat="54.580477" lon="-3.256888"><ele>608</ele><time>2024-06-01T12:06:07Z</time><name>PT2274</name></trkpt>
<trkpt lat="54.580442" lon="-3.256867"><ele>607</ele><time>2024-06-01T12:06:10Z</time><name>PT2275</name></trkpt>
<trkpt lat="54.580409" lon="-3.256844"><ele>607</ele><time>2024-06-01T12:06:13Z</time><name>PT2276</name></trkpt>
<trkpt lat="54.580359" lon="-3.256818"><ele>606</ele><time>2024-06-01T12:06:16Z</time><name>PT2277</name></trkpt>
<trkpt lat="54.580317" lon="-3.256807"><ele>606</ele><time>2024-06-01T12:06:21Z</time><name>PT2278</name></trkpt>
<trkpt lat="54.580278" lon="-3.256782"><ele>605</ele><time>2024-06-01T12:06:24Z</time><name>PT2279</name></trkpt>
<trkpt lat="54.580232" lon="-3.256766"><ele>604</ele><time>2024-06-01T12:06:28Z</time><name>PT2280</name></trkpt>
<trkpt lat="54.580185" lon="-3.256762"><ele>603</ele><time>2024-06-01T12:06:31Z</time><name>PT2281</name></trkpt>
<trkpt lat="54.580135" lon="-3.256754"><ele>603</ele><time>2024-06-01T12:06:36Z</time><name>PT2282</name></trkpt>
<trkpt lat="54.580093" lon="-3.256750"><ele>604</ele><time>2024-06-01T12:06:40Z</time><name>PT2283</name></trkpt>
<trkpt lat="54.580061" lon="-3.256741"><ele>604</ele><time>2024-06-01T12:06:43Z</time><name>PT2284</name></trkpt>
<trkpt lat="54.580017" lon="-3.256735"><ele>604</ele><time>2024-06-01T12:06:46Z</time><name>PT2285</name></trkpt>
<trkpt lat="54.579966" lon="-3.256724"><ele>604</ele><time>2024-06-01T12:06:51Z</time><name>PT2286</name></trkpt>
<trkpt lat="54.579929" lon="-3.256724"><ele>604</ele><time>2024-06-01T12:06:54Z</time><name>PT2287</name></trkpt>
<trkpt lat="54.579879" lon="-3.256730"><ele>605</ele><time>2024-06-01T12:06:58Z</time><name>PT2288</name></trkpt>
<trkpt lat="54.579841" lon="-3.256724"><ele>605</ele><time>2024-06-01T12:07:01Z</time><name>PT2289</name></trkpt>
<trkpt lat="54.579803" lon="-3.256724"><ele>604</ele><time>2024-06-01T12:07:04Z</time><name>PT2290</name></trkpt>
<trkpt lat="54.579765" lon="-3.256722"><ele>605</ele><time>2024-06-01T12:07:07Z</time><name>PT2291</name></trkpt>
<trkpt lat="54.579717" lon="-3.256722"><ele>604</ele><time>2024-06-01T12:07:10Z</time><name>PT2292</name></trkpt>
<trkpt lat="54.579666" lon="-3.256737"><ele>604</ele><time>2024-06-01T12:07:15Z</time><name>PT2293</name></trkpt>
<trkpt lat="54.579617" lon="-3.256737"><ele>605</ele><time>2024-06-01T12:07:19Z</time><name>PT2294</name></trkpt>
<trkpt lat="54.579583" lon="-3.256735"><ele>605</ele><time>2024-06-01T12:07:22Z</time><name>PT2295</name></trkpt>
<trkpt lat="54.579534" lon="-3.256739"><ele>606</ele><time>2024-06-01T12:07:25Z</time><name>PT2296</name></trkpt>
<trkpt lat="54.579500" lon="-3.256743"><ele>606</ele><time>2024-06-01T12:07:28Z</time><name>PT2297</name></trkpt>
<trkpt lat="54.579471" lon="-3.256751"><ele>607</ele><time>2024-06-01T12:07:31Z</time><name>PT2298</name></trkpt>
<trkpt lat="54.579430" lon="-3.256748"><ele>607</ele><time>2024-06-01T12:07:36Z</time><name>PT2299</name></trkpt>
<trkpt lat="54.579389" lon="-3.256747"><ele>607</ele><time>2024-06-01T12:07:40Z</time><name>PT2300</name></trkpt>
<trkpt lat="54.579347" lon="-3.256743"><ele>607</ele><time>2024-06-01T12:07:43Z</time><name>PT2301</name></trkpt>
<trkpt lat="54.579306" lon="-3.256750"><ele>607</ele><time>2024-06-01T12:07:48Z</time><name>PT2302</name></trkpt>
<trkpt lat="54.579281" lon="-3.256760"><ele>607</ele><time>2024-06-01T12:07:51Z</time><name>PT2303</name></trkpt>
<trkpt lat="54.579257" lon="-3.256767"><ele>607</ele><time>2024-06-01T12:07:54Z</time><name>PT2304</name></trkpt>
<trkpt lat="54.579221" lon="-3.256785"><ele>608</ele><time>2024-06-01T12:07:58Z</time><name>PT2305</name></trkpt>
<trkpt lat="54.579195" lon="-3.256792"><ele>608</ele><time>2024-06-01T12:08:01Z</time><name>PT2306</name></trkpt>
<trkpt lat="54.579169" lon="-3.256792"><ele>607</ele><time>2024-06-01T12:08:04Z</time><name>PT2307</name></trkpt>
<trkpt lat="54.579144" lon="-3.256771"><ele>607</ele><time>2024-06-01T12:08:07Z</time><name>PT2308</name></trkpt>
<trkpt lat="54.579125" lon="-3.256759"><ele>607</ele><time>2024-06-01T12:08:10Z</time><name>PT2309</name></trkpt>
<trkpt lat="54.579098" lon="-3.256756"><ele>608</ele><time>2024-06-01T12:08:15Z</time><name>PT2310</name></trkpt>
<trkpt lat="54.579080" lon="-3.256761"><ele>609</ele><time>2024-06-01T12:08:18Z</time><name>PT2311</name></trkpt>
<trkpt lat="54.579051" lon="-3.256761"><ele>610</ele><time>2024-06-01T12:08:22Z</time><name>PT2312</name></trkpt>
<trkpt lat="54.579033" lon="-3.256765"><ele>610</ele><time>2024-06-01T12:08:25Z</time><name>PT2313</name></trkpt>
<trkpt lat="54.579007" lon="-3.256787"><ele>611</ele><time>2024-06-01T12:08:28Z</time><name>PT2314</name></trkpt>
<trkpt lat="54.578969" lon="-3.256824"><ele>611</ele><time>2024-06-01T12:08:33Z</time><name>PT2315</name></trkpt>
<trkpt lat="54.578940" lon="-3.256855"><ele>610</ele><time>2024-06-01T12:08:36Z</time><name>PT2316</name></trkpt>
<trkpt lat="54.578917" lon="-3.256878"><ele>611</ele><time>2024-06-01T12:08:39Z</time><name>PT2317</name></trkpt>
<trkpt lat="54.578890" lon="-3.256894"><ele>611</ele><time>2024-06-01T12:08:42Z</time><name>PT2318</name></trkpt>
<trkpt lat="54.578854" lon="-3.256902"><ele>611</ele><time>2024-06-01T12:08:46Z</time><name>PT2319</name></trkpt>
<trkpt lat="54.578830" lon="-3.256899"><ele>612</ele><time>2024-06-01T12:08:49Z</time><name>PT2320</name></trkpt>
<trkpt lat="54.578806" lon="-3.256889"><ele>612</ele><time>2024-06-01T12:08:52Z</time><name>PT2321</name></trkpt>
<trkpt lat="54.578787" lon="-3.256876"><ele>614</ele><time>2024-06-01T12:08:57Z</time><name>PT2322</name></trkpt>
<trkpt lat="54.578773" lon="-3.256872"><ele>615</ele><time>2024-06-01T12:09:00Z</time><name>PT2323</name></trkpt>
<trkpt lat="54.578758" lon="-3.256863"><ele>616</ele><time>2024-06-01T12:09:03Z</time><name>PT2324</name></trkpt>
<trkpt lat="54.578751" lon="-3.256861"><ele>616</ele><time>2024-06-01T12:09:07Z</time><name>PT2325</name></trkpt>
<trkpt lat="54.578739" lon="-3.256861"><ele>616</ele><time>2024-06-01T12:09:10Z</time><name>PT2326</name></trkpt>
<trkpt lat="54.578718" lon="-3.256840"><ele>616</ele><time>2024-06-01T12:09:13Z</time><name>PT2327</name></trkpt>
<trkpt lat="54.578701" lon="-3.256827"><ele>617</ele><time>2024-06-01T12:09:16Z</time><name>PT2328</name></trkpt>
<trkpt lat="54.578689" lon="-3.256815"><ele>618</ele><time>2024-06-01T12:09:19Z</time><name>PT2329</name></trkpt>
<trkpt lat="54.578674" lon="-3.256797"><ele>618</ele><time>2024-06-01T12:09:22Z</time><name>PT2330</name></trkpt>
<trkpt lat="54.578651" lon="-3.256780"><ele>618</ele><time>2024-06-01T12:09:27Z</time><name>PT2331</name></trkpt>
<trkpt lat="54.578638" lon="-3.256764"><ele>619</ele><time>2024-06-01T12:09:30Z</time><name>PT2332</name></trkpt>
<trkpt lat="54.578624" lon="-3.256749"><ele>620</ele><time>2024-06-01T12:09:33Z</time><name>PT2333</name></trkpt>
<trkpt lat="54.578613" lon="-3.256722"><ele>620</ele><time>2024-06-01T12:09:37Z</time><name>PT2334</name></trkpt>
<trkpt lat="54.578611" lon="-3.256715"><ele>620</ele><time>2024-06-01T12:09:40Z</time><name>PT2335</name></trkpt>
<trkpt lat="54.578591" lon="-3.256707"><ele>621</ele><time>2024-06-01T12:09:43Z</time><name>PT2336</name></trkpt>
<trkpt lat="54.578589" lon="-3.256679"><ele>622</ele><time>2024-06-01T12:09:46Z</time><name>PT2337</name></trkpt>
<trkpt lat="54.578574" lon="-3.256667"><ele>623</ele><time>2024-06-01T12:09:51Z</time><name>PT2338</name></trkpt>
<trkpt lat="54.578560" lon="-3.256645"><ele>624</ele><time>2024-06-01T12:09:54Z</time><name>PT2339</name></trkpt>
<trkpt lat="54.578541" lon="-3.256627"><ele>624</ele><time>2024-06-01T12:09:58Z</time><name>PT2340</name></trkpt>
<trkpt lat="54.578515" lon="-3.256615"><ele>625</ele><time>2024-06-01T12:10:01Z</time><name>PT2341</name></trkpt>
<trkpt lat="54.578503" lon="-3.256617"><ele>624</ele><time>2024-06-01T12:10:04Z</time><name>PT2342</name></trkpt>
<trkpt lat="54.578487" lon="-3.256598"><ele>624</ele><time>2024-06-01T12:10:09Z</time><name>PT2343</name></trkpt>
<trkpt lat="54.578474" lon="-3.256584"><ele>626</ele><time>2024-06-01T12:10:12Z</time><name>PT2344</name></trkpt>
<trkpt lat="54.578452" lon="-3.256597"><ele>627</ele><time>2024-06-01T12:10:16Z</time><name>PT2345</name></trkpt>
<trkpt lat="54.578424" lon="-3.256598"><ele>627</ele><time>2024-06-01T12:10:19Z</time><name>PT2346</name></trkpt>
<trkpt lat="54.578395" lon="-3.256586"><ele>627</ele><time>2024-06-01T12:10:24Z</time><name>PT2347</name></trkpt>
<trkpt lat="54.578360" lon="-3.256586"><ele>627</ele><time>2024-06-01T12:10:28Z</time><name>PT2348</name></trkpt>
<trkpt lat="54.578341" lon="-3.256564"><ele>628</ele><time>2024-06-01T12:10:31Z</time><name>PT2349</name></trkpt>
<trkpt lat="54.578319" lon="-3.256542"><ele>628</ele><time>2024-06-01T12:10:34Z</time><name>PT2350</name></trkpt>
<trkpt lat="54.578281" lon="-3.256520"><ele>629</ele><time>2024-06-01T12:10:37Z</time><name>PT2351</name></trkpt>
<trkpt lat="54.578239" lon="-3.256516"><ele>630</ele><time>2024-06-01T12:10:42Z</time><name>PT2352</name></trkpt>
<trkpt lat="54.578207" lon="-3.256541"><ele>630</ele><time>2024-06-01T12:10:45Z</time><name>PT2353</name></trkpt>
<trkpt lat="54.578166" lon="-3.256574"><ele>631</ele><time>2024-06-01T12:10:49Z</time><name>PT2354</name></trkpt>
<trkpt lat="54.578128" lon="-3.256589"><ele>632</ele><time>2024-06-01T12:10:52Z</time><name>PT2355</name></trkpt>
<trkpt lat="54.578104" lon="-3.256611"><ele>634</ele><time>2024-06-01T12:10:55Z</time><name>PT2356</name></trkpt>
<trkpt lat="54.578069" lon="-3.256644"><ele>634</ele><time>2024-06-01T12:11:00Z</time><name>PT2357</name></trkpt>
<trkpt lat="54.578036" lon="-3.256677"><ele>634</ele><time>2024-06-01T12:11:04Z</time><name>PT2358</name></trkpt>
<trkpt lat="54.578012" lon="-3.256702"><ele>633</ele><time>2024-06-01T12:11:07Z</time><name>PT2359</name></trkpt>
<trkpt lat="54.577976" lon="-3.256756"><ele>634</ele><time>2024-06-01T12:11:10Z</time><name>PT2360</name></trkpt>
<trkpt lat="54.577936" lon="-3.256790"><ele>634</ele><time>2024-06-01T12:11:15Z</time><name>PT2361</name></trkpt>
<trkpt lat="54.577903" lon="-3.256822"><ele>633</ele><time>2024-06-01T12:11:18Z</time><name>PT2362</name></trkpt>
<trkpt lat="54.577862" lon="-3.256853"><ele>633</ele><time>2024-06-01T12:11:22Z</time><name>PT2363</name></trkpt>
<trkpt lat="54.577821" lon="-3.256887"><ele>633</ele><time>2024-06-01T12:11:25Z</time><name>PT2364</name></trkpt>
<trkpt lat="54.577795" lon="-3.256925"><ele>633</ele><time>2024-06-01T12:11:28Z</time><name>PT2365</name></trkpt>
<trkpt lat="54.577761" lon="-3.256985"><ele>634</ele><time>2024-06-01T12:11:33Z</time><name>PT2366</name></trkpt>
<trkpt lat="54.577732" lon="-3.257027"><ele>634</ele><time>2024-06-01T12:11:36Z</time><name>PT2367</name></trkpt>
<trkpt lat="54.577707" lon="-3.257064"><ele>635</ele><time>2024-06-01T12:11:39Z</time><name>PT2368</name></trkpt>
<trkpt lat="54.577674" lon="-3.257106"><ele>635</ele><time>2024-06-01T12:11:43Z</time><name>PT2369</name></trkpt>
<trkpt lat="54.577644" lon="-3.257126"><ele>635</ele><time>2024-06-01T12:11:46Z</time><name>PT2370</name></trkpt>
<trkpt lat="54.577621" lon="-3.257158"><ele>636</ele><time>2024-06-01T12:11:49Z</time><name>PT2371</name></trkpt>
<trkpt lat="54.577591" lon="-3.257185"><ele>636</ele><time>2024-06-01T12:11:52Z</time><name>PT2372</name></trkpt>
<trkpt lat="54.577549" lon="-3.257211"><ele>637</ele><time>2024-06-01T12:11:55Z</time><name>PT2373</name></trkpt>
<trkpt lat="54.577507" lon="-3.257249"><ele>637</ele><time>2024-06-01T12:12:00Z</time><name>PT2374</name></trkpt>
<trkpt lat="54.577476" lon="-3.257275"><ele>637</ele><time>2024-06-01T12:12:03Z</time><name>PT2375</name></trkpt>
<trkpt lat="54.577449" lon="-3.257304"><ele>637</ele><time>2024-06-01T12:12:06Z</time><name>PT2376</name></trkpt>
<trkpt lat="54.577413" lon="-3.257347"><ele>638</ele><time>2024-06-01T12:12:10Z</time><name>PT2377</name></trkpt>
<trkpt lat="54.577378" lon="-3.257375"><ele>637</ele><time>2024-06-01T12:12:13Z</time><name>PT2378</name></trkpt>
<trkpt lat="54.577334" lon="-3.257415"><ele>637</ele><time>2024-06-01T12:12:16Z</time><name>PT2379</name></trkpt>
<trkpt lat="54.577300" lon="-3.257469"><ele>637</ele><time>2024-06-01T12:12:21Z</time><name>PT2380</name></trkpt>
<trkpt lat="54.577263" lon="-3.257513"><ele>637</ele><time>2024-06-01T12:12:25Z</time><name>PT2381</name></trkpt>
<trkpt lat="54.577235" lon="-3.257545"><ele>637</ele><time>2024-06-01T12:12:28Z</time><name>PT2382</name></trkpt>
<trkpt lat="54.577210" lon="-3.257583"><ele>637</ele><time>2024-06-01T12:12:31Z</time><name>PT2383</name></trkpt>
<trkpt lat="54.577178" lon="-3.257647"><ele>637</ele><time>2024-06-01T12:12:34Z</time><name>PT2384</name></trkpt>
<trkpt lat="54.577150" lon="-3.257713"><ele>638</ele><time>2024-06-01T12:12:39Z</time><name>PT2385</name></trkpt>
<trkpt lat="54.577117" lon="-3.257747"><ele>638</ele><time>2024-06-01T12:12:42Z</time><name>PT2386</name></trkpt>
<trkpt lat="54.577076" lon="-3.257783"><ele>639</ele><time>2024-06-01T12:12:46Z</time><name>PT2387</name></trkpt>
<trkpt lat="54.577051" lon="-3.257813"><ele>639</ele><time>2024-06-01T12:12:49Z</time><name>PT2388</name></trkpt>
<trkpt lat="54.577015" lon="-3.257852"><ele>640</ele><time>2024-06-01T12:12:52Z</time><name>PT2389</name></trkpt>
<trkpt lat="54.576988" lon="-3.257910"><ele>641</ele><time>2024-06-01T12:12:57Z</time><name>PT2390</name></trkpt>
<trkpt lat="54.576975" lon="-3.257960"><ele>641</ele><time>2024-06-01T12:13:00Z</time><name>PT2391</name></trkpt>
<trkpt lat="54.576948" lon="-3.257998"><ele>641</ele><time>2024-06-01T12:13:04Z</time><name>PT2392</name></trkpt>
<trkpt lat="54.576917" lon="-3.258013"><ele>641</ele><time>2024-06-01T12:13:07Z</time><name>PT2393</name></trkpt>
<trkpt lat="54.576879" lon="-3.258034"><ele>643</ele><time>2024-06-01T12:13:10Z</time><name>PT2394</name></trkpt>
<trkpt lat="54.576839" lon="-3.258050"><ele>643</ele><time>2024-06-01T12:13:15Z</time><name>PT2395</name></trkpt>
<trkpt lat="54.576810" lon="-3.258069"><ele>644</ele><time>2024-06-01T12:13:18Z</time><name>PT2396</name></trkpt>
<trkpt lat="54.576789" lon="-3.258116"><ele>644</ele><time>2024-06-01T12:13:22Z</time><name>PT2397</name></trkpt>
<trkpt lat="54.576767" lon="-3.258148"><ele>645</ele><time>2024-06-01T12:13:25Z</time><name>PT2398</name></trkpt>
<trkpt lat="54.576738" lon="-3.258198"><ele>647</ele><time>2024-06-01T12:13:28Z</time><name>PT2399</name></trkpt>
<trkpt lat="54.576703" lon="-3.258250"><ele>648</ele><time>2024-06-01T12:13:33Z</time><name>PT2400</name></trkpt>
<trkpt lat="54.576666" lon="-3.258278"><ele>648</ele><time>2024-06-01T12:13:37Z</time><name>PT2401</name></trkpt>
<trkpt lat="54.576630" lon="-3.258305"><ele>649</ele><time>2024-06-01T12:13:40Z</time><name>PT2402</name></trkpt>
<trkpt lat="54.576591" lon="-3.258322"><ele>650</ele><time>2024-06-01T12:13:45Z</time><name>PT2403</name></trkpt>
<trkpt lat="54.576553" lon="-3.258338"><ele>650</ele><time>2024-06-01T12:13:49Z</time><name>PT2404</name></trkpt>
<trkpt lat="54.576514" lon="-3.258358"><ele>650</ele><time>2024-06-01T12:13:52Z</time><name>PT2405</name></trkpt>
<trkpt lat="54.576485" lon="-3.258372"><ele>650</ele><time>2024-06-01T12:13:55Z</time><name>PT2406</name></trkpt>
<trkpt lat="54.576445" lon="-3.258388"><ele>650</ele><time>2024-06-01T12:14:00Z</time><name>PT2407</name></trkpt>
<trkpt lat="54.576412" lon="-3.258407"><ele>650</ele><time>2024-06-01T12:14:03Z</time><name>PT2408</name></trkpt>
<trkpt lat="54.576388" lon="-3.258442"><ele>651</ele><time>2024-06-01T12:14:06Z</time><name>PT2409</name></trkpt>
<trkpt lat="54.576355" lon="-3.258471"><ele>651</ele><time>2024-06-01T12:14:10Z</time><name>PT2410</name></trkpt>
<trkpt lat="54.576323" lon="-3.258517"><ele>651</ele><time>2024-06-01T12:14:13Z</time><name>PT2411</name></trkpt>
<trkpt lat="54.576305" lon="-3.258552"><ele>651</ele><time>2024-06-01T12:14:16Z</time><name>PT2412</name></trkpt>
<trkpt lat="54.576272" lon="-3.258584"><ele>652</ele><time>2024-06-01T12:14:21Z</time><name>PT2413</name></trkpt>
<trkpt lat="54.576244" lon="-3.258615"><ele>653</ele><time>2024-06-01T12:14:25Z</time><name>PT2414</name></trkpt>
<trkpt lat="54.576220" lon="-3.258658"><ele>653</ele><time>2024-06-01T12:14:28Z</time><name>PT2415</name></trkpt>
<trkpt lat="54.576198" lon="-3.258679"><ele>654</ele><time>2024-06-01T12:14:31Z</time><name>PT2416</name></trkpt>
<trkpt lat="54.576173" lon="-3.258707"><ele>654</ele><time>2024-06-01T12:14:36Z</time><name>PT2417</name></trkpt>
<trkpt lat="54.576150" lon="-3.258706"><ele>655</ele><time>2024-06-01T12:14:40Z</time><name>PT2418</name></trkpt>
<trkpt lat="54.576133" lon="-3.258694"><ele>656</ele><time>2024-06-01T12:14:43Z</time><name>PT2419</name></trkpt>
<trkpt lat="54.576111" lon="-3.258706"><ele>656</ele><time>2024-06-01T12:14:46Z</time><name>PT2420</name></trkpt>
<trkpt lat="54.576096" lon="-3.258724"><ele>656</ele><time>2024-06-01T12:14:49Z</time><name>PT2421</name></trkpt>
<trkpt lat="54.576079" lon="-3.258754"><ele>657</ele><time>2024-06-01T12:14:52Z</time><name>PT2422</name></trkpt>
<trkpt lat="54.576054" lon="-3.258774"><ele>658</ele><time>2024-06-01T12:14:57Z</time><name>PT2423</name></trkpt>
<trkpt lat="54.576035" lon="-3.258792"><ele>660</ele><time>2024-06-01T12:15:00Z</time><name>PT2424</name></trkpt>
<trkpt lat="54.576010" lon="-3.258830"><ele>660</ele><time>2024-06-01T12:15:04Z</time><name>PT2425</name></trkpt>
<trkpt lat="54.575994" lon="-3.258855"><ele>660</ele><time>2024-06-01T12:15:07Z</time><name>PT2426</name></trkpt>
<trkpt lat="54.575973" lon="-3.258877"><ele>661</ele><time>2024-06-01T12:15:10Z</time><name>PT2427</name></trkpt>
<trkpt lat="54.575945" lon="-3.258872"><ele>661</ele><time>2024-06-01T12:15:13Z</time><name>PT2428</name></trkpt>
<trkpt lat="54.575906" lon="-3.258884"><ele>661</ele><time>2024-06-01T12:15:16Z</time><name>PT2429</name></trkpt>
<trkpt lat="54.575871" lon="-3.258901"><ele>661</ele><time>2024-06-01T12:15:21Z</time><name>PT2430</name></trkpt>
<trkpt lat="54.575847" lon="-3.258908"><ele>661</ele><time>2024-06-01T12:15:24Z</time><name>PT2431</name></trkpt>
<trkpt lat="54.575822" lon="-3.258906"><ele>660</ele><time>2024-06-01T12:15:28Z</time><name>PT2432</name></trkpt>
<trkpt lat="54.575807" lon="-3.258908"><ele>661</ele><time>2024-06-01T12:15:31Z</time><name>PT2433</name></trkpt>
<trkpt lat="54.575776" lon="-3.258935"><ele>661</ele><time>2024-06-01T12:15:34Z</time><name>PT2434</name></trkpt>
<trkpt lat="54.575748" lon="-3.258954"><ele>663</ele><time>2024-06-01T12:15:39Z</time><name>PT2435</name></trkpt>
<trkpt lat="54.575733" lon="-3.258928"><ele>663</ele><time>2024-06-01T12:15:43Z</time><name>PT2436</name></trkpt>
<trkpt lat="54.575721" lon="-3.258925"><ele>664</ele><time>2024-06-01T12:15:46Z</time><name>PT2437</name></trkpt>
<trkpt lat="54.575672" lon="-3.258977"><ele>665</ele><time>2024-06-01T12:15:51Z</time><name>PT2438</name></trkpt>
<trkpt lat="54.575620" lon="-3.259004"><ele>666</ele><time>2024-06-01T12:15:55Z</time><name>PT2439</name></trkpt>
<trkpt lat="54.575588" lon="-3.259031"><ele>667</ele><time>2024-06-01T12:15:58Z</time><name>PT2440</name></trkpt>
<trkpt lat="54.575550" lon="-3.259057"><ele>667</ele><time>2024-06-01T12:16:01Z</time><name>PT2441</name></trkpt>
<trkpt lat="54.575519" lon="-3.259072"><ele>668</ele><time>2024-06-01T12:16:04Z</time><name>PT2442</name></trkpt>
<trkpt lat="54.575494" lon="-3.259087"><ele>669</ele><time>2024-06-01T12:16:07Z</time><name>PT2443</name></trkpt>
<trkpt lat="54.575463" lon="-3.259108"><ele>669</ele><time>2024-06-01T12:16:10Z</time><name>PT2444</name></trkpt>
<trkpt lat="54.575422" lon="-3.259144"><ele>668</ele><time>2024-06-01T12:16:15Z</time><name>PT2445</name></trkpt>
<trkpt lat="54.575377" lon="-3.259174"><ele>669</ele><time>2024-06-01T12:16:19Z</time><name>PT2446</name></trkpt>
<trkpt lat="54.575345" lon="-3.259196"><ele>669</ele><time>2024-06-01T12:16:22Z</time><name>PT2447</name></trkpt>
<trkpt lat="54.575316" lon="-3.259219"><ele>668</ele><time>2024-06-01T12:16:25Z</time><name>PT2448</name></trkpt>
<trkpt lat="54.575285" lon="-3.259231"><ele>669</ele><time>2024-06-01T12:16:28Z</time><name>PT2449</name></trkpt>
<trkpt lat="54.575244" lon="-3.259248"><ele>670</ele><time>2024-06-01T12:16:31Z</time><name>PT2450</name></trkpt>
<trkpt lat="54.575216" lon="-3.259257"><ele>671</ele><time>2024-06-01T12:16:34Z</time><name>PT2451</name></trkpt>
<trkpt lat="54.575180" lon="-3.259268"><ele>672</ele><time>2024-06-01T12:16:39Z</time><name>PT2452</name></trkpt>
<trkpt lat="54.575157" lon="-3.259279"><ele>672</ele><time>2024-06-01T12:16:42Z</time><name>PT2453</name></trkpt>
<trkpt lat="54.575126" lon="-3.259290"><ele>671</ele><time>2024-06-01T12:16:46Z</time><name>PT2454</name></trkpt>
<trkpt lat="54.575098" lon="-3.259291"><ele>672</ele><time>2024-06-01T12:16:49Z</time><name>PT2455</name></trkpt>
<trkpt lat="54.575069" lon="-3.259290"><ele>672</ele><time>2024-06-01T12:16:52Z</time><name>PT2456</name></trkpt>
<trkpt lat="54.575044" lon="-3.259295"><ele>673</ele><time>2024-06-01T12:16:55Z</time><name>PT2457</name></trkpt>
<trkpt lat="54.575003" lon="-3.259317"><ele>675</ele><time>2024-06-01T12:16:58Z</time><name>PT2458</name></trkpt>
<trkpt lat="54.574968" lon="-3.259339"><ele>676</ele><time>2024-06-01T12:17:01Z</time><name>PT2459</name></trkpt>
<trkpt lat="54.574931" lon="-3.259369"><ele>677</ele><time>2024-06-01T12:17:06Z</time><name>PT2460</name></trkpt>
<trkpt lat="54.574900" lon="-3.259387"><ele>678</ele><time>2024-06-01T12:17:09Z</time><name>PT2461</name></trkpt>
<trkpt lat="54.574869" lon="-3.259406"><ele>678</ele><time>2024-06-01T12:17:12Z</time><name>PT2462</name></trkpt>
<trkpt lat="54.574830" lon="-3.259429"><ele>679</ele><time>2024-06-01T12:17:16Z</time><name>PT2463</name></trkpt>
<trkpt lat="54.574796" lon="-3.259445"><ele>678</ele><time>2024-06-01T12:17:19Z</time><name>PT2464</name></trkpt>
<trkpt lat="54.574750" lon="-3.259470"><ele>679</ele><time>2024-06-01T12:17:22Z</time><name>PT2465</name></trkpt>
<trkpt lat="54.574716" lon="-3.259482"><ele>680</ele><time>2024-06-01T12:17:25Z</time><name>PT2466</name></trkpt>
<trkpt lat="54.574680" lon="-3.259509"><ele>680</ele><time>2024-06-01T12:17:30Z</time><name>PT2467</name></trkpt>
<trkpt lat="54.574635" lon="-3.259537"><ele>681</ele><time>2024-06-01T12:17:34Z</time><name>PT2468</name></trkpt>
<trkpt lat="54.574601" lon="-3.259543"><ele>681</ele><time>2024-06-01T12:17:37Z</time><name>PT2469</name></trkpt>
<trkpt lat="54.574556" lon="-3.259548"><ele>682</ele><time>2024-06-01T12:17:40Z</time><name>PT2470</name></trkpt>
<trkpt lat="54.574522" lon="-3.259555"><ele>683</ele><time>2024-06-01T12:17:44Z</time><name>PT2471</name></trkpt>
<trkpt lat="54.574478" lon="-3.259566"><ele>683</ele><time>2024-06-01T12:17:48Z</time><name>PT2472</name></trkpt>
<trkpt lat="54.574433" lon="-3.259570"><ele>684</ele><time>2024-06-01T12:17:52Z</time><name>PT2473</name></trkpt>
<trkpt lat="54.574401" lon="-3.259577"><ele>685</ele><time>2024-06-01T12:17:55Z</time><name>PT2474</name></trkpt>
<trkpt lat="54.574375" lon="-3.259591"><ele>685</ele><time>2024-06-01T12:17:58Z</time><name>PT2475</name></trkpt>
<trkpt lat="54.574336" lon="-3.259610"><ele>685</ele><time>2024-06-01T12:18:01Z</time><name>PT2476</name></trkpt>
<trkpt lat="54.574300" lon="-3.259615"><ele>686</ele><time>2024-06-01T12:18:04Z</time><name>PT2477</name></trkpt>
<trkpt lat="54.574273" lon="-3.259617"><ele>685</ele><time>2024-06-01T12:18:07Z</time><name>PT2478</name></trkpt>
<trkpt lat="54.574225" lon="-3.259627"><ele>686</ele><time>2024-06-01T12:18:12Z</time><name>PT2479</name></trkpt>
<trkpt lat="54.574181" lon="-3.259630"><ele>687</ele><time>2024-06-01T12:18:16Z</time><name>PT2480</name></trkpt>
<trkpt lat="54.574150" lon="-3.259643"><ele>688</ele><time>2024-06-01T12:18:19Z</time><name>PT2481</name></trkpt>
<trkpt lat="54.574116" lon="-3.259652"><ele>688</ele><time>2024-06-01T12:18:22Z</time><name>PT2482</name></trkpt>
<trkpt lat="54.574076" lon="-3.259662"><ele>688</ele><time>2024-06-01T12:18:25Z</time><name>PT2483</name></trkpt>
<trkpt lat="54.574051" lon="-3.259684"><ele>688</ele><time>2024-06-01T12:18:28Z</time><name>PT2484</name></trkpt>
<trkpt lat="54.573999" lon="-3.259701"><ele>690</ele><time>2024-06-01T12:18:33Z</time><name>PT2485</name></trkpt>
<trkpt lat="54.573967" lon="-3.259714"><ele>690</ele><time>2024-06-01T12:18:36Z</time><name>PT2486</name></trkpt>
<trkpt lat="54.573917" lon="-3.259721"><ele>691</ele><time>2024-06-01T12:18:40Z</time><name>PT2487</name></trkpt>
<trkpt lat="54.573881" lon="-3.259721"><ele>691</ele><time>2024-06-01T12:18:43Z</time><name>PT2488</name></trkpt>
<trkpt lat="54.573845" lon="-3.259716"><ele>691</ele><time>2024-06-01T12:18:46Z</time><name>PT2489</name></trkpt>
<trkpt lat="54.573807" lon="-3.259721"><ele>691</ele><time>2024-06-01T12:18:49Z</time><name>PT2490</name></trkpt>
<trkpt lat="54.573753" lon="-3.259733"><ele>692</ele><time>2024-06-01T12:18:52Z</time><name>PT2491</name></trkpt>
<trkpt lat="54.573713" lon="-3.259747"><ele>692</ele><time>2024-06-01T12:18:55Z</time><name>PT2492</name></trkpt>
<trkpt lat="54.573695" lon="-3.259743"><ele>692</ele><time>2024-06-01T12:19:00Z</time><name>PT2493</name></trkpt>
<trkpt lat="54.573695" lon="-3.259741"><ele>692</ele><time>2024-06-01T12:19:04Z</time><name>PT2494</name></trkpt>
<trkpt lat="54.573681" lon="-3.259750"><ele>692</ele><time>2024-06-01T12:19:07Z</time><name>PT2495</name></trkpt>
<trkpt lat="54.573653" lon="-3.259767"><ele>693</ele><time>2024-06-01T12:19:10Z</time><name>PT2496</name></trkpt>
<trkpt lat="54.573626" lon="-3.259780"><ele>693</ele><time>2024-06-01T12:19:13Z</time><name>PT2497</name></trkpt>
<trkpt lat="54.573585" lon="-3.259800"><ele>693</ele><time>2024-06-01T12:19:18Z</time><name>PT2498</name></trkpt>
<trkpt lat="54.573552" lon="-3.259817"><ele>693</ele><time>2024-06-01T12:19:21Z</time><name>PT2499</name></trkpt>
<trkpt lat="54.573505" lon="-3.259820"><ele>692</ele><time>2024-06-01T12:19:25Z</time><name>PT2500</name></trkpt>
<trkpt lat="54.573457" lon="-3.259819"><ele>693</ele><time>2024-06-01T12:19:28Z</time><name>PT2501</name></trkpt>
<trkpt lat="54.573409" lon="-3.259814"><ele>693</ele><time>2024-06-01T12:19:33Z</time><name>PT2502</name></trkpt>
<trkpt lat="54.573370" lon="-3.259824"><ele>691</ele><time>2024-06-01T12:19:36Z</time><name>PT2503</name></trkpt>
<trkpt lat="54.573333" lon="-3.259844"><ele>692</ele><time>2024-06-01T12:19:39Z</time><name>PT2504</name></trkpt>
<trkpt lat="54.573288" lon="-3.259860"><ele>692</ele><time>2024-06-01T12:19:43Z</time><name>PT2505</name></trkpt>
<trkpt lat="54.573242" lon="-3.259869"><ele>693</ele><time>2024-06-01T12:19:46Z</time><name>PT2506</name></trkpt>
<trkpt lat="54.573207" lon="-3.259851"><ele>693</ele><time>2024-06-01T12:19:51Z</time><name>PT2507</name></trkpt>
<trkpt lat="54.573209" lon="-3.259847"><ele>693</ele><time>2024-06-01T12:19:55Z</time><name>PT2508</name></trkpt>
<trkpt lat="54.573193" lon="-3.259845"><ele>693</ele><time>2024-06-01T12:19:58Z</time><name>PT2509</name></trkpt>
<trkpt lat="54.573193" lon="-3.259842"><ele>693</ele><time>2024-06-01T12:20:01Z</time><name>PT2510</name></trkpt>
<trkpt lat="54.573190" lon="-3.259838"><ele>693</ele><time>2024-06-01T12:20:04Z</time><name>PT2511</name></trkpt>
<trkpt lat="54.573187" lon="-3.259839"><ele>693</ele><time>2024-06-01T12:20:07Z</time><name>PT2512</name></trkpt>
<trkpt lat="54.573166" lon="-3.259865"><ele>696</ele><time>2024-06-01T12:20:12Z</time><name>PT2513</name></trkpt>
<trkpt lat="54.573172" lon="-3.259861"><ele>696</ele><time>2024-06-01T12:20:16Z</time><name>PT2514</name></trkpt>
<trkpt lat="54.573152" lon="-3.259853"><ele>695</ele><time>2024-06-01T12:20:22Z</time><name>PT2515</name></trkpt>
<trkpt lat="54.573105" lon="-3.259834"><ele>696</ele><time>2024-06-01T12:20:27Z</time><name>PT2516</name></trkpt>
<trkpt lat="54.573089" lon="-3.259831"><ele>696</ele><time>2024-06-01T12:20:30Z</time><name>PT2517</name></trkpt>
<trkpt lat="54.573095" lon="-3.259833"><ele>696</ele><time>2024-06-01T12:20:34Z</time><name>PT2518</name></trkpt>
<trkpt lat="54.573069" lon="-3.259842"><ele>696</ele><time>2024-06-01T12:20:37Z</time><name>PT2519</name></trkpt>
<trkpt lat="54.573022" lon="-3.259841"><ele>697</ele><time>2024-06-01T12:20:40Z</time><name>PT2520</name></trkpt>
<trkpt lat="54.572984" lon="-3.259839"><ele>697</ele><time>2024-06-01T12:20:43Z</time><name>PT2521</name></trkpt>
<trkpt lat="54.572941" lon="-3.259854"><ele>698</ele><time>2024-06-01T12:20:48Z</time><name>PT2522</name></trkpt>
<trkpt lat="54.572901" lon="-3.259870"><ele>698</ele><time>2024-06-01T12:20:52Z</time><name>PT2523</name></trkpt>
<trkpt lat="54.572868" lon="-3.259870"><ele>698</ele><time>2024-06-01T12:20:55Z</time><name>PT2524</name></trkpt>
<trkpt lat="54.572825" lon="-3.259880"><ele>698</ele><time>2024-06-01T12:20:58Z</time><name>PT2525</name></trkpt>
<trkpt lat="54.572783" lon="-3.259877"><ele>698</ele><time>2024-06-01T12:21:01Z</time><name>PT2526</name></trkpt>
<trkpt lat="54.572745" lon="-3.259884"><ele>698</ele><time>2024-06-01T12:21:04Z</time><name>PT2527</name></trkpt>
<trkpt lat="54.572714" lon="-3.259877"><ele>698</ele><time>2024-06-01T12:21:07Z</time><name>PT2528</name></trkpt>
<trkpt lat="54.572669" lon="-3.259874"><ele>699</ele><time>2024-06-01T12:21:12Z</time><name>PT2529</name></trkpt>
<trkpt lat="54.572633" lon="-3.259873"><ele>700</ele><time>2024-06-01T12:21:15Z</time><name>PT2530</name></trkpt>
<trkpt lat="54.572600" lon="-3.259878"><ele>700</ele><time>2024-06-01T12:21:18Z</time><name>PT2531</name></trkpt>
<trkpt lat="54.572551" lon="-3.259875"><ele>700</ele><time>2024-06-01T12:21:22Z</time><name>PT2532</name></trkpt>
<trkpt lat="54.572509" lon="-3.259858"><ele>700</ele><time>2024-06-01T12:21:25Z</time><name>PT2533</name></trkpt>
<trkpt lat="54.572465" lon="-3.259853"><ele>700</ele><time>2024-06-01T12:21:28Z</time><name>PT2534</name></trkpt>
<trkpt lat="54.572429" lon="-3.259849"><ele>700</ele><time>2024-06-01T12:21:31Z</time><name>PT2535</name></trkpt>
<trkpt lat="54.572382" lon="-3.259858"><ele>700</ele><time>2024-06-01T12:21:36Z</time><name>PT2536</name></trkpt>
<trkpt lat="54.572327" lon="-3.259872"><ele>700</ele><time>2024-06-01T12:21:40Z</time><name>PT2537</name></trkpt>
<trkpt lat="54.572294" lon="-3.259885"><ele>700</ele><time>2024-06-01T12:21:43Z</time><name>PT2538</name></trkpt>
<trkpt lat="54.572243" lon="-3.259885"><ele>700</ele><time>2024-06-01T12:21:46Z</time><name>PT2539</name></trkpt>
<trkpt lat="54.572205" lon="-3.259876"><ele>700</ele><time>2024-06-01T12:21:51Z</time><name>PT2540</name></trkpt>
<trkpt lat="54.572171" lon="-3.259884"><ele>701</ele><time>2024-06-01T12:21:54Z</time><name>PT2541</name></trkpt>
<trkpt lat="54.572138" lon="-3.259893"><ele>701</ele><time>2024-06-01T12:21:57Z</time><name>PT2542</name></trkpt>
<trkpt lat="54.572092" lon="-3.259888"><ele>702</ele><time>2024-06-01T12:22:01Z</time><name>PT2543</name></trkpt>
<trkpt lat="54.572061" lon="-3.259887"><ele>702</ele><time>2024-06-01T12:22:04Z</time><name>PT2544</name></trkpt>
<trkpt lat="54.572017" lon="-3.259897"><ele>701</ele><time>2024-06-01T12:22:07Z</time><name>PT2545</name></trkpt>
<trkpt lat="54.571985" lon="-3.259920"><ele>702</ele><time>2024-06-01T12:22:10Z</time><name>PT2546</name></trkpt>
<trkpt lat="54.571933" lon="-3.259946"><ele>703</ele><time>2024-06-01T12:22:15Z</time><name>PT2547</name></trkpt>
<trkpt lat="54.571889" lon="-3.259927"><ele>702</ele><time>2024-06-01T12:22:19Z</time><name>PT2548</name></trkpt>
<trkpt lat="54.571838" lon="-3.259906"><ele>702</ele><time>2024-06-01T12:22:22Z</time><name>PT2549</name></trkpt>
<trkpt lat="54.571792" lon="-3.259904"><ele>702</ele><time>2024-06-01T12:22:27Z</time><name>PT2550</name></trkpt>
<trkpt lat="54.571747" lon="-3.259921"><ele>703</ele><time>2024-06-01T12:22:31Z</time><name>PT2551</name></trkpt>
<trkpt lat="54.571714" lon="-3.259937"><ele>703</ele><time>2024-06-01T12:22:34Z</time><name>PT2552</name></trkpt>
<trkpt lat="54.571669" lon="-3.259959"><ele>703</ele><time>2024-06-01T12:22:37Z</time><name>PT2553</name></trkpt>
<trkpt lat="54.571620" lon="-3.259963"><ele>703</ele><time>2024-06-01T12:22:42Z</time><name>PT2554</name></trkpt>
<trkpt lat="54.571578" lon="-3.259982"><ele>704</ele><time>2024-06-01T12:22:46Z</time><name>PT2555</name></trkpt>
<trkpt lat="54.571545" lon="-3.259996"><ele>704</ele><time>2024-06-01T12:22:49Z</time><name>PT2556</name></trkpt>
<trkpt lat="54.571498" lon="-3.260012"><ele>705</ele><time>2024-06-01T12:22:52Z</time><name>PT2557</name></trkpt>
<trkpt lat="54.571466" lon="-3.260017"><ele>705</ele><time>2024-06-01T12:22:55Z</time><name>PT2558</name></trkpt>
<trkpt lat="54.571422" lon="-3.260019"><ele>705</ele><time>2024-06-01T12:23:00Z</time><name>PT2559</name></trkpt>
<trkpt lat="54.571375" lon="-3.260023"><ele>706</ele><time>2024-06-01T12:23:04Z</time><name>PT2560</name></trkpt>
<trkpt lat="54.571334" lon="-3.260022"><ele>707</ele><time>2024-06-01T12:23:07Z</time><name>PT2561</name></trkpt>
<trkpt lat="54.571287" lon="-3.260034"><ele>708</ele><time>2024-06-01T12:23:10Z</time><name>PT2562</name></trkpt>
<trkpt lat="54.571239" lon="-3.260033"><ele>708</ele><time>2024-06-01T12:23:15Z</time><name>PT2563</name></trkpt>
<trkpt lat="54.571208" lon="-3.260040"><ele>709</ele><time>2024-06-01T12:23:18Z</time><name>PT2564</name></trkpt>
<trkpt lat="54.571160" lon="-3.260045"><ele>710</ele><time>2024-06-01T12:23:22Z</time><name>PT2565</name></trkpt>
<trkpt lat="54.571129" lon="-3.260064"><ele>710</ele><time>2024-06-01T12:23:25Z</time><name>PT2566</name></trkpt>
<trkpt lat="54.571084" lon="-3.260079"><ele>709</ele><time>2024-06-01T12:23:28Z</time><name>PT2567</name></trkpt>
<trkpt lat="54.571041" lon="-3.260077"><ele>710</ele><time>2024-06-01T12:23:33Z</time><name>PT2568</name></trkpt>
<trkpt lat="54.571013" lon="-3.260082"><ele>711</ele><time>2024-06-01T12:23:36Z</time><name>PT2569</name></trkpt>
<trkpt lat="54.570972" lon="-3.260096"><ele>711</ele><time>2024-06-01T12:23:40Z</time><name>PT2570</name></trkpt>
<trkpt lat="54.570933" lon="-3.260103"><ele>712</ele><time>2024-06-01T12:23:43Z</time><name>PT2571</name></trkpt>
<trkpt lat="54.570886" lon="-3.260113"><ele>714</ele><time>2024-06-01T12:23:48Z</time><name>PT2572</name></trkpt>
<trkpt lat="54.570845" lon="-3.260120"><ele>714</ele><time>2024-06-01T12:23:52Z</time><name>PT2573</name></trkpt>
<trkpt lat="54.570805" lon="-3.260127"><ele>715</ele><time>2024-06-01T12:23:55Z</time><name>PT2574</name></trkpt>
<trkpt lat="54.570778" lon="-3.260133"><ele>716</ele><time>2024-06-01T12:23:58Z</time><name>PT2575</name></trkpt>
<trkpt lat="54.570746" lon="-3.260163"><ele>716</ele><time>2024-06-01T12:24:03Z</time><name>PT2576</name></trkpt>
<trkpt lat="54.570719" lon="-3.260199"><ele>717</ele><time>2024-06-01T12:24:07Z</time><name>PT2577</name></trkpt>
<trkpt lat="54.570689" lon="-3.260236"><ele>718</ele><time>2024-06-01T12:24:10Z</time><name>PT2578</name></trkpt>
<trkpt lat="54.570652" lon="-3.260246"><ele>719</ele><time>2024-06-01T12:24:15Z</time><name>PT2579</name></trkpt>
<trkpt lat="54.570616" lon="-3.260245"><ele>720</ele><time>2024-06-01T12:24:19Z</time><name>PT2580</name></trkpt>
<trkpt lat="54.570577" lon="-3.260247"><ele>720</ele><time>2024-06-01T12:24:23Z</time><name>PT2581</name></trkpt>
<trkpt lat="54.570535" lon="-3.260269"><ele>721</ele><time>2024-06-01T12:24:27Z</time><name>PT2582</name></trkpt>
<trkpt lat="54.570508" lon="-3.260288"><ele>721</ele><time>2024-06-01T12:24:30Z</time><name>PT2583</name></trkpt>
<trkpt lat="54.570479" lon="-3.260322"><ele>722</ele><time>2024-06-01T12:24:34Z</time><name>PT2584</name></trkpt>
<trkpt lat="54.570453" lon="-3.260350"><ele>722</ele><time>2024-06-01T12:24:37Z</time><name>PT2585</name></trkpt>
<trkpt lat="54.570426" lon="-3.260373"><ele>722</ele><time>2024-06-01T12:24:40Z</time><name>PT2586</name></trkpt>
<trkpt lat="54.570386" lon="-3.260396"><ele>722</ele><time>2024-06-01T12:24:43Z</time><name>PT2587</name></trkpt>
<trkpt lat="54.570353" lon="-3.260414"><ele>722</ele><time>2024-06-01T12:24:46Z</time><name>PT2588</name></trkpt>
<trkpt lat="54.570307" lon="-3.260429"><ele>721</ele><time>2024-06-01T12:24:51Z</time><name>PT2589</name></trkpt>
<trkpt lat="54.570271" lon="-3.260443"><ele>721</ele><time>2024-06-01T12:24:54Z</time><name>PT2590</name></trkpt>
<trkpt lat="54.570224" lon="-3.260442"><ele>722</ele><time>2024-06-01T12:24:58Z</time><name>PT2591</name></trkpt>
<trkpt lat="54.570190" lon="-3.260440"><ele>722</ele><time>2024-06-01T12:25:01Z</time><name>PT2592</name></trkpt>
<trkpt lat="54.570174" lon="-3.260443"><ele>722</ele><time>2024-06-01T12:25:04Z</time><name>PT2593</name></trkpt>
<trkpt lat="54.570173" lon="-3.260445"><ele>722</ele><time>2024-06-01T12:25:09Z</time><name>PT2594</name></trkpt>
<trkpt lat="54.570175" lon="-3.260451"><ele>722</ele><time>2024-06-01T12:25:25Z</time><name>PT2595</name></trkpt>
<trkpt lat="54.570178" lon="-3.260447"><ele>723</ele><time>2024-06-01T12:25:28Z</time><name>PT2596</name></trkpt>
<trkpt lat="54.570177" lon="-3.260448"><ele>722</ele><time>2024-06-01T12:25:37Z</time><name>PT2597</name></trkpt>
<trkpt lat="54.570176" lon="-3.260447"><ele>723</ele><time>2024-06-01T12:26:04Z</time><name>PT2598</name></trkpt>
<trkpt lat="54.570176" lon="-3.260450"><ele>723</ele><time>2024-06-01T12:26:09Z</time><name>PT2599</name></trkpt>
<trkpt lat="54.570163" lon="-3.260423"><ele>723</ele><time>2024-06-01T12:27:06Z</time><name>PT2600</name></trkpt>
<trkpt lat="54.570154" lon="-3.260365"><ele>722</ele><time>2024-06-01T12:27:10Z</time><name>PT2601</name></trkpt>
<trkpt lat="54.570145" lon="-3.260326"><ele>722</ele><time>2024-06-01T12:27:13Z</time><name>PT2602</name></trkpt>
<trkpt lat="54.570135" lon="-3.260264"><ele>722</ele><time>2024-06-01T12:27:16Z</time><name>PT2603</name></trkpt>
<trkpt lat="54.570128" lon="-3.260213"><ele>723</ele><time>2024-06-01T12:27:19Z</time><name>PT2604</name></trkpt>
<trkpt lat="54.570125" lon="-3.260159"><ele>723</ele><time>2024-06-01T12:27:22Z</time><name>PT2605</name></trkpt>
<trkpt lat="54.570113" lon="-3.260089"><ele>724</ele><time>2024-06-01T12:27:27Z</time><name>PT2606</name></trkpt>
<trkpt lat="54.570103" lon="-3.260021"><ele>724</ele><time>2024-06-01T12:27:31Z</time><name>PT2607</name></trkpt>
<trkpt lat="54.570090" lon="-3.259953"><ele>725</ele><time>2024-06-01T12:27:34Z</time><name>PT2608</name></trkpt>
<trkpt lat="54.570077" lon="-3.259878"><ele>726</ele><time>2024-06-01T12:27:39Z</time><name>PT2609</name></trkpt>
<trkpt lat="54.570064" lon="-3.259812"><ele>727</ele><time>2024-06-01T12:27:43Z</time><name>PT2610</name></trkpt>
<trkpt lat="54.570052" lon="-3.259764"><ele>727</ele><time>2024-06-01T12:27:46Z</time><name>PT2611</name></trkpt>
<trkpt lat="54.570045" lon="-3.259716"><ele>727</ele><time>2024-06-01T12:27:49Z</time><name>PT2612</name></trkpt>
<trkpt lat="54.570047" lon="-3.259654"><ele>727</ele><time>2024-06-01T12:27:52Z</time><name>PT2613</name></trkpt>
<trkpt lat="54.570047" lon="-3.259583"><ele>729</ele><time>2024-06-01T12:27:57Z</time><name>PT2614</name></trkpt>
<trkpt lat="54.570047" lon="-3.259524"><ele>729</ele><time>2024-06-01T12:28:00Z</time><name>PT2615</name></trkpt>
<trkpt lat="54.570033" lon="-3.259457"><ele>728</ele><time>2024-06-01T12:28:04Z</time><name>PT2616</name></trkpt>
<trkpt lat="54.570034" lon="-3.259444"><ele>728</ele><time>2024-06-01T12:28:07Z</time><name>PT2617</name></trkpt>
<trkpt lat="54.570036" lon="-3.259442"><ele>728</ele><time>2024-06-01T12:28:10Z</time><name>PT2618</name></trkpt>
<trkpt lat="54.570033" lon="-3.259415"><ele>729</ele><time>2024-06-01T12:28:19Z</time><name>PT2619</name></trkpt>
<trkpt lat="54.570023" lon="-3.259346"><ele>730</ele><time>2024-06-01T12:28:22Z</time><name>PT2620</name></trkpt>
<trkpt lat="54.570023" lon="-3.259288"><ele>730</ele><time>2024-06-01T12:28:25Z</time><name>PT2621</name></trkpt>
<trkpt lat="54.570037" lon="-3.259251"><ele>730</ele><time>2024-06-01T12:28:28Z</time><name>PT2622</name></trkpt>
<trkpt lat="54.570041" lon="-3.259177"><ele>730</ele><time>2024-06-01T12:28:33Z</time><name>PT2623</name></trkpt>
<trkpt lat="54.570053" lon="-3.259123"><ele>731</ele><time>2024-06-01T12:28:37Z</time><name>PT2624</name></trkpt>
<trkpt lat="54.570053" lon="-3.259073"><ele>731</ele><time>2024-06-01T12:28:40Z</time><name>PT2625</name></trkpt>
<trkpt lat="54.570052" lon="-3.259004"><ele>731</ele><time>2024-06-01T12:28:43Z</time><name>PT2626</name></trkpt>
<trkpt lat="54.570049" lon="-3.258932"><ele>732</ele><time>2024-06-01T12:28:48Z</time><name>PT2627</name></trkpt>
<trkpt lat="54.570050" lon="-3.258882"><ele>734</ele><time>2024-06-01T12:28:51Z</time><name>PT2628</name></trkpt>
<trkpt lat="54.570052" lon="-3.258832"><ele>735</ele><time>2024-06-01T12:28:54Z</time><name>PT2629</name></trkpt>
<trkpt lat="54.570059" lon="-3.258764"><ele>735</ele><time>2024-06-01T12:28:58Z</time><name>PT2630</name></trkpt>
<trkpt lat="54.570068" lon="-3.258698"><ele>734</ele><time>2024-06-01T12:29:01Z</time><name>PT2631</name></trkpt>
<trkpt lat="54.570083" lon="-3.258633"><ele>735</ele><time>2024-06-01T12:29:06Z</time><name>PT2632</name></trkpt>
<trkpt lat="54.570088" lon="-3.258568"><ele>735</ele><time>2024-06-01T12:29:10Z</time><name>PT2633</name></trkpt>
<trkpt lat="54.570083" lon="-3.258504"><ele>737</ele><time>2024-06-01T12:29:13Z</time><name>PT2634</name></trkpt>
<trkpt lat="54.570086" lon="-3.258438"><ele>737</ele><time>2024-06-01T12:29:18Z</time><name>PT2635</name></trkpt>
<trkpt lat="54.570105" lon="-3.258382"><ele>736</ele><time>2024-06-01T12:29:22Z</time><name>PT2636</name></trkpt>
<trkpt lat="54.570121" lon="-3.258332"><ele>737</ele><time>2024-06-01T12:29:25Z</time><name>PT2637</name></trkpt>
<trkpt lat="54.570134" lon="-3.258291"><ele>737</ele><time>2024-06-01T12:29:28Z</time><name>PT2638</name></trkpt>
<trkpt lat="54.570144" lon="-3.258233"><ele>739</ele><time>2024-06-01T12:29:33Z</time><name>PT2639</name></trkpt>
<trkpt lat="54.570145" lon="-3.258177"><ele>739</ele><time>2024-06-01T12:29:37Z</time><name>PT2640</name></trkpt>
<trkpt lat="54.570143" lon="-3.258132"><ele>740</ele><time>2024-06-01T12:29:40Z</time><name>PT2641</name></trkpt>
<trkpt lat="54.570144" lon="-3.258089"><ele>740</ele><time>2024-06-01T12:29:43Z</time><name>PT2642</name></trkpt>
<trkpt lat="54.570145" lon="-3.258028"><ele>740</ele><time>2024-06-01T12:29:46Z</time><name>PT2643</name></trkpt>
<trkpt lat="54.570153" lon="-3.257970"><ele>741</ele><time>2024-06-01T12:29:51Z</time><name>PT2644</name></trkpt>
<trkpt lat="54.570159" lon="-3.257937"><ele>741</ele><time>2024-06-01T12:29:54Z</time><name>PT2645</name></trkpt>
<trkpt lat="54.570160" lon="-3.257879"><ele>742</ele><time>2024-06-01T12:29:58Z</time><name>PT2646</name></trkpt>
<trkpt lat="54.570163" lon="-3.257815"><ele>743</ele><time>2024-06-01T12:30:01Z</time><name>PT2647</name></trkpt>
<trkpt lat="54.570171" lon="-3.257749"><ele>744</ele><time>2024-06-01T12:30:06Z</time><name>PT2648</name></trkpt>
<trkpt lat="54.570182" lon="-3.257715"><ele>744</ele><time>2024-06-01T12:30:09Z</time><name>PT2649</name></trkpt>
<trkpt lat="54.570188" lon="-3.257715"><ele>744</ele><time>2024-06-01T12:30:13Z</time><name>PT2650</name></trkpt>
<trkpt lat="54.570197" lon="-3.257667"><ele>744</ele><time>2024-06-01T12:30:21Z</time><name>PT2651</name></trkpt>
<trkpt lat="54.570217" lon="-3.257611"><ele>744</ele><time>2024-06-01T12:30:25Z</time><name>PT2652</name></trkpt>
<trkpt lat="54.570245" lon="-3.257565"><ele>744</ele><time>2024-06-01T12:30:28Z</time><name>PT2653</name></trkpt>
<trkpt lat="54.570269" lon="-3.257513"><ele>745</ele><time>2024-06-01T12:30:33Z</time><name>PT2654</name></trkpt>
<trkpt lat="54.570290" lon="-3.257455"><ele>746</ele><time>2024-06-01T12:30:37Z</time><name>PT2655</name></trkpt>
<trkpt lat="54.570303" lon="-3.257407"><ele>746</ele><time>2024-06-01T12:30:40Z</time><name>PT2656</name></trkpt>
<trkpt lat="54.570317" lon="-3.257351"><ele>747</ele><time>2024-06-01T12:30:43Z</time><name>PT2657</name></trkpt>
<trkpt lat="54.570331" lon="-3.257298"><ele>748</ele><time>2024-06-01T12:30:48Z</time><name>PT2658</name></trkpt>
<trkpt lat="54.570348" lon="-3.257256"><ele>749</ele><time>2024-06-01T12:30:51Z</time><name>PT2659</name></trkpt>
<trkpt lat="54.570361" lon="-3.257215"><ele>750</ele><time>2024-06-01T12:30:54Z</time><name>PT2660</name></trkpt>
<trkpt lat="54.570372" lon="-3.257172"><ele>751</ele><time>2024-06-01T12:30:57Z</time><name>PT2661</name></trkpt>
<trkpt lat="54.570382" lon="-3.257113"><ele>751</ele><time>2024-06-01T12:31:01Z</time><name>PT2662</name></trkpt>
<trkpt lat="54.570396" lon="-3.257079"><ele>752</ele><time>2024-06-01T12:31:04Z</time><name>PT2663</name></trkpt>
<trkpt lat="54.570410" lon="-3.257025"><ele>754</ele><time>2024-06-01T12:31:08Z</time><name>PT2664</name></trkpt>
<trkpt lat="54.570424" lon="-3.256972"><ele>753</ele><time>2024-06-01T12:31:12Z</time><name>PT2665</name></trkpt>
<trkpt lat="54.570438" lon="-3.256922"><ele>754</ele><time>2024-06-01T12:31:16Z</time><name>PT2666</name></trkpt>
<trkpt lat="54.570451" lon="-3.256865"><ele>755</ele><time>2024-06-01T12:31:19Z</time><name>PT2667</name></trkpt>
<trkpt lat="54.570460" lon="-3.256820"><ele>756</ele><time>2024-06-01T12:31:22Z</time><name>PT2668</name></trkpt>
<trkpt lat="54.570472" lon="-3.256761"><ele>757</ele><time>2024-06-01T12:31:27Z</time><name>PT2669</name></trkpt>
<trkpt lat="54.570480" lon="-3.256721"><ele>757</ele><time>2024-06-01T12:31:30Z</time><name>PT2670</name></trkpt>
<trkpt lat="54.570493" lon="-3.256674"><ele>758</ele><time>2024-06-01T12:31:34Z</time><name>PT2671</name></trkpt>
<trkpt lat="54.570502" lon="-3.256638"><ele>757</ele><time>2024-06-01T12:31:37Z</time><name>PT2672</name></trkpt>
<trkpt lat="54.570509" lon="-3.256584"><ele>757</ele><time>2024-06-01T12:31:40Z</time><name>PT2673</name></trkpt>
<trkpt lat="54.570517" lon="-3.256524"><ele>758</ele><time>2024-06-01T12:31:45Z</time><name>PT2674</name></trkpt>
<trkpt lat="54.570533" lon="-3.256476"><ele>759</ele><time>2024-06-01T12:31:49Z</time><name>PT2675</name></trkpt>
<trkpt lat="54.570549" lon="-3.256435"><ele>760</ele><time>2024-06-01T12:31:52Z</time><name>PT2676</name></trkpt>
<trkpt lat="54.570558" lon="-3.256406"><ele>761</ele><time>2024-06-01T12:31:55Z</time><name>PT2677</name></trkpt>
<trkpt lat="54.570563" lon="-3.256364"><ele>761</ele><time>2024-06-01T12:31:58Z</time><name>PT2678</name></trkpt>
<trkpt lat="54.570576" lon="-3.256314"><ele>761</ele><time>2024-06-01T12:32:03Z</time><name>PT2679</name></trkpt>
<trkpt lat="54.570588" lon="-3.256276"><ele>762</ele><time>2024-06-01T12:32:06Z</time><name>PT2680</name></trkpt>
<trkpt lat="54.570597" lon="-3.256224"><ele>762</ele><time>2024-06-01T12:32:10Z</time><name>PT2681</name></trkpt>
<trkpt lat="54.570604" lon="-3.256176"><ele>763</ele><time>2024-06-01T12:32:13Z</time><name>PT2682</name></trkpt>
<trkpt lat="54.570616" lon="-3.256125"><ele>764</ele><time>2024-06-01T12:32:16Z</time><name>PT2683</name></trkpt>
<trkpt lat="54.570626" lon="-3.256061"><ele>766</ele><time>2024-06-01T12:32:21Z</time><name>PT2684</name></trkpt>
<trkpt lat="54.570638" lon="-3.256007"><ele>766</ele><time>2024-06-01T12:32:25Z</time><name>PT2685</name></trkpt>
<trkpt lat="54.570647" lon="-3.255972"><ele>767</ele><time>2024-06-01T12:32:28Z</time><name>PT2686</name></trkpt>
<trkpt lat="54.570654" lon="-3.255913"><ele>767</ele><time>2024-06-01T12:32:31Z</time><name>PT2687</name></trkpt>
<trkpt lat="54.570659" lon="-3.255879"><ele>768</ele><time>2024-06-01T12:32:34Z</time><name>PT2688</name></trkpt>
<trkpt lat="54.570663" lon="-3.255832"><ele>769</ele><time>2024-06-01T12:32:39Z</time><name>PT2689</name></trkpt>
<trkpt lat="54.570666" lon="-3.255776"><ele>770</ele><time>2024-06-01T12:32:43Z</time><name>PT2690</name></trkpt>
<trkpt lat="54.570673" lon="-3.255738"><ele>771</ele><time>2024-06-01T12:32:46Z</time><name>PT2691</name></trkpt>
<trkpt lat="54.570681" lon="-3.255701"><ele>772</ele><time>2024-06-01T12:32:49Z</time><name>PT2692</name></trkpt>
<trkpt lat="54.570692" lon="-3.255668"><ele>772</ele><time>2024-06-01T12:32:52Z</time><name>PT2693</name></trkpt>
<trkpt lat="54.570701" lon="-3.255614"><ele>772</ele><time>2024-06-01T12:32:55Z</time><name>PT2694</name></trkpt>
<trkpt lat="54.570709" lon="-3.255574"><ele>773</ele><time>2024-06-01T12:33:00Z</time><name>PT2695</name></trkpt>
<trkpt lat="54.570712" lon="-3.255537"><ele>773</ele><time>2024-06-01T12:33:03Z</time><name>PT2696</name></trkpt>
<trkpt lat="54.570716" lon="-3.255490"><ele>773</ele><time>2024-06-01T12:33:07Z</time><name>PT2697</name></trkpt>
<trkpt lat="54.570728" lon="-3.255442"><ele>773</ele><time>2024-06-01T12:33:10Z</time><name>PT2698</name></trkpt>
<trkpt lat="54.570732" lon="-3.255407"><ele>774</ele><time>2024-06-01T12:33:13Z</time><name>PT2699</name></trkpt>
<trkpt lat="54.570740" lon="-3.255350"><ele>775</ele><time>2024-06-01T12:33:18Z</time><name>PT2700</name></trkpt>
<trkpt lat="54.570741" lon="-3.255301"><ele>776</ele><time>2024-06-01T12:33:21Z</time><name>PT2701</name></trkpt>
<trkpt lat="54.570743" lon="-3.255265"><ele>777</ele><time>2024-06-01T12:33:24Z</time><name>PT2702</name></trkpt>
<trkpt lat="54.570741" lon="-3.255225"><ele>778</ele><time>2024-06-01T12:33:27Z</time><name>PT2703</name></trkpt>
<trkpt lat="54.570751" lon="-3.255185"><ele>779</ele><time>2024-06-01T12:33:30Z</time><name>PT2704</name></trkpt>
<trkpt lat="54.570760" lon="-3.255135"><ele>780</ele><time>2024-06-01T12:33:34Z</time><name>PT2705</name></trkpt>
<trkpt lat="54.570769" lon="-3.255090"><ele>780</ele><time>2024-06-01T12:33:38Z</time><name>PT2706</name></trkpt>
<trkpt lat="54.570777" lon="-3.255062"><ele>781</ele><time>2024-06-01T12:33:41Z</time><name>PT2707</name></trkpt>
<trkpt lat="54.570788" lon="-3.255028"><ele>781</ele><time>2024-06-01T12:33:45Z</time><name>PT2708</name></trkpt>
<trkpt lat="54.570793" lon="-3.254985"><ele>782</ele><time>2024-06-01T12:33:48Z</time><name>PT2709</name></trkpt>
<trkpt lat="54.570799" lon="-3.254938"><ele>783</ele><time>2024-06-01T12:33:53Z</time><name>PT2710</name></trkpt>
<trkpt lat="54.570806" lon="-3.254891"><ele>782</ele><time>2024-06-01T12:33:57Z</time><name>PT2711</name></trkpt>
<trkpt lat="54.570813" lon="-3.254847"><ele>782</ele><time>2024-06-01T12:34:00Z</time><name>PT2712</name></trkpt>
<trkpt lat="54.570831" lon="-3.254820"><ele>783</ele><time>2024-06-01T12:34:03Z</time><name>PT2713</name></trkpt>
<trkpt lat="54.570846" lon="-3.254786"><ele>784</ele><time>2024-06-01T12:34:08Z</time><name>PT2714</name></trkpt>
<trkpt lat="54.570857" lon="-3.254759"><ele>784</ele><time>2024-06-01T12:34:12Z</time><name>PT2715</name></trkpt>
<trkpt lat="54.570860" lon="-3.254735"><ele>786</ele><time>2024-06-01T12:34:15Z</time><name>PT2716</name></trkpt>
<trkpt lat="54.570852" lon="-3.254690"><ele>787</ele><time>2024-06-01T12:34:18Z</time><name>PT2717</name></trkpt>
<trkpt lat="54.570854" lon="-3.254668"><ele>788</ele><time>2024-06-01T12:34:21Z</time><name>PT2718</name></trkpt>
<trkpt lat="54.570854" lon="-3.254641"><ele>789</ele><time>2024-06-01T12:34:24Z</time><name>PT2719</name></trkpt>
<trkpt lat="54.570835" lon="-3.254608"><ele>787</ele><time>2024-06-01T12:34:29Z</time><name>PT2720</name></trkpt>
<trkpt lat="54.570833" lon="-3.254584"><ele>788</ele><time>2024-06-01T12:34:32Z</time><name>PT2721</name></trkpt>
<trkpt lat="54.570830" lon="-3.254576"><ele>789</ele><time>2024-06-01T12:34:36Z</time><name>PT2722</name></trkpt>
<trkpt lat="54.570839" lon="-3.254580"><ele>787</ele><time>2024-06-01T12:34:39Z</time><name>PT2723</name></trkpt>
<trkpt lat="54.570842" lon="-3.254582"><ele>787</ele><time>2024-06-01T12:34:42Z</time><name>PT2724</name></trkpt>
<trkpt lat="54.570842" lon="-3.254576"><ele>787</ele><time>2024-06-01T12:35:26Z</time><name>PT2725</name></trkpt>
<trkpt lat="54.570843" lon="-3.254574"><ele>786</ele><time>2024-06-01T12:35:29Z</time><name>PT2726</name></trkpt>
<trkpt lat="54.570853" lon="-3.254579"><ele>786</ele><time>2024-06-01T12:35:44Z</time><name>PT2727</name></trkpt>
<trkpt lat="54.570857" lon="-3.254580"><ele>787</ele><time>2024-06-01T12:51:26Z</time><name>PT2728</name></trkpt>
<trkpt lat="54.570849" lon="-3.254598"><ele>788</ele><time>2024-06-01T12:51:30Z</time><name>PT2729</name></trkpt>
<trkpt lat="54.570838" lon="-3.254601"><ele>788</ele><time>2024-06-01T12:51:33Z</time><name>PT2730</name></trkpt>
<trkpt lat="54.570836" lon="-3.254610"><ele>788</ele><time>2024-06-01T12:51:36Z</time><name>PT2731</name></trkpt>
<trkpt lat="54.570834" lon="-3.254610"><ele>788</ele><time>2024-06-01T12:51:41Z</time><name>PT2732</name></trkpt>
<trkpt lat="54.570838" lon="-3.254618"><ele>789</ele><time>2024-06-01T12:51:44Z</time><name>PT2733</name></trkpt>
<trkpt lat="54.570840" lon="-3.254620"><ele>789</ele><time>2024-06-01T12:51:47Z</time><name>PT2734</name></trkpt>
<trkpt lat="54.570842" lon="-3.254629"><ele>789</ele><time>2024-06-01T12:58:02Z</time><name>PT2735</name></trkpt>
<trkpt lat="54.570842" lon="-3.254632"><ele>789</ele><time>2024-06-01T12:58:06Z</time><name>PT2736</name></trkpt>
<trkpt lat="54.570845" lon="-3.254631"><ele>789</ele><time>2024-06-01T12:58:14Z</time><name>PT2737</name></trkpt>
<trkpt lat="54.570844" lon="-3.254621"><ele>789</ele><time>2024-06-01T13:11:01Z</time><name>PT2738</name></trkpt>
<trkpt lat="54.570841" lon="-3.254615"><ele>789</ele><time>2024-06-01T13:11:04Z</time><name>PT2739</name></trkpt>
<trkpt lat="54.570835" lon="-3.254621"><ele>789</ele><time>2024-06-01T13:11:47Z</time><name>PT2740</name></trkpt>
<trkpt lat="54.570845" lon="-3.254612"><ele>790</ele><time>2024-06-01T13:12:44Z</time><name>PT2741</name></trkpt>
<trkpt lat="54.570869" lon="-3.254616"><ele>790</ele><time>2024-06-01T13:12:49Z</time><name>PT2742</name></trkpt>
<trkpt lat="54.570891" lon="-3.254615"><ele>791</ele><time>2024-06-01T13:12:52Z</time><name>PT2743</name></trkpt>
<trkpt lat="54.570912" lon="-3.254587"><ele>791</ele><time>2024-06-01T13:12:56Z</time><name>PT2744</name></trkpt>
<trkpt lat="54.570912" lon="-3.254574"><ele>791</ele><time>2024-06-01T13:12:59Z</time><name>PT2745</name></trkpt>
<trkpt lat="54.570932" lon="-3.254529"><ele>791</ele><time>2024-06-01T13:13:02Z</time><name>PT2746</name></trkpt>
<trkpt lat="54.570944" lon="-3.254495"><ele>792</ele><time>2024-06-01T13:13:05Z</time><name>PT2747</name></trkpt>
<trkpt lat="54.570954" lon="-3.254458"><ele>793</ele><time>2024-06-01T13:13:10Z</time><name>PT2748</name></trkpt>
<trkpt lat="54.570957" lon="-3.254411"><ele>793</ele><time>2024-06-01T13:13:14Z</time><name>PT2749</name></trkpt>
<trkpt lat="54.570958" lon="-3.254390"><ele>793</ele><time>2024-06-01T13:13:17Z</time><name>PT2750</name></trkpt>
<trkpt lat="54.570953" lon="-3.254365"><ele>793</ele><time>2024-06-01T13:13:20Z</time><name>PT2751</name></trkpt>
<trkpt lat="54.570957" lon="-3.254330"><ele>794</ele><time>2024-06-01T13:13:23Z</time><name>PT2752</name></trkpt>
<trkpt lat="54.570959" lon="-3.254296"><ele>794</ele><time>2024-06-01T13:13:26Z</time><name>PT2753</name></trkpt>
<trkpt lat="54.570960" lon="-3.254250"><ele>795</ele><time>2024-06-01T13:13:31Z</time><name>PT2754</name></trkpt>
<trkpt lat="54.570963" lon="-3.254208"><ele>795</ele><time>2024-06-01T13:13:35Z</time><name>PT2755</name></trkpt>
<trkpt lat="54.570967" lon="-3.254171"><ele>796</ele><time>2024-06-01T13:13:38Z</time><name>PT2756</name></trkpt>
<trkpt lat="54.570978" lon="-3.254126"><ele>797</ele><time>2024-06-01T13:13:41Z</time><name>PT2757</name></trkpt>
<trkpt lat="54.570981" lon="-3.254092"><ele>797</ele><time>2024-06-01T13:13:44Z</time><name>PT2758</name></trkpt>
<trkpt lat="54.570994" lon="-3.254049"><ele>798</ele><time>2024-06-01T13:13:49Z</time><name>PT2759</name></trkpt>
<trkpt lat="54.571015" lon="-3.254007"><ele>798</ele><time>2024-06-01T13:13:53Z</time><name>PT2760</name></trkpt>
<trkpt lat="54.571025" lon="-3.253980"><ele>798</ele><time>2024-06-01T13:13:56Z</time><name>PT2761</name></trkpt>
<trkpt lat="54.571033" lon="-3.253936"><ele>798</ele><time>2024-06-01T13:13:59Z</time><name>PT2762</name></trkpt>
<trkpt lat="54.571040" lon="-3.253906"><ele>799</ele><time>2024-06-01T13:14:02Z</time><name>PT2763</name></trkpt>
<trkpt lat="54.571050" lon="-3.253864"><ele>799</ele><time>2024-06-01T13:14:07Z</time><name>PT2764</name></trkpt>
<trkpt lat="54.571055" lon="-3.253834"><ele>801</ele><time>2024-06-01T13:14:10Z</time><name>PT2765</name></trkpt>
<trkpt lat="54.571049" lon="-3.253788"><ele>802</ele><time>2024-06-01T13:14:14Z</time><name>PT2766</name></trkpt>
<trkpt lat="54.571052" lon="-3.253737"><ele>803</ele><time>2024-06-01T13:14:17Z</time><name>PT2767</name></trkpt>
<trkpt lat="54.571059" lon="-3.253706"><ele>803</ele><time>2024-06-01T13:14:20Z</time><name>PT2768</name></trkpt>
<trkpt lat="54.571069" lon="-3.253659"><ele>804</ele><time>2024-06-01T13:14:25Z</time><name>PT2769</name></trkpt>
<trkpt lat="54.571075" lon="-3.253604"><ele>805</ele><time>2024-06-01T13:14:29Z</time><name>PT2770</name></trkpt>
<trkpt lat="54.571081" lon="-3.253558"><ele>805</ele><time>2024-06-01T13:14:32Z</time><name>PT2771</name></trkpt>
<trkpt lat="54.571086" lon="-3.253522"><ele>806</ele><time>2024-06-01T13:14:37Z</time><name>PT2772</name></trkpt>
<trkpt lat="54.571088" lon="-3.253493"><ele>806</ele><time>2024-06-01T13:14:40Z</time><name>PT2773</name></trkpt>
<trkpt lat="54.571092" lon="-3.253456"><ele>806</ele><time>2024-06-01T13:14:44Z</time><name>PT2774</name></trkpt>
<trkpt lat="54.571092" lon="-3.253402"><ele>806</ele><time>2024-06-01T13:14:47Z</time><name>PT2775</name></trkpt>
<trkpt lat="54.571099" lon="-3.253334"><ele>806</ele><time>2024-06-01T13:14:52Z</time><name>PT2776</name></trkpt>
<trkpt lat="54.571110" lon="-3.253277"><ele>806</ele><time>2024-06-01T13:14:56Z</time><name>PT2777</name></trkpt>
<trkpt lat="54.571112" lon="-3.253238"><ele>807</ele><time>2024-06-01T13:14:59Z</time><name>PT2778</name></trkpt>
<trkpt lat="54.571111" lon="-3.253195"><ele>807</ele><time>2024-06-01T13:15:02Z</time><name>PT2779</name></trkpt>
<trkpt lat="54.571110" lon="-3.253133"><ele>807</ele><time>2024-06-01T13:15:05Z</time><name>PT2780</name></trkpt>
<trkpt lat="54.571106" lon="-3.253074"><ele>809</ele><time>2024-06-01T13:15:10Z</time><name>PT2781</name></trkpt>
<trkpt lat="54.571104" lon="-3.253031"><ele>810</ele><time>2024-06-01T13:15:13Z</time><name>PT2782</name></trkpt>
<trkpt lat="54.571109" lon="-3.252983"><ele>810</ele><time>2024-06-01T13:15:17Z</time><name>PT2783</name></trkpt>
<trkpt lat="54.571119" lon="-3.252925"><ele>810</ele><time>2024-06-01T13:15:20Z</time><name>PT2784</name></trkpt>
<trkpt lat="54.571129" lon="-3.252870"><ele>811</ele><time>2024-06-01T13:15:25Z</time><name>PT2785</name></trkpt>
<trkpt lat="54.571130" lon="-3.252837"><ele>811</ele><time>2024-06-01T13:15:28Z</time><name>PT2786</name></trkpt>
<trkpt lat="54.571132" lon="-3.252801"><ele>812</ele><time>2024-06-01T13:15:31Z</time><name>PT2787</name></trkpt>
<trkpt lat="54.571125" lon="-3.252753"><ele>813</ele><time>2024-06-01T13:15:35Z</time><name>PT2788</name></trkpt>
<trkpt lat="54.571121" lon="-3.252725"><ele>813</ele><time>2024-06-01T13:15:38Z</time><name>PT2789</name></trkpt>
<trkpt lat="54.571119" lon="-3.252670"><ele>814</ele><time>2024-06-01T13:15:41Z</time><name>PT2790</name></trkpt>
<trkpt lat="54.571117" lon="-3.252622"><ele>814</ele><time>2024-06-01T13:15:46Z</time><name>PT2791</name></trkpt>
<trkpt lat="54.571113" lon="-3.252587"><ele>815</ele><time>2024-06-01T13:15:49Z</time><name>PT2792</name></trkpt>
<trkpt lat="54.571107" lon="-3.252542"><ele>816</ele><time>2024-06-01T13:15:53Z</time><name>PT2793</name></trkpt>
<trkpt lat="54.571107" lon="-3.252504"><ele>816</ele><time>2024-06-01T13:15:56Z</time><name>PT2794</name></trkpt>
<trkpt lat="54.571113" lon="-3.252458"><ele>818</ele><time>2024-06-01T13:15:59Z</time><name>PT2795</name></trkpt>
<trkpt lat="54.571125" lon="-3.252429"><ele>818</ele><time>2024-06-01T13:16:02Z</time><name>PT2796</name></trkpt>
<trkpt lat="54.571133" lon="-3.252395"><ele>819</ele><time>2024-06-01T13:16:05Z</time><name>PT2797</name></trkpt>
<trkpt lat="54.571150" lon="-3.252356"><ele>819</ele><time>2024-06-01T13:16:08Z</time><name>PT2798</name></trkpt>
<trkpt lat="54.571157" lon="-3.252301"><ele>820</ele><time>2024-06-01T13:16:13Z</time><name>PT2799</name></trkpt>
<trkpt lat="54.571162" lon="-3.252259"><ele>821</ele><time>2024-06-01T13:16:16Z</time><name>PT2800</name></trkpt>
<trkpt lat="54.571180" lon="-3.252209"><ele>822</ele><time>2024-06-01T13:16:20Z</time><name>PT2801</name></trkpt>
<trkpt lat="54.571196" lon="-3.252161"><ele>822</ele><time>2024-06-01T13:16:23Z</time><name>PT2802</name></trkpt>
<trkpt lat="54.571211" lon="-3.252109"><ele>823</ele><time>2024-06-01T13:16:28Z</time><name>PT2803</name></trkpt>
<trkpt lat="54.571230" lon="-3.252061"><ele>824</ele><time>2024-06-01T13:16:32Z</time><name>PT2804</name></trkpt>
<trkpt lat="54.571246" lon="-3.252019"><ele>824</ele><time>2024-06-01T13:16:35Z</time><name>PT2805</name></trkpt>
<trkpt lat="54.571263" lon="-3.251972"><ele>825</ele><time>2024-06-01T13:16:38Z</time><name>PT2806</name></trkpt>
<trkpt lat="54.571282" lon="-3.251912"><ele>825</ele><time>2024-06-01T13:16:43Z</time><name>PT2807</name></trkpt>
<trkpt lat="54.571300" lon="-3.251879"><ele>827</ele><time>2024-06-01T13:16:46Z</time><name>PT2808</name></trkpt>
<trkpt lat="54.571325" lon="-3.251824"><ele>828</ele><time>2024-06-01T13:16:50Z</time><name>PT2809</name></trkpt>
<trkpt lat="54.571345" lon="-3.251778"><ele>828</ele><time>2024-06-01T13:16:53Z</time><name>PT2810</name></trkpt>
<trkpt lat="54.571365" lon="-3.251726"><ele>829</ele><time>2024-06-01T13:16:56Z</time><name>PT2811</name></trkpt>
<trkpt lat="54.571378" lon="-3.251689"><ele>830</ele><time>2024-06-01T13:16:59Z</time><name>PT2812</name></trkpt>
<trkpt lat="54.571397" lon="-3.251634"><ele>830</ele><time>2024-06-01T13:17:04Z</time><name>PT2813</name></trkpt>
<trkpt lat="54.571413" lon="-3.251589"><ele>831</ele><time>2024-06-01T13:17:07Z</time><name>PT2814</name></trkpt>
<trkpt lat="54.571436" lon="-3.251538"><ele>834</ele><time>2024-06-01T13:17:11Z</time><name>PT2815</name></trkpt>
<trkpt lat="54.571458" lon="-3.251477"><ele>835</ele><time>2024-06-01T13:17:14Z</time><name>PT2816</name></trkpt>
<trkpt lat="54.571471" lon="-3.251431"><ele>835</ele><time>2024-06-01T13:17:17Z</time><name>PT2817</name></trkpt>
<trkpt lat="54.571496" lon="-3.251372"><ele>836</ele><time>2024-06-01T13:17:22Z</time><name>PT2818</name></trkpt>
<trkpt lat="54.571510" lon="-3.251327"><ele>835</ele><time>2024-06-01T13:17:25Z</time><name>PT2819</name></trkpt>
<trkpt lat="54.571531" lon="-3.251277"><ele>836</ele><time>2024-06-01T13:17:29Z</time><name>PT2820</name></trkpt>
<trkpt lat="54.571553" lon="-3.251236"><ele>837</ele><time>2024-06-01T13:17:32Z</time><name>PT2821</name></trkpt>
<trkpt lat="54.571582" lon="-3.251187"><ele>837</ele><time>2024-06-01T13:17:35Z</time><name>PT2822</name></trkpt>
<trkpt lat="54.571594" lon="-3.251162"><ele>837</ele><time>2024-06-01T13:17:40Z</time><name>PT2823</name></trkpt>
<trkpt lat="54.571591" lon="-3.251150"><ele>837</ele><time>2024-06-01T13:17:44Z</time><name>PT2824</name></trkpt>
<trkpt lat="54.571578" lon="-3.251136"><ele>837</ele><time>2024-06-01T13:17:47Z</time><name>PT2825</name></trkpt>
<trkpt lat="54.571580" lon="-3.251135"><ele>837</ele><time>2024-06-01T13:17:50Z</time><name>PT2826</name></trkpt>
<trkpt lat="54.571588" lon="-3.251127"><ele>837</ele><time>2024-06-01T13:18:29Z</time><name>PT2827</name></trkpt>
<trkpt lat="54.571618" lon="-3.251095"><ele>837</ele><time>2024-06-01T13:18:34Z</time><name>PT2828</name></trkpt>
<trkpt lat="54.571644" lon="-3.251056"><ele>838</ele><time>2024-06-01T13:18:37Z</time><name>PT2829</name></trkpt>
<trkpt lat="54.571676" lon="-3.251006"><ele>838</ele><time>2024-06-01T13:18:41Z</time><name>PT2830</name></trkpt>
<trkpt lat="54.571708" lon="-3.250932"><ele>837</ele><time>2024-06-01T13:18:44Z</time><name>PT2831</name></trkpt>
<trkpt lat="54.571731" lon="-3.250876"><ele>839</ele><time>2024-06-01T13:18:49Z</time><name>PT2832</name></trkpt>
<trkpt lat="54.571757" lon="-3.250823"><ele>839</ele><time>2024-06-01T13:18:52Z</time><name>PT2833</name></trkpt>
<trkpt lat="54.571785" lon="-3.250773"><ele>840</ele><time>2024-06-01T13:18:56Z</time><name>PT2834</name></trkpt>
<trkpt lat="54.571810" lon="-3.250699"><ele>840</ele><time>2024-06-01T13:18:59Z</time><name>PT2835</name></trkpt>
<trkpt lat="54.571831" lon="-3.250646"><ele>841</ele><time>2024-06-01T13:19:02Z</time><name>PT2836</name></trkpt>
<trkpt lat="54.571862" lon="-3.250588"><ele>841</ele><time>2024-06-01T13:19:07Z</time><name>PT2837</name></trkpt>
<trkpt lat="54.571905" lon="-3.250535"><ele>840</ele><time>2024-06-01T13:19:11Z</time><name>PT2838</name></trkpt>
<trkpt lat="54.571931" lon="-3.250496"><ele>840</ele><time>2024-06-01T13:19:14Z</time><name>PT2839</name></trkpt>
<trkpt lat="54.571956" lon="-3.250433"><ele>840</ele><time>2024-06-01T13:19:17Z</time><name>PT2840</name></trkpt>
<trkpt lat="54.571979" lon="-3.250391"><ele>840</ele><time>2024-06-01T13:19:20Z</time><name>PT2841</name></trkpt>
<trkpt lat="54.571997" lon="-3.250354"><ele>840</ele><time>2024-06-01T13:19:23Z</time><name>PT2842</name></trkpt>
<trkpt lat="54.572001" lon="-3.250305"><ele>839</ele><time>2024-06-01T13:19:28Z</time><name>PT2843</name></trkpt>
<trkpt lat="54.572020" lon="-3.250283"><ele>838</ele><time>2024-06-01T13:19:31Z</time><name>PT2844</name></trkpt>
<trkpt lat="54.572035" lon="-3.250268"><ele>838</ele><time>2024-06-01T13:19:34Z</time><name>PT2845</name></trkpt>
<trkpt lat="54.572045" lon="-3.250264"><ele>839</ele><time>2024-06-01T13:19:38Z</time><name>PT2846</name></trkpt>
<trkpt lat="54.572038" lon="-3.250286"><ele>840</ele><time>2024-06-01T13:19:52Z</time><name>PT2847</name></trkpt>
<trkpt lat="54.572038" lon="-3.250301"><ele>840</ele><time>2024-06-01T13:19:55Z</time><name>PT2848</name></trkpt>
<trkpt lat="54.572042" lon="-3.250305"><ele>841</ele><time>2024-06-01T13:19:59Z</time><name>PT2849</name></trkpt>
<trkpt lat="54.572041" lon="-3.250311"><ele>841</ele><time>2024-06-01T13:20:13Z</time><name>PT2850</name></trkpt>
<trkpt lat="54.572045" lon="-3.250315"><ele>841</ele><time>2024-06-01T13:20:17Z</time><name>PT2851</name></trkpt>
<trkpt lat="54.572049" lon="-3.250322"><ele>841</ele><time>2024-06-01T13:20:47Z</time><name>PT2852</name></trkpt>
<trkpt lat="54.572050" lon="-3.250325"><ele>840</ele><time>2024-06-01T13:20:52Z</time><name>PT2853</name></trkpt>
<trkpt lat="54.572032" lon="-3.250292"><ele>840</ele><time>2024-06-01T13:21:10Z</time><name>PT2854</name></trkpt>
<trkpt lat="54.572004" lon="-3.250226"><ele>839</ele><time>2024-06-01T13:21:14Z</time><name>PT2855</name></trkpt>
<trkpt lat="54.571976" lon="-3.250172"><ele>838</ele><time>2024-06-01T13:21:17Z</time><name>PT2856</name></trkpt>
<trkpt lat="54.571955" lon="-3.250130"><ele>838</ele><time>2024-06-01T13:21:20Z</time><name>PT2857</name></trkpt>
<trkpt lat="54.571930" lon="-3.250053"><ele>839</ele><time>2024-06-01T13:21:25Z</time><name>PT2858</name></trkpt>
<trkpt lat="54.571906" lon="-3.250010"><ele>839</ele><time>2024-06-01T13:21:28Z</time><name>PT2859</name></trkpt>
<trkpt lat="54.571868" lon="-3.249967"><ele>838</ele><time>2024-06-01T13:21:32Z</time><name>PT2860</name></trkpt>
<trkpt lat="54.571839" lon="-3.249927"><ele>838</ele><time>2024-06-01T13:21:35Z</time><name>PT2861</name></trkpt>
<trkpt lat="54.571806" lon="-3.249883"><ele>838</ele><time>2024-06-01T13:21:38Z</time><name>PT2862</name></trkpt>
<trkpt lat="54.571774" lon="-3.249849"><ele>839</ele><time>2024-06-01T13:21:41Z</time><name>PT2863</name></trkpt>
<trkpt lat="54.571736" lon="-3.249798"><ele>839</ele><time>2024-06-01T13:21:46Z</time><name>PT2864</name></trkpt>
<trkpt lat="54.571707" lon="-3.249751"><ele>838</ele><time>2024-06-01T13:21:50Z</time><name>PT2865</name></trkpt>
<trkpt lat="54.571681" lon="-3.249716"><ele>838</ele><time>2024-06-01T13:21:53Z</time><name>PT2866</name></trkpt>
<trkpt lat="54.571658" lon="-3.249671"><ele>837</ele><time>2024-06-01T13:21:56Z</time><name>PT2867</name></trkpt>
<trkpt lat="54.571630" lon="-3.249613"><ele>838</ele><time>2024-06-01T13:21:59Z</time><name>PT2868</name></trkpt>
<trkpt lat="54.571607" lon="-3.249555"><ele>837</ele><time>2024-06-01T13:22:04Z</time><name>PT2869</name></trkpt>
<trkpt lat="54.571594" lon="-3.249522"><ele>837</ele><time>2024-06-01T13:22:08Z</time><name>PT2870</name></trkpt>
<trkpt lat="54.571595" lon="-3.249522"><ele>837</ele><time>2024-06-01T13:22:11Z</time><name>PT2871</name></trkpt>
<trkpt lat="54.571593" lon="-3.249509"><ele>837</ele><time>2024-06-01T13:22:19Z</time><name>PT2872</name></trkpt>
<trkpt lat="54.571579" lon="-3.249462"><ele>837</ele><time>2024-06-01T13:22:22Z</time><name>PT2873</name></trkpt>
<trkpt lat="54.571573" lon="-3.249424"><ele>836</ele><time>2024-06-01T13:22:25Z</time><name>PT2874</name></trkpt>
<trkpt lat="54.571573" lon="-3.249383"><ele>835</ele><time>2024-06-01T13:22:28Z</time><name>PT2875</name></trkpt>
<trkpt lat="54.571573" lon="-3.249339"><ele>834</ele><time>2024-06-01T13:22:31Z</time><name>PT2876</name></trkpt>
<trkpt lat="54.571575" lon="-3.249285"><ele>834</ele><time>2024-06-01T13:22:35Z</time><name>PT2877</name></trkpt>
<trkpt lat="54.571573" lon="-3.249259"><ele>833</ele><time>2024-06-01T13:22:38Z</time><name>PT2878</name></trkpt>
<trkpt lat="54.571570" lon="-3.249205"><ele>832</ele><time>2024-06-01T13:22:41Z</time><name>PT2879</name></trkpt>
<trkpt lat="54.571568" lon="-3.249157"><ele>832</ele><time>2024-06-01T13:22:46Z</time><name>PT2880</name></trkpt>
<trkpt lat="54.571563" lon="-3.249111"><ele>830</ele><time>2024-06-01T13:22:49Z</time><name>PT2881</name></trkpt>
<trkpt lat="54.571548" lon="-3.249048"><ele>830</ele><time>2024-06-01T13:22:53Z</time><name>PT2882</name></trkpt>
<trkpt lat="54.571546" lon="-3.249002"><ele>830</ele><time>2024-06-01T13:22:56Z</time><name>PT2883</name></trkpt>
<trkpt lat="54.571537" lon="-3.248945"><ele>831</ele><time>2024-06-01T13:22:59Z</time><name>PT2884</name></trkpt>
<trkpt lat="54.571526" lon="-3.248900"><ele>831</ele><time>2024-06-01T13:23:04Z</time><name>PT2885</name></trkpt>
<trkpt lat="54.571521" lon="-3.248876"><ele>830</ele><time>2024-06-01T13:23:08Z</time><name>PT2886</name></trkpt>
<trkpt lat="54.571522" lon="-3.248876"><ele>831</ele><time>2024-06-01T13:23:11Z</time><name>PT2887</name></trkpt>
<trkpt lat="54.571521" lon="-3.248821"><ele>830</ele><time>2024-06-01T13:23:20Z</time><name>PT2888</name></trkpt>
<trkpt lat="54.571515" lon="-3.248780"><ele>829</ele><time>2024-06-01T13:23:23Z</time><name>PT2889</name></trkpt>
<trkpt lat="54.571496" lon="-3.248753"><ele>828</ele><time>2024-06-01T13:23:26Z</time><name>PT2890</name></trkpt>
<trkpt lat="54.571494" lon="-3.248709"><ele>827</ele><time>2024-06-01T13:23:31Z</time><name>PT2891</name></trkpt>
<trkpt lat="54.571485" lon="-3.248667"><ele>827</ele><time>2024-06-01T13:23:35Z</time><name>PT2892</name></trkpt>
<trkpt lat="54.571472" lon="-3.248648"><ele>825</ele><time>2024-06-01T13:23:38Z</time><name>PT2893</name></trkpt>
<trkpt lat="54.571468" lon="-3.248620"><ele>824</ele><time>2024-06-01T13:23:41Z</time><name>PT2894</name></trkpt>
<trkpt lat="54.571468" lon="-3.248586"><ele>823</ele><time>2024-06-01T13:23:44Z</time><name>PT2895</name></trkpt>
<trkpt lat="54.571469" lon="-3.248564"><ele>822</ele><time>2024-06-01T13:23:49Z</time><name>PT2896</name></trkpt>
<trkpt lat="54.571459" lon="-3.248559"><ele>821</ele><time>2024-06-01T13:23:52Z</time><name>PT2897</name></trkpt>
<trkpt lat="54.571453" lon="-3.248529"><ele>822</ele><time>2024-06-01T13:23:55Z</time><name>PT2898</name></trkpt>
<trkpt lat="54.571460" lon="-3.248489"><ele>821</ele><time>2024-06-01T13:23:59Z</time><name>PT2899</name></trkpt>
<trkpt lat="54.571453" lon="-3.248464"><ele>821</ele><time>2024-06-01T13:24:02Z</time><name>PT2900</name></trkpt>
<trkpt lat="54.571452" lon="-3.248445"><ele>821</ele><time>2024-06-01T13:24:05Z</time><name>PT2901</name></trkpt>
<trkpt lat="54.571455" lon="-3.248434"><ele>821</ele><time>2024-06-01T13:24:10Z</time><name>PT2902</name></trkpt>
<trkpt lat="54.571450" lon="-3.248392"><ele>820</ele><time>2024-06-01T13:24:14Z</time><name>PT2903</name></trkpt>
<trkpt lat="54.571438" lon="-3.248370"><ele>819</ele><time>2024-06-01T13:24:17Z</time><name>PT2904</name></trkpt>
<trkpt lat="54.571421" lon="-3.248335"><ele>818</ele><time>2024-06-01T13:24:22Z</time><name>PT2905</name></trkpt>
<trkpt lat="54.571421" lon="-3.248301"><ele>818</ele><time>2024-06-01T13:24:25Z</time><name>PT2906</name></trkpt>
<trkpt lat="54.571422" lon="-3.248258"><ele>817</ele><time>2024-06-01T13:24:29Z</time><name>PT2907</name></trkpt>
<trkpt lat="54.571418" lon="-3.248237"><ele>816</ele><time>2024-06-01T13:24:32Z</time><name>PT2908</name></trkpt>
<trkpt lat="54.571416" lon="-3.248202"><ele>815</ele><time>2024-06-01T13:24:35Z</time><name>PT2909</name></trkpt>
<trkpt lat="54.571408" lon="-3.248176"><ele>814</ele><time>2024-06-01T13:24:38Z</time><name>PT2910</name></trkpt>
<trkpt lat="54.571405" lon="-3.248138"><ele>814</ele><time>2024-06-01T13:24:41Z</time><name>PT2911</name></trkpt>
<trkpt lat="54.571406" lon="-3.248111"><ele>813</ele><time>2024-06-01T13:24:44Z</time><name>PT2912</name></trkpt>
<trkpt lat="54.571400" lon="-3.248093"><ele>813</ele><time>2024-06-01T13:24:49Z</time><name>PT2913</name></trkpt>
<trkpt lat="54.571396" lon="-3.248061"><ele>812</ele><time>2024-06-01T13:24:52Z</time><name>PT2914</name></trkpt>
<trkpt lat="54.571396" lon="-3.248035"><ele>811</ele><time>2024-06-01T13:24:55Z</time><name>PT2915</name></trkpt>
<trkpt lat="54.571399" lon="-3.248014"><ele>810</ele><time>2024-06-01T13:24:58Z</time><name>PT2916</name></trkpt>
<trkpt lat="54.571393" lon="-3.247993"><ele>810</ele><time>2024-06-01T13:25:01Z</time><name>PT2917</name></trkpt>
<trkpt lat="54.571385" lon="-3.247966"><ele>810</ele><time>2024-06-01T13:25:05Z</time><name>PT2918</name></trkpt>
<trkpt lat="54.571382" lon="-3.247961"><ele>810</ele><time>2024-06-01T13:25:08Z</time><name>PT2919</name></trkpt>
<trkpt lat="54.571371" lon="-3.247949"><ele>809</ele><time>2024-06-01T13:25:17Z</time><name>PT2920</name></trkpt>
<trkpt lat="54.571357" lon="-3.247935"><ele>808</ele><time>2024-06-01T13:25:20Z</time><name>PT2921</name></trkpt>
<trkpt lat="54.571350" lon="-3.247931"><ele>808</ele><time>2024-06-01T13:25:25Z</time><name>PT2922</name></trkpt>
<trkpt lat="54.571330" lon="-3.247907"><ele>808</ele><time>2024-06-01T13:25:29Z</time><name>PT2923</name></trkpt>
<trkpt lat="54.571330" lon="-3.247893"><ele>808</ele><time>2024-06-01T13:25:32Z</time><name>PT2924</name></trkpt>
<trkpt lat="54.571331" lon="-3.247873"><ele>807</ele><time>2024-06-01T13:25:35Z</time><name>PT2925</name></trkpt>
<trkpt lat="54.571329" lon="-3.247879"><ele>807</ele><time>2024-06-01T13:25:38Z</time><name>PT2926</name></trkpt>
<trkpt lat="54.571331" lon="-3.247877"><ele>806</ele><time>2024-06-01T13:25:46Z</time><name>PT2927</name></trkpt>
<trkpt lat="54.571339" lon="-3.247851"><ele>805</ele><time>2024-06-01T13:25:50Z</time><name>PT2928</name></trkpt>
<trkpt lat="54.571337" lon="-3.247836"><ele>805</ele><time>2024-06-01T13:25:53Z</time><name>PT2929</name></trkpt>
<trkpt lat="54.571323" lon="-3.247806"><ele>804</ele><time>2024-06-01T13:25:56Z</time><name>PT2930</name></trkpt>
<trkpt lat="54.571329" lon="-3.247774"><ele>803</ele><time>2024-06-01T13:25:59Z</time><name>PT2931</name></trkpt>
<trkpt lat="54.571322" lon="-3.247745"><ele>802</ele><time>2024-06-01T13:26:04Z</time><name>PT2932</name></trkpt>
<trkpt lat="54.571308" lon="-3.247726"><ele>801</ele><time>2024-06-01T13:26:08Z</time><name>PT2933</name></trkpt>
<trkpt lat="54.571304" lon="-3.247695"><ele>800</ele><time>2024-06-01T13:26:11Z</time><name>PT2934</name></trkpt>
<trkpt lat="54.571308" lon="-3.247679"><ele>800</ele><time>2024-06-01T13:26:14Z</time><name>PT2935</name></trkpt>
<trkpt lat="54.571304" lon="-3.247657"><ele>799</ele><time>2024-06-01T13:26:17Z</time><name>PT2936</name></trkpt>
<trkpt lat="54.571305" lon="-3.247633"><ele>798</ele><time>2024-06-01T13:26:20Z</time><name>PT2937</name></trkpt>
<trkpt lat="54.571304" lon="-3.247601"><ele>797</ele><time>2024-06-01T13:26:25Z</time><name>PT2938</name></trkpt>
<trkpt lat="54.571310" lon="-3.247564"><ele>796</ele><time>2024-06-01T13:26:29Z</time><name>PT2939</name></trkpt>
<trkpt lat="54.571295" lon="-3.247557"><ele>795</ele><time>2024-06-01T13:26:32Z</time><name>PT2940</name></trkpt>
<trkpt lat="54.571302" lon="-3.247536"><ele>795</ele><time>2024-06-01T13:26:35Z</time><name>PT2941</name></trkpt>
<trkpt lat="54.571302" lon="-3.247518"><ele>794</ele><time>2024-06-01T13:26:38Z</time><name>PT2942</name></trkpt>
<trkpt lat="54.571302" lon="-3.247512"><ele>794</ele><time>2024-06-01T13:26:41Z</time><name>PT2943</name></trkpt>
<trkpt lat="54.571310" lon="-3.247500"><ele>794</ele><time>2024-06-01T13:26:44Z</time><name>PT2944</name></trkpt>
<trkpt lat="54.571308" lon="-3.247489"><ele>793</ele><time>2024-06-01T13:26:47Z</time><name>PT2945</name></trkpt>
<trkpt lat="54.571306" lon="-3.247480"><ele>793</ele><time>2024-06-01T13:26:51Z</time><name>PT2946</name></trkpt>
<trkpt lat="54.571305" lon="-3.247458"><ele>792</ele><time>2024-06-01T13:26:58Z</time><name>PT2947</name></trkpt>
<trkpt lat="54.571310" lon="-3.247421"><ele>791</ele><time>2024-06-01T13:27:01Z</time><name>PT2948</name></trkpt>
<trkpt lat="54.571298" lon="-3.247392"><ele>791</ele><time>2024-06-01T13:27:06Z</time><name>PT2949</name></trkpt>
<trkpt lat="54.571294" lon="-3.247375"><ele>790</ele><time>2024-06-01T13:27:10Z</time><name>PT2950</name></trkpt>
<trkpt lat="54.571290" lon="-3.247372"><ele>790</ele><time>2024-06-01T13:27:16Z</time><name>PT2951</name></trkpt>
<trkpt lat="54.571295" lon="-3.247330"><ele>790</ele><time>2024-06-01T13:27:21Z</time><name>PT2952</name></trkpt>
<trkpt lat="54.571299" lon="-3.247306"><ele>789</ele><time>2024-06-01T13:27:24Z</time><name>PT2953</name></trkpt>
<trkpt lat="54.571288" lon="-3.247264"><ele>787</ele><time>2024-06-01T13:27:28Z</time><name>PT2954</name></trkpt>
<trkpt lat="54.571277" lon="-3.247248"><ele>787</ele><time>2024-06-01T13:27:31Z</time><name>PT2955</name></trkpt>
<trkpt lat="54.571273" lon="-3.247221"><ele>787</ele><time>2024-06-01T13:27:34Z</time><name>PT2956</name></trkpt>
<trkpt lat="54.571275" lon="-3.247200"><ele>787</ele><time>2024-06-01T13:27:39Z</time><name>PT2957</name></trkpt>
<trkpt lat="54.571264" lon="-3.247150"><ele>786</ele><time>2024-06-01T13:27:43Z</time><name>PT2958</name></trkpt>
<trkpt lat="54.571264" lon="-3.247115"><ele>785</ele><time>2024-06-01T13:27:46Z</time><name>PT2959</name></trkpt>
<trkpt lat="54.571267" lon="-3.247076"><ele>785</ele><time>2024-06-01T13:27:49Z</time><name>PT2960</name></trkpt>
<trkpt lat="54.571259" lon="-3.247029"><ele>784</ele><time>2024-06-01T13:27:52Z</time><name>PT2961</name></trkpt>
<trkpt lat="54.571259" lon="-3.246998"><ele>783</ele><time>2024-06-01T13:27:55Z</time><name>PT2962</name></trkpt>
<trkpt lat="54.571252" lon="-3.246966"><ele>783</ele><time>2024-06-01T13:27:58Z</time><name>PT2963</name></trkpt>
<trkpt lat="54.571245" lon="-3.246906"><ele>782</ele><time>2024-06-01T13:28:03Z</time><name>PT2964</name></trkpt>
<trkpt lat="54.571242" lon="-3.246871"><ele>782</ele><time>2024-06-01T13:28:06Z</time><name>PT2965</name></trkpt>
<trkpt lat="54.571248" lon="-3.246818"><ele>782</ele><time>2024-06-01T13:28:10Z</time><name>PT2966</name></trkpt>
<trkpt lat="54.571251" lon="-3.246783"><ele>781</ele><time>2024-06-01T13:28:13Z</time><name>PT2967</name></trkpt>
<trkpt lat="54.571261" lon="-3.246751"><ele>781</ele><time>2024-06-01T13:28:18Z</time><name>PT2968</name></trkpt>
<trkpt lat="54.571240" lon="-3.246727"><ele>780</ele><time>2024-06-01T13:28:22Z</time><name>PT2969</name></trkpt>
<trkpt lat="54.571239" lon="-3.246703"><ele>780</ele><time>2024-06-01T13:28:25Z</time><name>PT2970</name></trkpt>
<trkpt lat="54.571233" lon="-3.246683"><ele>778</ele><time>2024-06-01T13:28:28Z</time><name>PT2971</name></trkpt>
<trkpt lat="54.571232" lon="-3.246662"><ele>779</ele><time>2024-06-01T13:28:31Z</time><name>PT2972</name></trkpt>
<trkpt lat="54.571237" lon="-3.246648"><ele>778</ele><time>2024-06-01T13:28:34Z</time><name>PT2973</name></trkpt>
<trkpt lat="54.571218" lon="-3.246642"><ele>776</ele><time>2024-06-01T13:28:39Z</time><name>PT2974</name></trkpt>
<trkpt lat="54.571203" lon="-3.246622"><ele>775</ele><time>2024-06-01T13:28:42Z</time><name>PT2975</name></trkpt>
<trkpt lat="54.571204" lon="-3.246575"><ele>773</ele><time>2024-06-01T13:28:46Z</time><name>PT2976</name></trkpt>
<trkpt lat="54.571218" lon="-3.246545"><ele>772</ele><time>2024-06-01T13:28:49Z</time><name>PT2977</name></trkpt>
<trkpt lat="54.571222" lon="-3.246501"><ele>772</ele><time>2024-06-01T13:28:52Z</time><name>PT2978</name></trkpt>
<trkpt lat="54.571221" lon="-3.246426"><ele>771</ele><time>2024-06-01T13:28:55Z</time><name>PT2979</name></trkpt>
<trkpt lat="54.571212" lon="-3.246392"><ele>771</ele><time>2024-06-01T13:28:58Z</time><name>PT2980</name></trkpt>
<trkpt lat="54.571201" lon="-3.246342"><ele>769</ele><time>2024-06-01T13:29:03Z</time><name>PT2981</name></trkpt>
<trkpt lat="54.571194" lon="-3.246307"><ele>768</ele><time>2024-06-01T13:29:06Z</time><name>PT2982</name></trkpt>
<trkpt lat="54.571178" lon="-3.246276"><ele>767</ele><time>2024-06-01T13:29:09Z</time><name>PT2983</name></trkpt>
<trkpt lat="54.571174" lon="-3.246197"><ele>766</ele><time>2024-06-01T13:29:13Z</time><name>PT2984</name></trkpt>
<trkpt lat="54.571169" lon="-3.246144"><ele>766</ele><time>2024-06-01T13:29:16Z</time><name>PT2985</name></trkpt>
<trkpt lat="54.571160" lon="-3.246077"><ele>765</ele><time>2024-06-01T13:29:19Z</time><name>PT2986</name></trkpt>
<trkpt lat="54.571152" lon="-3.246005"><ele>766</ele><time>2024-06-01T13:29:22Z</time><name>PT2987</name></trkpt>
<trkpt lat="54.571140" lon="-3.245921"><ele>767</ele><time>2024-06-01T13:29:25Z</time><name>PT2988</name></trkpt>
<trkpt lat="54.571136" lon="-3.245862"><ele>766</ele><time>2024-06-01T13:29:28Z</time><name>PT2989</name></trkpt>
<trkpt lat="54.571125" lon="-3.245794"><ele>766</ele><time>2024-06-01T13:29:31Z</time><name>PT2990</name></trkpt>
<trkpt lat="54.571130" lon="-3.245732"><ele>766</ele><time>2024-06-01T13:29:36Z</time><name>PT2991</name></trkpt>
<trkpt lat="54.571128" lon="-3.245704"><ele>765</ele><time>2024-06-01T13:29:39Z</time><name>PT2992</name></trkpt>
<trkpt lat="54.571124" lon="-3.245684"><ele>763</ele><time>2024-06-01T13:29:43Z</time><name>PT2993</name></trkpt>
<trkpt lat="54.571129" lon="-3.245668"><ele>762</ele><time>2024-06-01T13:29:46Z</time><name>PT2994</name></trkpt>
<trkpt lat="54.571131" lon="-3.245617"><ele>761</ele><time>2024-06-01T13:29:49Z</time><name>PT2995</name></trkpt>
<trkpt lat="54.571132" lon="-3.245576"><ele>760</ele><time>2024-06-01T13:29:52Z</time><name>PT2996</name></trkpt>
<trkpt lat="54.571128" lon="-3.245529"><ele>760</ele><time>2024-06-01T13:29:55Z</time><name>PT2997</name></trkpt>
<trkpt lat="54.571122" lon="-3.245480"><ele>759</ele><time>2024-06-01T13:29:58Z</time><name>PT2998</name></trkpt>
<trkpt lat="54.571126" lon="-3.245400"><ele>757</ele><time>2024-06-01T13:30:01Z</time><name>PT2999</name></trkpt>
<trkpt lat="54.571151" lon="-3.245332"><ele>758</ele><time>2024-06-01T13:30:06Z</time><name>PT3000</name></trkpt>
<trkpt lat="54.571149" lon="-3.245299"><ele>758</ele><time>2024-06-01T13:30:10Z</time><name>PT3001</name></trkpt>
<trkpt lat="54.571145" lon="-3.245294"><ele>757</ele><time>2024-06-01T13:30:13Z</time><name>PT3002</name></trkpt>
<trkpt lat="54.571128" lon="-3.245280"><ele>756</ele><time>2024-06-01T13:30:16Z</time><name>PT3003</name></trkpt>
<trkpt lat="54.571116" lon="-3.245280"><ele>756</ele><time>2024-06-01T13:30:20Z</time><name>PT3004</name></trkpt>
<trkpt lat="54.571105" lon="-3.245282"><ele>755</ele><time>2024-06-01T13:30:23Z</time><name>PT3005</name></trkpt>
<trkpt lat="54.571104" lon="-3.245287"><ele>755</ele><time>2024-06-01T13:30:27Z</time><name>PT3006</name></trkpt>
<trkpt lat="54.571101" lon="-3.245305"><ele>754</ele><time>2024-06-01T13:30:30Z</time><name>PT3007</name></trkpt>
<trkpt lat="54.571077" lon="-3.245314"><ele>752</ele><time>2024-06-01T13:30:34Z</time><name>PT3008</name></trkpt>
<trkpt lat="54.571068" lon="-3.245322"><ele>752</ele><time>2024-06-01T13:30:37Z</time><name>PT3009</name></trkpt>
<trkpt lat="54.571058" lon="-3.245311"><ele>751</ele><time>2024-06-01T13:30:40Z</time><name>PT3010</name></trkpt>
<trkpt lat="54.571040" lon="-3.245310"><ele>751</ele><time>2024-06-01T13:30:45Z</time><name>PT3011</name></trkpt>
<trkpt lat="54.571037" lon="-3.245313"><ele>749</ele><time>2024-06-01T13:30:48Z</time><name>PT3012</name></trkpt>
<trkpt lat="54.571036" lon="-3.245299"><ele>748</ele><time>2024-06-01T13:30:52Z</time><name>PT3013</name></trkpt>
<trkpt lat="54.571042" lon="-3.245301"><ele>747</ele><time>2024-06-01T13:30:55Z</time><name>PT3014</name></trkpt>
<trkpt lat="54.571043" lon="-3.245262"><ele>747</ele><time>2024-06-01T13:30:58Z</time><name>PT3015</name></trkpt>
<trkpt lat="54.571052" lon="-3.245200"><ele>746</ele><time>2024-06-01T13:31:01Z</time><name>PT3016</name></trkpt>
<trkpt lat="54.571048" lon="-3.245153"><ele>745</ele><time>2024-06-01T13:31:04Z</time><name>PT3017</name></trkpt>
<trkpt lat="54.571042" lon="-3.245120"><ele>744</ele><time>2024-06-01T13:31:07Z</time><name>PT3018</name></trkpt>
<trkpt lat="54.571030" lon="-3.245080"><ele>744</ele><time>2024-06-01T13:31:12Z</time><name>PT3019</name></trkpt>
<trkpt lat="54.571026" lon="-3.245055"><ele>744</ele><time>2024-06-01T13:31:15Z</time><name>PT3020</name></trkpt>
<trkpt lat="54.571032" lon="-3.245024"><ele>743</ele><time>2024-06-01T13:31:18Z</time><name>PT3021</name></trkpt>
<trkpt lat="54.571030" lon="-3.244993"><ele>742</ele><time>2024-06-01T13:31:21Z</time><name>PT3022</name></trkpt>
<trkpt lat="54.571031" lon="-3.244949"><ele>741</ele><time>2024-06-01T13:31:25Z</time><name>PT3023</name></trkpt>
<trkpt lat="54.571031" lon="-3.244922"><ele>742</ele><time>2024-06-01T13:31:28Z</time><name>PT3024</name></trkpt>
<trkpt lat="54.571032" lon="-3.244912"><ele>742</ele><time>2024-06-01T13:31:31Z</time><name>PT3025</name></trkpt>
<trkpt lat="54.571031" lon="-3.244891"><ele>742</ele><time>2024-06-01T13:31:46Z</time><name>PT3026</name></trkpt>
<trkpt lat="54.571036" lon="-3.244853"><ele>741</ele><time>2024-06-01T13:31:49Z</time><name>PT3027</name></trkpt>
<trkpt lat="54.571036" lon="-3.244852"><ele>741</ele><time>2024-06-01T13:31:54Z</time><name>PT3028</name></trkpt>
<trkpt lat="54.571021" lon="-3.244788"><ele>742</ele><time>2024-06-01T13:32:13Z</time><name>PT3029</name></trkpt>
<trkpt lat="54.571014" lon="-3.244709"><ele>742</ele><time>2024-06-01T13:32:16Z</time><name>PT3030</name></trkpt>
<trkpt lat="54.571007" lon="-3.244642"><ele>743</ele><time>2024-06-01T13:32:19Z</time><name>PT3031</name></trkpt>
<trkpt lat="54.571005" lon="-3.244572"><ele>743</ele><time>2024-06-01T13:32:24Z</time><name>PT3032</name></trkpt>
<trkpt lat="54.571003" lon="-3.244521"><ele>743</ele><time>2024-06-01T13:32:27Z</time><name>PT3033</name></trkpt>
<trkpt lat="54.571009" lon="-3.244443"><ele>744</ele><time>2024-06-01T13:32:31Z</time><name>PT3034</name></trkpt>
<trkpt lat="54.571005" lon="-3.244370"><ele>744</ele><time>2024-06-01T13:32:34Z</time><name>PT3035</name></trkpt>
<trkpt lat="54.571004" lon="-3.244357"><ele>744</ele><time>2024-06-01T13:32:37Z</time><name>PT3036</name></trkpt>
<trkpt lat="54.571004" lon="-3.244356"><ele>744</ele><time>2024-06-01T13:32:40Z</time><name>PT3037</name></trkpt>
<trkpt lat="54.571004" lon="-3.244315"><ele>744</ele><time>2024-06-01T13:32:52Z</time><name>PT3038</name></trkpt>
<trkpt lat="54.571018" lon="-3.244239"><ele>745</ele><time>2024-06-01T13:32:57Z</time><name>PT3039</name></trkpt>
<trkpt lat="54.571021" lon="-3.244156"><ele>745</ele><time>2024-06-01T13:33:01Z</time><name>PT3040</name></trkpt>
<trkpt lat="54.571014" lon="-3.244078"><ele>746</ele><time>2024-06-01T13:33:04Z</time><name>PT3041</name></trkpt>
<trkpt lat="54.571019" lon="-3.244018"><ele>746</ele><time>2024-06-01T13:33:09Z</time><name>PT3042</name></trkpt>
<trkpt lat="54.571028" lon="-3.243939"><ele>746</ele><time>2024-06-01T13:33:13Z</time><name>PT3043</name></trkpt>
<trkpt lat="54.571031" lon="-3.243888"><ele>746</ele><time>2024-06-01T13:33:16Z</time><name>PT3044</name></trkpt>
<trkpt lat="54.571036" lon="-3.243833"><ele>746</ele><time>2024-06-01T13:33:19Z</time><name>PT3045</name></trkpt>
<trkpt lat="54.571037" lon="-3.243764"><ele>748</ele><time>2024-06-01T13:33:22Z</time><name>PT3046</name></trkpt>
<trkpt lat="54.571046" lon="-3.243690"><ele>748</ele><time>2024-06-01T13:33:25Z</time><name>PT3047</name></trkpt>
<trkpt lat="54.571058" lon="-3.243605"><ele>749</ele><time>2024-06-01T13:33:30Z</time><name>PT3048</name></trkpt>
<trkpt lat="54.571066" lon="-3.243566"><ele>749</ele><time>2024-06-01T13:33:33Z</time><name>PT3049</name></trkpt>
<trkpt lat="54.571068" lon="-3.243503"><ele>750</ele><time>2024-06-01T13:33:37Z</time><name>PT3050</name></trkpt>
<trkpt lat="54.571073" lon="-3.243473"><ele>750</ele><time>2024-06-01T13:33:40Z</time><name>PT3051</name></trkpt>
<trkpt lat="54.571081" lon="-3.243430"><ele>751</ele><time>2024-06-01T13:33:43Z</time><name>PT3052</name></trkpt>
<trkpt lat="54.571089" lon="-3.243406"><ele>752</ele><time>2024-06-01T13:33:46Z</time><name>PT3053</name></trkpt>
<trkpt lat="54.571100" lon="-3.243380"><ele>752</ele><time>2024-06-01T13:33:51Z</time><name>PT3054</name></trkpt>
<trkpt lat="54.571099" lon="-3.243359"><ele>753</ele><time>2024-06-01T13:33:54Z</time><name>PT3055</name></trkpt>
<trkpt lat="54.571090" lon="-3.243334"><ele>754</ele><time>2024-06-01T13:33:57Z</time><name>PT3056</name></trkpt>
<trkpt lat="54.571089" lon="-3.243313"><ele>754</ele><time>2024-06-01T13:34:01Z</time><name>PT3057</name></trkpt>
<trkpt lat="54.571082" lon="-3.243291"><ele>755</ele><time>2024-06-01T13:34:04Z</time><name>PT3058</name></trkpt>
<trkpt lat="54.571079" lon="-3.243282"><ele>756</ele><time>2024-06-01T13:34:07Z</time><name>PT3059</name></trkpt>
<trkpt lat="54.571070" lon="-3.243272"><ele>757</ele><time>2024-06-01T13:34:10Z</time><name>PT3060</name></trkpt>
<trkpt lat="54.571066" lon="-3.243264"><ele>757</ele><time>2024-06-01T13:34:13Z</time><name>PT3061</name></trkpt>
<trkpt lat="54.571061" lon="-3.243224"><ele>758</ele><time>2024-06-01T13:34:21Z</time><name>PT3062</name></trkpt>
<trkpt lat="54.571058" lon="-3.243179"><ele>759</ele><time>2024-06-01T13:34:24Z</time><name>PT3063</name></trkpt>
<trkpt lat="54.571044" lon="-3.243120"><ele>761</ele><time>2024-06-01T13:34:28Z</time><name>PT3064</name></trkpt>
<trkpt lat="54.571051" lon="-3.243080"><ele>761</ele><time>2024-06-01T13:34:31Z</time><name>PT3065</name></trkpt>
<trkpt lat="54.571070" lon="-3.243015"><ele>762</ele><time>2024-06-01T13:34:34Z</time><name>PT3066</name></trkpt>
<trkpt lat="54.571085" lon="-3.242986"><ele>762</ele><time>2024-06-01T13:34:37Z</time><name>PT3067</name></trkpt>
<trkpt lat="54.571108" lon="-3.242933"><ele>763</ele><time>2024-06-01T13:34:42Z</time><name>PT3068</name></trkpt>
<trkpt lat="54.571126" lon="-3.242889"><ele>763</ele><time>2024-06-01T13:34:46Z</time><name>PT3069</name></trkpt>
<trkpt lat="54.571147" lon="-3.242846"><ele>764</ele><time>2024-06-01T13:34:49Z</time><name>PT3070</name></trkpt>
<trkpt lat="54.571169" lon="-3.242798"><ele>764</ele><time>2024-06-01T13:34:52Z</time><name>PT3071</name></trkpt>
<trkpt lat="54.571182" lon="-3.242729"><ele>765</ele><time>2024-06-01T13:34:57Z</time><name>PT3072</name></trkpt>
<trkpt lat="54.571189" lon="-3.242676"><ele>766</ele><time>2024-06-01T13:35:01Z</time><name>PT3073</name></trkpt>
<trkpt lat="54.571199" lon="-3.242641"><ele>766</ele><time>2024-06-01T13:35:04Z</time><name>PT3074</name></trkpt>
<trkpt lat="54.571200" lon="-3.242607"><ele>766</ele><time>2024-06-01T13:35:07Z</time><name>PT3075</name></trkpt>
<trkpt lat="54.571204" lon="-3.242573"><ele>767</ele><time>2024-06-01T13:35:10Z</time><name>PT3076</name></trkpt>
<trkpt lat="54.571206" lon="-3.242520"><ele>767</ele><time>2024-06-01T13:35:13Z</time><name>PT3077</name></trkpt>
<trkpt lat="54.571208" lon="-3.242486"><ele>767</ele><time>2024-06-01T13:35:16Z</time><name>PT3078</name></trkpt>
<trkpt lat="54.571203" lon="-3.242443"><ele>768</ele><time>2024-06-01T13:35:21Z</time><name>PT3079</name></trkpt>
<trkpt lat="54.571195" lon="-3.242419"><ele>768</ele><time>2024-06-01T13:35:24Z</time><name>PT3080</name></trkpt>
<trkpt lat="54.571188" lon="-3.242392"><ele>768</ele><time>2024-06-01T13:35:27Z</time><name>PT3081</name></trkpt>
<trkpt lat="54.571185" lon="-3.242352"><ele>769</ele><time>2024-06-01T13:35:31Z</time><name>PT3082</name></trkpt>
<trkpt lat="54.571185" lon="-3.242302"><ele>769</ele><time>2024-06-01T13:35:34Z</time><name>PT3083</name></trkpt>
<trkpt lat="54.571185" lon="-3.242250"><ele>770</ele><time>2024-06-01T13:35:37Z</time><name>PT3084</name></trkpt>
<trkpt lat="54.571187" lon="-3.242204"><ele>770</ele><time>2024-06-01T13:35:40Z</time><name>PT3085</name></trkpt>
<trkpt lat="54.571198" lon="-3.242163"><ele>771</ele><time>2024-06-01T13:35:43Z</time><name>PT3086</name></trkpt>
<trkpt lat="54.571206" lon="-3.242093"><ele>771</ele><time>2024-06-01T13:35:48Z</time><name>PT3087</name></trkpt>
<trkpt lat="54.571219" lon="-3.242042"><ele>771</ele><time>2024-06-01T13:35:51Z</time><name>PT3088</name></trkpt>
<trkpt lat="54.571229" lon="-3.242001"><ele>771</ele><time>2024-06-01T13:35:54Z</time><name>PT3089</name></trkpt>
<trkpt lat="54.571250" lon="-3.241968"><ele>771</ele><time>2024-06-01T13:35:57Z</time><name>PT3090</name></trkpt>
<trkpt lat="54.571278" lon="-3.241905"><ele>772</ele><time>2024-06-01T13:36:01Z</time><name>PT3091</name></trkpt>
<trkpt lat="54.571293" lon="-3.241861"><ele>772</ele><time>2024-06-01T13:36:04Z</time><name>PT3092</name></trkpt>
<trkpt lat="54.571305" lon="-3.241818"><ele>772</ele><time>2024-06-01T13:36:07Z</time><name>PT3093</name></trkpt>
<trkpt lat="54.571322" lon="-3.241762"><ele>773</ele><time>2024-06-01T13:36:10Z</time><name>PT3094</name></trkpt>
<trkpt lat="54.571339" lon="-3.241698"><ele>773</ele><time>2024-06-01T13:36:13Z</time><name>PT3095</name></trkpt>
<trkpt lat="54.571341" lon="-3.241651"><ele>773</ele><time>2024-06-01T13:36:16Z</time><name>PT3096</name></trkpt>
<trkpt lat="54.571338" lon="-3.241581"><ele>773</ele><time>2024-06-01T13:36:21Z</time><name>PT3097</name></trkpt>
<trkpt lat="54.571329" lon="-3.241523"><ele>773</ele><time>2024-06-01T13:36:24Z</time><name>PT3098</name></trkpt>
<trkpt lat="54.571306" lon="-3.241446"><ele>773</ele><time>2024-06-01T13:36:28Z</time><name>PT3099</name></trkpt>
<trkpt lat="54.571293" lon="-3.241377"><ele>773</ele><time>2024-06-01T13:36:31Z</time><name>PT3100</name></trkpt>
<trkpt lat="54.571284" lon="-3.241307"><ele>772</ele><time>2024-06-01T13:36:34Z</time><name>PT3101</name></trkpt>
<trkpt lat="54.571273" lon="-3.241262"><ele>772</ele><time>2024-06-01T13:36:37Z</time><name>PT3102</name></trkpt>
<trkpt lat="54.571259" lon="-3.241210"><ele>772</ele><time>2024-06-01T13:36:42Z</time><name>PT3103</name></trkpt>
<trkpt lat="54.571256" lon="-3.241181"><ele>771</ele><time>2024-06-01T13:36:45Z</time><name>PT3104</name></trkpt>
<trkpt lat="54.571249" lon="-3.241140"><ele>771</ele><time>2024-06-01T13:36:48Z</time><name>PT3105</name></trkpt>
<trkpt lat="54.571253" lon="-3.241091"><ele>770</ele><time>2024-06-01T13:36:51Z</time><name>PT3106</name></trkpt>
<trkpt lat="54.571260" lon="-3.241051"><ele>770</ele><time>2024-06-01T13:36:54Z</time><name>PT3107</name></trkpt>
<trkpt lat="54.571282" lon="-3.240973"><ele>770</ele><time>2024-06-01T13:36:58Z</time><name>PT3108</name></trkpt>
<trkpt lat="54.571293" lon="-3.240927"><ele>769</ele><time>2024-06-01T13:37:01Z</time><name>PT3109</name></trkpt>
<trkpt lat="54.571325" lon="-3.240850"><ele>770</ele><time>2024-06-01T13:37:05Z</time><name>PT3110</name></trkpt>
<trkpt lat="54.571337" lon="-3.240817"><ele>770</ele><time>2024-06-01T13:37:08Z</time><name>PT3111</name></trkpt>
<trkpt lat="54.571365" lon="-3.240753"><ele>769</ele><time>2024-06-01T13:37:12Z</time><name>PT3112</name></trkpt>
<trkpt lat="54.571386" lon="-3.240700"><ele>768</ele><time>2024-06-01T13:37:15Z</time><name>PT3113</name></trkpt>
<trkpt lat="54.571409" lon="-3.240621"><ele>768</ele><time>2024-06-01T13:37:20Z</time><name>PT3114</name></trkpt>
<trkpt lat="54.571423" lon="-3.240559"><ele>767</ele><time>2024-06-01T13:37:24Z</time><name>PT3115</name></trkpt>
<trkpt lat="54.571446" lon="-3.240486"><ele>766</ele><time>2024-06-01T13:37:27Z</time><name>PT3116</name></trkpt>
<trkpt lat="54.571465" lon="-3.240424"><ele>766</ele><time>2024-06-01T13:37:30Z</time><name>PT3117</name></trkpt>
<trkpt lat="54.571481" lon="-3.240368"><ele>765</ele><time>2024-06-01T13:37:35Z</time><name>PT3118</name></trkpt>
<trkpt lat="54.571498" lon="-3.240313"><ele>765</ele><time>2024-06-01T13:37:38Z</time><name>PT3119</name></trkpt>
<trkpt lat="54.571514" lon="-3.240255"><ele>764</ele><time>2024-06-01T13:37:42Z</time><name>PT3120</name></trkpt>
<trkpt lat="54.571530" lon="-3.240206"><ele>764</ele><time>2024-06-01T13:37:45Z</time><name>PT3121</name></trkpt>
<trkpt lat="54.571556" lon="-3.240152"><ele>763</ele><time>2024-06-01T13:37:48Z</time><name>PT3122</name></trkpt>
<trkpt lat="54.571569" lon="-3.240119"><ele>763</ele><time>2024-06-01T13:37:51Z</time><name>PT3123</name></trkpt>
<trkpt lat="54.571591" lon="-3.240075"><ele>761</ele><time>2024-06-01T13:37:54Z</time><name>PT3124</name></trkpt>
<trkpt lat="54.571623" lon="-3.240022"><ele>761</ele><time>2024-06-01T13:37:57Z</time><name>PT3125</name></trkpt>
<trkpt lat="54.571647" lon="-3.239972"><ele>760</ele><time>2024-06-01T13:38:02Z</time><name>PT3126</name></trkpt>
<trkpt lat="54.571674" lon="-3.239930"><ele>760</ele><time>2024-06-01T13:38:05Z</time><name>PT3127</name></trkpt>
<trkpt lat="54.571694" lon="-3.239875"><ele>759</ele><time>2024-06-01T13:38:09Z</time><name>PT3128</name></trkpt>
<trkpt lat="54.571718" lon="-3.239835"><ele>759</ele><time>2024-06-01T13:38:12Z</time><name>PT3129</name></trkpt>
<trkpt lat="54.571751" lon="-3.239786"><ele>758</ele><time>2024-06-01T13:38:15Z</time><name>PT3130</name></trkpt>
<trkpt lat="54.571773" lon="-3.239744"><ele>757</ele><time>2024-06-01T13:38:18Z</time><name>PT3131</name></trkpt>
<trkpt lat="54.571810" lon="-3.239691"><ele>756</ele><time>2024-06-01T13:38:23Z</time><name>PT3132</name></trkpt>
<trkpt lat="54.571831" lon="-3.239665"><ele>755</ele><time>2024-06-01T13:38:26Z</time><name>PT3133</name></trkpt>
<trkpt lat="54.571853" lon="-3.239629"><ele>754</ele><time>2024-06-01T13:38:29Z</time><name>PT3134</name></trkpt>
<trkpt lat="54.571878" lon="-3.239599"><ele>753</ele><time>2024-06-01T13:38:32Z</time><name>PT3135</name></trkpt>
<trkpt lat="54.571913" lon="-3.239563"><ele>751</ele><time>2024-06-01T13:38:36Z</time><name>PT3136</name></trkpt>
<trkpt lat="54.571964" lon="-3.239532"><ele>752</ele><time>2024-06-01T13:38:39Z</time><name>PT3137</name></trkpt>
<trkpt lat="54.571999" lon="-3.239513"><ele>753</ele><time>2024-06-01T13:38:42Z</time><name>PT3138</name></trkpt>
<trkpt lat="54.572048" lon="-3.239484"><ele>752</ele><time>2024-06-01T13:38:47Z</time><name>PT3139</name></trkpt>
<trkpt lat="54.572085" lon="-3.239454"><ele>750</ele><time>2024-06-01T13:38:51Z</time><name>PT3140</name></trkpt>
<trkpt lat="54.572114" lon="-3.239428"><ele>750</ele><time>2024-06-01T13:38:54Z</time><name>PT3141</name></trkpt>
<trkpt lat="54.572148" lon="-3.239386"><ele>750</ele><time>2024-06-01T13:38:57Z</time><name>PT3142</name></trkpt>
<trkpt lat="54.572182" lon="-3.239354"><ele>748</ele><time>2024-06-01T13:39:02Z</time><name>PT3143</name></trkpt>
<trkpt lat="54.572214" lon="-3.239328"><ele>747</ele><time>2024-06-01T13:39:06Z</time><name>PT3144</name></trkpt>
<trkpt lat="54.572240" lon="-3.239287"><ele>746</ele><time>2024-06-01T13:39:09Z</time><name>PT3145</name></trkpt>
<trkpt lat="54.572272" lon="-3.239260"><ele>745</ele><time>2024-06-01T13:39:14Z</time><name>PT3146</name></trkpt>
<trkpt lat="54.572309" lon="-3.239237"><ele>745</ele><time>2024-06-01T13:39:18Z</time><name>PT3147</name></trkpt>
<trkpt lat="54.572340" lon="-3.239216"><ele>745</ele><time>2024-06-01T13:39:21Z</time><name>PT3148</name></trkpt>
<trkpt lat="54.572368" lon="-3.239192"><ele>743</ele><time>2024-06-01T13:39:24Z</time><name>PT3149</name></trkpt>
<trkpt lat="54.572400" lon="-3.239172"><ele>743</ele><time>2024-06-01T13:39:27Z</time><name>PT3150</name></trkpt>
<trkpt lat="54.572431" lon="-3.239149"><ele>742</ele><time>2024-06-01T13:39:30Z</time><name>PT3151</name></trkpt>
<trkpt lat="54.572454" lon="-3.239133"><ele>740</ele><time>2024-06-01T13:39:33Z</time><name>PT3152</name></trkpt>
<trkpt lat="54.572481" lon="-3.239106"><ele>740</ele><time>2024-06-01T13:39:38Z</time><name>PT3153</name></trkpt>
<trkpt lat="54.572498" lon="-3.239082"><ele>738</ele><time>2024-06-01T13:39:41Z</time><name>PT3154</name></trkpt>
<trkpt lat="54.572514" lon="-3.239046"><ele>738</ele><time>2024-06-01T13:39:45Z</time><name>PT3155</name></trkpt>
<trkpt lat="54.572506" lon="-3.238996"><ele>736</ele><time>2024-06-01T13:39:48Z</time><name>PT3156</name></trkpt>
<trkpt lat="54.572494" lon="-3.238960"><ele>735</ele><time>2024-06-01T13:39:53Z</time><name>PT3157</name></trkpt>
<trkpt lat="54.572479" lon="-3.238917"><ele>733</ele><time>2024-06-01T13:39:57Z</time><name>PT3158</name></trkpt>
<trkpt lat="54.572460" lon="-3.238878"><ele>732</ele><time>2024-06-01T13:40:00Z</time><name>PT3159</name></trkpt>
<trkpt lat="54.572438" lon="-3.238847"><ele>733</ele><time>2024-06-01T13:40:05Z</time><name>PT3160</name></trkpt>
<trkpt lat="54.572414" lon="-3.238835"><ele>733</ele><time>2024-06-01T13:40:09Z</time><name>PT3161</name></trkpt>
<trkpt lat="54.572383" lon="-3.238814"><ele>732</ele><time>2024-06-01T13:40:12Z</time><name>PT3162</name></trkpt>
<trkpt lat="54.572361" lon="-3.238778"><ele>731</ele><time>2024-06-01T13:40:17Z</time><name>PT3163</name></trkpt>
<trkpt lat="54.572334" lon="-3.238741"><ele>730</ele><time>2024-06-01T13:40:21Z</time><name>PT3164</name></trkpt>
<trkpt lat="54.572316" lon="-3.238718"><ele>729</ele><time>2024-06-01T13:40:24Z</time><name>PT3165</name></trkpt>
<trkpt lat="54.572303" lon="-3.238672"><ele>728</ele><time>2024-06-01T13:40:27Z</time><name>PT3166</name></trkpt>
<trkpt lat="54.572307" lon="-3.238645"><ele>727</ele><time>2024-06-01T13:40:30Z</time><name>PT3167</name></trkpt>
<trkpt lat="54.572325" lon="-3.238625"><ele>726</ele><time>2024-06-01T13:40:35Z</time><name>PT3168</name></trkpt>
<trkpt lat="54.572353" lon="-3.238609"><ele>726</ele><time>2024-06-01T13:40:38Z</time><name>PT3169</name></trkpt>
<trkpt lat="54.572399" lon="-3.238567"><ele>725</ele><time>2024-06-01T13:40:42Z</time><name>PT3170</name></trkpt>
<trkpt lat="54.572426" lon="-3.238535"><ele>724</ele><time>2024-06-01T13:40:45Z</time><name>PT3171</name></trkpt>
<trkpt lat="54.572453" lon="-3.238506"><ele>724</ele><time>2024-06-01T13:40:48Z</time><name>PT3172</name></trkpt>
<trkpt lat="54.572498" lon="-3.238444"><ele>724</ele><time>2024-06-01T13:40:53Z</time><name>PT3173</name></trkpt>
<trkpt lat="54.572526" lon="-3.238418"><ele>723</ele><time>2024-06-01T13:40:56Z</time><name>PT3174</name></trkpt>
<trkpt lat="54.572555" lon="-3.238381"><ele>722</ele><time>2024-06-01T13:41:00Z</time><name>PT3175</name></trkpt>
<trkpt lat="54.572580" lon="-3.238354"><ele>724</ele><time>2024-06-01T13:41:03Z</time><name>PT3176</name></trkpt>
<trkpt lat="54.572610" lon="-3.238319"><ele>724</ele><time>2024-06-01T13:41:06Z</time><name>PT3177</name></trkpt>
<trkpt lat="54.572632" lon="-3.238286"><ele>722</ele><time>2024-06-01T13:41:09Z</time><name>PT3178</name></trkpt>
<trkpt lat="54.572653" lon="-3.238243"><ele>720</ele><time>2024-06-01T13:41:12Z</time><name>PT3179</name></trkpt>
<trkpt lat="54.572660" lon="-3.238192"><ele>719</ele><time>2024-06-01T13:41:17Z</time><name>PT3180</name></trkpt>
<trkpt lat="54.572645" lon="-3.238152"><ele>719</ele><time>2024-06-01T13:41:20Z</time><name>PT3181</name></trkpt>
<trkpt lat="54.572624" lon="-3.238109"><ele>717</ele><time>2024-06-01T13:41:24Z</time><name>PT3182</name></trkpt>
<trkpt lat="54.572600" lon="-3.238081"><ele>716</ele><time>2024-06-01T13:41:27Z</time><name>PT3183</name></trkpt>
<trkpt lat="54.572574" lon="-3.238051"><ele>716</ele><time>2024-06-01T13:41:32Z</time><name>PT3184</name></trkpt>
<trkpt lat="54.572543" lon="-3.238023"><ele>716</ele><time>2024-06-01T13:41:36Z</time><name>PT3185</name></trkpt>
<trkpt lat="54.572522" lon="-3.237992"><ele>714</ele><time>2024-06-01T13:41:39Z</time><name>PT3186</name></trkpt>
<trkpt lat="54.572538" lon="-3.237933"><ele>711</ele><time>2024-06-01T13:41:42Z</time><name>PT3187</name></trkpt>
<trkpt lat="54.572572" lon="-3.237892"><ele>710</ele><time>2024-06-01T13:41:47Z</time><name>PT3188</name></trkpt>
<trkpt lat="54.572595" lon="-3.237847"><ele>710</ele><time>2024-06-01T13:41:50Z</time><name>PT3189</name></trkpt>
<trkpt lat="54.572612" lon="-3.237812"><ele>710</ele><time>2024-06-01T13:41:54Z</time><name>PT3190</name></trkpt>
<trkpt lat="54.572640" lon="-3.237765"><ele>711</ele><time>2024-06-01T13:41:57Z</time><name>PT3191</name></trkpt>
<trkpt lat="54.572668" lon="-3.237715"><ele>713</ele><time>2024-06-01T13:42:00Z</time><name>PT3192</name></trkpt>
<trkpt lat="54.572698" lon="-3.237675"><ele>713</ele><time>2024-06-01T13:42:05Z</time><name>PT3193</name></trkpt>
<trkpt lat="54.572723" lon="-3.237638"><ele>711</ele><time>2024-06-01T13:42:08Z</time><name>PT3194</name></trkpt>
<trkpt lat="54.572749" lon="-3.237592"><ele>711</ele><time>2024-06-01T13:42:11Z</time><name>PT3195</name></trkpt>
<trkpt lat="54.572780" lon="-3.237534"><ele>711</ele><time>2024-06-01T13:42:15Z</time><name>PT3196</name></trkpt>
<trkpt lat="54.572804" lon="-3.237484"><ele>712</ele><time>2024-06-01T13:42:18Z</time><name>PT3197</name></trkpt>
<trkpt lat="54.572838" lon="-3.237422"><ele>711</ele><time>2024-06-01T13:42:23Z</time><name>PT3198</name></trkpt>
<trkpt lat="54.572856" lon="-3.237369"><ele>710</ele><time>2024-06-01T13:42:27Z</time><name>PT3199</name></trkpt>
<trkpt lat="54.572872" lon="-3.237311"><ele>709</ele><time>2024-06-01T13:42:30Z</time><name>PT3200</name></trkpt>
<trkpt lat="54.572896" lon="-3.237256"><ele>706</ele><time>2024-06-01T13:42:35Z</time><name>PT3201</name></trkpt>
<trkpt lat="54.572888" lon="-3.237200"><ele>706</ele><time>2024-06-01T13:42:38Z</time><name>PT3202</name></trkpt>
<trkpt lat="54.572878" lon="-3.237174"><ele>705</ele><time>2024-06-01T13:42:41Z</time><name>PT3203</name></trkpt>
<trkpt lat="54.572858" lon="-3.237151"><ele>705</ele><time>2024-06-01T13:42:44Z</time><name>PT3204</name></trkpt>
<trkpt lat="54.572824" lon="-3.237113"><ele>703</ele><time>2024-06-01T13:42:48Z</time><name>PT3205</name></trkpt>
<trkpt lat="54.572790" lon="-3.237070"><ele>702</ele><time>2024-06-01T13:42:51Z</time><name>PT3206</name></trkpt>
<trkpt lat="54.572767" lon="-3.237047"><ele>702</ele><time>2024-06-01T13:42:54Z</time><name>PT3207</name></trkpt>
<trkpt lat="54.572736" lon="-3.237005"><ele>701</ele><time>2024-06-01T13:42:59Z</time><name>PT3208</name></trkpt>
<trkpt lat="54.572720" lon="-3.236970"><ele>700</ele><time>2024-06-01T13:43:02Z</time><name>PT3209</name></trkpt>
<trkpt lat="54.572707" lon="-3.236934"><ele>699</ele><time>2024-06-01T13:43:05Z</time><name>PT3210</name></trkpt>
<trkpt lat="54.572709" lon="-3.236874"><ele>697</ele><time>2024-06-01T13:43:09Z</time><name>PT3211</name></trkpt>
<trkpt lat="54.572730" lon="-3.236833"><ele>697</ele><time>2024-06-01T13:43:12Z</time><name>PT3212</name></trkpt>
<trkpt lat="54.572758" lon="-3.236789"><ele>697</ele><time>2024-06-01T13:43:15Z</time><name>PT3213</name></trkpt>
<trkpt lat="54.572800" lon="-3.236720"><ele>697</ele><time>2024-06-01T13:43:18Z</time><name>PT3214</name></trkpt>
<trkpt lat="54.572833" lon="-3.236680"><ele>697</ele><time>2024-06-01T13:43:23Z</time><name>PT3215</name></trkpt>
<trkpt lat="54.572857" lon="-3.236647"><ele>696</ele><time>2024-06-01T13:43:26Z</time><name>PT3216</name></trkpt>
<trkpt lat="54.572898" lon="-3.236599"><ele>695</ele><time>2024-06-01T13:43:30Z</time><name>PT3217</name></trkpt>
<trkpt lat="54.572945" lon="-3.236543"><ele>693</ele><time>2024-06-01T13:43:33Z</time><name>PT3218</name></trkpt>
<trkpt lat="54.572980" lon="-3.236503"><ele>693</ele><time>2024-06-01T13:43:38Z</time><name>PT3219</name></trkpt>
<trkpt lat="54.573007" lon="-3.236459"><ele>693</ele><time>2024-06-01T13:43:41Z</time><name>PT3220</name></trkpt>
<trkpt lat="54.573027" lon="-3.236414"><ele>691</ele><time>2024-06-01T13:43:44Z</time><name>PT3221</name></trkpt>
<trkpt lat="54.573042" lon="-3.236372"><ele>690</ele><time>2024-06-01T13:43:47Z</time><name>PT3222</name></trkpt>
<trkpt lat="54.573049" lon="-3.236333"><ele>690</ele><time>2024-06-01T13:43:51Z</time><name>PT3223</name></trkpt>
<trkpt lat="54.573021" lon="-3.236302"><ele>688</ele><time>2024-06-01T13:43:54Z</time><name>PT3224</name></trkpt>
<trkpt lat="54.572993" lon="-3.236272"><ele>688</ele><time>2024-06-01T13:43:59Z</time><name>PT3225</name></trkpt>
<trkpt lat="54.572972" lon="-3.236235"><ele>687</ele><time>2024-06-01T13:44:03Z</time><name>PT3226</name></trkpt>
<trkpt lat="54.572958" lon="-3.236204"><ele>686</ele><time>2024-06-01T13:44:06Z</time><name>PT3227</name></trkpt>
<trkpt lat="54.572934" lon="-3.236167"><ele>685</ele><time>2024-06-01T13:44:09Z</time><name>PT3228</name></trkpt>
<trkpt lat="54.572918" lon="-3.236135"><ele>685</ele><time>2024-06-01T13:44:12Z</time><name>PT3229</name></trkpt>
<trkpt lat="54.572902" lon="-3.236088"><ele>684</ele><time>2024-06-01T13:44:15Z</time><name>PT3230</name></trkpt>
<trkpt lat="54.572926" lon="-3.236041"><ele>682</ele><time>2024-06-01T13:44:20Z</time><name>PT3231</name></trkpt>
<trkpt lat="54.572950" lon="-3.236010"><ele>683</ele><time>2024-06-01T13:44:23Z</time><name>PT3232</name></trkpt>
<trkpt lat="54.572988" lon="-3.235951"><ele>681</ele><time>2024-06-01T13:44:27Z</time><name>PT3233</name></trkpt>
<trkpt lat="54.573007" lon="-3.235915"><ele>680</ele><time>2024-06-01T13:44:30Z</time><name>PT3234</name></trkpt>
<trkpt lat="54.573048" lon="-3.235853"><ele>679</ele><time>2024-06-01T13:44:33Z</time><name>PT3235</name></trkpt>
<trkpt lat="54.573085" lon="-3.235787"><ele>678</ele><time>2024-06-01T13:44:38Z</time><name>PT3236</name></trkpt>
<trkpt lat="54.573107" lon="-3.235752"><ele>677</ele><time>2024-06-01T13:44:41Z</time><name>PT3237</name></trkpt>
<trkpt lat="54.573121" lon="-3.235728"><ele>676</ele><time>2024-06-01T13:44:44Z</time><name>PT3238</name></trkpt>
<trkpt lat="54.573111" lon="-3.235677"><ele>675</ele><time>2024-06-01T13:44:48Z</time><name>PT3239</name></trkpt>
<trkpt lat="54.573085" lon="-3.235640"><ele>675</ele><time>2024-06-01T13:44:51Z</time><name>PT3240</name></trkpt>
<trkpt lat="54.573068" lon="-3.235604"><ele>674</ele><time>2024-06-01T13:44:54Z</time><name>PT3241</name></trkpt>
<trkpt lat="54.573041" lon="-3.235552"><ele>674</ele><time>2024-06-01T13:44:57Z</time><name>PT3242</name></trkpt>
<trkpt lat="54.573008" lon="-3.235514"><ele>673</ele><time>2024-06-01T13:45:02Z</time><name>PT3243</name></trkpt>
<trkpt lat="54.572985" lon="-3.235493"><ele>672</ele><time>2024-06-01T13:45:05Z</time><name>PT3244</name></trkpt>
<trkpt lat="54.572969" lon="-3.235478"><ele>671</ele><time>2024-06-01T13:45:08Z</time><name>PT3245</name></trkpt>
<trkpt lat="54.572947" lon="-3.235445"><ele>669</ele><time>2024-06-01T13:45:12Z</time><name>PT3246</name></trkpt>
<trkpt lat="54.572933" lon="-3.235408"><ele>669</ele><time>2024-06-01T13:45:15Z</time><name>PT3247</name></trkpt>
<trkpt lat="54.572942" lon="-3.235369"><ele>668</ele><time>2024-06-01T13:45:18Z</time><name>PT3248</name></trkpt>
<trkpt lat="54.572960" lon="-3.235336"><ele>666</ele><time>2024-06-01T13:45:21Z</time><name>PT3249</name></trkpt>
<trkpt lat="54.572985" lon="-3.235285"><ele>663</ele><time>2024-06-01T13:45:24Z</time><name>PT3250</name></trkpt>
<trkpt lat="54.573004" lon="-3.235252"><ele>662</ele><time>2024-06-01T13:45:27Z</time><name>PT3251</name></trkpt>
<trkpt lat="54.573030" lon="-3.235200"><ele>661</ele><time>2024-06-01T13:45:32Z</time><name>PT3252</name></trkpt>
<trkpt lat="54.573062" lon="-3.235129"><ele>660</ele><time>2024-06-01T13:45:36Z</time><name>PT3253</name></trkpt>
<trkpt lat="54.573107" lon="-3.235057"><ele>661</ele><time>2024-06-01T13:45:39Z</time><name>PT3254</name></trkpt>
<trkpt lat="54.573138" lon="-3.235014"><ele>661</ele><time>2024-06-01T13:45:44Z</time><name>PT3255</name></trkpt>
<trkpt lat="54.573132" lon="-3.234971"><ele>661</ele><time>2024-06-01T13:45:47Z</time><name>PT3256</name></trkpt>
<trkpt lat="54.573103" lon="-3.234923"><ele>660</ele><time>2024-06-01T13:45:51Z</time><name>PT3257</name></trkpt>
<trkpt lat="54.573083" lon="-3.234895"><ele>659</ele><time>2024-06-01T13:45:54Z</time><name>PT3258</name></trkpt>
<trkpt lat="54.573064" lon="-3.234864"><ele>659</ele><time>2024-06-01T13:45:57Z</time><name>PT3259</name></trkpt>
<trkpt lat="54.573039" lon="-3.234822"><ele>657</ele><time>2024-06-01T13:46:00Z</time><name>PT3260</name></trkpt>
<trkpt lat="54.573015" lon="-3.234783"><ele>656</ele><time>2024-06-01T13:46:05Z</time><name>PT3261</name></trkpt>
<trkpt lat="54.573010" lon="-3.234713"><ele>654</ele><time>2024-06-01T13:46:09Z</time><name>PT3262</name></trkpt>
<trkpt lat="54.573024" lon="-3.234654"><ele>652</ele><time>2024-06-01T13:46:12Z</time><name>PT3263</name></trkpt>
<trkpt lat="54.573052" lon="-3.234605"><ele>652</ele><time>2024-06-01T13:46:15Z</time><name>PT3264</name></trkpt>
<trkpt lat="54.573099" lon="-3.234539"><ele>651</ele><time>2024-06-01T13:46:18Z</time><name>PT3265</name></trkpt>
<trkpt lat="54.573142" lon="-3.234483"><ele>651</ele><time>2024-06-01T13:46:23Z</time><name>PT3266</name></trkpt>
<trkpt lat="54.573170" lon="-3.234439"><ele>651</ele><time>2024-06-01T13:46:27Z</time><name>PT3267</name></trkpt>
<trkpt lat="54.573211" lon="-3.234381"><ele>650</ele><time>2024-06-01T13:46:30Z</time><name>PT3268</name></trkpt>
<trkpt lat="54.573241" lon="-3.234337"><ele>650</ele><time>2024-06-01T13:46:33Z</time><name>PT3269</name></trkpt>
<trkpt lat="54.573260" lon="-3.234279"><ele>650</ele><time>2024-06-01T13:46:38Z</time><name>PT3270</name></trkpt>
<trkpt lat="54.573265" lon="-3.234224"><ele>649</ele><time>2024-06-01T13:46:42Z</time><name>PT3271</name></trkpt>
<trkpt lat="54.573272" lon="-3.234150"><ele>648</ele><time>2024-06-01T13:46:45Z</time><name>PT3272</name></trkpt>
<trkpt lat="54.573273" lon="-3.234075"><ele>647</ele><time>2024-06-01T13:46:50Z</time><name>PT3273</name></trkpt>
<trkpt lat="54.573258" lon="-3.234027"><ele>645</ele><time>2024-06-01T13:46:54Z</time><name>PT3274</name></trkpt>
<trkpt lat="54.573239" lon="-3.233981"><ele>643</ele><time>2024-06-01T13:46:57Z</time><name>PT3275</name></trkpt>
<trkpt lat="54.573219" lon="-3.233933"><ele>642</ele><time>2024-06-01T13:47:00Z</time><name>PT3276</name></trkpt>
<trkpt lat="54.573199" lon="-3.233877"><ele>640</ele><time>2024-06-01T13:47:03Z</time><name>PT3277</name></trkpt>
<trkpt lat="54.573172" lon="-3.233810"><ele>640</ele><time>2024-06-01T13:47:08Z</time><name>PT3278</name></trkpt>
<trkpt lat="54.573163" lon="-3.233762"><ele>639</ele><time>2024-06-01T13:47:11Z</time><name>PT3279</name></trkpt>
<trkpt lat="54.573153" lon="-3.233715"><ele>638</ele><time>2024-06-01T13:47:14Z</time><name>PT3280</name></trkpt>
<trkpt lat="54.573167" lon="-3.233629"><ele>638</ele><time>2024-06-01T13:47:18Z</time><name>PT3281</name></trkpt>
<trkpt lat="54.573203" lon="-3.233564"><ele>637</ele><time>2024-06-01T13:47:21Z</time><name>PT3282</name></trkpt>
<trkpt lat="54.573228" lon="-3.233525"><ele>636</ele><time>2024-06-01T13:47:26Z</time><name>PT3283</name></trkpt>
<trkpt lat="54.573245" lon="-3.233463"><ele>635</ele><time>2024-06-01T13:47:30Z</time><name>PT3284</name></trkpt>
<trkpt lat="54.573228" lon="-3.233414"><ele>635</ele><time>2024-06-01T13:47:33Z</time><name>PT3285</name></trkpt>
<trkpt lat="54.573201" lon="-3.233376"><ele>635</ele><time>2024-06-01T13:47:36Z</time><name>PT3286</name></trkpt>
<trkpt lat="54.573173" lon="-3.233335"><ele>635</ele><time>2024-06-01T13:47:39Z</time><name>PT3287</name></trkpt>
<trkpt lat="54.573145" lon="-3.233277"><ele>634</ele><time>2024-06-01T13:47:42Z</time><name>PT3288</name></trkpt>
<trkpt lat="54.573147" lon="-3.233200"><ele>632</ele><time>2024-06-01T13:47:47Z</time><name>PT3289</name></trkpt>
<trkpt lat="54.573178" lon="-3.233159"><ele>630</ele><time>2024-06-01T13:47:51Z</time><name>PT3290</name></trkpt>
<trkpt lat="54.573204" lon="-3.233124"><ele>630</ele><time>2024-06-01T13:47:54Z</time><name>PT3291</name></trkpt>
<trkpt lat="54.573227" lon="-3.233088"><ele>629</ele><time>2024-06-01T13:47:57Z</time><name>PT3292</name></trkpt>
<trkpt lat="54.573263" lon="-3.233038"><ele>627</ele><time>2024-06-01T13:48:02Z</time><name>PT3293</name></trkpt>
<trkpt lat="54.573272" lon="-3.232987"><ele>627</ele><time>2024-06-01T13:48:05Z</time><name>PT3294</name></trkpt>
<trkpt lat="54.573237" lon="-3.232914"><ele>626</ele><time>2024-06-01T13:48:09Z</time><name>PT3295</name></trkpt>
<trkpt lat="54.573219" lon="-3.232859"><ele>625</ele><time>2024-06-01T13:48:12Z</time><name>PT3296</name></trkpt>
<trkpt lat="54.573200" lon="-3.232796"><ele>624</ele><time>2024-06-01T13:48:15Z</time><name>PT3297</name></trkpt>
<trkpt lat="54.573180" lon="-3.232690"><ele>624</ele><time>2024-06-01T13:48:20Z</time><name>PT3298</name></trkpt>
<trkpt lat="54.573176" lon="-3.232606"><ele>624</ele><time>2024-06-01T13:48:23Z</time><name>PT3299</name></trkpt>
<trkpt lat="54.573178" lon="-3.232545"><ele>624</ele><time>2024-06-01T13:48:26Z</time><name>PT3300</name></trkpt>
<trkpt lat="54.573188" lon="-3.232492"><ele>623</ele><time>2024-06-01T13:48:29Z</time><name>PT3301</name></trkpt>
<trkpt lat="54.573206" lon="-3.232401"><ele>623</ele><time>2024-06-01T13:48:33Z</time><name>PT3302</name></trkpt>
<trkpt lat="54.573209" lon="-3.232341"><ele>624</ele><time>2024-06-01T13:48:36Z</time><name>PT3303</name></trkpt>
<trkpt lat="54.573222" lon="-3.232322"><ele>624</ele><time>2024-06-01T13:48:39Z</time><name>PT3304</name></trkpt>
<trkpt lat="54.573229" lon="-3.232311"><ele>623</ele><time>2024-06-01T13:48:42Z</time><name>PT3305</name></trkpt>
<trkpt lat="54.573229" lon="-3.232310"><ele>623</ele><time>2024-06-01T13:48:45Z</time><name>PT3306</name></trkpt>
<trkpt lat="54.573237" lon="-3.232317"><ele>623</ele><time>2024-06-01T13:49:32Z</time><name>PT3307</name></trkpt>
<trkpt lat="54.573236" lon="-3.232314"><ele>622</ele><time>2024-06-01T13:49:36Z</time><name>PT3308</name></trkpt>
<trkpt lat="54.573236" lon="-3.232313"><ele>622</ele><time>2024-06-01T13:49:39Z</time><name>PT3309</name></trkpt>
<trkpt lat="54.573248" lon="-3.232301"><ele>622</ele><time>2024-06-01T13:50:33Z</time><name>PT3310</name></trkpt>
<trkpt lat="54.573284" lon="-3.232298"><ele>621</ele><time>2024-06-01T13:50:36Z</time><name>PT3311</name></trkpt>
<trkpt lat="54.573339" lon="-3.232290"><ele>621</ele><time>2024-06-01T13:50:39Z</time><name>PT3312</name></trkpt>
<trkpt lat="54.573381" lon="-3.232282"><ele>622</ele><time>2024-06-01T13:50:44Z</time><name>PT3313</name></trkpt>
<trkpt lat="54.573421" lon="-3.232274"><ele>623</ele><time>2024-06-01T13:50:47Z</time><name>PT3314</name></trkpt>
<trkpt lat="54.573469" lon="-3.232264"><ele>623</ele><time>2024-06-01T13:50:51Z</time><name>PT3315</name></trkpt>
<trkpt lat="54.573503" lon="-3.232255"><ele>622</ele><time>2024-06-01T13:50:54Z</time><name>PT3316</name></trkpt>
<trkpt lat="54.573554" lon="-3.232236"><ele>622</ele><time>2024-06-01T13:50:57Z</time><name>PT3317</name></trkpt>
<trkpt lat="54.573593" lon="-3.232221"><ele>621</ele><time>2024-06-01T13:51:02Z</time><name>PT3318</name></trkpt>
<trkpt lat="54.573625" lon="-3.232210"><ele>621</ele><time>2024-06-01T13:51:05Z</time><name>PT3319</name></trkpt>
<trkpt lat="54.573648" lon="-3.232202"><ele>620</ele><time>2024-06-01T13:51:08Z</time><name>PT3320</name></trkpt>
<trkpt lat="54.573675" lon="-3.232187"><ele>619</ele><time>2024-06-01T13:51:12Z</time><name>PT3321</name></trkpt>
<trkpt lat="54.573713" lon="-3.232171"><ele>618</ele><time>2024-06-01T13:51:15Z</time><name>PT3322</name></trkpt>
<trkpt lat="54.573749" lon="-3.232162"><ele>617</ele><time>2024-06-01T13:51:20Z</time><name>PT3323</name></trkpt>
<trkpt lat="54.573771" lon="-3.232165"><ele>616</ele><time>2024-06-01T13:51:23Z</time><name>PT3324</name></trkpt>
<trkpt lat="54.573803" lon="-3.232164"><ele>615</ele><time>2024-06-01T13:51:27Z</time><name>PT3325</name></trkpt>
<trkpt lat="54.573820" lon="-3.232160"><ele>614</ele><time>2024-06-01T13:51:30Z</time><name>PT3326</name></trkpt>
<trkpt lat="54.573846" lon="-3.232135"><ele>613</ele><time>2024-06-01T13:51:35Z</time><name>PT3327</name></trkpt>
<trkpt lat="54.573864" lon="-3.232129"><ele>612</ele><time>2024-06-01T13:51:38Z</time><name>PT3328</name></trkpt>
<trkpt lat="54.573890" lon="-3.232113"><ele>612</ele><time>2024-06-01T13:51:42Z</time><name>PT3329</name></trkpt>
<trkpt lat="54.573910" lon="-3.232120"><ele>611</ele><time>2024-06-01T13:51:45Z</time><name>PT3330</name></trkpt>
<trkpt lat="54.573930" lon="-3.232120"><ele>610</ele><time>2024-06-01T13:51:48Z</time><name>PT3331</name></trkpt>
<trkpt lat="54.573947" lon="-3.232100"><ele>609</ele><time>2024-06-01T13:51:51Z</time><name>PT3332</name></trkpt>
<trkpt lat="54.573957" lon="-3.232096"><ele>609</ele><time>2024-06-01T13:51:56Z</time><name>PT3333</name></trkpt>
<trkpt lat="54.573981" lon="-3.232064"><ele>609</ele><time>2024-06-01T13:52:00Z</time><name>PT3334</name></trkpt>
<trkpt lat="54.573997" lon="-3.232045"><ele>607</ele><time>2024-06-01T13:52:03Z</time><name>PT3335</name></trkpt>
<trkpt lat="54.574015" lon="-3.232018"><ele>606</ele><time>2024-06-01T13:52:06Z</time><name>PT3336</name></trkpt>
<trkpt lat="54.574028" lon="-3.231987"><ele>605</ele><time>2024-06-01T13:52:11Z</time><name>PT3337</name></trkpt>
<trkpt lat="54.574047" lon="-3.231981"><ele>604</ele><time>2024-06-01T13:52:15Z</time><name>PT3338</name></trkpt>
<trkpt lat="54.574056" lon="-3.231945"><ele>602</ele><time>2024-06-01T13:52:18Z</time><name>PT3339</name></trkpt>
<trkpt lat="54.574071" lon="-3.231901"><ele>601</ele><time>2024-06-01T13:52:23Z</time><name>PT3340</name></trkpt>
<trkpt lat="54.574080" lon="-3.231873"><ele>599</ele><time>2024-06-01T13:52:26Z</time><name>PT3341</name></trkpt>
<trkpt lat="54.574089" lon="-3.231832"><ele>598</ele><time>2024-06-01T13:52:29Z</time><name>PT3342</name></trkpt>
<trkpt lat="54.574111" lon="-3.231784"><ele>597</ele><time>2024-06-01T13:52:33Z</time><name>PT3343</name></trkpt>
<trkpt lat="54.574125" lon="-3.231746"><ele>597</ele><time>2024-06-01T13:52:36Z</time><name>PT3344</name></trkpt>
<trkpt lat="54.574141" lon="-3.231700"><ele>597</ele><time>2024-06-01T13:52:39Z</time><name>PT3345</name></trkpt>
<trkpt lat="54.574157" lon="-3.231663"><ele>597</ele><time>2024-06-01T13:52:44Z</time><name>PT3346</name></trkpt>
<trkpt lat="54.574171" lon="-3.231623"><ele>596</ele><time>2024-06-01T13:52:48Z</time><name>PT3347</name></trkpt>
<trkpt lat="54.574182" lon="-3.231599"><ele>595</ele><time>2024-06-01T13:52:51Z</time><name>PT3348</name></trkpt>
<trkpt lat="54.574195" lon="-3.231580"><ele>594</ele><time>2024-06-01T13:52:54Z</time><name>PT3349</name></trkpt>
<trkpt lat="54.574218" lon="-3.231559"><ele>595</ele><time>2024-06-01T13:52:57Z</time><name>PT3350</name></trkpt>
<trkpt lat="54.574236" lon="-3.231531"><ele>594</ele><time>2024-06-01T13:53:02Z</time><name>PT3351</name></trkpt>
<trkpt lat="54.574249" lon="-3.231513"><ele>593</ele><time>2024-06-01T13:53:05Z</time><name>PT3352</name></trkpt>
<trkpt lat="54.574259" lon="-3.231488"><ele>591</ele><time>2024-06-01T13:53:08Z</time><name>PT3353</name></trkpt>
<trkpt lat="54.574265" lon="-3.231463"><ele>590</ele><time>2024-06-01T13:53:11Z</time><name>PT3354</name></trkpt>
<trkpt lat="54.574276" lon="-3.231426"><ele>588</ele><time>2024-06-01T13:53:15Z</time><name>PT3355</name></trkpt>
<trkpt lat="54.574288" lon="-3.231409"><ele>587</ele><time>2024-06-01T13:53:18Z</time><name>PT3356</name></trkpt>
<trkpt lat="54.574322" lon="-3.231391"><ele>586</ele><time>2024-06-01T13:53:21Z</time><name>PT3357</name></trkpt>
<trkpt lat="54.574343" lon="-3.231368"><ele>585</ele><time>2024-06-01T13:53:24Z</time><name>PT3358</name></trkpt>
<trkpt lat="54.574368" lon="-3.231337"><ele>583</ele><time>2024-06-01T13:53:29Z</time><name>PT3359</name></trkpt>
<trkpt lat="54.574391" lon="-3.231303"><ele>583</ele><time>2024-06-01T13:53:33Z</time><name>PT3360</name></trkpt>
<trkpt lat="54.574407" lon="-3.231286"><ele>582</ele><time>2024-06-01T13:53:36Z</time><name>PT3361</name></trkpt>
<trkpt lat="54.574425" lon="-3.231251"><ele>582</ele><time>2024-06-01T13:53:39Z</time><name>PT3362</name></trkpt>
<trkpt lat="54.574441" lon="-3.231242"><ele>582</ele><time>2024-06-01T13:53:42Z</time><name>PT3363</name></trkpt>
<trkpt lat="54.574472" lon="-3.231205"><ele>581</ele><time>2024-06-01T13:53:47Z</time><name>PT3364</name></trkpt>
<trkpt lat="54.574509" lon="-3.231176"><ele>580</ele><time>2024-06-01T13:53:51Z</time><name>PT3365</name></trkpt>
<trkpt lat="54.574530" lon="-3.231150"><ele>580</ele><time>2024-06-01T13:53:54Z</time><name>PT3366</name></trkpt>
<trkpt lat="54.574554" lon="-3.231118"><ele>580</ele><time>2024-06-01T13:53:57Z</time><name>PT3367</name></trkpt>
<trkpt lat="54.574576" lon="-3.231075"><ele>578</ele><time>2024-06-01T13:54:00Z</time><name>PT3368</name></trkpt>
<trkpt lat="54.574589" lon="-3.231057"><ele>577</ele><time>2024-06-01T13:54:05Z</time><name>PT3369</name></trkpt>
<trkpt lat="54.574606" lon="-3.231043"><ele>576</ele><time>2024-06-01T13:54:08Z</time><name>PT3370</name></trkpt>
<trkpt lat="54.574634" lon="-3.231030"><ele>576</ele><time>2024-06-01T13:54:12Z</time><name>PT3371</name></trkpt>
<trkpt lat="54.574659" lon="-3.231014"><ele>576</ele><time>2024-06-01T13:54:15Z</time><name>PT3372</name></trkpt>
<trkpt lat="54.574685" lon="-3.231009"><ele>575</ele><time>2024-06-01T13:54:18Z</time><name>PT3373</name></trkpt>
<trkpt lat="54.574706" lon="-3.230997"><ele>575</ele><time>2024-06-01T13:54:21Z</time><name>PT3374</name></trkpt>
<trkpt lat="54.574711" lon="-3.230974"><ele>576</ele><time>2024-06-01T13:54:24Z</time><name>PT3375</name></trkpt>
<trkpt lat="54.574718" lon="-3.230957"><ele>577</ele><time>2024-06-01T13:54:36Z</time><name>PT3376</name></trkpt>
<trkpt lat="54.574739" lon="-3.230919"><ele>576</ele><time>2024-06-01T13:54:39Z</time><name>PT3377</name></trkpt>
<trkpt lat="54.574765" lon="-3.230890"><ele>575</ele><time>2024-06-01T13:54:42Z</time><name>PT3378</name></trkpt>
<trkpt lat="54.574795" lon="-3.230862"><ele>571</ele><time>2024-06-01T13:54:47Z</time><name>PT3379</name></trkpt>
<trkpt lat="54.574831" lon="-3.230841"><ele>572</ele><time>2024-06-01T13:54:51Z</time><name>PT3380</name></trkpt>
<trkpt lat="54.574852" lon="-3.230809"><ele>571</ele><time>2024-06-01T13:54:54Z</time><name>PT3381</name></trkpt>
<trkpt lat="54.574887" lon="-3.230787"><ele>569</ele><time>2024-06-01T13:54:57Z</time><name>PT3382</name></trkpt>
<trkpt lat="54.574905" lon="-3.230767"><ele>567</ele><time>2024-06-01T13:55:00Z</time><name>PT3383</name></trkpt>
<trkpt lat="54.574926" lon="-3.230749"><ele>564</ele><time>2024-06-01T13:55:03Z</time><name>PT3384</name></trkpt>
<trkpt lat="54.574954" lon="-3.230739"><ele>561</ele><time>2024-06-01T13:55:08Z</time><name>PT3385</name></trkpt>
<trkpt lat="54.574984" lon="-3.230727"><ele>563</ele><time>2024-06-01T13:55:11Z</time><name>PT3386</name></trkpt>
<trkpt lat="54.575033" lon="-3.230702"><ele>564</ele><time>2024-06-01T13:55:15Z</time><name>PT3387</name></trkpt>
<trkpt lat="54.575075" lon="-3.230663"><ele>562</ele><time>2024-06-01T13:55:18Z</time><name>PT3388</name></trkpt>
<trkpt lat="54.575104" lon="-3.230638"><ele>561</ele><time>2024-06-01T13:55:23Z</time><name>PT3389</name></trkpt>
<trkpt lat="54.575124" lon="-3.230621"><ele>560</ele><time>2024-06-01T13:55:26Z</time><name>PT3390</name></trkpt>
<trkpt lat="54.575148" lon="-3.230619"><ele>559</ele><time>2024-06-01T13:55:30Z</time><name>PT3391</name></trkpt>
<trkpt lat="54.575165" lon="-3.230612"><ele>557</ele><time>2024-06-01T13:55:33Z</time><name>PT3392</name></trkpt>
<trkpt lat="54.575179" lon="-3.230633"><ele>554</ele><time>2024-06-01T13:55:36Z</time><name>PT3393</name></trkpt>
<trkpt lat="54.575213" lon="-3.230623"><ele>553</ele><time>2024-06-01T13:55:39Z</time><name>PT3394</name></trkpt>
<trkpt lat="54.575242" lon="-3.230612"><ele>552</ele><time>2024-06-01T13:55:44Z</time><name>PT3395</name></trkpt>
<trkpt lat="54.575266" lon="-3.230593"><ele>552</ele><time>2024-06-01T13:55:47Z</time><name>PT3396</name></trkpt>
<trkpt lat="54.575289" lon="-3.230584"><ele>552</ele><time>2024-06-01T13:55:50Z</time><name>PT3397</name></trkpt>
<trkpt lat="54.575312" lon="-3.230581"><ele>550</ele><time>2024-06-01T13:55:54Z</time><name>PT3398</name></trkpt>
<trkpt lat="54.575349" lon="-3.230557"><ele>549</ele><time>2024-06-01T13:55:57Z</time><name>PT3399</name></trkpt>
<trkpt lat="54.575381" lon="-3.230546"><ele>549</ele><time>2024-06-01T13:56:00Z</time><name>PT3400</name></trkpt>
<trkpt lat="54.575421" lon="-3.230524"><ele>548</ele><time>2024-06-01T13:56:05Z</time><name>PT3401</name></trkpt>
<trkpt lat="54.575450" lon="-3.230502"><ele>547</ele><time>2024-06-01T13:56:09Z</time><name>PT3402</name></trkpt>
<trkpt lat="54.575471" lon="-3.230480"><ele>546</ele><time>2024-06-01T13:56:12Z</time><name>PT3403</name></trkpt>
<trkpt lat="54.575483" lon="-3.230477"><ele>544</ele><time>2024-06-01T13:56:15Z</time><name>PT3404</name></trkpt>
<trkpt lat="54.575484" lon="-3.230482"><ele>542</ele><time>2024-06-01T13:56:18Z</time><name>PT3405</name></trkpt>
<trkpt lat="54.575537" lon="-3.230481"><ele>542</ele><time>2024-06-01T13:56:21Z</time><name>PT3406</name></trkpt>
<trkpt lat="54.575594" lon="-3.230452"><ele>541</ele><time>2024-06-01T13:56:26Z</time><name>PT3407</name></trkpt>
<trkpt lat="54.575631" lon="-3.230417"><ele>542</ele><time>2024-06-01T13:56:30Z</time><name>PT3408</name></trkpt>
<trkpt lat="54.575656" lon="-3.230387"><ele>538</ele><time>2024-06-01T13:56:33Z</time><name>PT3409</name></trkpt>
<trkpt lat="54.575709" lon="-3.230350"><ele>535</ele><time>2024-06-01T13:56:36Z</time><name>PT3410</name></trkpt>
<trkpt lat="54.575751" lon="-3.230329"><ele>534</ele><time>2024-06-01T13:56:41Z</time><name>PT3411</name></trkpt>
<trkpt lat="54.575774" lon="-3.230310"><ele>532</ele><time>2024-06-01T13:56:44Z</time><name>PT3412</name></trkpt>
<trkpt lat="54.575803" lon="-3.230301"><ele>533</ele><time>2024-06-01T13:56:48Z</time><name>PT3413</name></trkpt>
<trkpt lat="54.575834" lon="-3.230303"><ele>533</ele><time>2024-06-01T13:56:51Z</time><name>PT3414</name></trkpt>
<trkpt lat="54.575869" lon="-3.230280"><ele>532</ele><time>2024-06-01T13:56:54Z</time><name>PT3415</name></trkpt>
<trkpt lat="54.575908" lon="-3.230248"><ele>534</ele><time>2024-06-01T13:56:57Z</time><name>PT3416</name></trkpt>
<trkpt lat="54.575935" lon="-3.230219"><ele>533</ele><time>2024-06-01T13:57:00Z</time><name>PT3417</name></trkpt>
<trkpt lat="54.575989" lon="-3.230182"><ele>533</ele><time>2024-06-01T13:57:05Z</time><name>PT3418</name></trkpt>
<trkpt lat="54.576035" lon="-3.230161"><ele>531</ele><time>2024-06-01T13:57:09Z</time><name>PT3419</name></trkpt>
<trkpt lat="54.576081" lon="-3.230123"><ele>530</ele><time>2024-06-01T13:57:12Z</time><name>PT3420</name></trkpt>
<trkpt lat="54.576113" lon="-3.230105"><ele>530</ele><time>2024-06-01T13:57:15Z</time><name>PT3421</name></trkpt>
<trkpt lat="54.576158" lon="-3.230105"><ele>529</ele><time>2024-06-01T13:57:20Z</time><name>PT3422</name></trkpt>
<trkpt lat="54.576204" lon="-3.230078"><ele>527</ele><time>2024-06-01T13:57:24Z</time><name>PT3423</name></trkpt>
<trkpt lat="54.576256" lon="-3.230043"><ele>527</ele><time>2024-06-01T13:57:27Z</time><name>PT3424</name></trkpt>
<trkpt lat="54.576308" lon="-3.229987"><ele>525</ele><time>2024-06-01T13:57:32Z</time><name>PT3425</name></trkpt>
<trkpt lat="54.576349" lon="-3.229949"><ele>525</ele><time>2024-06-01T13:57:35Z</time><name>PT3426</name></trkpt>
<trkpt lat="54.576380" lon="-3.229933"><ele>524</ele><time>2024-06-01T13:57:38Z</time><name>PT3427</name></trkpt>
<trkpt lat="54.576407" lon="-3.229898"><ele>520</ele><time>2024-06-01T13:57:41Z</time><name>PT3428</name></trkpt>
<trkpt lat="54.576445" lon="-3.229881"><ele>520</ele><time>2024-06-01T13:57:44Z</time><name>PT3429</name></trkpt>
<trkpt lat="54.576492" lon="-3.229856"><ele>521</ele><time>2024-06-01T13:57:47Z</time><name>PT3430</name></trkpt>
<trkpt lat="54.576543" lon="-3.229817"><ele>522</ele><time>2024-06-01T13:57:50Z</time><name>PT3431</name></trkpt>
<trkpt lat="54.576586" lon="-3.229777"><ele>522</ele><time>2024-06-01T13:57:53Z</time><name>PT3432</name></trkpt>
<trkpt lat="54.576616" lon="-3.229744"><ele>523</ele><time>2024-06-01T13:57:56Z</time><name>PT3433</name></trkpt>
<trkpt lat="54.576651" lon="-3.229694"><ele>521</ele><time>2024-06-01T13:58:00Z</time><name>PT3434</name></trkpt>
<trkpt lat="54.576700" lon="-3.229642"><ele>520</ele><time>2024-06-01T13:58:03Z</time><name>PT3435</name></trkpt>
<trkpt lat="54.576725" lon="-3.229608"><ele>520</ele><time>2024-06-01T13:58:06Z</time><name>PT3436</name></trkpt>
<trkpt lat="54.576750" lon="-3.229575"><ele>519</ele><time>2024-06-01T13:58:09Z</time><name>PT3437</name></trkpt>
<trkpt lat="54.576806" lon="-3.229542"><ele>520</ele><time>2024-06-01T13:58:14Z</time><name>PT3438</name></trkpt>
<trkpt lat="54.576844" lon="-3.229500"><ele>520</ele><time>2024-06-01T13:58:17Z</time><name>PT3439</name></trkpt>
<trkpt lat="54.576880" lon="-3.229446"><ele>520</ele><time>2024-06-01T13:58:21Z</time><name>PT3440</name></trkpt>
<trkpt lat="54.576931" lon="-3.229406"><ele>519</ele><time>2024-06-01T13:58:24Z</time><name>PT3441</name></trkpt>
<trkpt lat="54.576966" lon="-3.229364"><ele>519</ele><time>2024-06-01T13:58:27Z</time><name>PT3442</name></trkpt>
<trkpt lat="54.576988" lon="-3.229326"><ele>517</ele><time>2024-06-01T13:58:30Z</time><name>PT3443</name></trkpt>
<trkpt lat="54.577037" lon="-3.229276"><ele>517</ele><time>2024-06-01T13:58:35Z</time><name>PT3444</name></trkpt>
<trkpt lat="54.577071" lon="-3.229229"><ele>517</ele><time>2024-06-01T13:58:38Z</time><name>PT3445</name></trkpt>
<trkpt lat="54.577119" lon="-3.229191"><ele>517</ele><time>2024-06-01T13:58:42Z</time><name>PT3446</name></trkpt>
<trkpt lat="54.577176" lon="-3.229165"><ele>518</ele><time>2024-06-01T13:58:45Z</time><name>PT3447</name></trkpt>
<trkpt lat="54.577210" lon="-3.229146"><ele>516</ele><time>2024-06-01T13:58:50Z</time><name>PT3448</name></trkpt>
<trkpt lat="54.577249" lon="-3.229110"><ele>516</ele><time>2024-06-01T13:58:53Z</time><name>PT3449</name></trkpt>
<trkpt lat="54.577305" lon="-3.229052"><ele>515</ele><time>2024-06-01T13:58:57Z</time><name>PT3450</name></trkpt>
<trkpt lat="54.577330" lon="-3.229005"><ele>515</ele><time>2024-06-01T13:59:00Z</time><name>PT3451</name></trkpt>
<trkpt lat="54.577375" lon="-3.228955"><ele>515</ele><time>2024-06-01T13:59:03Z</time><name>PT3452</name></trkpt>
<trkpt lat="54.577412" lon="-3.228908"><ele>515</ele><time>2024-06-01T13:59:06Z</time><name>PT3453</name></trkpt>
<trkpt lat="54.577444" lon="-3.228855"><ele>513</ele><time>2024-06-01T13:59:11Z</time><name>PT3454</name></trkpt>
<trkpt lat="54.577488" lon="-3.228803"><ele>513</ele><time>2024-06-01T13:59:15Z</time><name>PT3455</name></trkpt>
<trkpt lat="54.577515" lon="-3.228764"><ele>514</ele><time>2024-06-01T13:59:18Z</time><name>PT3456</name></trkpt>
<trkpt lat="54.577545" lon="-3.228719"><ele>514</ele><time>2024-06-01T13:59:21Z</time><name>PT3457</name></trkpt>
<trkpt lat="54.577579" lon="-3.228678"><ele>514</ele><time>2024-06-01T13:59:24Z</time><name>PT3458</name></trkpt>
<trkpt lat="54.577615" lon="-3.228622"><ele>514</ele><time>2024-06-01T13:59:27Z</time><name>PT3459</name></trkpt>
<trkpt lat="54.577649" lon="-3.228546"><ele>513</ele><time>2024-06-01T13:59:32Z</time><name>PT3460</name></trkpt>
<trkpt lat="54.577676" lon="-3.228485"><ele>515</ele><time>2024-06-01T13:59:35Z</time><name>PT3461</name></trkpt>
<trkpt lat="54.577710" lon="-3.228408"><ele>516</ele><time>2024-06-01T13:59:39Z</time><name>PT3462</name></trkpt>
<trkpt lat="54.577735" lon="-3.228346"><ele>517</ele><time>2024-06-01T13:59:42Z</time><name>PT3463</name></trkpt>
<trkpt lat="54.577760" lon="-3.228298"><ele>515</ele><time>2024-06-01T13:59:45Z</time><name>PT3464</name></trkpt>
<trkpt lat="54.577784" lon="-3.228238"><ele>515</ele><time>2024-06-01T13:59:48Z</time><name>PT3465</name></trkpt>
<trkpt lat="54.577812" lon="-3.228156"><ele>516</ele><time>2024-06-01T13:59:53Z</time><name>PT3466</name></trkpt>
<trkpt lat="54.577834" lon="-3.228090"><ele>516</ele><time>2024-06-01T13:59:57Z</time><name>PT3467</name></trkpt>
<trkpt lat="54.577851" lon="-3.228038"><ele>515</ele><time>2024-06-01T14:00:00Z</time><name>PT3468</name></trkpt>
<trkpt lat="54.577878" lon="-3.227968"><ele>516</ele><time>2024-06-01T14:00:03Z</time><name>PT3469</name></trkpt>
<trkpt lat="54.577907" lon="-3.227906"><ele>516</ele><time>2024-06-01T14:00:06Z</time><name>PT3470</name></trkpt>
<trkpt lat="54.577939" lon="-3.227859"><ele>516</ele><time>2024-06-01T14:00:09Z</time><name>PT3471</name></trkpt>
<trkpt lat="54.577980" lon="-3.227784"><ele>517</ele><time>2024-06-01T14:00:14Z</time><name>PT3472</name></trkpt>
<trkpt lat="54.578009" lon="-3.227716"><ele>517</ele><time>2024-06-01T14:00:18Z</time><name>PT3473</name></trkpt>
<trkpt lat="54.578043" lon="-3.227648"><ele>517</ele><time>2024-06-01T14:00:21Z</time><name>PT3474</name></trkpt>
<trkpt lat="54.578074" lon="-3.227585"><ele>517</ele><time>2024-06-01T14:00:26Z</time><name>PT3475</name></trkpt>
<trkpt lat="54.578103" lon="-3.227530"><ele>517</ele><time>2024-06-01T14:00:29Z</time><name>PT3476</name></trkpt>
<trkpt lat="54.578132" lon="-3.227473"><ele>515</ele><time>2024-06-01T14:00:32Z</time><name>PT3477</name></trkpt>
<trkpt lat="54.578161" lon="-3.227418"><ele>515</ele><time>2024-06-01T14:00:36Z</time><name>PT3478</name></trkpt>
<trkpt lat="54.578189" lon="-3.227367"><ele>514</ele><time>2024-06-01T14:00:39Z</time><name>PT3479</name></trkpt>
<trkpt lat="54.578223" lon="-3.227300"><ele>514</ele><time>2024-06-01T14:00:42Z</time><name>PT3480</name></trkpt>
<trkpt lat="54.578254" lon="-3.227238"><ele>514</ele><time>2024-06-01T14:00:47Z</time><name>PT3481</name></trkpt>
<trkpt lat="54.578289" lon="-3.227160"><ele>514</ele><time>2024-06-01T14:00:51Z</time><name>PT3482</name></trkpt>
<trkpt lat="54.578325" lon="-3.227106"><ele>514</ele><time>2024-06-01T14:00:54Z</time><name>PT3483</name></trkpt>
<trkpt lat="54.578359" lon="-3.227036"><ele>514</ele><time>2024-06-01T14:00:59Z</time><name>PT3484</name></trkpt>
<trkpt lat="54.578383" lon="-3.226982"><ele>512</ele><time>2024-06-01T14:01:02Z</time><name>PT3485</name></trkpt>
<trkpt lat="54.578407" lon="-3.226936"><ele>512</ele><time>2024-06-01T14:01:05Z</time><name>PT3486</name></trkpt>
<trkpt lat="54.578441" lon="-3.226881"><ele>512</ele><time>2024-06-01T14:01:09Z</time><name>PT3487</name></trkpt>
<trkpt lat="54.578468" lon="-3.226830"><ele>511</ele><time>2024-06-01T14:01:12Z</time><name>PT3488</name></trkpt>
<trkpt lat="54.578490" lon="-3.226782"><ele>511</ele><time>2024-06-01T14:01:15Z</time><name>PT3489</name></trkpt>
<trkpt lat="54.578512" lon="-3.226732"><ele>511</ele><time>2024-06-01T14:01:18Z</time><name>PT3490</name></trkpt>
<trkpt lat="54.578549" lon="-3.226646"><ele>511</ele><time>2024-06-01T14:01:21Z</time><name>PT3491</name></trkpt>
<trkpt lat="54.578575" lon="-3.226581"><ele>509</ele><time>2024-06-01T14:01:26Z</time><name>PT3492</name></trkpt>
<trkpt lat="54.578594" lon="-3.226528"><ele>509</ele><time>2024-06-01T14:01:29Z</time><name>PT3493</name></trkpt>
<trkpt lat="54.578625" lon="-3.226433"><ele>509</ele><time>2024-06-01T14:01:33Z</time><name>PT3494</name></trkpt>
<trkpt lat="54.578639" lon="-3.226385"><ele>509</ele><time>2024-06-01T14:01:36Z</time><name>PT3495</name></trkpt>
<trkpt lat="54.578672" lon="-3.226307"><ele>511</ele><time>2024-06-01T14:01:39Z</time><name>PT3496</name></trkpt>
<trkpt lat="54.578700" lon="-3.226243"><ele>510</ele><time>2024-06-01T14:01:44Z</time><name>PT3497</name></trkpt>
<trkpt lat="54.578721" lon="-3.226195"><ele>510</ele><time>2024-06-01T14:01:47Z</time><name>PT3498</name></trkpt>
<trkpt lat="54.578746" lon="-3.226133"><ele>510</ele><time>2024-06-01T14:01:50Z</time><name>PT3499</name></trkpt>
<trkpt lat="54.578773" lon="-3.226081"><ele>509</ele><time>2024-06-01T14:01:54Z</time><name>PT3500</name></trkpt>
<trkpt lat="54.578799" lon="-3.226025"><ele>509</ele><time>2024-06-01T14:01:57Z</time><name>PT3501</name></trkpt>
<trkpt lat="54.578823" lon="-3.225944"><ele>510</ele><time>2024-06-01T14:02:00Z</time><name>PT3502</name></trkpt>
<trkpt lat="54.578853" lon="-3.225871"><ele>508</ele><time>2024-06-01T14:02:05Z</time><name>PT3503</name></trkpt>
<trkpt lat="54.578878" lon="-3.225826"><ele>508</ele><time>2024-06-01T14:02:08Z</time><name>PT3504</name></trkpt>
<trkpt lat="54.578903" lon="-3.225760"><ele>508</ele><time>2024-06-01T14:02:12Z</time><name>PT3505</name></trkpt>
<trkpt lat="54.578934" lon="-3.225681"><ele>509</ele><time>2024-06-01T14:02:15Z</time><name>PT3506</name></trkpt>
<trkpt lat="54.578950" lon="-3.225656"><ele>509</ele><time>2024-06-01T14:02:18Z</time><name>PT3507</name></trkpt>
<trkpt lat="54.578951" lon="-3.225658"><ele>508</ele><time>2024-06-01T14:02:23Z</time><name>PT3508</name></trkpt>
<trkpt lat="54.578950" lon="-3.225657"><ele>508</ele><time>2024-06-01T14:03:18Z</time><name>PT3509</name></trkpt>
<trkpt lat="54.578957" lon="-3.225652"><ele>508</ele><time>2024-06-01T14:03:35Z</time><name>PT3510</name></trkpt>
<trkpt lat="54.578959" lon="-3.225652"><ele>508</ele><time>2024-06-01T14:03:39Z</time><name>PT3511</name></trkpt>
<trkpt lat="54.578970" lon="-3.225663"><ele>508</ele><time>2024-06-01T14:04:09Z</time><name>PT3512</name></trkpt>
<trkpt lat="54.578988" lon="-3.225664"><ele>507</ele><time>2024-06-01T14:04:12Z</time><name>PT3513</name></trkpt>
<trkpt lat="54.579027" lon="-3.225665"><ele>506</ele><time>2024-06-01T14:04:17Z</time><name>PT3514</name></trkpt>
<trkpt lat="54.579058" lon="-3.225664"><ele>505</ele><time>2024-06-01T14:04:20Z</time><name>PT3515</name></trkpt>
<trkpt lat="54.579107" lon="-3.225652"><ele>504</ele><time>2024-06-01T14:04:24Z</time><name>PT3516</name></trkpt>
<trkpt lat="54.579141" lon="-3.225648"><ele>502</ele><time>2024-06-01T14:04:27Z</time><name>PT3517</name></trkpt>
<trkpt lat="54.579192" lon="-3.225639"><ele>502</ele><time>2024-06-01T14:04:30Z</time><name>PT3518</name></trkpt>
<trkpt lat="54.579239" lon="-3.225635"><ele>502</ele><time>2024-06-01T14:04:35Z</time><name>PT3519</name></trkpt>
<trkpt lat="54.579273" lon="-3.225642"><ele>500</ele><time>2024-06-01T14:04:38Z</time><name>PT3520</name></trkpt>
<trkpt lat="54.579320" lon="-3.225648"><ele>500</ele><time>2024-06-01T14:04:41Z</time><name>PT3521</name></trkpt>
<trkpt lat="54.579368" lon="-3.225648"><ele>499</ele><time>2024-06-01T14:04:45Z</time><name>PT3522</name></trkpt>
<trkpt lat="54.579402" lon="-3.225649"><ele>499</ele><time>2024-06-01T14:04:48Z</time><name>PT3523</name></trkpt>
<trkpt lat="54.579433" lon="-3.225641"><ele>499</ele><time>2024-06-01T14:04:51Z</time><name>PT3524</name></trkpt>
<trkpt lat="54.579490" lon="-3.225635"><ele>499</ele><time>2024-06-01T14:04:54Z</time><name>PT3525</name></trkpt>
<trkpt lat="54.579525" lon="-3.225624"><ele>499</ele><time>2024-06-01T14:04:57Z</time><name>PT3526</name></trkpt>
<trkpt lat="54.579580" lon="-3.225620"><ele>499</ele><time>2024-06-01T14:05:02Z</time><name>PT3527</name></trkpt>
<trkpt lat="54.579612" lon="-3.225608"><ele>499</ele><time>2024-06-01T14:05:05Z</time><name>PT3528</name></trkpt>
<trkpt lat="54.579643" lon="-3.225587"><ele>499</ele><time>2024-06-01T14:05:08Z</time><name>PT3529</name></trkpt>
<trkpt lat="54.579674" lon="-3.225573"><ele>499</ele><time>2024-06-01T14:05:11Z</time><name>PT3530</name></trkpt>
<trkpt lat="54.579715" lon="-3.225559"><ele>499</ele><time>2024-06-01T14:05:15Z</time><name>PT3531</name></trkpt>
<trkpt lat="54.579747" lon="-3.225551"><ele>499</ele><time>2024-06-01T14:05:18Z</time><name>PT3532</name></trkpt>
<trkpt lat="54.579788" lon="-3.225537"><ele>498</ele><time>2024-06-01T14:05:21Z</time><name>PT3533</name></trkpt>
<trkpt lat="54.579824" lon="-3.225527"><ele>498</ele><time>2024-06-01T14:05:24Z</time><name>PT3534</name></trkpt>
<trkpt lat="54.579862" lon="-3.225506"><ele>497</ele><time>2024-06-01T14:05:29Z</time><name>PT3535</name></trkpt>
<trkpt lat="54.579884" lon="-3.225476"><ele>497</ele><time>2024-06-01T14:05:33Z</time><name>PT3536</name></trkpt>
<trkpt lat="54.579909" lon="-3.225463"><ele>496</ele><time>2024-06-01T14:05:36Z</time><name>PT3537</name></trkpt>
<trkpt lat="54.579935" lon="-3.225475"><ele>496</ele><time>2024-06-01T14:05:39Z</time><name>PT3538</name></trkpt>
<trkpt lat="54.579951" lon="-3.225475"><ele>495</ele><time>2024-06-01T14:05:42Z</time><name>PT3539</name></trkpt>
<trkpt lat="54.579961" lon="-3.225473"><ele>495</ele><time>2024-06-01T14:05:45Z</time><name>PT3540</name></trkpt>
<trkpt lat="54.580010" lon="-3.225456"><ele>495</ele><time>2024-06-01T14:05:50Z</time><name>PT3541</name></trkpt>
<trkpt lat="54.580051" lon="-3.225433"><ele>495</ele><time>2024-06-01T14:05:54Z</time><name>PT3542</name></trkpt>
<trkpt lat="54.580091" lon="-3.225412"><ele>495</ele><time>2024-06-01T14:05:57Z</time><name>PT3543</name></trkpt>
<trkpt lat="54.580120" lon="-3.225401"><ele>494</ele><time>2024-06-01T14:06:00Z</time><name>PT3544</name></trkpt>
<trkpt lat="54.580150" lon="-3.225397"><ele>494</ele><time>2024-06-01T14:06:03Z</time><name>PT3545</name></trkpt>
<trkpt lat="54.580190" lon="-3.225399"><ele>494</ele><time>2024-06-01T14:06:08Z</time><name>PT3546</name></trkpt>
<trkpt lat="54.580219" lon="-3.225412"><ele>494</ele><time>2024-06-01T14:06:11Z</time><name>PT3547</name></trkpt>
<trkpt lat="54.580259" lon="-3.225396"><ele>494</ele><time>2024-06-01T14:06:15Z</time><name>PT3548</name></trkpt>
<trkpt lat="54.580283" lon="-3.225395"><ele>494</ele><time>2024-06-01T14:06:18Z</time><name>PT3549</name></trkpt>
<trkpt lat="54.580308" lon="-3.225392"><ele>494</ele><time>2024-06-01T14:06:21Z</time><name>PT3550</name></trkpt>
<trkpt lat="54.580342" lon="-3.225407"><ele>494</ele><time>2024-06-01T14:06:24Z</time><name>PT3551</name></trkpt>
<trkpt lat="54.580377" lon="-3.225430"><ele>494</ele><time>2024-06-01T14:06:29Z</time><name>PT3552</name></trkpt>
<trkpt lat="54.580412" lon="-3.225436"><ele>494</ele><time>2024-06-01T14:06:32Z</time><name>PT3553</name></trkpt>
<trkpt lat="54.580448" lon="-3.225452"><ele>493</ele><time>2024-06-01T14:06:36Z</time><name>PT3554</name></trkpt>
<trkpt lat="54.580487" lon="-3.225478"><ele>495</ele><time>2024-06-01T14:06:39Z</time><name>PT3555</name></trkpt>
<trkpt lat="54.580514" lon="-3.225511"><ele>495</ele><time>2024-06-01T14:06:42Z</time><name>PT3556</name></trkpt>
<trkpt lat="54.580544" lon="-3.225522"><ele>495</ele><time>2024-06-01T14:06:45Z</time><name>PT3557</name></trkpt>
<trkpt lat="54.580592" lon="-3.225493"><ele>495</ele><time>2024-06-01T14:06:50Z</time><name>PT3558</name></trkpt>
<trkpt lat="54.580615" lon="-3.225470"><ele>496</ele><time>2024-06-01T14:06:53Z</time><name>PT3559</name></trkpt>
<trkpt lat="54.580647" lon="-3.225431"><ele>496</ele><time>2024-06-01T14:06:57Z</time><name>PT3560</name></trkpt>
<trkpt lat="54.580679" lon="-3.225395"><ele>498</ele><time>2024-06-01T14:07:00Z</time><name>PT3561</name></trkpt>
<trkpt lat="54.580712" lon="-3.225385"><ele>499</ele><time>2024-06-01T14:07:05Z</time><name>PT3562</name></trkpt>
<trkpt lat="54.580737" lon="-3.225366"><ele>500</ele><time>2024-06-01T14:07:08Z</time><name>PT3563</name></trkpt>
<trkpt lat="54.580764" lon="-3.225344"><ele>501</ele><time>2024-06-01T14:07:12Z</time><name>PT3564</name></trkpt>
<trkpt lat="54.580792" lon="-3.225331"><ele>501</ele><time>2024-06-01T14:07:15Z</time><name>PT3565</name></trkpt>
<trkpt lat="54.580817" lon="-3.225302"><ele>501</ele><time>2024-06-01T14:07:18Z</time><name>PT3566</name></trkpt>
<trkpt lat="54.580834" lon="-3.225281"><ele>501</ele><time>2024-06-01T14:07:21Z</time><name>PT3567</name></trkpt>
<trkpt lat="54.580866" lon="-3.225289"><ele>502</ele><time>2024-06-01T14:07:26Z</time><name>PT3568</name></trkpt>
<trkpt lat="54.580892" lon="-3.225301"><ele>502</ele><time>2024-06-01T14:07:29Z</time><name>PT3569</name></trkpt>
<trkpt lat="54.580927" lon="-3.225290"><ele>503</ele><time>2024-06-01T14:07:33Z</time><name>PT3570</name></trkpt>
<trkpt lat="54.580945" lon="-3.225255"><ele>505</ele><time>2024-06-01T14:07:36Z</time><name>PT3571</name></trkpt>
<trkpt lat="54.580956" lon="-3.225201"><ele>505</ele><time>2024-06-01T14:07:39Z</time><name>PT3572</name></trkpt>
<trkpt lat="54.580966" lon="-3.225168"><ele>505</ele><time>2024-06-01T14:07:42Z</time><name>PT3573</name></trkpt>
<trkpt lat="54.580980" lon="-3.225118"><ele>505</ele><time>2024-06-01T14:07:47Z</time><name>PT3574</name></trkpt>
<trkpt lat="54.580993" lon="-3.225081"><ele>507</ele><time>2024-06-01T14:07:51Z</time><name>PT3575</name></trkpt>
<trkpt lat="54.581007" lon="-3.225060"><ele>507</ele><time>2024-06-01T14:07:54Z</time><name>PT3576</name></trkpt>
<trkpt lat="54.581025" lon="-3.225027"><ele>509</ele><time>2024-06-01T14:07:57Z</time><name>PT3577</name></trkpt>
<trkpt lat="54.581033" lon="-3.225013"><ele>509</ele><time>2024-06-01T14:08:02Z</time><name>PT3578</name></trkpt>
<trkpt lat="54.581047" lon="-3.225013"><ele>510</ele><time>2024-06-01T14:08:05Z</time><name>PT3579</name></trkpt>
<trkpt lat="54.581066" lon="-3.224970"><ele>510</ele><time>2024-06-01T14:08:09Z</time><name>PT3580</name></trkpt>
<trkpt lat="54.581078" lon="-3.224941"><ele>511</ele><time>2024-06-01T14:08:12Z</time><name>PT3581</name></trkpt>
<trkpt lat="54.581107" lon="-3.224937"><ele>512</ele><time>2024-06-01T14:08:15Z</time><name>PT3582</name></trkpt>
<trkpt lat="54.581129" lon="-3.224932"><ele>512</ele><time>2024-06-01T14:08:20Z</time><name>PT3583</name></trkpt>
<trkpt lat="54.581157" lon="-3.224926"><ele>512</ele><time>2024-06-01T14:08:24Z</time><name>PT3584</name></trkpt>
<trkpt lat="54.581173" lon="-3.224914"><ele>513</ele><time>2024-06-01T14:08:27Z</time><name>PT3585</name></trkpt>
<trkpt lat="54.581200" lon="-3.224900"><ele>514</ele><time>2024-06-01T14:08:30Z</time><name>PT3586</name></trkpt>
<trkpt lat="54.581226" lon="-3.224908"><ele>514</ele><time>2024-06-01T14:08:35Z</time><name>PT3587</name></trkpt>
<trkpt lat="54.581246" lon="-3.224895"><ele>515</ele><time>2024-06-01T14:08:38Z</time><name>PT3588</name></trkpt>
<trkpt lat="54.581270" lon="-3.224885"><ele>516</ele><time>2024-06-01T14:08:42Z</time><name>PT3589</name></trkpt>
<trkpt lat="54.581307" lon="-3.224877"><ele>516</ele><time>2024-06-01T14:08:45Z</time><name>PT3590</name></trkpt>
<trkpt lat="54.581344" lon="-3.224860"><ele>517</ele><time>2024-06-01T14:08:50Z</time><name>PT3591</name></trkpt>
<trkpt lat="54.581375" lon="-3.224854"><ele>517</ele><time>2024-06-01T14:08:54Z</time><name>PT3592</name></trkpt>
<trkpt lat="54.581384" lon="-3.224817"><ele>518</ele><time>2024-06-01T14:08:57Z</time><name>PT3593</name></trkpt>
<trkpt lat="54.581395" lon="-3.224796"><ele>519</ele><time>2024-06-01T14:09:00Z</time><name>PT3594</name></trkpt>
<trkpt lat="54.581407" lon="-3.224773"><ele>520</ele><time>2024-06-01T14:09:03Z</time><name>PT3595</name></trkpt>
<trkpt lat="54.581432" lon="-3.224739"><ele>521</ele><time>2024-06-01T14:09:08Z</time><name>PT3596</name></trkpt>
<trkpt lat="54.581446" lon="-3.224730"><ele>521</ele><time>2024-06-01T14:09:11Z</time><name>PT3597</name></trkpt>
<trkpt lat="54.581465" lon="-3.224710"><ele>522</ele><time>2024-06-01T14:09:14Z</time><name>PT3598</name></trkpt>
<trkpt lat="54.581476" lon="-3.224692"><ele>523</ele><time>2024-06-01T14:09:18Z</time><name>PT3599</name></trkpt>
<trkpt lat="54.581484" lon="-3.224667"><ele>523</ele><time>2024-06-01T14:09:21Z</time><name>PT3600</name></trkpt>
<trkpt lat="54.581489" lon="-3.224635"><ele>525</ele><time>2024-06-01T14:09:24Z</time><name>PT3601</name></trkpt>
<trkpt lat="54.581503" lon="-3.224616"><ele>526</ele><time>2024-06-01T14:09:27Z</time><name>PT3602</name></trkpt>
<trkpt lat="54.581514" lon="-3.224592"><ele>527</ele><time>2024-06-01T14:09:30Z</time><name>PT3603</name></trkpt>
<trkpt lat="54.581523" lon="-3.224544"><ele>527</ele><time>2024-06-01T14:09:33Z</time><name>PT3604</name></trkpt>
<trkpt lat="54.581529" lon="-3.224514"><ele>527</ele><time>2024-06-01T14:09:36Z</time><name>PT3605</name></trkpt>
<trkpt lat="54.581536" lon="-3.224471"><ele>528</ele><time>2024-06-01T14:09:41Z</time><name>PT3606</name></trkpt>
<trkpt lat="54.581549" lon="-3.224442"><ele>529</ele><time>2024-06-01T14:09:45Z</time><name>PT3607</name></trkpt>
<trkpt lat="54.581560" lon="-3.224418"><ele>529</ele><time>2024-06-01T14:09:48Z</time><name>PT3608</name></trkpt>
<trkpt lat="54.581574" lon="-3.224396"><ele>529</ele><time>2024-06-01T14:09:51Z</time><name>PT3609</name></trkpt>
<trkpt lat="54.581578" lon="-3.224360"><ele>530</ele><time>2024-06-01T14:09:54Z</time><name>PT3610</name></trkpt>
<trkpt lat="54.581597" lon="-3.224338"><ele>530</ele><time>2024-06-01T14:09:59Z</time><name>PT3611</name></trkpt>
<trkpt lat="54.581613" lon="-3.224321"><ele>531</ele><time>2024-06-01T14:10:02Z</time><name>PT3612</name></trkpt>
<trkpt lat="54.581622" lon="-3.224296"><ele>532</ele><time>2024-06-01T14:10:05Z</time><name>PT3613</name></trkpt>
<trkpt lat="54.581639" lon="-3.224257"><ele>533</ele><time>2024-06-01T14:10:09Z</time><name>PT3614</name></trkpt>
<trkpt lat="54.581645" lon="-3.224210"><ele>533</ele><time>2024-06-01T14:10:12Z</time><name>PT3615</name></trkpt>
<trkpt lat="54.581655" lon="-3.224173"><ele>535</ele><time>2024-06-01T14:10:17Z</time><name>PT3616</name></trkpt>
<trkpt lat="54.581659" lon="-3.224140"><ele>534</ele><time>2024-06-01T14:10:20Z</time><name>PT3617</name></trkpt>
<trkpt lat="54.581663" lon="-3.224111"><ele>534</ele><time>2024-06-01T14:10:23Z</time><name>PT3618</name></trkpt>
<trkpt lat="54.581676" lon="-3.224076"><ele>535</ele><time>2024-06-01T14:10:27Z</time><name>PT3619</name></trkpt>
<trkpt lat="54.581687" lon="-3.224046"><ele>535</ele><time>2024-06-01T14:10:30Z</time><name>PT3620</name></trkpt>
<trkpt lat="54.581684" lon="-3.224025"><ele>536</ele><time>2024-06-01T14:10:33Z</time><name>PT3621</name></trkpt>
<trkpt lat="54.581699" lon="-3.223991"><ele>537</ele><time>2024-06-01T14:10:36Z</time><name>PT3622</name></trkpt>
<trkpt lat="54.581712" lon="-3.223965"><ele>537</ele><time>2024-06-01T14:10:39Z</time><name>PT3623</name></trkpt>
<trkpt lat="54.581725" lon="-3.223934"><ele>539</ele><time>2024-06-01T14:10:43Z</time><name>PT3624</name></trkpt>
<trkpt lat="54.581740" lon="-3.223897"><ele>539</ele><time>2024-06-01T14:10:47Z</time><name>PT3625</name></trkpt>
<trkpt lat="54.581754" lon="-3.223861"><ele>540</ele><time>2024-06-01T14:10:51Z</time><name>PT3626</name></trkpt>
<trkpt lat="54.581755" lon="-3.223825"><ele>541</ele><time>2024-06-01T14:10:54Z</time><name>PT3627</name></trkpt>
<trkpt lat="54.581767" lon="-3.223784"><ele>541</ele><time>2024-06-01T14:10:57Z</time><name>PT3628</name></trkpt>
<trkpt lat="54.581781" lon="-3.223734"><ele>541</ele><time>2024-06-01T14:11:00Z</time><name>PT3629</name></trkpt>
<trkpt lat="54.581810" lon="-3.223713"><ele>542</ele><time>2024-06-01T14:11:05Z</time><name>PT3630</name></trkpt>
<trkpt lat="54.581824" lon="-3.223685"><ele>543</ele><time>2024-06-01T14:11:08Z</time><name>PT3631</name></trkpt>
<trkpt lat="54.581841" lon="-3.223658"><ele>543</ele><time>2024-06-01T14:11:12Z</time><name>PT3632</name></trkpt>
<trkpt lat="54.581851" lon="-3.223632"><ele>544</ele><time>2024-06-01T14:11:15Z</time><name>PT3633</name></trkpt>
<trkpt lat="54.581858" lon="-3.223609"><ele>545</ele><time>2024-06-01T14:11:18Z</time><name>PT3634</name></trkpt>
<trkpt lat="54.581872" lon="-3.223586"><ele>546</ele><time>2024-06-01T14:11:21Z</time><name>PT3635</name></trkpt>
<trkpt lat="54.581886" lon="-3.223571"><ele>547</ele><time>2024-06-01T14:11:24Z</time><name>PT3636</name></trkpt>
<trkpt lat="54.581910" lon="-3.223556"><ele>548</ele><time>2024-06-01T14:11:29Z</time><name>PT3637</name></trkpt>
<trkpt lat="54.581915" lon="-3.223537"><ele>550</ele><time>2024-06-01T14:11:32Z</time><name>PT3638</name></trkpt>
<trkpt lat="54.581913" lon="-3.223508"><ele>551</ele><time>2024-06-01T14:11:35Z</time><name>PT3639</name></trkpt>
<trkpt lat="54.581920" lon="-3.223482"><ele>551</ele><time>2024-06-01T14:11:39Z</time><name>PT3640</name></trkpt>
<trkpt lat="54.581934" lon="-3.223452"><ele>552</ele><time>2024-06-01T14:11:42Z</time><name>PT3641</name></trkpt>
<trkpt lat="54.581934" lon="-3.223405"><ele>552</ele><time>2024-06-01T14:11:45Z</time><name>PT3642</name></trkpt>
<trkpt lat="54.581937" lon="-3.223371"><ele>551</ele><time>2024-06-01T14:11:48Z</time><name>PT3643</name></trkpt>
<trkpt lat="54.581946" lon="-3.223317"><ele>552</ele><time>2024-06-01T14:11:53Z</time><name>PT3644</name></trkpt>
<trkpt lat="54.581964" lon="-3.223267"><ele>553</ele><time>2024-06-01T14:11:57Z</time><name>PT3645</name></trkpt>
<trkpt lat="54.581984" lon="-3.223238"><ele>553</ele><time>2024-06-01T14:12:00Z</time><name>PT3646</name></trkpt>
<trkpt lat="54.582004" lon="-3.223188"><ele>554</ele><time>2024-06-01T14:12:03Z</time><name>PT3647</name></trkpt>
<trkpt lat="54.582023" lon="-3.223138"><ele>555</ele><time>2024-06-01T14:12:08Z</time><name>PT3648</name></trkpt>
<trkpt lat="54.582027" lon="-3.223105"><ele>556</ele><time>2024-06-01T14:12:11Z</time><name>PT3649</name></trkpt>
<trkpt lat="54.582029" lon="-3.223047"><ele>555</ele><time>2024-06-01T14:12:15Z</time><name>PT3650</name></trkpt>
<trkpt lat="54.582035" lon="-3.222998"><ele>556</ele><time>2024-06-01T14:12:18Z</time><name>PT3651</name></trkpt>
<trkpt lat="54.582037" lon="-3.222953"><ele>557</ele><time>2024-06-01T14:12:23Z</time><name>PT3652</name></trkpt>
<trkpt lat="54.582044" lon="-3.222914"><ele>557</ele><time>2024-06-01T14:12:26Z</time><name>PT3653</name></trkpt>
<trkpt lat="54.582051" lon="-3.222878"><ele>557</ele><time>2024-06-01T14:12:29Z</time><name>PT3654</name></trkpt>
<trkpt lat="54.582058" lon="-3.222846"><ele>558</ele><time>2024-06-01T14:12:32Z</time><name>PT3655</name></trkpt>
<trkpt lat="54.582068" lon="-3.222795"><ele>558</ele><time>2024-06-01T14:12:36Z</time><name>PT3656</name></trkpt>
<trkpt lat="54.582074" lon="-3.222752"><ele>559</ele><time>2024-06-01T14:12:39Z</time><name>PT3657</name></trkpt>
<trkpt lat="54.582077" lon="-3.222692"><ele>561</ele><time>2024-06-01T14:12:42Z</time><name>PT3658</name></trkpt>
<trkpt lat="54.582088" lon="-3.222650"><ele>562</ele><time>2024-06-01T14:12:47Z</time><name>PT3659</name></trkpt>
<trkpt lat="54.582096" lon="-3.222623"><ele>562</ele><time>2024-06-01T14:12:50Z</time><name>PT3660</name></trkpt>
<trkpt lat="54.582110" lon="-3.222578"><ele>563</ele><time>2024-06-01T14:12:54Z</time><name>PT3661</name></trkpt>
<trkpt lat="54.582123" lon="-3.222537"><ele>563</ele><time>2024-06-01T14:12:57Z</time><name>PT3662</name></trkpt>
<trkpt lat="54.582128" lon="-3.222496"><ele>563</ele><time>2024-06-01T14:13:00Z</time><name>PT3663</name></trkpt>
<trkpt lat="54.582133" lon="-3.222457"><ele>563</ele><time>2024-06-01T14:13:03Z</time><name>PT3664</name></trkpt>
<trkpt lat="54.582133" lon="-3.222404"><ele>564</ele><time>2024-06-01T14:13:06Z</time><name>PT3665</name></trkpt>
<trkpt lat="54.582150" lon="-3.222329"><ele>564</ele><time>2024-06-01T14:13:11Z</time><name>PT3666</name></trkpt>
<trkpt lat="54.582173" lon="-3.222276"><ele>564</ele><time>2024-06-01T14:13:15Z</time><name>PT3667</name></trkpt>
<trkpt lat="54.582192" lon="-3.222244"><ele>565</ele><time>2024-06-01T14:13:18Z</time><name>PT3668</name></trkpt>
<trkpt lat="54.582197" lon="-3.222232"><ele>565</ele><time>2024-06-01T14:13:21Z</time><name>PT3669</name></trkpt>
<trkpt lat="54.582199" lon="-3.222229"><ele>565</ele><time>2024-06-01T14:13:26Z</time><name>PT3670</name></trkpt>
<trkpt lat="54.582206" lon="-3.222168"><ele>566</ele><time>2024-06-01T14:13:30Z</time><name>PT3671</name></trkpt>
<trkpt lat="54.582213" lon="-3.222121"><ele>566</ele><time>2024-06-01T14:13:33Z</time><name>PT3672</name></trkpt>
<trkpt lat="54.582228" lon="-3.222072"><ele>566</ele><time>2024-06-01T14:13:36Z</time><name>PT3673</name></trkpt>
<trkpt lat="54.582231" lon="-3.222022"><ele>567</ele><time>2024-06-01T14:13:41Z</time><name>PT3674</name></trkpt>
<trkpt lat="54.582248" lon="-3.221987"><ele>567</ele><time>2024-06-01T14:13:45Z</time><name>PT3675</name></trkpt>
<trkpt lat="54.582253" lon="-3.221971"><ele>568</ele><time>2024-06-01T14:13:48Z</time><name>PT3676</name></trkpt>
<trkpt lat="54.582252" lon="-3.221971"><ele>568</ele><time>2024-06-01T14:13:51Z</time><name>PT3677</name></trkpt>
<trkpt lat="54.582251" lon="-3.221980"><ele>568</ele><time>2024-06-01T14:14:05Z</time><name>PT3678</name></trkpt>
<trkpt lat="54.582253" lon="-3.221993"><ele>568</ele><time>2024-06-01T14:14:09Z</time><name>PT3679</name></trkpt>
<trkpt lat="54.582251" lon="-3.221993"><ele>567</ele><time>2024-06-01T14:14:12Z</time><name>PT3680</name></trkpt>
<trkpt lat="54.582250" lon="-3.222003"><ele>567</ele><time>2024-06-01T14:14:30Z</time><name>PT3681</name></trkpt>
<trkpt lat="54.582247" lon="-3.222015"><ele>567</ele><time>2024-06-01T14:14:33Z</time><name>PT3682</name></trkpt>
<trkpt lat="54.582245" lon="-3.222041"><ele>567</ele><time>2024-06-01T14:14:53Z</time><name>PT3683</name></trkpt>
<trkpt lat="54.582248" lon="-3.222045"><ele>566</ele><time>2024-06-01T14:15:45Z</time><name>PT3684</name></trkpt>
<trkpt lat="54.582244" lon="-3.222051"><ele>566</ele><time>2024-06-01T14:15:48Z</time><name>PT3685</name></trkpt>
<trkpt lat="54.582241" lon="-3.222056"><ele>566</ele><time>2024-06-01T14:18:08Z</time><name>PT3686</name></trkpt>
<trkpt lat="54.582236" lon="-3.222061"><ele>566</ele><time>2024-06-01T14:18:12Z</time><name>PT3687</name></trkpt>
<trkpt lat="54.582223" lon="-3.222066"><ele>565</ele><time>2024-06-01T14:19:56Z</time><name>PT3688</name></trkpt>
<trkpt lat="54.582250" lon="-3.222037"><ele>565</ele><time>2024-06-01T14:20:53Z</time><name>PT3689</name></trkpt>
<trkpt lat="54.582269" lon="-3.222005"><ele>566</ele><time>2024-06-01T14:20:56Z</time><name>PT3690</name></trkpt>
<trkpt lat="54.582296" lon="-3.221959"><ele>566</ele><time>2024-06-01T14:20:59Z</time><name>PT3691</name></trkpt>
<trkpt lat="54.582323" lon="-3.221922"><ele>565</ele><time>2024-06-01T14:21:02Z</time><name>PT3692</name></trkpt>
<trkpt lat="54.582351" lon="-3.221865"><ele>565</ele><time>2024-06-01T14:21:06Z</time><name>PT3693</name></trkpt>
<trkpt lat="54.582360" lon="-3.221798"><ele>564</ele><time>2024-06-01T14:21:09Z</time><name>PT3694</name></trkpt>
<trkpt lat="54.582375" lon="-3.221741"><ele>563</ele><time>2024-06-01T14:21:14Z</time><name>PT3695</name></trkpt>
<trkpt lat="54.582401" lon="-3.221696"><ele>562</ele><time>2024-06-01T14:21:18Z</time><name>PT3696</name></trkpt>
<trkpt lat="54.582431" lon="-3.221632"><ele>561</ele><time>2024-06-01T14:21:21Z</time><name>PT3697</name></trkpt>
<trkpt lat="54.582449" lon="-3.221570"><ele>561</ele><time>2024-06-01T14:21:24Z</time><name>PT3698</name></trkpt>
<trkpt lat="54.582469" lon="-3.221515"><ele>561</ele><time>2024-06-01T14:21:27Z</time><name>PT3699</name></trkpt>
<trkpt lat="54.582490" lon="-3.221442"><ele>560</ele><time>2024-06-01T14:21:32Z</time><name>PT3700</name></trkpt>
<trkpt lat="54.582514" lon="-3.221385"><ele>559</ele><time>2024-06-01T14:21:35Z</time><name>PT3701</name></trkpt>
<trkpt lat="54.582539" lon="-3.221327"><ele>559</ele><time>2024-06-01T14:21:38Z</time><name>PT3702</name></trkpt>
<trkpt lat="54.582566" lon="-3.221257"><ele>557</ele><time>2024-06-01T14:21:42Z</time><name>PT3703</name></trkpt>
<trkpt lat="54.582577" lon="-3.221224"><ele>556</ele><time>2024-06-01T14:21:45Z</time><name>PT3704</name></trkpt>
<trkpt lat="54.582586" lon="-3.221189"><ele>557</ele><time>2024-06-01T14:21:48Z</time><name>PT3705</name></trkpt>
<trkpt lat="54.582599" lon="-3.221140"><ele>555</ele><time>2024-06-01T14:21:51Z</time><name>PT3706</name></trkpt>
<trkpt lat="54.582636" lon="-3.221068"><ele>554</ele><time>2024-06-01T14:21:54Z</time><name>PT3707</name></trkpt>
<trkpt lat="54.582656" lon="-3.220992"><ele>554</ele><time>2024-06-01T14:21:57Z</time><name>PT3708</name></trkpt>
<trkpt lat="54.582672" lon="-3.220933"><ele>554</ele><time>2024-06-01T14:22:02Z</time><name>PT3709</name></trkpt>
<trkpt lat="54.582680" lon="-3.220865"><ele>553</ele><time>2024-06-01T14:22:05Z</time><name>PT3710</name></trkpt>
<trkpt lat="54.582707" lon="-3.220778"><ele>553</ele><time>2024-06-01T14:22:09Z</time><name>PT3711</name></trkpt>
<trkpt lat="54.582719" lon="-3.220717"><ele>552</ele><time>2024-06-01T14:22:12Z</time><name>PT3712</name></trkpt>
<trkpt lat="54.582733" lon="-3.220664"><ele>551</ele><time>2024-06-01T14:22:15Z</time><name>PT3713</name></trkpt>
<trkpt lat="54.582756" lon="-3.220618"><ele>550</ele><time>2024-06-01T14:22:18Z</time><name>PT3714</name></trkpt>
<trkpt lat="54.582780" lon="-3.220560"><ele>548</ele><time>2024-06-01T14:22:23Z</time><name>PT3715</name></trkpt>
<trkpt lat="54.582802" lon="-3.220504"><ele>547</ele><time>2024-06-01T14:22:27Z</time><name>PT3716</name></trkpt>
<trkpt lat="54.582822" lon="-3.220445"><ele>547</ele><time>2024-06-01T14:22:30Z</time><name>PT3717</name></trkpt>
<trkpt lat="54.582858" lon="-3.220378"><ele>546</ele><time>2024-06-01T14:22:33Z</time><name>PT3718</name></trkpt>
<trkpt lat="54.582879" lon="-3.220316"><ele>546</ele><time>2024-06-01T14:22:38Z</time><name>PT3719</name></trkpt>
<trkpt lat="54.582886" lon="-3.220237"><ele>546</ele><time>2024-06-01T14:22:42Z</time><name>PT3720</name></trkpt>
<trkpt lat="54.582900" lon="-3.220152"><ele>545</ele><time>2024-06-01T14:22:45Z</time><name>PT3721</name></trkpt>
<trkpt lat="54.582904" lon="-3.220097"><ele>544</ele><time>2024-06-01T14:22:50Z</time><name>PT3722</name></trkpt>
<trkpt lat="54.582916" lon="-3.220046"><ele>543</ele><time>2024-06-01T14:22:53Z</time><name>PT3723</name></trkpt>
<trkpt lat="54.582938" lon="-3.219981"><ele>543</ele><time>2024-06-01T14:22:57Z</time><name>PT3724</name></trkpt>
<trkpt lat="54.582960" lon="-3.219927"><ele>542</ele><time>2024-06-01T14:23:00Z</time><name>PT3725</name></trkpt>
<trkpt lat="54.582981" lon="-3.219891"><ele>541</ele><time>2024-06-01T14:23:03Z</time><name>PT3726</name></trkpt>
<trkpt lat="54.583004" lon="-3.219851"><ele>540</ele><time>2024-06-01T14:23:06Z</time><name>PT3727</name></trkpt>
<trkpt lat="54.583019" lon="-3.219782"><ele>539</ele><time>2024-06-01T14:23:11Z</time><name>PT3728</name></trkpt>
<trkpt lat="54.583045" lon="-3.219747"><ele>537</ele><time>2024-06-01T14:23:15Z</time><name>PT3729</name></trkpt>
<trkpt lat="54.583069" lon="-3.219721"><ele>536</ele><time>2024-06-01T14:23:18Z</time><name>PT3730</name></trkpt>
<trkpt lat="54.583099" lon="-3.219694"><ele>536</ele><time>2024-06-01T14:23:21Z</time><name>PT3731</name></trkpt>
<trkpt lat="54.583153" lon="-3.219653"><ele>536</ele><time>2024-06-01T14:23:24Z</time><name>PT3732</name></trkpt>
<trkpt lat="54.583188" lon="-3.219633"><ele>534</ele><time>2024-06-01T14:23:29Z</time><name>PT3733</name></trkpt>
<trkpt lat="54.583218" lon="-3.219590"><ele>534</ele><time>2024-06-01T14:23:32Z</time><name>PT3734</name></trkpt>
<trkpt lat="54.583247" lon="-3.219540"><ele>534</ele><time>2024-06-01T14:23:35Z</time><name>PT3735</name></trkpt>
<trkpt lat="54.583269" lon="-3.219465"><ele>535</ele><time>2024-06-01T14:23:39Z</time><name>PT3736</name></trkpt>
<trkpt lat="54.583294" lon="-3.219430"><ele>534</ele><time>2024-06-01T14:23:42Z</time><name>PT3737</name></trkpt>
<trkpt lat="54.583312" lon="-3.219375"><ele>534</ele><time>2024-06-01T14:23:45Z</time><name>PT3738</name></trkpt>
<trkpt lat="54.583331" lon="-3.219334"><ele>533</ele><time>2024-06-01T14:23:48Z</time><name>PT3739</name></trkpt>
<trkpt lat="54.583356" lon="-3.219286"><ele>532</ele><time>2024-06-01T14:23:53Z</time><name>PT3740</name></trkpt>
<trkpt lat="54.583384" lon="-3.219247"><ele>532</ele><time>2024-06-01T14:23:56Z</time><name>PT3741</name></trkpt>
<trkpt lat="54.583405" lon="-3.219196"><ele>531</ele><time>2024-06-01T14:24:00Z</time><name>PT3742</name></trkpt>
<trkpt lat="54.583430" lon="-3.219152"><ele>529</ele><time>2024-06-01T14:24:03Z</time><name>PT3743</name></trkpt>
<trkpt lat="54.583441" lon="-3.219086"><ele>528</ele><time>2024-06-01T14:24:08Z</time><name>PT3744</name></trkpt>
<trkpt lat="54.583458" lon="-3.219022"><ele>529</ele><time>2024-06-01T14:24:11Z</time><name>PT3745</name></trkpt>
<trkpt lat="54.583497" lon="-3.218950"><ele>527</ele><time>2024-06-01T14:24:15Z</time><name>PT3746</name></trkpt>
<trkpt lat="54.583530" lon="-3.218886"><ele>528</ele><time>2024-06-01T14:24:18Z</time><name>PT3747</name></trkpt>
<trkpt lat="54.583556" lon="-3.218813"><ele>527</ele><time>2024-06-01T14:24:21Z</time><name>PT3748</name></trkpt>
<trkpt lat="54.583571" lon="-3.218756"><ele>526</ele><time>2024-06-01T14:24:26Z</time><name>PT3749</name></trkpt>
<trkpt lat="54.583571" lon="-3.218714"><ele>525</ele><time>2024-06-01T14:24:29Z</time><name>PT3750</name></trkpt>
<trkpt lat="54.583582" lon="-3.218693"><ele>523</ele><time>2024-06-01T14:24:32Z</time><name>PT3751</name></trkpt>
<trkpt lat="54.583596" lon="-3.218663"><ele>522</ele><time>2024-06-01T14:24:36Z</time><name>PT3752</name></trkpt>
<trkpt lat="54.583618" lon="-3.218648"><ele>521</ele><time>2024-06-01T14:24:39Z</time><name>PT3753</name></trkpt>
<trkpt lat="54.583629" lon="-3.218623"><ele>520</ele><time>2024-06-01T14:24:42Z</time><name>PT3754</name></trkpt>
<trkpt lat="54.583644" lon="-3.218602"><ele>519</ele><time>2024-06-01T14:24:47Z</time><name>PT3755</name></trkpt>
<trkpt lat="54.583649" lon="-3.218581"><ele>519</ele><time>2024-06-01T14:24:50Z</time><name>PT3756</name></trkpt>
<trkpt lat="54.583685" lon="-3.218581"><ele>519</ele><time>2024-06-01T14:24:54Z</time><name>PT3757</name></trkpt>
<trkpt lat="54.583707" lon="-3.218592"><ele>517</ele><time>2024-06-01T14:24:57Z</time><name>PT3758</name></trkpt>
<trkpt lat="54.583720" lon="-3.218555"><ele>515</ele><time>2024-06-01T14:25:02Z</time><name>PT3759</name></trkpt>
<trkpt lat="54.583723" lon="-3.218533"><ele>514</ele><time>2024-06-01T14:25:05Z</time><name>PT3760</name></trkpt>
<trkpt lat="54.583734" lon="-3.218502"><ele>514</ele><time>2024-06-01T14:25:08Z</time><name>PT3761</name></trkpt>
<trkpt lat="54.583743" lon="-3.218477"><ele>512</ele><time>2024-06-01T14:25:12Z</time><name>PT3762</name></trkpt>
<trkpt lat="54.583735" lon="-3.218449"><ele>512</ele><time>2024-06-01T14:25:15Z</time><name>PT3763</name></trkpt>
<trkpt lat="54.583714" lon="-3.218431"><ele>511</ele><time>2024-06-01T14:25:18Z</time><name>PT3764</name></trkpt>
<trkpt lat="54.583725" lon="-3.218405"><ele>509</ele><time>2024-06-01T14:25:21Z</time><name>PT3765</name></trkpt>
<trkpt lat="54.583736" lon="-3.218383"><ele>507</ele><time>2024-06-01T14:25:26Z</time><name>PT3766</name></trkpt>
<trkpt lat="54.583735" lon="-3.218371"><ele>507</ele><time>2024-06-01T14:25:30Z</time><name>PT3767</name></trkpt>
<trkpt lat="54.583758" lon="-3.218344"><ele>506</ele><time>2024-06-01T14:25:33Z</time><name>PT3768</name></trkpt>
<trkpt lat="54.583779" lon="-3.218327"><ele>505</ele><time>2024-06-01T14:25:36Z</time><name>PT3769</name></trkpt>
<trkpt lat="54.583799" lon="-3.218305"><ele>504</ele><time>2024-06-01T14:25:39Z</time><name>PT3770</name></trkpt>
<trkpt lat="54.583828" lon="-3.218277"><ele>503</ele><time>2024-06-01T14:25:42Z</time><name>PT3771</name></trkpt>
<trkpt lat="54.583852" lon="-3.218258"><ele>503</ele><time>2024-06-01T14:25:45Z</time><name>PT3772</name></trkpt>
<trkpt lat="54.583881" lon="-3.218211"><ele>502</ele><time>2024-06-01T14:25:50Z</time><name>PT3773</name></trkpt>
<trkpt lat="54.583904" lon="-3.218170"><ele>500</ele><time>2024-06-01T14:25:54Z</time><name>PT3774</name></trkpt>
<trkpt lat="54.583916" lon="-3.218134"><ele>500</ele><time>2024-06-01T14:25:57Z</time><name>PT3775</name></trkpt>
<trkpt lat="54.583930" lon="-3.218102"><ele>499</ele><time>2024-06-01T14:26:00Z</time><name>PT3776</name></trkpt>
<trkpt lat="54.583954" lon="-3.218054"><ele>499</ele><time>2024-06-01T14:26:05Z</time><name>PT3777</name></trkpt>
<trkpt lat="54.583971" lon="-3.218019"><ele>497</ele><time>2024-06-01T14:26:08Z</time><name>PT3778</name></trkpt>
<trkpt lat="54.583987" lon="-3.218008"><ele>497</ele><time>2024-06-01T14:26:11Z</time><name>PT3779</name></trkpt>
<trkpt lat="54.584006" lon="-3.218012"><ele>497</ele><time>2024-06-01T14:26:14Z</time><name>PT3780</name></trkpt>
<trkpt lat="54.584029" lon="-3.217997"><ele>496</ele><time>2024-06-01T14:26:17Z</time><name>PT3781</name></trkpt>
<trkpt lat="54.584050" lon="-3.217959"><ele>495</ele><time>2024-06-01T14:26:21Z</time><name>PT3782</name></trkpt>
<trkpt lat="54.584060" lon="-3.217925"><ele>496</ele><time>2024-06-01T14:26:24Z</time><name>PT3783</name></trkpt>
<trkpt lat="54.584060" lon="-3.217872"><ele>496</ele><time>2024-06-01T14:26:27Z</time><name>PT3784</name></trkpt>
<trkpt lat="54.584078" lon="-3.217866"><ele>496</ele><time>2024-06-01T14:26:32Z</time><name>PT3785</name></trkpt>
<trkpt lat="54.584098" lon="-3.217882"><ele>495</ele><time>2024-06-01T14:26:36Z</time><name>PT3786</name></trkpt>
<trkpt lat="54.584112" lon="-3.217853"><ele>495</ele><time>2024-06-01T14:26:39Z</time><name>PT3787</name></trkpt>
<trkpt lat="54.584109" lon="-3.217819"><ele>493</ele><time>2024-06-01T14:26:42Z</time><name>PT3788</name></trkpt>
<trkpt lat="54.584097" lon="-3.217800"><ele>494</ele><time>2024-06-01T14:26:45Z</time><name>PT3789</name></trkpt>
<trkpt lat="54.584071" lon="-3.217782"><ele>492</ele><time>2024-06-01T14:26:48Z</time><name>PT3790</name></trkpt>
<trkpt lat="54.584045" lon="-3.217769"><ele>491</ele><time>2024-06-01T14:26:53Z</time><name>PT3791</name></trkpt>
<trkpt lat="54.584044" lon="-3.217743"><ele>489</ele><time>2024-06-01T14:26:57Z</time><name>PT3792</name></trkpt>
<trkpt lat="54.584045" lon="-3.217716"><ele>489</ele><time>2024-06-01T14:27:00Z</time><name>PT3793</name></trkpt>
<trkpt lat="54.584043" lon="-3.217680"><ele>488</ele><time>2024-06-01T14:27:03Z</time><name>PT3794</name></trkpt>
<trkpt lat="54.584049" lon="-3.217645"><ele>489</ele><time>2024-06-01T14:27:06Z</time><name>PT3795</name></trkpt>
<trkpt lat="54.584051" lon="-3.217613"><ele>488</ele><time>2024-06-01T14:27:09Z</time><name>PT3796</name></trkpt>
<trkpt lat="54.584069" lon="-3.217590"><ele>488</ele><time>2024-06-01T14:27:14Z</time><name>PT3797</name></trkpt>
<trkpt lat="54.584078" lon="-3.217571"><ele>487</ele><time>2024-06-01T14:27:17Z</time><name>PT3798</name></trkpt>
<trkpt lat="54.584079" lon="-3.217565"><ele>487</ele><time>2024-06-01T14:27:20Z</time><name>PT3799</name></trkpt>
<trkpt lat="54.584093" lon="-3.217531"><ele>486</ele><time>2024-06-01T14:27:24Z</time><name>PT3800</name></trkpt>
<trkpt lat="54.584097" lon="-3.217525"><ele>486</ele><time>2024-06-01T14:27:27Z</time><name>PT3801</name></trkpt>
<trkpt lat="54.584106" lon="-3.217522"><ele>485</ele><time>2024-06-01T14:27:30Z</time><name>PT3802</name></trkpt>
<trkpt lat="54.584102" lon="-3.217497"><ele>484</ele><time>2024-06-01T14:27:33Z</time><name>PT3803</name></trkpt>
<trkpt lat="54.584097" lon="-3.217447"><ele>482</ele><time>2024-06-01T14:27:36Z</time><name>PT3804</name></trkpt>
<trkpt lat="54.584107" lon="-3.217417"><ele>480</ele><time>2024-06-01T14:27:41Z</time><name>PT3805</name></trkpt>
<trkpt lat="54.584115" lon="-3.217409"><ele>479</ele><time>2024-06-01T14:27:44Z</time><name>PT3806</name></trkpt>
<trkpt lat="54.584128" lon="-3.217390"><ele>479</ele><time>2024-06-01T14:27:56Z</time><name>PT3807</name></trkpt>
<trkpt lat="54.584149" lon="-3.217379"><ele>478</ele><time>2024-06-01T14:27:59Z</time><name>PT3808</name></trkpt>
<trkpt lat="54.584170" lon="-3.217364"><ele>476</ele><time>2024-06-01T14:28:02Z</time><name>PT3809</name></trkpt>
<trkpt lat="54.584186" lon="-3.217342"><ele>476</ele><time>2024-06-01T14:28:05Z</time><name>PT3810</name></trkpt>
<trkpt lat="54.584211" lon="-3.217332"><ele>474</ele><time>2024-06-01T14:28:09Z</time><name>PT3811</name></trkpt>
<trkpt lat="54.584229" lon="-3.217332"><ele>474</ele><time>2024-06-01T14:28:12Z</time><name>PT3812</name></trkpt>
<trkpt lat="54.584250" lon="-3.217331"><ele>473</ele><time>2024-06-01T14:28:15Z</time><name>PT3813</name></trkpt>
<trkpt lat="54.584264" lon="-3.217315"><ele>472</ele><time>2024-06-01T14:28:18Z</time><name>PT3814</name></trkpt>
<trkpt lat="54.584280" lon="-3.217288"><ele>471</ele><time>2024-06-01T14:28:21Z</time><name>PT3815</name></trkpt>
<trkpt lat="54.584299" lon="-3.217280"><ele>470</ele><time>2024-06-01T14:28:26Z</time><name>PT3816</name></trkpt>
<trkpt lat="54.584323" lon="-3.217263"><ele>470</ele><time>2024-06-01T14:28:29Z</time><name>PT3817</name></trkpt>
<trkpt lat="54.584350" lon="-3.217254"><ele>469</ele><time>2024-06-01T14:28:32Z</time><name>PT3818</name></trkpt>
<trkpt lat="54.584378" lon="-3.217233"><ele>468</ele><time>2024-06-01T14:28:35Z</time><name>PT3819</name></trkpt>
<trkpt lat="54.584398" lon="-3.217187"><ele>468</ele><time>2024-06-01T14:28:39Z</time><name>PT3820</name></trkpt>
<trkpt lat="54.584395" lon="-3.217166"><ele>466</ele><time>2024-06-01T14:28:42Z</time><name>PT3821</name></trkpt>
<trkpt lat="54.584412" lon="-3.217135"><ele>465</ele><time>2024-06-01T14:28:45Z</time><name>PT3822</name></trkpt>
<trkpt lat="54.584422" lon="-3.217108"><ele>464</ele><time>2024-06-01T14:28:48Z</time><name>PT3823</name></trkpt>
<trkpt lat="54.584441" lon="-3.217085"><ele>464</ele><time>2024-06-01T14:28:51Z</time><name>PT3824</name></trkpt>
<trkpt lat="54.584464" lon="-3.217057"><ele>463</ele><time>2024-06-01T14:28:56Z</time><name>PT3825</name></trkpt>
<trkpt lat="54.584469" lon="-3.217035"><ele>462</ele><time>2024-06-01T14:28:59Z</time><name>PT3826</name></trkpt>
<trkpt lat="54.584468" lon="-3.217009"><ele>460</ele><time>2024-06-01T14:29:03Z</time><name>PT3827</name></trkpt>
<trkpt lat="54.584458" lon="-3.216983"><ele>460</ele><time>2024-06-01T14:29:06Z</time><name>PT3828</name></trkpt>
<trkpt lat="54.584456" lon="-3.216944"><ele>459</ele><time>2024-06-01T14:29:09Z</time><name>PT3829</name></trkpt>
<trkpt lat="54.584465" lon="-3.216915"><ele>459</ele><time>2024-06-01T14:29:12Z</time><name>PT3830</name></trkpt>
<trkpt lat="54.584478" lon="-3.216882"><ele>457</ele><time>2024-06-01T14:29:15Z</time><name>PT3831</name></trkpt>
<trkpt lat="54.584493" lon="-3.216840"><ele>456</ele><time>2024-06-01T14:29:20Z</time><name>PT3832</name></trkpt>
<trkpt lat="54.584518" lon="-3.216811"><ele>456</ele><time>2024-06-01T14:29:23Z</time><name>PT3833</name></trkpt>
<trkpt lat="54.584534" lon="-3.216786"><ele>455</ele><time>2024-06-01T14:29:26Z</time><name>PT3834</name></trkpt>
<trkpt lat="54.584566" lon="-3.216738"><ele>454</ele><time>2024-06-01T14:29:30Z</time><name>PT3835</name></trkpt>
<trkpt lat="54.584584" lon="-3.216719"><ele>454</ele><time>2024-06-01T14:29:33Z</time><name>PT3836</name></trkpt>
<trkpt lat="54.584604" lon="-3.216716"><ele>452</ele><time>2024-06-01T14:29:36Z</time><name>PT3837</name></trkpt>
<trkpt lat="54.584622" lon="-3.216715"><ele>452</ele><time>2024-06-01T14:29:39Z</time><name>PT3838</name></trkpt>
<trkpt lat="54.584636" lon="-3.216704"><ele>451</ele><time>2024-06-01T14:29:42Z</time><name>PT3839</name></trkpt>
<trkpt lat="54.584650" lon="-3.216658"><ele>449</ele><time>2024-06-01T14:29:45Z</time><name>PT3840</name></trkpt>
<trkpt lat="54.584660" lon="-3.216613"><ele>448</ele><time>2024-06-01T14:29:48Z</time><name>PT3841</name></trkpt>
<trkpt lat="54.584666" lon="-3.216567"><ele>447</ele><time>2024-06-01T14:29:51Z</time><name>PT3842</name></trkpt>
<trkpt lat="54.584679" lon="-3.216506"><ele>446</ele><time>2024-06-01T14:29:56Z</time><name>PT3843</name></trkpt>
<trkpt lat="54.584707" lon="-3.216461"><ele>445</ele><time>2024-06-01T14:30:00Z</time><name>PT3844</name></trkpt>
<trkpt lat="54.584731" lon="-3.216429"><ele>442</ele><time>2024-06-01T14:30:03Z</time><name>PT3845</name></trkpt>
<trkpt lat="54.584753" lon="-3.216393"><ele>441</ele><time>2024-06-01T14:30:06Z</time><name>PT3846</name></trkpt>
<trkpt lat="54.584765" lon="-3.216350"><ele>441</ele><time>2024-06-01T14:30:09Z</time><name>PT3847</name></trkpt>
<trkpt lat="54.584794" lon="-3.216283"><ele>442</ele><time>2024-06-01T14:30:14Z</time><name>PT3848</name></trkpt>
<trkpt lat="54.584817" lon="-3.216211"><ele>441</ele><time>2024-06-01T14:30:18Z</time><name>PT3849</name></trkpt>
<trkpt lat="54.584841" lon="-3.216150"><ele>440</ele><time>2024-06-01T14:30:21Z</time><name>PT3850</name></trkpt>
<trkpt lat="54.584853" lon="-3.216100"><ele>439</ele><time>2024-06-01T14:30:26Z</time><name>PT3851</name></trkpt>
<trkpt lat="54.584850" lon="-3.216034"><ele>439</ele><time>2024-06-01T14:30:29Z</time><name>PT3852</name></trkpt>
<trkpt lat="54.584849" lon="-3.215947"><ele>438</ele><time>2024-06-01T14:30:33Z</time><name>PT3853</name></trkpt>
<trkpt lat="54.584852" lon="-3.215873"><ele>439</ele><time>2024-06-01T14:30:36Z</time><name>PT3854</name></trkpt>
<trkpt lat="54.584866" lon="-3.215805"><ele>438</ele><time>2024-06-01T14:30:39Z</time><name>PT3855</name></trkpt>
<trkpt lat="54.584887" lon="-3.215719"><ele>438</ele><time>2024-06-01T14:30:44Z</time><name>PT3856</name></trkpt>
<trkpt lat="54.584914" lon="-3.215654"><ele>438</ele><time>2024-06-01T14:30:48Z</time><name>PT3857</name></trkpt>
<trkpt lat="54.584930" lon="-3.215605"><ele>438</ele><time>2024-06-01T14:30:51Z</time><name>PT3858</name></trkpt>
<trkpt lat="54.584947" lon="-3.215538"><ele>437</ele><time>2024-06-01T14:30:54Z</time><name>PT3859</name></trkpt>
<trkpt lat="54.584960" lon="-3.215454"><ele>437</ele><time>2024-06-01T14:30:57Z</time><name>PT3860</name></trkpt>
<trkpt lat="54.584964" lon="-3.215395"><ele>435</ele><time>2024-06-01T14:31:00Z</time><name>PT3861</name></trkpt>
<trkpt lat="54.584977" lon="-3.215307"><ele>436</ele><time>2024-06-01T14:31:05Z</time><name>PT3862</name></trkpt>
<trkpt lat="54.584990" lon="-3.215267"><ele>436</ele><time>2024-06-01T14:31:08Z</time><name>PT3863</name></trkpt>
<trkpt lat="54.585003" lon="-3.215210"><ele>434</ele><time>2024-06-01T14:31:12Z</time><name>PT3864</name></trkpt>
<trkpt lat="54.585006" lon="-3.215172"><ele>433</ele><time>2024-06-01T14:31:15Z</time><name>PT3865</name></trkpt>
<trkpt lat="54.585003" lon="-3.215127"><ele>432</ele><time>2024-06-01T14:31:18Z</time><name>PT3866</name></trkpt>
<trkpt lat="54.585007" lon="-3.215088"><ele>432</ele><time>2024-06-01T14:31:21Z</time><name>PT3867</name></trkpt>
<trkpt lat="54.585006" lon="-3.215041"><ele>432</ele><time>2024-06-01T14:31:24Z</time><name>PT3868</name></trkpt>
<trkpt lat="54.585000" lon="-3.215001"><ele>429</ele><time>2024-06-01T14:31:27Z</time><name>PT3869</name></trkpt>
<trkpt lat="54.585006" lon="-3.214968"><ele>428</ele><time>2024-06-01T14:31:30Z</time><name>PT3870</name></trkpt>
<trkpt lat="54.585002" lon="-3.214930"><ele>427</ele><time>2024-06-01T14:31:35Z</time><name>PT3871</name></trkpt>
<trkpt lat="54.584999" lon="-3.214920"><ele>426</ele><time>2024-06-01T14:31:39Z</time><name>PT3872</name></trkpt>
<trkpt lat="54.584998" lon="-3.214881"><ele>426</ele><time>2024-06-01T14:31:42Z</time><name>PT3873</name></trkpt>
<trkpt lat="54.585000" lon="-3.214829"><ele>426</ele><time>2024-06-01T14:31:45Z</time><name>PT3874</name></trkpt>
<trkpt lat="54.585005" lon="-3.214781"><ele>425</ele><time>2024-06-01T14:31:48Z</time><name>PT3875</name></trkpt>
<trkpt lat="54.585012" lon="-3.214723"><ele>425</ele><time>2024-06-01T14:31:53Z</time><name>PT3876</name></trkpt>
<trkpt lat="54.585018" lon="-3.214659"><ele>425</ele><time>2024-06-01T14:31:56Z</time><name>PT3877</name></trkpt>
<trkpt lat="54.585029" lon="-3.214592"><ele>423</ele><time>2024-06-01T14:31:59Z</time><name>PT3878</name></trkpt>
<trkpt lat="54.585036" lon="-3.214519"><ele>422</ele><time>2024-06-01T14:32:03Z</time><name>PT3879</name></trkpt>
<trkpt lat="54.585043" lon="-3.214443"><ele>420</ele><time>2024-06-01T14:32:06Z</time><name>PT3880</name></trkpt>
<trkpt lat="54.585054" lon="-3.214373"><ele>419</ele><time>2024-06-01T14:32:11Z</time><name>PT3881</name></trkpt>
<trkpt lat="54.585061" lon="-3.214337"><ele>420</ele><time>2024-06-01T14:32:14Z</time><name>PT3882</name></trkpt>
<trkpt lat="54.585059" lon="-3.214332"><ele>420</ele><time>2024-06-01T14:32:17Z</time><name>PT3883</name></trkpt>
<trkpt lat="54.585056" lon="-3.214326"><ele>420</ele><time>2024-06-01T14:32:21Z</time><name>PT3884</name></trkpt>
<trkpt lat="54.585055" lon="-3.214324"><ele>420</ele><time>2024-06-01T14:32:24Z</time><name>PT3885</name></trkpt>
<trkpt lat="54.585047" lon="-3.214310"><ele>420</ele><time>2024-06-01T14:32:47Z</time><name>PT3886</name></trkpt>
<trkpt lat="54.585047" lon="-3.214309"><ele>420</ele><time>2024-06-01T14:32:51Z</time><name>PT3887</name></trkpt>
<trkpt lat="54.585045" lon="-3.214309"><ele>420</ele><time>2024-06-01T14:32:54Z</time><name>PT3888</name></trkpt>
<trkpt lat="54.585050" lon="-3.214296"><ele>420</ele><time>2024-06-01T14:34:05Z</time><name>PT3889</name></trkpt>
<trkpt lat="54.585062" lon="-3.214242"><ele>421</ele><time>2024-06-01T14:34:08Z</time><name>PT3890</name></trkpt>
<trkpt lat="54.585079" lon="-3.214162"><ele>420</ele><time>2024-06-01T14:34:12Z</time><name>PT3891</name></trkpt>
<trkpt lat="54.585080" lon="-3.214117"><ele>420</ele><time>2024-06-01T14:34:15Z</time><name>PT3892</name></trkpt>
<trkpt lat="54.585080" lon="-3.214024"><ele>421</ele><time>2024-06-01T14:34:18Z</time><name>PT3893</name></trkpt>
<trkpt lat="54.585076" lon="-3.213934"><ele>422</ele><time>2024-06-01T14:34:23Z</time><name>PT3894</name></trkpt>
<trkpt lat="54.585078" lon="-3.213883"><ele>423</ele><time>2024-06-01T14:34:26Z</time><name>PT3895</name></trkpt>
<trkpt lat="54.585096" lon="-3.213816"><ele>423</ele><time>2024-06-01T14:34:30Z</time><name>PT3896</name></trkpt>
<trkpt lat="54.585112" lon="-3.213759"><ele>424</ele><time>2024-06-01T14:34:33Z</time><name>PT3897</name></trkpt>
<trkpt lat="54.585119" lon="-3.213705"><ele>425</ele><time>2024-06-01T14:34:36Z</time><name>PT3898</name></trkpt>
<trkpt lat="54.585130" lon="-3.213640"><ele>425</ele><time>2024-06-01T14:34:39Z</time><name>PT3899</name></trkpt>
<trkpt lat="54.585138" lon="-3.213574"><ele>425</ele><time>2024-06-01T14:34:42Z</time><name>PT3900</name></trkpt>
<trkpt lat="54.585141" lon="-3.213484"><ele>424</ele><time>2024-06-01T14:34:45Z</time><name>PT3901</name></trkpt>
<trkpt lat="54.585150" lon="-3.213401"><ele>426</ele><time>2024-06-01T14:34:50Z</time><name>PT3902</name></trkpt>
<trkpt lat="54.585158" lon="-3.213342"><ele>426</ele><time>2024-06-01T14:34:53Z</time><name>PT3903</name></trkpt>
<trkpt lat="54.585166" lon="-3.213272"><ele>426</ele><time>2024-06-01T14:34:57Z</time><name>PT3904</name></trkpt>
<trkpt lat="54.585178" lon="-3.213220"><ele>426</ele><time>2024-06-01T14:35:00Z</time><name>PT3905</name></trkpt>
<trkpt lat="54.585189" lon="-3.213138"><ele>426</ele><time>2024-06-01T14:35:03Z</time><name>PT3906</name></trkpt>
<trkpt lat="54.585206" lon="-3.213069"><ele>426</ele><time>2024-06-01T14:35:08Z</time><name>PT3907</name></trkpt>
<trkpt lat="54.585231" lon="-3.213012"><ele>427</ele><time>2024-06-01T14:35:11Z</time><name>PT3908</name></trkpt>
<trkpt lat="54.585252" lon="-3.212958"><ele>426</ele><time>2024-06-01T14:35:15Z</time><name>PT3909</name></trkpt>
<trkpt lat="54.585257" lon="-3.212896"><ele>426</ele><time>2024-06-01T14:35:18Z</time><name>PT3910</name></trkpt>
<trkpt lat="54.585264" lon="-3.212831"><ele>426</ele><time>2024-06-01T14:35:21Z</time><name>PT3911</name></trkpt>
<trkpt lat="54.585277" lon="-3.212759"><ele>426</ele><time>2024-06-01T14:35:24Z</time><name>PT3912</name></trkpt>
<trkpt lat="54.585291" lon="-3.212703"><ele>426</ele><time>2024-06-01T14:35:27Z</time><name>PT3913</name></trkpt>
<trkpt lat="54.585283" lon="-3.212649"><ele>426</ele><time>2024-06-01T14:35:32Z</time><name>PT3914</name></trkpt>
<trkpt lat="54.585281" lon="-3.212610"><ele>426</ele><time>2024-06-01T14:35:35Z</time><name>PT3915</name></trkpt>
<trkpt lat="54.585311" lon="-3.212560"><ele>426</ele><time>2024-06-01T14:35:39Z</time><name>PT3916</name></trkpt>
<trkpt lat="54.585333" lon="-3.212514"><ele>426</ele><time>2024-06-01T14:35:42Z</time><name>PT3917</name></trkpt>
<trkpt lat="54.585343" lon="-3.212461"><ele>426</ele><time>2024-06-01T14:35:45Z</time><name>PT3918</name></trkpt>
<trkpt lat="54.585346" lon="-3.212404"><ele>425</ele><time>2024-06-01T14:35:48Z</time><name>PT3919</name></trkpt>
<trkpt lat="54.585338" lon="-3.212320"><ele>425</ele><time>2024-06-01T14:35:53Z</time><name>PT3920</name></trkpt>
<trkpt lat="54.585339" lon="-3.212279"><ele>424</ele><time>2024-06-01T14:35:56Z</time><name>PT3921</name></trkpt>
<trkpt lat="54.585336" lon="-3.212200"><ele>423</ele><time>2024-06-01T14:36:00Z</time><name>PT3922</name></trkpt>
<trkpt lat="54.585333" lon="-3.212110"><ele>423</ele><time>2024-06-01T14:36:03Z</time><name>PT3923</name></trkpt>
<trkpt lat="54.585326" lon="-3.212039"><ele>422</ele><time>2024-06-01T14:36:08Z</time><name>PT3924</name></trkpt>
<trkpt lat="54.585331" lon="-3.211942"><ele>421</ele><time>2024-06-01T14:36:12Z</time><name>PT3925</name></trkpt>
<trkpt lat="54.585320" lon="-3.211869"><ele>420</ele><time>2024-06-01T14:36:15Z</time><name>PT3926</name></trkpt>
<trkpt lat="54.585294" lon="-3.211813"><ele>419</ele><time>2024-06-01T14:36:20Z</time><name>PT3927</name></trkpt>
<trkpt lat="54.585282" lon="-3.211775"><ele>418</ele><time>2024-06-01T14:36:23Z</time><name>PT3928</name></trkpt>
<trkpt lat="54.585265" lon="-3.211724"><ele>416</ele><time>2024-06-01T14:36:26Z</time><name>PT3929</name></trkpt>
<trkpt lat="54.585231" lon="-3.211651"><ele>416</ele><time>2024-06-01T14:36:30Z</time><name>PT3930</name></trkpt>
<trkpt lat="54.585200" lon="-3.211581"><ele>416</ele><time>2024-06-01T14:36:33Z</time><name>PT3931</name></trkpt>
<trkpt lat="54.585179" lon="-3.211515"><ele>416</ele><time>2024-06-01T14:36:36Z</time><name>PT3932</name></trkpt>
<trkpt lat="54.585148" lon="-3.211439"><ele>418</ele><time>2024-06-01T14:36:41Z</time><name>PT3933</name></trkpt>
<trkpt lat="54.585122" lon="-3.211394"><ele>418</ele><time>2024-06-01T14:36:44Z</time><name>PT3934</name></trkpt>
<trkpt lat="54.585122" lon="-3.211332"><ele>417</ele><time>2024-06-01T14:36:47Z</time><name>PT3935</name></trkpt>
<trkpt lat="54.585124" lon="-3.211245"><ele>417</ele><time>2024-06-01T14:36:51Z</time><name>PT3936</name></trkpt>
<trkpt lat="54.585121" lon="-3.211171"><ele>416</ele><time>2024-06-01T14:36:54Z</time><name>PT3937</name></trkpt>
<trkpt lat="54.585125" lon="-3.211094"><ele>416</ele><time>2024-06-01T14:36:57Z</time><name>PT3938</name></trkpt>
<trkpt lat="54.585128" lon="-3.211015"><ele>416</ele><time>2024-06-01T14:37:02Z</time><name>PT3939</name></trkpt>
<trkpt lat="54.585140" lon="-3.210948"><ele>417</ele><time>2024-06-01T14:37:06Z</time><name>PT3940</name></trkpt>
<trkpt lat="54.585148" lon="-3.210897"><ele>417</ele><time>2024-06-01T14:37:09Z</time><name>PT3941</name></trkpt>
<trkpt lat="54.585168" lon="-3.210841"><ele>418</ele><time>2024-06-01T14:37:12Z</time><name>PT3942</name></trkpt>
<trkpt lat="54.585189" lon="-3.210784"><ele>417</ele><time>2024-06-01T14:37:17Z</time><name>PT3943</name></trkpt>
<trkpt lat="54.585186" lon="-3.210719"><ele>417</ele><time>2024-06-01T14:37:20Z</time><name>PT3944</name></trkpt>
<trkpt lat="54.585186" lon="-3.210637"><ele>418</ele><time>2024-06-01T14:37:24Z</time><name>PT3945</name></trkpt>
<trkpt lat="54.585183" lon="-3.210539"><ele>418</ele><time>2024-06-01T14:37:27Z</time><name>PT3946</name></trkpt>
<trkpt lat="54.585196" lon="-3.210488"><ele>417</ele><time>2024-06-01T14:37:30Z</time><name>PT3947</name></trkpt>
<trkpt lat="54.585225" lon="-3.210416"><ele>417</ele><time>2024-06-01T14:37:35Z</time><name>PT3948</name></trkpt>
<trkpt lat="54.585248" lon="-3.210364"><ele>417</ele><time>2024-06-01T14:37:39Z</time><name>PT3949</name></trkpt>
<trkpt lat="54.585263" lon="-3.210323"><ele>418</ele><time>2024-06-01T14:37:42Z</time><name>PT3950</name></trkpt>
<trkpt lat="54.585293" lon="-3.210256"><ele>418</ele><time>2024-06-01T14:37:45Z</time><name>PT3951</name></trkpt>
<trkpt lat="54.585309" lon="-3.210212"><ele>417</ele><time>2024-06-01T14:37:48Z</time><name>PT3952</name></trkpt>
<trkpt lat="54.585333" lon="-3.210142"><ele>417</ele><time>2024-06-01T14:37:53Z</time><name>PT3953</name></trkpt>
<trkpt lat="54.585363" lon="-3.210095"><ele>417</ele><time>2024-06-01T14:37:57Z</time><name>PT3954</name></trkpt>
<trkpt lat="54.585397" lon="-3.210076"><ele>417</ele><time>2024-06-01T14:38:00Z</time><name>PT3955</name></trkpt>
<trkpt lat="54.585427" lon="-3.210064"><ele>415</ele><time>2024-06-01T14:38:03Z</time><name>PT3956</name></trkpt>
<trkpt lat="54.585476" lon="-3.210057"><ele>415</ele><time>2024-06-01T14:38:06Z</time><name>PT3957</name></trkpt>
<trkpt lat="54.585502" lon="-3.210034"><ele>416</ele><time>2024-06-01T14:38:09Z</time><name>PT3958</name></trkpt>
<trkpt lat="54.585545" lon="-3.210006"><ele>415</ele><time>2024-06-01T14:38:14Z</time><name>PT3959</name></trkpt>
<trkpt lat="54.585575" lon="-3.209977"><ele>416</ele><time>2024-06-01T14:38:17Z</time><name>PT3960</name></trkpt>
<trkpt lat="54.585614" lon="-3.209946"><ele>416</ele><time>2024-06-01T14:38:21Z</time><name>PT3961</name></trkpt>
<trkpt lat="54.585651" lon="-3.209916"><ele>416</ele><time>2024-06-01T14:38:24Z</time><name>PT3962</name></trkpt>
<trkpt lat="54.585679" lon="-3.209899"><ele>416</ele><time>2024-06-01T14:38:27Z</time><name>PT3963</name></trkpt>
<trkpt lat="54.585713" lon="-3.209852"><ele>416</ele><time>2024-06-01T14:38:32Z</time><name>PT3964</name></trkpt>
<trkpt lat="54.585751" lon="-3.209820"><ele>417</ele><time>2024-06-01T14:38:36Z</time><name>PT3965</name></trkpt>
<trkpt lat="54.585779" lon="-3.209797"><ele>416</ele><time>2024-06-01T14:38:39Z</time><name>PT3966</name></trkpt>
<trkpt lat="54.585802" lon="-3.209747"><ele>416</ele><time>2024-06-01T14:38:42Z</time><name>PT3967</name></trkpt>
<trkpt lat="54.585824" lon="-3.209711"><ele>416</ele><time>2024-06-01T14:38:47Z</time><name>PT3968</name></trkpt>
<trkpt lat="54.585870" lon="-3.209663"><ele>416</ele><time>2024-06-01T14:38:51Z</time><name>PT3969</name></trkpt>
<trkpt lat="54.585900" lon="-3.209625"><ele>417</ele><time>2024-06-01T14:38:54Z</time><name>PT3970</name></trkpt>
<trkpt lat="54.585927" lon="-3.209579"><ele>417</ele><time>2024-06-01T14:38:57Z</time><name>PT3971</name></trkpt>
<trkpt lat="54.585939" lon="-3.209525"><ele>418</ele><time>2024-06-01T14:39:00Z</time><name>PT3972</name></trkpt>
<trkpt lat="54.585937" lon="-3.209476"><ele>419</ele><time>2024-06-01T14:39:05Z</time><name>PT3973</name></trkpt>
<trkpt lat="54.585935" lon="-3.209485"><ele>420</ele><time>2024-06-01T14:39:09Z</time><name>PT3974</name></trkpt>
<trkpt lat="54.585927" lon="-3.209465"><ele>420</ele><time>2024-06-01T14:39:12Z</time><name>PT3975</name></trkpt>
<trkpt lat="54.585923" lon="-3.209417"><ele>420</ele><time>2024-06-01T14:39:15Z</time><name>PT3976</name></trkpt>
<trkpt lat="54.585920" lon="-3.209371"><ele>420</ele><time>2024-06-01T14:39:18Z</time><name>PT3977</name></trkpt>
<trkpt lat="54.585916" lon="-3.209326"><ele>421</ele><time>2024-06-01T14:39:21Z</time><name>PT3978</name></trkpt>
<trkpt lat="54.585914" lon="-3.209299"><ele>421</ele><time>2024-06-01T14:39:25Z</time><name>PT3979</name></trkpt>
<trkpt lat="54.585910" lon="-3.209283"><ele>421</ele><time>2024-06-01T14:39:29Z</time><name>PT3980</name></trkpt>
<trkpt lat="54.585909" lon="-3.209216"><ele>421</ele><time>2024-06-01T14:39:33Z</time><name>PT3981</name></trkpt>
<trkpt lat="54.585917" lon="-3.209145"><ele>421</ele><time>2024-06-01T14:39:36Z</time><name>PT3982</name></trkpt>
<trkpt lat="54.585917" lon="-3.209099"><ele>421</ele><time>2024-06-01T14:39:39Z</time><name>PT3983</name></trkpt>
<trkpt lat="54.585909" lon="-3.209046"><ele>422</ele><time>2024-06-01T14:39:43Z</time><name>PT3984</name></trkpt>
<trkpt lat="54.585912" lon="-3.209004"><ele>422</ele><time>2024-06-01T14:39:46Z</time><name>PT3985</name></trkpt>
<trkpt lat="54.585919" lon="-3.208954"><ele>423</ele><time>2024-06-01T14:39:50Z</time><name>PT3986</name></trkpt>
<trkpt lat="54.585923" lon="-3.208903"><ele>424</ele><time>2024-06-01T14:39:54Z</time><name>PT3987</name></trkpt>
<trkpt lat="54.585925" lon="-3.208847"><ele>424</ele><time>2024-06-01T14:39:57Z</time><name>PT3988</name></trkpt>
<trkpt lat="54.585941" lon="-3.208795"><ele>424</ele><time>2024-06-01T14:40:00Z</time><name>PT3989</name></trkpt>
<trkpt lat="54.585947" lon="-3.208747"><ele>425</ele><time>2024-06-01T14:40:05Z</time><name>PT3990</name></trkpt>
<trkpt lat="54.585956" lon="-3.208706"><ele>426</ele><time>2024-06-01T14:40:08Z</time><name>PT3991</name></trkpt>
<trkpt lat="54.585969" lon="-3.208649"><ele>427</ele><time>2024-06-01T14:40:12Z</time><name>PT3992</name></trkpt>
<trkpt lat="54.585963" lon="-3.208600"><ele>426</ele><time>2024-06-01T14:40:15Z</time><name>PT3993</name></trkpt>
<trkpt lat="54.585949" lon="-3.208533"><ele>427</ele><time>2024-06-01T14:40:18Z</time><name>PT3994</name></trkpt>
<trkpt lat="54.585935" lon="-3.208455"><ele>427</ele><time>2024-06-01T14:40:23Z</time><name>PT3995</name></trkpt>
<trkpt lat="54.585927" lon="-3.208407"><ele>427</ele><time>2024-06-01T14:40:26Z</time><name>PT3996</name></trkpt>
<trkpt lat="54.585922" lon="-3.208357"><ele>427</ele><time>2024-06-01T14:40:30Z</time><name>PT3997</name></trkpt>
<trkpt lat="54.585922" lon="-3.208320"><ele>428</ele><time>2024-06-01T14:40:33Z</time><name>PT3998</name></trkpt>
<trkpt lat="54.585914" lon="-3.208257"><ele>428</ele><time>2024-06-01T14:40:36Z</time><name>PT3999</name></trkpt>
<trkpt lat="54.585912" lon="-3.208213"><ele>430</ele><time>2024-06-01T14:40:41Z</time><name>PT4000</name></trkpt>
<trkpt lat="54.585923" lon="-3.208159"><ele>430</ele><time>2024-06-01T14:40:45Z</time><name>PT4001</name></trkpt>
<trkpt lat="54.585956" lon="-3.208132"><ele>431</ele><time>2024-06-01T14:40:48Z</time><name>PT4002</name></trkpt>
<trkpt lat="54.585987" lon="-3.208119"><ele>431</ele><time>2024-06-01T14:40:53Z</time><name>PT4003</name></trkpt>
<trkpt lat="54.586005" lon="-3.208115"><ele>432</ele><time>2024-06-01T14:40:57Z</time><name>PT4004</name></trkpt>
<trkpt lat="54.586023" lon="-3.208104"><ele>432</ele><time>2024-06-01T14:41:00Z</time><name>PT4005</name></trkpt>
<trkpt lat="54.586050" lon="-3.208073"><ele>433</ele><time>2024-06-01T14:41:03Z</time><name>PT4006</name></trkpt>
<trkpt lat="54.586064" lon="-3.208050"><ele>434</ele><time>2024-06-01T14:41:06Z</time><name>PT4007</name></trkpt>
<trkpt lat="54.586078" lon="-3.208001"><ele>434</ele><time>2024-06-01T14:41:11Z</time><name>PT4008</name></trkpt>
<trkpt lat="54.586088" lon="-3.207949"><ele>435</ele><time>2024-06-01T14:41:15Z</time><name>PT4009</name></trkpt>
<trkpt lat="54.586108" lon="-3.207920"><ele>437</ele><time>2024-06-01T14:41:18Z</time><name>PT4010</name></trkpt>
<trkpt lat="54.586129" lon="-3.207908"><ele>438</ele><time>2024-06-01T14:41:21Z</time><name>PT4011</name></trkpt>
<trkpt lat="54.586151" lon="-3.207873"><ele>439</ele><time>2024-06-01T14:41:24Z</time><name>PT4012</name></trkpt>
<trkpt lat="54.586166" lon="-3.207848"><ele>441</ele><time>2024-06-01T14:41:27Z</time><name>PT4013</name></trkpt>
<trkpt lat="54.586193" lon="-3.207816"><ele>441</ele><time>2024-06-01T14:41:32Z</time><name>PT4014</name></trkpt>
<trkpt lat="54.586217" lon="-3.207775"><ele>442</ele><time>2024-06-01T14:41:35Z</time><name>PT4015</name></trkpt>
<trkpt lat="54.586244" lon="-3.207727"><ele>442</ele><time>2024-06-01T14:41:39Z</time><name>PT4016</name></trkpt>
<trkpt lat="54.586258" lon="-3.207676"><ele>442</ele><time>2024-06-01T14:41:42Z</time><name>PT4017</name></trkpt>
<trkpt lat="54.586273" lon="-3.207633"><ele>443</ele><time>2024-06-01T14:41:45Z</time><name>PT4018</name></trkpt>
<trkpt lat="54.586296" lon="-3.207594"><ele>444</ele><time>2024-06-01T14:41:48Z</time><name>PT4019</name></trkpt>
<trkpt lat="54.586316" lon="-3.207539"><ele>445</ele><time>2024-06-01T14:41:53Z</time><name>PT4020</name></trkpt>
<trkpt lat="54.586346" lon="-3.207485"><ele>445</ele><time>2024-06-01T14:41:57Z</time><name>PT4021</name></trkpt>
<trkpt lat="54.586367" lon="-3.207454"><ele>445</ele><time>2024-06-01T14:42:00Z</time><name>PT4022</name></trkpt>
<trkpt lat="54.586394" lon="-3.207411"><ele>447</ele><time>2024-06-01T14:42:03Z</time><name>PT4023</name></trkpt>
<trkpt lat="54.586412" lon="-3.207397"><ele>447</ele><time>2024-06-01T14:42:08Z</time><name>PT4024</name></trkpt>
<trkpt lat="54.586428" lon="-3.207380"><ele>448</ele><time>2024-06-01T14:42:12Z</time><name>PT4025</name></trkpt>
<trkpt lat="54.586442" lon="-3.207350"><ele>447</ele><time>2024-06-01T14:42:15Z</time><name>PT4026</name></trkpt>
<trkpt lat="54.586475" lon="-3.207296"><ele>448</ele><time>2024-06-01T14:42:18Z</time><name>PT4027</name></trkpt>
<trkpt lat="54.586496" lon="-3.207270"><ele>448</ele><time>2024-06-01T14:42:21Z</time><name>PT4028</name></trkpt>
<trkpt lat="54.586526" lon="-3.207240"><ele>447</ele><time>2024-06-01T14:42:26Z</time><name>PT4029</name></trkpt>
<trkpt lat="54.586558" lon="-3.207222"><ele>447</ele><time>2024-06-01T14:42:30Z</time><name>PT4030</name></trkpt>
<trkpt lat="54.586587" lon="-3.207185"><ele>446</ele><time>2024-06-01T14:42:33Z</time><name>PT4031</name></trkpt>
<trkpt lat="54.586602" lon="-3.207147"><ele>446</ele><time>2024-06-01T14:42:38Z</time><name>PT4032</name></trkpt>
<trkpt lat="54.586622" lon="-3.207108"><ele>445</ele><time>2024-06-01T14:42:42Z</time><name>PT4033</name></trkpt>
<trkpt lat="54.586646" lon="-3.207068"><ele>443</ele><time>2024-06-01T14:42:45Z</time><name>PT4034</name></trkpt>
<trkpt lat="54.586667" lon="-3.207027"><ele>443</ele><time>2024-06-01T14:42:48Z</time><name>PT4035</name></trkpt>
<trkpt lat="54.586688" lon="-3.206984"><ele>441</ele><time>2024-06-01T14:42:53Z</time><name>PT4036</name></trkpt>
<trkpt lat="54.586712" lon="-3.206951"><ele>441</ele><time>2024-06-01T14:42:56Z</time><name>PT4037</name></trkpt>
<trkpt lat="54.586735" lon="-3.206923"><ele>441</ele><time>2024-06-01T14:43:00Z</time><name>PT4038</name></trkpt>
<trkpt lat="54.586754" lon="-3.206903"><ele>440</ele><time>2024-06-01T14:43:03Z</time><name>PT4039</name></trkpt>
<trkpt lat="54.586762" lon="-3.206879"><ele>439</ele><time>2024-06-01T14:43:06Z</time><name>PT4040</name></trkpt>
<trkpt lat="54.586774" lon="-3.206831"><ele>439</ele><time>2024-06-01T14:43:09Z</time><name>PT4041</name></trkpt>
<trkpt lat="54.586805" lon="-3.206772"><ele>439</ele><time>2024-06-01T14:43:14Z</time><name>PT4042</name></trkpt>
<trkpt lat="54.586838" lon="-3.206750"><ele>438</ele><time>2024-06-01T14:43:17Z</time><name>PT4043</name></trkpt>
<trkpt lat="54.586887" lon="-3.206725"><ele>436</ele><time>2024-06-01T14:43:21Z</time><name>PT4044</name></trkpt>
<trkpt lat="54.586920" lon="-3.206670"><ele>435</ele><time>2024-06-01T14:43:24Z</time><name>PT4045</name></trkpt>
<trkpt lat="54.586950" lon="-3.206627"><ele>436</ele><time>2024-06-01T14:43:27Z</time><name>PT4046</name></trkpt>
<trkpt lat="54.586982" lon="-3.206579"><ele>435</ele><time>2024-06-01T14:43:32Z</time><name>PT4047</name></trkpt>
<trkpt lat="54.587016" lon="-3.206555"><ele>434</ele><time>2024-06-01T14:43:36Z</time><name>PT4048</name></trkpt>
<trkpt lat="54.587056" lon="-3.206528"><ele>433</ele><time>2024-06-01T14:43:39Z</time><name>PT4049</name></trkpt>
<trkpt lat="54.587084" lon="-3.206519"><ele>432</ele><time>2024-06-01T14:43:42Z</time><name>PT4050</name></trkpt>
<trkpt lat="54.587126" lon="-3.206506"><ele>431</ele><time>2024-06-01T14:43:45Z</time><name>PT4051</name></trkpt>
<trkpt lat="54.587160" lon="-3.206486"><ele>430</ele><time>2024-06-01T14:43:50Z</time><name>PT4052</name></trkpt>
<trkpt lat="54.587183" lon="-3.206478"><ele>429</ele><time>2024-06-01T14:43:53Z</time><name>PT4053</name></trkpt>
<trkpt lat="54.587207" lon="-3.206472"><ele>428</ele><time>2024-06-01T14:43:57Z</time><name>PT4054</name></trkpt>
<trkpt lat="54.587232" lon="-3.206448"><ele>427</ele><time>2024-06-01T14:44:00Z</time><name>PT4055</name></trkpt>
<trkpt lat="54.587254" lon="-3.206428"><ele>427</ele><time>2024-06-01T14:44:05Z</time><name>PT4056</name></trkpt>
<trkpt lat="54.587272" lon="-3.206422"><ele>427</ele><time>2024-06-01T14:44:08Z</time><name>PT4057</name></trkpt>
<trkpt lat="54.587299" lon="-3.206414"><ele>426</ele><time>2024-06-01T14:44:12Z</time><name>PT4058</name></trkpt>
<trkpt lat="54.587323" lon="-3.206400"><ele>424</ele><time>2024-06-01T14:44:15Z</time><name>PT4059</name></trkpt>
<trkpt lat="54.587349" lon="-3.206413"><ele>422</ele><time>2024-06-01T14:44:20Z</time><name>PT4060</name></trkpt>
<trkpt lat="54.587370" lon="-3.206390"><ele>421</ele><time>2024-06-01T14:44:24Z</time><name>PT4061</name></trkpt>
<trkpt lat="54.587380" lon="-3.206379"><ele>420</ele><time>2024-06-01T14:44:27Z</time><name>PT4062</name></trkpt>
<trkpt lat="54.587394" lon="-3.206374"><ele>420</ele><time>2024-06-01T14:44:30Z</time><name>PT4063</name></trkpt>
<trkpt lat="54.587411" lon="-3.206400"><ele>419</ele><time>2024-06-01T14:44:34Z</time><name>PT4064</name></trkpt>
<trkpt lat="54.587430" lon="-3.206392"><ele>418</ele><time>2024-06-01T14:44:38Z</time><name>PT4065</name></trkpt>
<trkpt lat="54.587445" lon="-3.206370"><ele>417</ele><time>2024-06-01T14:44:41Z</time><name>PT4066</name></trkpt>
<trkpt lat="54.587459" lon="-3.206342"><ele>415</ele><time>2024-06-01T14:44:45Z</time><name>PT4067</name></trkpt>
<trkpt lat="54.587480" lon="-3.206315"><ele>414</ele><time>2024-06-01T14:44:48Z</time><name>PT4068</name></trkpt>
<trkpt lat="54.587492" lon="-3.206301"><ele>413</ele><time>2024-06-01T14:44:51Z</time><name>PT4069</name></trkpt>
<trkpt lat="54.587516" lon="-3.206310"><ele>413</ele><time>2024-06-01T14:44:56Z</time><name>PT4070</name></trkpt>
<trkpt lat="54.587540" lon="-3.206303"><ele>413</ele><time>2024-06-01T14:45:00Z</time><name>PT4071</name></trkpt>
<trkpt lat="54.587546" lon="-3.206246"><ele>412</ele><time>2024-06-01T14:45:03Z</time><name>PT4072</name></trkpt>
<trkpt lat="54.587562" lon="-3.206233"><ele>411</ele><time>2024-06-01T14:45:06Z</time><name>PT4073</name></trkpt>
<trkpt lat="54.587569" lon="-3.206206"><ele>410</ele><time>2024-06-01T14:45:09Z</time><name>PT4074</name></trkpt>
<trkpt lat="54.587587" lon="-3.206181"><ele>408</ele><time>2024-06-01T14:45:14Z</time><name>PT4075</name></trkpt>
<trkpt lat="54.587607" lon="-3.206175"><ele>406</ele><time>2024-06-01T14:45:18Z</time><name>PT4076</name></trkpt>
<trkpt lat="54.587626" lon="-3.206180"><ele>406</ele><time>2024-06-01T14:45:21Z</time><name>PT4077</name></trkpt>
<trkpt lat="54.587642" lon="-3.206178"><ele>405</ele><time>2024-06-01T14:45:24Z</time><name>PT4078</name></trkpt>
<trkpt lat="54.587659" lon="-3.206162"><ele>404</ele><time>2024-06-01T14:45:27Z</time><name>PT4079</name></trkpt>
<trkpt lat="54.587668" lon="-3.206128"><ele>404</ele><time>2024-06-01T14:45:30Z</time><name>PT4080</name></trkpt>
<trkpt lat="54.587688" lon="-3.206120"><ele>403</ele><time>2024-06-01T14:45:33Z</time><name>PT4081</name></trkpt>
<trkpt lat="54.587721" lon="-3.206114"><ele>403</ele><time>2024-06-01T14:45:38Z</time><name>PT4082</name></trkpt>
<trkpt lat="54.587743" lon="-3.206115"><ele>402</ele><time>2024-06-01T14:45:41Z</time><name>PT4083</name></trkpt>
<trkpt lat="54.587762" lon="-3.206109"><ele>402</ele><time>2024-06-01T14:45:44Z</time><name>PT4084</name></trkpt>
<trkpt lat="54.587783" lon="-3.206092"><ele>401</ele><time>2024-06-01T14:45:48Z</time><name>PT4085</name></trkpt>
<trkpt lat="54.587806" lon="-3.206076"><ele>399</ele><time>2024-06-01T14:45:51Z</time><name>PT4086</name></trkpt>
<trkpt lat="54.587822" lon="-3.206061"><ele>399</ele><time>2024-06-01T14:45:56Z</time><name>PT4087</name></trkpt>
<trkpt lat="54.587842" lon="-3.206060"><ele>397</ele><time>2024-06-01T14:45:59Z</time><name>PT4088</name></trkpt>
<trkpt lat="54.587857" lon="-3.206016"><ele>396</ele><time>2024-06-01T14:46:03Z</time><name>PT4089</name></trkpt>
<trkpt lat="54.587862" lon="-3.205977"><ele>396</ele><time>2024-06-01T14:46:06Z</time><name>PT4090</name></trkpt>
<trkpt lat="54.587862" lon="-3.205953"><ele>395</ele><time>2024-06-01T14:46:09Z</time><name>PT4091</name></trkpt>
<trkpt lat="54.587882" lon="-3.205949"><ele>395</ele><time>2024-06-01T14:46:12Z</time><name>PT4092</name></trkpt>
<trkpt lat="54.587902" lon="-3.205937"><ele>393</ele><time>2024-06-01T14:46:17Z</time><name>PT4093</name></trkpt>
<trkpt lat="54.587912" lon="-3.205898"><ele>392</ele><time>2024-06-01T14:46:21Z</time><name>PT4094</name></trkpt>
<trkpt lat="54.587913" lon="-3.205862"><ele>391</ele><time>2024-06-01T14:46:24Z</time><name>PT4095</name></trkpt>
<trkpt lat="54.587919" lon="-3.205820"><ele>389</ele><time>2024-06-01T14:46:27Z</time><name>PT4096</name></trkpt>
<trkpt lat="54.587925" lon="-3.205763"><ele>389</ele><time>2024-06-01T14:46:30Z</time><name>PT4097</name></trkpt>
<trkpt lat="54.587946" lon="-3.205744"><ele>387</ele><time>2024-06-01T14:46:35Z</time><name>PT4098</name></trkpt>
<trkpt lat="54.587966" lon="-3.205747"><ele>387</ele><time>2024-06-01T14:46:38Z</time><name>PT4099</name></trkpt>
<trkpt lat="54.587988" lon="-3.205766"><ele>386</ele><time>2024-06-01T14:46:41Z</time><name>PT4100</name></trkpt>
<trkpt lat="54.588013" lon="-3.205790"><ele>384</ele><time>2024-06-01T14:46:45Z</time><name>PT4101</name></trkpt>
<trkpt lat="54.588031" lon="-3.205772"><ele>384</ele><time>2024-06-01T14:46:48Z</time><name>PT4102</name></trkpt>
<trkpt lat="54.588047" lon="-3.205761"><ele>383</ele><time>2024-06-01T14:46:51Z</time><name>PT4103</name></trkpt>
<trkpt lat="54.588069" lon="-3.205742"><ele>381</ele><time>2024-06-01T14:46:56Z</time><name>PT4104</name></trkpt>
<trkpt lat="54.588100" lon="-3.205718"><ele>380</ele><time>2024-06-01T14:47:00Z</time><name>PT4105</name></trkpt>
<trkpt lat="54.588131" lon="-3.205708"><ele>379</ele><time>2024-06-01T14:47:03Z</time><name>PT4106</name></trkpt>
<trkpt lat="54.588144" lon="-3.205684"><ele>378</ele><time>2024-06-01T14:47:06Z</time><name>PT4107</name></trkpt>
<trkpt lat="54.588166" lon="-3.205654"><ele>377</ele><time>2024-06-01T14:47:11Z</time><name>PT4108</name></trkpt>
<trkpt lat="54.588196" lon="-3.205652"><ele>376</ele><time>2024-06-01T14:47:15Z</time><name>PT4109</name></trkpt>
<trkpt lat="54.588217" lon="-3.205636"><ele>375</ele><time>2024-06-01T14:47:18Z</time><name>PT4110</name></trkpt>
<trkpt lat="54.588246" lon="-3.205615"><ele>374</ele><time>2024-06-01T14:47:21Z</time><name>PT4111</name></trkpt>
<trkpt lat="54.588269" lon="-3.205577"><ele>373</ele><time>2024-06-01T14:47:26Z</time><name>PT4112</name></trkpt>
<trkpt lat="54.588287" lon="-3.205549"><ele>372</ele><time>2024-06-01T14:47:29Z</time><name>PT4113</name></trkpt>
<trkpt lat="54.588306" lon="-3.205514"><ele>370</ele><time>2024-06-01T14:47:33Z</time><name>PT4114</name></trkpt>
<trkpt lat="54.588315" lon="-3.205479"><ele>369</ele><time>2024-06-01T14:47:36Z</time><name>PT4115</name></trkpt>
<trkpt lat="54.588326" lon="-3.205433"><ele>368</ele><time>2024-06-01T14:47:41Z</time><name>PT4116</name></trkpt>
<trkpt lat="54.588340" lon="-3.205394"><ele>366</ele><time>2024-06-01T14:47:44Z</time><name>PT4117</name></trkpt>
<trkpt lat="54.588369" lon="-3.205363"><ele>365</ele><time>2024-06-01T14:47:48Z</time><name>PT4118</name></trkpt>
<trkpt lat="54.588399" lon="-3.205332"><ele>365</ele><time>2024-06-01T14:47:51Z</time><name>PT4119</name></trkpt>
<trkpt lat="54.588422" lon="-3.205300"><ele>365</ele><time>2024-06-01T14:47:54Z</time><name>PT4120</name></trkpt>
<trkpt lat="54.588441" lon="-3.205287"><ele>364</ele><time>2024-06-01T14:47:57Z</time><name>PT4121</name></trkpt>
<trkpt lat="54.588463" lon="-3.205293"><ele>362</ele><time>2024-06-01T14:48:02Z</time><name>PT4122</name></trkpt>
<trkpt lat="54.588478" lon="-3.205289"><ele>362</ele><time>2024-06-01T14:48:05Z</time><name>PT4123</name></trkpt>
<trkpt lat="54.588502" lon="-3.205282"><ele>362</ele><time>2024-06-01T14:48:08Z</time><name>PT4124</name></trkpt>
<trkpt lat="54.588534" lon="-3.205266"><ele>362</ele><time>2024-06-01T14:48:12Z</time><name>PT4125</name></trkpt>
<trkpt lat="54.588552" lon="-3.205240"><ele>361</ele><time>2024-06-01T14:48:15Z</time><name>PT4126</name></trkpt>
<trkpt lat="54.588574" lon="-3.205234"><ele>359</ele><time>2024-06-01T14:48:18Z</time><name>PT4127</name></trkpt>
<trkpt lat="54.588592" lon="-3.205234"><ele>357</ele><time>2024-06-01T14:48:21Z</time><name>PT4128</name></trkpt>
<trkpt lat="54.588614" lon="-3.205186"><ele>356</ele><time>2024-06-01T14:48:24Z</time><name>PT4129</name></trkpt>
<trkpt lat="54.588634" lon="-3.205143"><ele>354</ele><time>2024-06-01T14:48:29Z</time><name>PT4130</name></trkpt>
<trkpt lat="54.588645" lon="-3.205103"><ele>352</ele><time>2024-06-01T14:48:32Z</time><name>PT4131</name></trkpt>
<trkpt lat="54.588667" lon="-3.205074"><ele>351</ele><time>2024-06-01T14:48:36Z</time><name>PT4132</name></trkpt>
<trkpt lat="54.588677" lon="-3.205065"><ele>351</ele><time>2024-06-01T14:48:39Z</time><name>PT4133</name></trkpt>
<trkpt lat="54.588683" lon="-3.205027"><ele>351</ele><time>2024-06-01T14:48:42Z</time><name>PT4134</name></trkpt>
<trkpt lat="54.588691" lon="-3.204984"><ele>351</ele><time>2024-06-01T14:48:47Z</time><name>PT4135</name></trkpt>
<trkpt lat="54.588710" lon="-3.204973"><ele>350</ele><time>2024-06-01T14:48:50Z</time><name>PT4136</name></trkpt>
<trkpt lat="54.588732" lon="-3.204951"><ele>348</ele><time>2024-06-01T14:48:54Z</time><name>PT4137</name></trkpt>
<trkpt lat="54.588746" lon="-3.204918"><ele>346</ele><time>2024-06-01T14:48:57Z</time><name>PT4138</name></trkpt>
<trkpt lat="54.588772" lon="-3.204896"><ele>344</ele><time>2024-06-01T14:49:00Z</time><name>PT4139</name></trkpt>
<trkpt lat="54.588792" lon="-3.204879"><ele>343</ele><time>2024-06-01T14:49:03Z</time><name>PT4140</name></trkpt>
<trkpt lat="54.588823" lon="-3.204855"><ele>343</ele><time>2024-06-01T14:49:08Z</time><name>PT4141</name></trkpt>
<trkpt lat="54.588852" lon="-3.204828"><ele>341</ele><time>2024-06-01T14:49:12Z</time><name>PT4142</name></trkpt>
<trkpt lat="54.588867" lon="-3.204799"><ele>340</ele><time>2024-06-01T14:49:15Z</time><name>PT4143</name></trkpt>
<trkpt lat="54.588891" lon="-3.204781"><ele>339</ele><time>2024-06-01T14:49:18Z</time><name>PT4144</name></trkpt>
<trkpt lat="54.588923" lon="-3.204776"><ele>339</ele><time>2024-06-01T14:49:21Z</time><name>PT4145</name></trkpt>
<trkpt lat="54.588950" lon="-3.204748"><ele>337</ele><time>2024-06-01T14:49:26Z</time><name>PT4146</name></trkpt>
<trkpt lat="54.588995" lon="-3.204714"><ele>336</ele><time>2024-06-01T14:49:30Z</time><name>PT4147</name></trkpt>
<trkpt lat="54.589028" lon="-3.204677"><ele>335</ele><time>2024-06-01T14:49:33Z</time><name>PT4148</name></trkpt>
<trkpt lat="54.589051" lon="-3.204646"><ele>335</ele><time>2024-06-01T14:49:36Z</time><name>PT4149</name></trkpt>
<trkpt lat="54.589084" lon="-3.204591"><ele>334</ele><time>2024-06-01T14:49:41Z</time><name>PT4150</name></trkpt>
<trkpt lat="54.589123" lon="-3.204544"><ele>332</ele><time>2024-06-01T14:49:45Z</time><name>PT4151</name></trkpt>
<trkpt lat="54.589155" lon="-3.204517"><ele>331</ele><time>2024-06-01T14:49:48Z</time><name>PT4152</name></trkpt>
<trkpt lat="54.589190" lon="-3.204479"><ele>331</ele><time>2024-06-01T14:49:51Z</time><name>PT4153</name></trkpt>
<trkpt lat="54.589229" lon="-3.204461"><ele>330</ele><time>2024-06-01T14:49:56Z</time><name>PT4154</name></trkpt>
<trkpt lat="54.589262" lon="-3.204450"><ele>328</ele><time>2024-06-01T14:49:59Z</time><name>PT4155</name></trkpt>
<trkpt lat="54.589294" lon="-3.204413"><ele>329</ele><time>2024-06-01T14:50:02Z</time><name>PT4156</name></trkpt>
<trkpt lat="54.589329" lon="-3.204394"><ele>328</ele><time>2024-06-01T14:50:06Z</time><name>PT4157</name></trkpt>
<trkpt lat="54.589353" lon="-3.204377"><ele>327</ele><time>2024-06-01T14:50:09Z</time><name>PT4158</name></trkpt>
<trkpt lat="54.589383" lon="-3.204360"><ele>326</ele><time>2024-06-01T14:50:12Z</time><name>PT4159</name></trkpt>
<trkpt lat="54.589402" lon="-3.204350"><ele>326</ele><time>2024-06-01T14:50:15Z</time><name>PT4160</name></trkpt>
<trkpt lat="54.589417" lon="-3.204336"><ele>325</ele><time>2024-06-01T14:50:18Z</time><name>PT4161</name></trkpt>
<trkpt lat="54.589424" lon="-3.204333"><ele>325</ele><time>2024-06-01T14:50:23Z</time><name>PT4162</name></trkpt>
<trkpt lat="54.589447" lon="-3.204315"><ele>325</ele><time>2024-06-01T14:50:30Z</time><name>PT4163</name></trkpt>
<trkpt lat="54.589477" lon="-3.204312"><ele>324</ele><time>2024-06-01T14:50:33Z</time><name>PT4164</name></trkpt>
<trkpt lat="54.589505" lon="-3.204287"><ele>323</ele><time>2024-06-01T14:50:36Z</time><name>PT4165</name></trkpt>
<trkpt lat="54.589534" lon="-3.204260"><ele>322</ele><time>2024-06-01T14:50:39Z</time><name>PT4166</name></trkpt>
<trkpt lat="54.589571" lon="-3.204241"><ele>320</ele><time>2024-06-01T14:50:42Z</time><name>PT4167</name></trkpt>
<trkpt lat="54.589607" lon="-3.204237"><ele>319</ele><time>2024-06-01T14:50:47Z</time><name>PT4168</name></trkpt>
<trkpt lat="54.589649" lon="-3.204222"><ele>319</ele><time>2024-06-01T14:50:51Z</time><name>PT4169</name></trkpt>
<trkpt lat="54.589671" lon="-3.204204"><ele>316</ele><time>2024-06-01T14:50:54Z</time><name>PT4170</name></trkpt>
<trkpt lat="54.589675" lon="-3.204142"><ele>315</ele><time>2024-06-01T14:50:59Z</time><name>PT4171</name></trkpt>
<trkpt lat="54.589685" lon="-3.204089"><ele>315</ele><time>2024-06-01T14:51:02Z</time><name>PT4172</name></trkpt>
<trkpt lat="54.589699" lon="-3.204058"><ele>314</ele><time>2024-06-01T14:51:05Z</time><name>PT4173</name></trkpt>
<trkpt lat="54.589728" lon="-3.204046"><ele>313</ele><time>2024-06-01T14:51:09Z</time><name>PT4174</name></trkpt>
<trkpt lat="54.589751" lon="-3.204026"><ele>311</ele><time>2024-06-01T14:51:12Z</time><name>PT4175</name></trkpt>
<trkpt lat="54.589782" lon="-3.203981"><ele>310</ele><time>2024-06-01T14:51:15Z</time><name>PT4176</name></trkpt>
<trkpt lat="54.589792" lon="-3.203965"><ele>309</ele><time>2024-06-01T14:51:18Z</time><name>PT4177</name></trkpt>
<trkpt lat="54.589793" lon="-3.203959"><ele>310</ele><time>2024-06-01T14:51:21Z</time><name>PT4178</name></trkpt>
<trkpt lat="54.589793" lon="-3.203959"><ele>310</ele><time>2024-06-01T14:51:26Z</time><name>PT4179</name></trkpt>
<trkpt lat="54.589813" lon="-3.203917"><ele>309</ele><time>2024-06-01T14:51:51Z</time><name>PT4180</name></trkpt>
<trkpt lat="54.589826" lon="-3.203857"><ele>307</ele><time>2024-06-01T14:51:54Z</time><name>PT4181</name></trkpt>
<trkpt lat="54.589859" lon="-3.203815"><ele>306</ele><time>2024-06-01T14:51:57Z</time><name>PT4182</name></trkpt>
<trkpt lat="54.589892" lon="-3.203777"><ele>305</ele><time>2024-06-01T14:52:02Z</time><name>PT4183</name></trkpt>
<trkpt lat="54.589920" lon="-3.203743"><ele>304</ele><time>2024-06-01T14:52:06Z</time><name>PT4184</name></trkpt>
<trkpt lat="54.589943" lon="-3.203700"><ele>302</ele><time>2024-06-01T14:52:09Z</time><name>PT4185</name></trkpt>
<trkpt lat="54.589964" lon="-3.203666"><ele>301</ele><time>2024-06-01T14:52:12Z</time><name>PT4186</name></trkpt>
<trkpt lat="54.589992" lon="-3.203619"><ele>298</ele><time>2024-06-01T14:52:16Z</time><name>PT4187</name></trkpt>
<trkpt lat="54.590021" lon="-3.203583"><ele>296</ele><time>2024-06-01T14:52:21Z</time><name>PT4188</name></trkpt>
<trkpt lat="54.590061" lon="-3.203525"><ele>296</ele><time>2024-06-01T14:52:24Z</time><name>PT4189</name></trkpt>
<trkpt lat="54.590091" lon="-3.203472"><ele>296</ele><time>2024-06-01T14:52:29Z</time><name>PT4190</name></trkpt>
<trkpt lat="54.590115" lon="-3.203420"><ele>294</ele><time>2024-06-01T14:52:32Z</time><name>PT4191</name></trkpt>
<trkpt lat="54.590157" lon="-3.203352"><ele>294</ele><time>2024-06-01T14:52:36Z</time><name>PT4192</name></trkpt>
<trkpt lat="54.590190" lon="-3.203284"><ele>295</ele><time>2024-06-01T14:52:39Z</time><name>PT4193</name></trkpt>
<trkpt lat="54.590225" lon="-3.203206"><ele>295</ele><time>2024-06-01T14:52:44Z</time><name>PT4194</name></trkpt>
<trkpt lat="54.590266" lon="-3.203142"><ele>295</ele><time>2024-06-01T14:52:48Z</time><name>PT4195</name></trkpt>
<trkpt lat="54.590296" lon="-3.203096"><ele>293</ele><time>2024-06-01T14:52:51Z</time><name>PT4196</name></trkpt>
<trkpt lat="54.590315" lon="-3.203051"><ele>291</ele><time>2024-06-01T14:52:55Z</time><name>PT4197</name></trkpt>
<trkpt lat="54.590341" lon="-3.203012"><ele>290</ele><time>2024-06-01T14:52:58Z</time><name>PT4198</name></trkpt>
<trkpt lat="54.590365" lon="-3.202977"><ele>288</ele><time>2024-06-01T14:53:01Z</time><name>PT4199</name></trkpt>
<trkpt lat="54.590393" lon="-3.202946"><ele>287</ele><time>2024-06-01T14:53:04Z</time><name>PT4200</name></trkpt>
<trkpt lat="54.590429" lon="-3.202891"><ele>286</ele><time>2024-06-01T14:53:09Z</time><name>PT4201</name></trkpt>
<trkpt lat="54.590451" lon="-3.202848"><ele>284</ele><time>2024-06-01T14:53:12Z</time><name>PT4202</name></trkpt>
<trkpt lat="54.590477" lon="-3.202806"><ele>285</ele><time>2024-06-01T14:53:15Z</time><name>PT4203</name></trkpt>
<trkpt lat="54.590508" lon="-3.202772"><ele>286</ele><time>2024-06-01T14:53:19Z</time><name>PT4204</name></trkpt>
<trkpt lat="54.590528" lon="-3.202748"><ele>286</ele><time>2024-06-01T14:53:22Z</time><name>PT4205</name></trkpt>
<trkpt lat="54.590547" lon="-3.202719"><ele>283</ele><time>2024-06-01T14:53:26Z</time><name>PT4206</name></trkpt>
<trkpt lat="54.590569" lon="-3.202687"><ele>282</ele><time>2024-06-01T14:53:29Z</time><name>PT4207</name></trkpt>
<trkpt lat="54.590595" lon="-3.202639"><ele>280</ele><time>2024-06-01T14:53:33Z</time><name>PT4208</name></trkpt>
<trkpt lat="54.590620" lon="-3.202594"><ele>280</ele><time>2024-06-01T14:53:36Z</time><name>PT4209</name></trkpt>
<trkpt lat="54.590659" lon="-3.202540"><ele>280</ele><time>2024-06-01T14:53:39Z</time><name>PT4210</name></trkpt>
<trkpt lat="54.590700" lon="-3.202491"><ele>279</ele><time>2024-06-01T14:53:43Z</time><name>PT4211</name></trkpt>
<trkpt lat="54.590716" lon="-3.202465"><ele>278</ele><time>2024-06-01T14:53:47Z</time><name>PT4212</name></trkpt>
<trkpt lat="54.590751" lon="-3.202416"><ele>275</ele><time>2024-06-01T14:53:51Z</time><name>PT4213</name></trkpt>
<trkpt lat="54.590795" lon="-3.202366"><ele>274</ele><time>2024-06-01T14:53:54Z</time><name>PT4214</name></trkpt>
<trkpt lat="54.590825" lon="-3.202325"><ele>276</ele><time>2024-06-01T14:53:59Z</time><name>PT4215</name></trkpt>
<trkpt lat="54.590866" lon="-3.202279"><ele>274</ele><time>2024-06-01T14:54:03Z</time><name>PT4216</name></trkpt>
<trkpt lat="54.590901" lon="-3.202249"><ele>274</ele><time>2024-06-01T14:54:06Z</time><name>PT4217</name></trkpt>
<trkpt lat="54.590932" lon="-3.202219"><ele>273</ele><time>2024-06-01T14:54:09Z</time><name>PT4218</name></trkpt>
<trkpt lat="54.590954" lon="-3.202191"><ele>273</ele><time>2024-06-01T14:54:12Z</time><name>PT4219</name></trkpt>
<trkpt lat="54.590988" lon="-3.202148"><ele>272</ele><time>2024-06-01T14:54:15Z</time><name>PT4220</name></trkpt>
<trkpt lat="54.591009" lon="-3.202122"><ele>270</ele><time>2024-06-01T14:54:18Z</time><name>PT4221</name></trkpt>
<trkpt lat="54.591047" lon="-3.202079"><ele>268</ele><time>2024-06-01T14:54:22Z</time><name>PT4222</name></trkpt>
<trkpt lat="54.591069" lon="-3.202049"><ele>269</ele><time>2024-06-01T14:54:25Z</time><name>PT4223</name></trkpt>
<trkpt lat="54.591095" lon="-3.201999"><ele>268</ele><time>2024-06-01T14:54:29Z</time><name>PT4224</name></trkpt>
<trkpt lat="54.591130" lon="-3.201946"><ele>266</ele><time>2024-06-01T14:54:33Z</time><name>PT4225</name></trkpt>
<trkpt lat="54.591167" lon="-3.201889"><ele>264</ele><time>2024-06-01T14:54:36Z</time><name>PT4226</name></trkpt>
<trkpt lat="54.591207" lon="-3.201831"><ele>261</ele><time>2024-06-01T14:54:41Z</time><name>PT4227</name></trkpt>
<trkpt lat="54.591257" lon="-3.201773"><ele>261</ele><time>2024-06-01T14:54:45Z</time><name>PT4228</name></trkpt>
<trkpt lat="54.591297" lon="-3.201728"><ele>261</ele><time>2024-06-01T14:54:48Z</time><name>PT4229</name></trkpt>
<trkpt lat="54.591328" lon="-3.201684"><ele>260</ele><time>2024-06-01T14:54:52Z</time><name>PT4230</name></trkpt>
<trkpt lat="54.591363" lon="-3.201617"><ele>261</ele><time>2024-06-01T14:54:56Z</time><name>PT4231</name></trkpt>
<trkpt lat="54.591403" lon="-3.201552"><ele>262</ele><time>2024-06-01T14:55:00Z</time><name>PT4232</name></trkpt>
<trkpt lat="54.591421" lon="-3.201516"><ele>260</ele><time>2024-06-01T14:55:03Z</time><name>PT4233</name></trkpt>
<trkpt lat="54.591459" lon="-3.201458"><ele>260</ele><time>2024-06-01T14:55:06Z</time><name>PT4234</name></trkpt>
<trkpt lat="54.591495" lon="-3.201388"><ele>259</ele><time>2024-06-01T14:55:10Z</time><name>PT4235</name></trkpt>
<trkpt lat="54.591520" lon="-3.201347"><ele>258</ele><time>2024-06-01T14:55:14Z</time><name>PT4236</name></trkpt>
<trkpt lat="54.591551" lon="-3.201291"><ele>257</ele><time>2024-06-01T14:55:18Z</time><name>PT4237</name></trkpt>
<trkpt lat="54.591582" lon="-3.201239"><ele>256</ele><time>2024-06-01T14:55:21Z</time><name>PT4238</name></trkpt>
<trkpt lat="54.591607" lon="-3.201203"><ele>255</ele><time>2024-06-01T14:55:24Z</time><name>PT4239</name></trkpt>
<trkpt lat="54.591630" lon="-3.201140"><ele>255</ele><time>2024-06-01T14:55:27Z</time><name>PT4240</name></trkpt>
<trkpt lat="54.591652" lon="-3.201086"><ele>255</ele><time>2024-06-01T14:55:30Z</time><name>PT4241</name></trkpt>
<trkpt lat="54.591672" lon="-3.200995"><ele>254</ele><time>2024-06-01T14:55:34Z</time><name>PT4242</name></trkpt>
<trkpt lat="54.591674" lon="-3.200948"><ele>254</ele><time>2024-06-01T14:55:38Z</time><name>PT4243</name></trkpt>
<trkpt lat="54.591699" lon="-3.200902"><ele>253</ele><time>2024-06-01T14:55:41Z</time><name>PT4244</name></trkpt>
<trkpt lat="54.591738" lon="-3.200825"><ele>252</ele><time>2024-06-01T14:55:45Z</time><name>PT4245</name></trkpt>
<trkpt lat="54.591759" lon="-3.200775"><ele>252</ele><time>2024-06-01T14:55:48Z</time><name>PT4246</name></trkpt>
<trkpt lat="54.591788" lon="-3.200701"><ele>250</ele><time>2024-06-01T14:55:51Z</time><name>PT4247</name></trkpt>
<trkpt lat="54.591816" lon="-3.200639"><ele>251</ele><time>2024-06-01T14:55:54Z</time><name>PT4248</name></trkpt>
<trkpt lat="54.591836" lon="-3.200595"><ele>251</ele><time>2024-06-01T14:55:57Z</time><name>PT4249</name></trkpt>
<trkpt lat="54.591865" lon="-3.200537"><ele>249</ele><time>2024-06-01T14:56:01Z</time><name>PT4250</name></trkpt>
<trkpt lat="54.591898" lon="-3.200455"><ele>248</ele><time>2024-06-01T14:56:06Z</time><name>PT4251</name></trkpt>
<trkpt lat="54.591922" lon="-3.200396"><ele>246</ele><time>2024-06-01T14:56:09Z</time><name>PT4252</name></trkpt>
<trkpt lat="54.591956" lon="-3.200341"><ele>245</ele><time>2024-06-01T14:56:13Z</time><name>PT4253</name></trkpt>
<trkpt lat="54.591989" lon="-3.200293"><ele>245</ele><time>2024-06-01T14:56:16Z</time><name>PT4254</name></trkpt>
<trkpt lat="54.592029" lon="-3.200228"><ele>245</ele><time>2024-06-01T14:56:21Z</time><name>PT4255</name></trkpt>
<trkpt lat="54.592049" lon="-3.200190"><ele>244</ele><time>2024-06-01T14:56:24Z</time><name>PT4256</name></trkpt>
<trkpt lat="54.592094" lon="-3.200134"><ele>244</ele><time>2024-06-01T14:56:27Z</time><name>PT4257</name></trkpt>
<trkpt lat="54.592125" lon="-3.200084"><ele>244</ele><time>2024-06-01T14:56:30Z</time><name>PT4258</name></trkpt>
<trkpt lat="54.592158" lon="-3.200039"><ele>244</ele><time>2024-06-01T14:56:33Z</time><name>PT4259</name></trkpt>
<trkpt lat="54.592196" lon="-3.200006"><ele>244</ele><time>2024-06-01T14:56:37Z</time><name>PT4260</name></trkpt>
<trkpt lat="54.592246" lon="-3.199959"><ele>244</ele><time>2024-06-01T14:56:42Z</time><name>PT4261</name></trkpt>
<trkpt lat="54.592284" lon="-3.199921"><ele>244</ele><time>2024-06-01T14:56:45Z</time><name>PT4262</name></trkpt>
<trkpt lat="54.592321" lon="-3.199894"><ele>243</ele><time>2024-06-01T14:56:48Z</time><name>PT4263</name></trkpt>
<trkpt lat="54.592377" lon="-3.199849"><ele>243</ele><time>2024-06-01T14:56:53Z</time><name>PT4264</name></trkpt>
<trkpt lat="54.592415" lon="-3.199817"><ele>242</ele><time>2024-06-01T14:56:56Z</time><name>PT4265</name></trkpt>
<trkpt lat="54.592456" lon="-3.199777"><ele>241</ele><time>2024-06-01T14:57:00Z</time><name>PT4266</name></trkpt>
<trkpt lat="54.592505" lon="-3.199731"><ele>241</ele><time>2024-06-01T14:57:03Z</time><name>PT4267</name></trkpt>
<trkpt lat="54.592520" lon="-3.199706"><ele>241</ele><time>2024-06-01T14:57:07Z</time><name>PT4268</name></trkpt>
<trkpt lat="54.592519" lon="-3.199704"><ele>241</ele><time>2024-06-01T14:57:11Z</time><name>PT4269</name></trkpt>
<trkpt lat="54.592541" lon="-3.199674"><ele>241</ele><time>2024-06-01T14:57:18Z</time><name>PT4270</name></trkpt>
<trkpt lat="54.592570" lon="-3.199633"><ele>240</ele><time>2024-06-01T14:57:21Z</time><name>PT4271</name></trkpt>
<trkpt lat="54.592614" lon="-3.199569"><ele>240</ele><time>2024-06-01T14:57:24Z</time><name>PT4272</name></trkpt>
<trkpt lat="54.592652" lon="-3.199507"><ele>241</ele><time>2024-06-01T14:57:28Z</time><name>PT4273</name></trkpt>
<trkpt lat="54.592687" lon="-3.199455"><ele>239</ele><time>2024-06-01T14:57:33Z</time><name>PT4274</name></trkpt>
<trkpt lat="54.592727" lon="-3.199385"><ele>239</ele><time>2024-06-01T14:57:36Z</time><name>PT4275</name></trkpt>
<trkpt lat="54.592759" lon="-3.199322"><ele>239</ele><time>2024-06-01T14:57:40Z</time><name>PT4276</name></trkpt>
<trkpt lat="54.592789" lon="-3.199277"><ele>238</ele><time>2024-06-01T14:57:44Z</time><name>PT4277</name></trkpt>
<trkpt lat="54.592826" lon="-3.199230"><ele>238</ele><time>2024-06-01T14:57:47Z</time><name>PT4278</name></trkpt>
<trkpt lat="54.592860" lon="-3.199193"><ele>237</ele><time>2024-06-01T14:57:51Z</time><name>PT4279</name></trkpt>
<trkpt lat="54.592902" lon="-3.199154"><ele>236</ele><time>2024-06-01T14:57:54Z</time><name>PT4280</name></trkpt>
<trkpt lat="54.592941" lon="-3.199110"><ele>235</ele><time>2024-06-01T14:57:57Z</time><name>PT4281</name></trkpt>
<trkpt lat="54.592979" lon="-3.199065"><ele>236</ele><time>2024-06-01T14:58:01Z</time><name>PT4282</name></trkpt>
<trkpt lat="54.593015" lon="-3.199021"><ele>235</ele><time>2024-06-01T14:58:05Z</time><name>PT4283</name></trkpt>
<trkpt lat="54.593063" lon="-3.198965"><ele>234</ele><time>2024-06-01T14:58:09Z</time><name>PT4284</name></trkpt>
<trkpt lat="54.593099" lon="-3.198930"><ele>233</ele><time>2024-06-01T14:58:12Z</time><name>PT4285</name></trkpt>
<trkpt lat="54.593137" lon="-3.198893"><ele>233</ele><time>2024-06-01T14:58:15Z</time><name>PT4286</name></trkpt>
<trkpt lat="54.593164" lon="-3.198871"><ele>233</ele><time>2024-06-01T14:58:18Z</time><name>PT4287</name></trkpt>
<trkpt lat="54.593198" lon="-3.198841"><ele>231</ele><time>2024-06-01T14:58:21Z</time><name>PT4288</name></trkpt>
<trkpt lat="54.593243" lon="-3.198793"><ele>230</ele><time>2024-06-01T14:58:25Z</time><name>PT4289</name></trkpt>
<trkpt lat="54.593285" lon="-3.198702"><ele>230</ele><time>2024-06-01T14:58:30Z</time><name>PT4290</name></trkpt>
<trkpt lat="54.593315" lon="-3.198634"><ele>230</ele><time>2024-06-01T14:58:33Z</time><name>PT4291</name></trkpt>
<trkpt lat="54.593340" lon="-3.198567"><ele>229</ele><time>2024-06-01T14:58:37Z</time><name>PT4292</name></trkpt>
<trkpt lat="54.593372" lon="-3.198491"><ele>228</ele><time>2024-06-01T14:58:42Z</time><name>PT4293</name></trkpt>
<trkpt lat="54.593394" lon="-3.198440"><ele>228</ele><time>2024-06-01T14:58:45Z</time><name>PT4294</name></trkpt>
<trkpt lat="54.593437" lon="-3.198372"><ele>229</ele><time>2024-06-01T14:58:48Z</time><name>PT4295</name></trkpt>
<trkpt lat="54.593473" lon="-3.198325"><ele>229</ele><time>2024-06-01T14:58:52Z</time><name>PT4296</name></trkpt>
<trkpt lat="54.593510" lon="-3.198263"><ele>227</ele><time>2024-06-01T14:58:57Z</time><name>PT4297</name></trkpt>
<trkpt lat="54.593542" lon="-3.198211"><ele>227</ele><time>2024-06-01T14:59:00Z</time><name>PT4298</name></trkpt>
<trkpt lat="54.593566" lon="-3.198169"><ele>226</ele><time>2024-06-01T14:59:03Z</time><name>PT4299</name></trkpt>
<trkpt lat="54.593595" lon="-3.198114"><ele>225</ele><time>2024-06-01T14:59:06Z</time><name>PT4300</name></trkpt>
<trkpt lat="54.593622" lon="-3.198055"><ele>222</ele><time>2024-06-01T14:59:10Z</time><name>PT4301</name></trkpt>
<trkpt lat="54.593659" lon="-3.197971"><ele>223</ele><time>2024-06-01T14:59:15Z</time><name>PT4302</name></trkpt>
<trkpt lat="54.593693" lon="-3.197932"><ele>222</ele><time>2024-06-01T14:59:18Z</time><name>PT4303</name></trkpt>
<trkpt lat="54.593713" lon="-3.197890"><ele>222</ele><time>2024-06-01T14:59:21Z</time><name>PT4304</name></trkpt>
<trkpt lat="54.593755" lon="-3.197819"><ele>221</ele><time>2024-06-01T14:59:25Z</time><name>PT4305</name></trkpt>
<trkpt lat="54.593785" lon="-3.197777"><ele>221</ele><time>2024-06-01T14:59:28Z</time><name>PT4306</name></trkpt>
<trkpt lat="54.593821" lon="-3.197732"><ele>221</ele><time>2024-06-01T14:59:31Z</time><name>PT4307</name></trkpt>
<trkpt lat="54.593859" lon="-3.197685"><ele>219</ele><time>2024-06-01T14:59:36Z</time><name>PT4308</name></trkpt>
<trkpt lat="54.593878" lon="-3.197659"><ele>219</ele><time>2024-06-01T14:59:39Z</time><name>PT4309</name></trkpt>
<trkpt lat="54.593903" lon="-3.197622"><ele>217</ele><time>2024-06-01T14:59:42Z</time><name>PT4310</name></trkpt>
<trkpt lat="54.593935" lon="-3.197585"><ele>216</ele><time>2024-06-01T14:59:45Z</time><name>PT4311</name></trkpt>
<trkpt lat="54.593977" lon="-3.197540"><ele>214</ele><time>2024-06-01T14:59:48Z</time><name>PT4312</name></trkpt>
<trkpt lat="54.594007" lon="-3.197469"><ele>213</ele><time>2024-06-01T14:59:53Z</time><name>PT4313</name></trkpt>
<trkpt lat="54.594027" lon="-3.197445"><ele>212</ele><time>2024-06-01T14:59:56Z</time><name>PT4314</name></trkpt>
<trkpt lat="54.594069" lon="-3.197404"><ele>211</ele><time>2024-06-01T15:00:00Z</time><name>PT4315</name></trkpt>
<trkpt lat="54.594113" lon="-3.197386"><ele>211</ele><time>2024-06-01T15:00:03Z</time><name>PT4316</name></trkpt>
<trkpt lat="54.594153" lon="-3.197371"><ele>211</ele><time>2024-06-01T15:00:06Z</time><name>PT4317</name></trkpt>
<trkpt lat="54.594189" lon="-3.197370"><ele>209</ele><time>2024-06-01T15:00:09Z</time><name>PT4318</name></trkpt>
<trkpt lat="54.594221" lon="-3.197356"><ele>208</ele><time>2024-06-01T15:00:12Z</time><name>PT4319</name></trkpt>
<trkpt lat="54.594276" lon="-3.197332"><ele>207</ele><time>2024-06-01T15:00:16Z</time><name>PT4320</name></trkpt>
<trkpt lat="54.594312" lon="-3.197329"><ele>206</ele><time>2024-06-01T15:00:19Z</time><name>PT4321</name></trkpt>
<trkpt lat="54.594363" lon="-3.197334"><ele>205</ele><time>2024-06-01T15:00:24Z</time><name>PT4322</name></trkpt>
<trkpt lat="54.594394" lon="-3.197328"><ele>204</ele><time>2024-06-01T15:00:27Z</time><name>PT4323</name></trkpt>
<trkpt lat="54.594422" lon="-3.197310"><ele>205</ele><time>2024-06-01T15:00:30Z</time><name>PT4324</name></trkpt>
<trkpt lat="54.594470" lon="-3.197298"><ele>203</ele><time>2024-06-01T15:00:33Z</time><name>PT4325</name></trkpt>
<trkpt lat="54.594526" lon="-3.197276"><ele>203</ele><time>2024-06-01T15:00:37Z</time><name>PT4326</name></trkpt>
<trkpt lat="54.594567" lon="-3.197267"><ele>203</ele><time>2024-06-01T15:00:40Z</time><name>PT4327</name></trkpt>
<trkpt lat="54.594592" lon="-3.197258"><ele>201</ele><time>2024-06-01T15:00:43Z</time><name>PT4328</name></trkpt>
<trkpt lat="54.594638" lon="-3.197226"><ele>200</ele><time>2024-06-01T15:00:48Z</time><name>PT4329</name></trkpt>
<trkpt lat="54.594677" lon="-3.197200"><ele>199</ele><time>2024-06-01T15:00:51Z</time><name>PT4330</name></trkpt>
<trkpt lat="54.594716" lon="-3.197172"><ele>198</ele><time>2024-06-01T15:00:54Z</time><name>PT4331</name></trkpt>
<trkpt lat="54.594749" lon="-3.197147"><ele>197</ele><time>2024-06-01T15:00:57Z</time><name>PT4332</name></trkpt>
<trkpt lat="54.594788" lon="-3.197109"><ele>197</ele><time>2024-06-01T15:01:00Z</time><name>PT4333</name></trkpt>
<trkpt lat="54.594830" lon="-3.197037"><ele>196</ele><time>2024-06-01T15:01:04Z</time><name>PT4334</name></trkpt>
<trkpt lat="54.594863" lon="-3.196999"><ele>195</ele><time>2024-06-01T15:01:08Z</time><name>PT4335</name></trkpt>
<trkpt lat="54.594908" lon="-3.196947"><ele>194</ele><time>2024-06-01T15:01:12Z</time><name>PT4336</name></trkpt>
<trkpt lat="54.594938" lon="-3.196906"><ele>193</ele><time>2024-06-01T15:01:15Z</time><name>PT4337</name></trkpt>
<trkpt lat="54.594964" lon="-3.196869"><ele>191</ele><time>2024-06-01T15:01:18Z</time><name>PT4338</name></trkpt>
<trkpt lat="54.595001" lon="-3.196831"><ele>191</ele><time>2024-06-01T15:01:21Z</time><name>PT4339</name></trkpt>
<trkpt lat="54.595055" lon="-3.196782"><ele>192</ele><time>2024-06-01T15:01:25Z</time><name>PT4340</name></trkpt>
<trkpt lat="54.595076" lon="-3.196759"><ele>190</ele><time>2024-06-01T15:01:28Z</time><name>PT4341</name></trkpt>
<trkpt lat="54.595120" lon="-3.196725"><ele>189</ele><time>2024-06-01T15:01:33Z</time><name>PT4342</name></trkpt>
<trkpt lat="54.595170" lon="-3.196684"><ele>188</ele><time>2024-06-01T15:01:36Z</time><name>PT4343</name></trkpt>
<trkpt lat="54.595222" lon="-3.196649"><ele>190</ele><time>2024-06-01T15:01:40Z</time><name>PT4344</name></trkpt>
<trkpt lat="54.595254" lon="-3.196624"><ele>190</ele><time>2024-06-01T15:01:43Z</time><name>PT4345</name></trkpt>
<trkpt lat="54.595290" lon="-3.196593"><ele>188</ele><time>2024-06-01T15:01:46Z</time><name>PT4346</name></trkpt>
<trkpt lat="54.595342" lon="-3.196550"><ele>187</ele><time>2024-06-01T15:01:51Z</time><name>PT4347</name></trkpt>
<trkpt lat="54.595366" lon="-3.196530"><ele>187</ele><time>2024-06-01T15:01:54Z</time><name>PT4348</name></trkpt>
<trkpt lat="54.595412" lon="-3.196496"><ele>186</ele><time>2024-06-01T15:01:57Z</time><name>PT4349</name></trkpt>
<trkpt lat="54.595459" lon="-3.196449"><ele>185</ele><time>2024-06-01T15:02:01Z</time><name>PT4350</name></trkpt>
<trkpt lat="54.595484" lon="-3.196428"><ele>183</ele><time>2024-06-01T15:02:04Z</time><name>PT4351</name></trkpt>
<trkpt lat="54.595526" lon="-3.196380"><ele>182</ele><time>2024-06-01T15:02:09Z</time><name>PT4352</name></trkpt>
<trkpt lat="54.595564" lon="-3.196346"><ele>183</ele><time>2024-06-01T15:02:12Z</time><name>PT4353</name></trkpt>
<trkpt lat="54.595616" lon="-3.196306"><ele>183</ele><time>2024-06-01T15:02:15Z</time><name>PT4354</name></trkpt>
<trkpt lat="54.595657" lon="-3.196274"><ele>182</ele><time>2024-06-01T15:02:19Z</time><name>PT4355</name></trkpt>
<trkpt lat="54.595712" lon="-3.196228"><ele>182</ele><time>2024-06-01T15:02:24Z</time><name>PT4356</name></trkpt>
<trkpt lat="54.595759" lon="-3.196179"><ele>183</ele><time>2024-06-01T15:02:27Z</time><name>PT4357</name></trkpt>
<trkpt lat="54.595786" lon="-3.196153"><ele>181</ele><time>2024-06-01T15:02:30Z</time><name>PT4358</name></trkpt>
<trkpt lat="54.595834" lon="-3.196118"><ele>181</ele><time>2024-06-01T15:02:35Z</time><name>PT4359</name></trkpt>
<trkpt lat="54.595882" lon="-3.196089"><ele>179</ele><time>2024-06-01T15:02:39Z</time><name>PT4360</name></trkpt>
<trkpt lat="54.595914" lon="-3.196066"><ele>179</ele><time>2024-06-01T15:02:42Z</time><name>PT4361</name></trkpt>
<trkpt lat="54.595948" lon="-3.196039"><ele>178</ele><time>2024-06-01T15:02:45Z</time><name>PT4362</name></trkpt>
<trkpt lat="54.595999" lon="-3.195985"><ele>178</ele><time>2024-06-01T15:02:48Z</time><name>PT4363</name></trkpt>
<trkpt lat="54.596028" lon="-3.195960"><ele>178</ele><time>2024-06-01T15:02:51Z</time><name>PT4364</name></trkpt>
<trkpt lat="54.596076" lon="-3.195916"><ele>177</ele><time>2024-06-01T15:02:55Z</time><name>PT4365</name></trkpt>
<trkpt lat="54.596121" lon="-3.195878"><ele>176</ele><time>2024-06-01T15:03:00Z</time><name>PT4366</name></trkpt>
<trkpt lat="54.596152" lon="-3.195854"><ele>176</ele><time>2024-06-01T15:03:03Z</time><name>PT4367</name></trkpt>
<trkpt lat="54.596202" lon="-3.195815"><ele>175</ele><time>2024-06-01T15:03:06Z</time><name>PT4368</name></trkpt>
<trkpt lat="54.596239" lon="-3.195773"><ele>175</ele><time>2024-06-01T15:03:09Z</time><name>PT4369</name></trkpt>
<trkpt lat="54.596285" lon="-3.195734"><ele>175</ele><time>2024-06-01T15:03:13Z</time><name>PT4370</name></trkpt>
<trkpt lat="54.596338" lon="-3.195699"><ele>174</ele><time>2024-06-01T15:03:18Z</time><name>PT4371</name></trkpt>
<trkpt lat="54.596388" lon="-3.195667"><ele>174</ele><time>2024-06-01T15:03:21Z</time><name>PT4372</name></trkpt>
<trkpt lat="54.596432" lon="-3.195647"><ele>174</ele><time>2024-06-01T15:03:25Z</time><name>PT4373</name></trkpt>
<trkpt lat="54.596463" lon="-3.195634"><ele>172</ele><time>2024-06-01T15:03:28Z</time><name>PT4374</name></trkpt>
<trkpt lat="54.596521" lon="-3.195612"><ele>172</ele><time>2024-06-01T15:03:33Z</time><name>PT4375</name></trkpt>
<trkpt lat="54.596551" lon="-3.195596"><ele>172</ele><time>2024-06-01T15:03:36Z</time><name>PT4376</name></trkpt>
<trkpt lat="54.596579" lon="-3.195585"><ele>172</ele><time>2024-06-01T15:03:39Z</time><name>PT4377</name></trkpt>
<trkpt lat="54.596629" lon="-3.195582"><ele>170</ele><time>2024-06-01T15:03:42Z</time><name>PT4378</name></trkpt>
<trkpt lat="54.596683" lon="-3.195585"><ele>169</ele><time>2024-06-01T15:03:46Z</time><name>PT4379</name></trkpt>
<trkpt lat="54.596709" lon="-3.195603"><ele>168</ele><time>2024-06-01T15:03:49Z</time><name>PT4380</name></trkpt>
<trkpt lat="54.596741" lon="-3.195612"><ele>168</ele><time>2024-06-01T15:03:52Z</time><name>PT4381</name></trkpt>
<trkpt lat="54.596778" lon="-3.195621"><ele>166</ele><time>2024-06-01T15:03:55Z</time><name>PT4382</name></trkpt>
<trkpt lat="54.596821" lon="-3.195625"><ele>166</ele><time>2024-06-01T15:03:58Z</time><name>PT4383</name></trkpt>
<trkpt lat="54.596867" lon="-3.195631"><ele>166</ele><time>2024-06-01T15:04:03Z</time><name>PT4384</name></trkpt>
<trkpt lat="54.596907" lon="-3.195627"><ele>165</ele><time>2024-06-01T15:04:06Z</time><name>PT4385</name></trkpt>
<trkpt lat="54.596960" lon="-3.195619"><ele>164</ele><time>2024-06-01T15:04:09Z</time><name>PT4386</name></trkpt>
<trkpt lat="54.596998" lon="-3.195611"><ele>164</ele><time>2024-06-01T15:04:12Z</time><name>PT4387</name></trkpt>
<trkpt lat="54.597038" lon="-3.195596"><ele>163</ele><time>2024-06-01T15:04:16Z</time><name>PT4388</name></trkpt>
<trkpt lat="54.597083" lon="-3.195586"><ele>161</ele><time>2024-06-01T15:04:21Z</time><name>PT4389</name></trkpt>
<trkpt lat="54.597118" lon="-3.195568"><ele>161</ele><time>2024-06-01T15:04:24Z</time><name>PT4390</name></trkpt>
<trkpt lat="54.597151" lon="-3.195549"><ele>161</ele><time>2024-06-01T15:04:27Z</time><name>PT4391</name></trkpt>
<trkpt lat="54.597176" lon="-3.195531"><ele>160</ele><time>2024-06-01T15:04:30Z</time><name>PT4392</name></trkpt>
<trkpt lat="54.597228" lon="-3.195505"><ele>158</ele><time>2024-06-01T15:04:33Z</time><name>PT4393</name></trkpt>
<trkpt lat="54.597281" lon="-3.195474"><ele>158</ele><time>2024-06-01T15:04:38Z</time><name>PT4394</name></trkpt>
<trkpt lat="54.597314" lon="-3.195452"><ele>157</ele><time>2024-06-01T15:04:42Z</time><name>PT4395</name></trkpt>
<trkpt lat="54.597360" lon="-3.195410"><ele>157</ele><time>2024-06-01T15:04:45Z</time><name>PT4396</name></trkpt>
<trkpt lat="54.597394" lon="-3.195363"><ele>157</ele><time>2024-06-01T15:04:48Z</time><name>PT4397</name></trkpt>
<trkpt lat="54.597443" lon="-3.195299"><ele>158</ele><time>2024-06-01T15:04:52Z</time><name>PT4398</name></trkpt>
<trkpt lat="54.597473" lon="-3.195272"><ele>157</ele><time>2024-06-01T15:04:55Z</time><name>PT4399</name></trkpt>
<trkpt lat="54.597510" lon="-3.195239"><ele>157</ele><time>2024-06-01T15:05:00Z</time><name>PT4400</name></trkpt>
<trkpt lat="54.597553" lon="-3.195187"><ele>155</ele><time>2024-06-01T15:05:03Z</time><name>PT4401</name></trkpt>
<trkpt lat="54.597602" lon="-3.195131"><ele>155</ele><time>2024-06-01T15:05:07Z</time><name>PT4402</name></trkpt>
<trkpt lat="54.597636" lon="-3.195100"><ele>153</ele><time>2024-06-01T15:05:12Z</time><name>PT4403</name></trkpt>
<trkpt lat="54.597666" lon="-3.195073"><ele>152</ele><time>2024-06-01T15:05:15Z</time><name>PT4404</name></trkpt>
<trkpt lat="54.597713" lon="-3.195029"><ele>152</ele><time>2024-06-01T15:05:18Z</time><name>PT4405</name></trkpt>
<trkpt lat="54.597762" lon="-3.194983"><ele>150</ele><time>2024-06-01T15:05:22Z</time><name>PT4406</name></trkpt>
<trkpt lat="54.597792" lon="-3.194960"><ele>149</ele><time>2024-06-01T15:05:25Z</time><name>PT4407</name></trkpt>
<trkpt lat="54.597834" lon="-3.194914"><ele>148</ele><time>2024-06-01T15:05:30Z</time><name>PT4408</name></trkpt>
<trkpt lat="54.597868" lon="-3.194865"><ele>148</ele><time>2024-06-01T15:05:33Z</time><name>PT4409</name></trkpt>
<trkpt lat="54.597905" lon="-3.194813"><ele>148</ele><time>2024-06-01T15:05:36Z</time><name>PT4410</name></trkpt>
<trkpt lat="54.597935" lon="-3.194773"><ele>146</ele><time>2024-06-01T15:05:40Z</time><name>PT4411</name></trkpt>
<trkpt lat="54.597962" lon="-3.194740"><ele>144</ele><time>2024-06-01T15:05:43Z</time><name>PT4412</name></trkpt>
<trkpt lat="54.597982" lon="-3.194688"><ele>143</ele><time>2024-06-01T15:05:48Z</time><name>PT4413</name></trkpt>
<trkpt lat="54.597979" lon="-3.194665"><ele>143</ele><time>2024-06-01T15:05:51Z</time><name>PT4414</name></trkpt>
<trkpt lat="54.597986" lon="-3.194674"><ele>142</ele><time>2024-06-01T15:05:54Z</time><name>PT4415</name></trkpt>
<trkpt lat="54.598002" lon="-3.194666"><ele>143</ele><time>2024-06-01T15:05:58Z</time><name>PT4416</name></trkpt>
<trkpt lat="54.598019" lon="-3.194653"><ele>142</ele><time>2024-06-01T15:06:01Z</time><name>PT4417</name></trkpt>
<trkpt lat="54.598038" lon="-3.194631"><ele>141</ele><time>2024-06-01T15:06:04Z</time><name>PT4418</name></trkpt>
<trkpt lat="54.598066" lon="-3.194574"><ele>140</ele><time>2024-06-01T15:06:09Z</time><name>PT4419</name></trkpt>
<trkpt lat="54.598095" lon="-3.194530"><ele>139</ele><time>2024-06-01T15:06:12Z</time><name>PT4420</name></trkpt>
<trkpt lat="54.598131" lon="-3.194482"><ele>138</ele><time>2024-06-01T15:06:15Z</time><name>PT4421</name></trkpt>
<trkpt lat="54.598173" lon="-3.194423"><ele>139</ele><time>2024-06-01T15:06:19Z</time><name>PT4422</name></trkpt>
<trkpt lat="54.598196" lon="-3.194381"><ele>139</ele><time>2024-06-01T15:06:23Z</time><name>PT4423</name></trkpt>
<trkpt lat="54.598229" lon="-3.194321"><ele>138</ele><time>2024-06-01T15:06:27Z</time><name>PT4424</name></trkpt>
<trkpt lat="54.598252" lon="-3.194282"><ele>137</ele><time>2024-06-01T15:06:30Z</time><name>PT4425</name></trkpt>
<trkpt lat="54.598280" lon="-3.194228"><ele>137</ele><time>2024-06-01T15:06:33Z</time><name>PT4426</name></trkpt>
<trkpt lat="54.598300" lon="-3.194176"><ele>138</ele><time>2024-06-01T15:06:36Z</time><name>PT4427</name></trkpt>
<trkpt lat="54.598336" lon="-3.194110"><ele>135</ele><time>2024-06-01T15:06:39Z</time><name>PT4428</name></trkpt>
<trkpt lat="54.598372" lon="-3.194057"><ele>135</ele><time>2024-06-01T15:06:42Z</time><name>PT4429</name></trkpt>
<trkpt lat="54.598401" lon="-3.194003"><ele>134</ele><time>2024-06-01T15:06:46Z</time><name>PT4430</name></trkpt>
<trkpt lat="54.598436" lon="-3.193945"><ele>133</ele><time>2024-06-01T15:06:51Z</time><name>PT4431</name></trkpt>
<trkpt lat="54.598478" lon="-3.193885"><ele>133</ele><time>2024-06-01T15:06:54Z</time><name>PT4432</name></trkpt>
<trkpt lat="54.598505" lon="-3.193846"><ele>132</ele><time>2024-06-01T15:06:57Z</time><name>PT4433</name></trkpt>
<trkpt lat="54.598537" lon="-3.193807"><ele>132</ele><time>2024-06-01T15:07:00Z</time><name>PT4434</name></trkpt>
<trkpt lat="54.598572" lon="-3.193765"><ele>130</ele><time>2024-06-01T15:07:04Z</time><name>PT4435</name></trkpt>
<trkpt lat="54.598610" lon="-3.193719"><ele>129</ele><time>2024-06-01T15:07:09Z</time><name>PT4436</name></trkpt>
<trkpt lat="54.598642" lon="-3.193690"><ele>129</ele><time>2024-06-01T15:07:12Z</time><name>PT4437</name></trkpt>
<trkpt lat="54.598659" lon="-3.193660"><ele>132</ele><time>2024-06-01T15:07:15Z</time><name>PT4438</name></trkpt>
<trkpt lat="54.598697" lon="-3.193640"><ele>131</ele><time>2024-06-01T15:07:18Z</time><name>PT4439</name></trkpt>
<trkpt lat="54.598746" lon="-3.193582"><ele>132</ele><time>2024-06-01T15:07:22Z</time><name>PT4440</name></trkpt>
<trkpt lat="54.598769" lon="-3.193566"><ele>131</ele><time>2024-06-01T15:07:25Z</time><name>PT4441</name></trkpt>
<trkpt lat="54.598813" lon="-3.193520"><ele>130</ele><time>2024-06-01T15:07:30Z</time><name>PT4442</name></trkpt>
<trkpt lat="54.598856" lon="-3.193469"><ele>130</ele><time>2024-06-01T15:07:33Z</time><name>PT4443</name></trkpt>
<trkpt lat="54.598895" lon="-3.193438"><ele>129</ele><time>2024-06-01T15:07:36Z</time><name>PT4444</name></trkpt>
<trkpt lat="54.598932" lon="-3.193405"><ele>129</ele><time>2024-06-01T15:07:39Z</time><name>PT4445</name></trkpt>
<trkpt lat="54.598967" lon="-3.193381"><ele>127</ele><time>2024-06-01T15:07:42Z</time><name>PT4446</name></trkpt>
<trkpt lat="54.599005" lon="-3.193346"><ele>127</ele><time>2024-06-01T15:07:45Z</time><name>PT4447</name></trkpt>
<trkpt lat="54.599046" lon="-3.193305"><ele>123</ele><time>2024-06-01T15:07:49Z</time><name>PT4448</name></trkpt>
<trkpt lat="54.599102" lon="-3.193278"><ele>123</ele><time>2024-06-01T15:07:54Z</time><name>PT4449</name></trkpt>
<trkpt lat="54.599133" lon="-3.193239"><ele>122</ele><time>2024-06-01T15:07:57Z</time><name>PT4450</name></trkpt>
<trkpt lat="54.599181" lon="-3.193197"><ele>119</ele><time>2024-06-01T15:08:00Z</time><name>PT4451</name></trkpt>
<trkpt lat="54.599213" lon="-3.193163"><ele>119</ele><time>2024-06-01T15:08:03Z</time><name>PT4452</name></trkpt>
<trkpt lat="54.599257" lon="-3.193129"><ele>121</ele><time>2024-06-01T15:08:06Z</time><name>PT4453</name></trkpt>
<trkpt lat="54.599301" lon="-3.193100"><ele>121</ele><time>2024-06-01T15:08:10Z</time><name>PT4454</name></trkpt>
<trkpt lat="54.599340" lon="-3.193068"><ele>121</ele><time>2024-06-01T15:08:13Z</time><name>PT4455</name></trkpt>
<trkpt lat="54.599375" lon="-3.193048"><ele>120</ele><time>2024-06-01T15:08:16Z</time><name>PT4456</name></trkpt>
<trkpt lat="54.599410" lon="-3.193027"><ele>120</ele><time>2024-06-01T15:08:21Z</time><name>PT4457</name></trkpt>
<trkpt lat="54.599457" lon="-3.193003"><ele>121</ele><time>2024-06-01T15:08:24Z</time><name>PT4458</name></trkpt>
<trkpt lat="54.599484" lon="-3.192994"><ele>121</ele><time>2024-06-01T15:08:27Z</time><name>PT4459</name></trkpt>
<trkpt lat="54.599525" lon="-3.192978"><ele>121</ele><time>2024-06-01T15:08:31Z</time><name>PT4460</name></trkpt>
<trkpt lat="54.599560" lon="-3.192975"><ele>120</ele><time>2024-06-01T15:08:34Z</time><name>PT4461</name></trkpt>
<trkpt lat="54.599600" lon="-3.192968"><ele>118</ele><time>2024-06-01T15:08:39Z</time><name>PT4462</name></trkpt>
<trkpt lat="54.599628" lon="-3.192960"><ele>116</ele><time>2024-06-01T15:08:42Z</time><name>PT4463</name></trkpt>
<trkpt lat="54.599665" lon="-3.192946"><ele>114</ele><time>2024-06-01T15:08:45Z</time><name>PT4464</name></trkpt>
<trkpt lat="54.599694" lon="-3.192943"><ele>111</ele><time>2024-06-01T15:08:48Z</time><name>PT4465</name></trkpt>
<trkpt lat="54.599759" lon="-3.192914"><ele>112</ele><time>2024-06-01T15:08:52Z</time><name>PT4466</name></trkpt>
<trkpt lat="54.599811" lon="-3.192910"><ele>112</ele><time>2024-06-01T15:08:57Z</time><name>PT4467</name></trkpt>
<trkpt lat="54.599850" lon="-3.192903"><ele>113</ele><time>2024-06-01T15:09:00Z</time><name>PT4468</name></trkpt>
<trkpt lat="54.599890" lon="-3.192872"><ele>111</ele><time>2024-06-01T15:09:03Z</time><name>PT4469</name></trkpt>
<trkpt lat="54.599942" lon="-3.192864"><ele>111</ele><time>2024-06-01T15:09:06Z</time><name>PT4470</name></trkpt>
<trkpt lat="54.599989" lon="-3.192850"><ele>112</ele><time>2024-06-01T15:09:09Z</time><name>PT4471</name></trkpt>
<trkpt lat="54.600035" lon="-3.192829"><ele>111</ele><time>2024-06-01T15:09:12Z</time><name>PT4472</name></trkpt>
<trkpt lat="54.600070" lon="-3.192828"><ele>111</ele><time>2024-06-01T15:09:15Z</time><name>PT4473</name></trkpt>
<trkpt lat="54.600132" lon="-3.192815"><ele>111</ele><time>2024-06-01T15:09:19Z</time><name>PT4474</name></trkpt>
<trkpt lat="54.600183" lon="-3.192801"><ele>111</ele><time>2024-06-01T15:09:24Z</time><name>PT4475</name></trkpt>
<trkpt lat="54.600232" lon="-3.192793"><ele>110</ele><time>2024-06-01T15:09:27Z</time><name>PT4476</name></trkpt>
<trkpt lat="54.600273" lon="-3.192783"><ele>110</ele><time>2024-06-01T15:09:30Z</time><name>PT4477</name></trkpt>
<trkpt lat="54.600317" lon="-3.192768"><ele>110</ele><time>2024-06-01T15:09:34Z</time><name>PT4478</name></trkpt>
<trkpt lat="54.600372" lon="-3.192743"><ele>110</ele><time>2024-06-01T15:09:39Z</time><name>PT4479</name></trkpt>
<trkpt lat="54.600414" lon="-3.192734"><ele>110</ele><time>2024-06-01T15:09:42Z</time><name>PT4480</name></trkpt>
<trkpt lat="54.600468" lon="-3.192734"><ele>109</ele><time>2024-06-01T15:09:46Z</time><name>PT4481</name></trkpt>
<trkpt lat="54.600517" lon="-3.192723"><ele>110</ele><time>2024-06-01T15:09:51Z</time><name>PT4482</name></trkpt>
<trkpt lat="54.600563" lon="-3.192710"><ele>108</ele><time>2024-06-01T15:09:54Z</time><name>PT4483</name></trkpt>
<trkpt lat="54.600617" lon="-3.192686"><ele>107</ele><time>2024-06-01T15:09:58Z</time><name>PT4484</name></trkpt>
<trkpt lat="54.600649" lon="-3.192680"><ele>107</ele><time>2024-06-01T15:10:01Z</time><name>PT4485</name></trkpt>
<trkpt lat="54.600701" lon="-3.192674"><ele>106</ele><time>2024-06-01T15:10:06Z</time><name>PT4486</name></trkpt>
<trkpt lat="54.600744" lon="-3.192668"><ele>106</ele><time>2024-06-01T15:10:09Z</time><name>PT4487</name></trkpt>
<trkpt lat="54.600784" lon="-3.192670"><ele>106</ele><time>2024-06-01T15:10:12Z</time><name>PT4488</name></trkpt>
<trkpt lat="54.600816" lon="-3.192667"><ele>106</ele><time>2024-06-01T15:10:16Z</time><name>PT4489</name></trkpt>
<trkpt lat="54.600821" lon="-3.192679"><ele>106</ele><time>2024-06-01T15:10:21Z</time><name>PT4490</name></trkpt>
<trkpt lat="54.600822" lon="-3.192683"><ele>106</ele><time>2024-06-01T15:10:24Z</time><name>PT4491</name></trkpt>
<trkpt lat="54.600822" lon="-3.192702"><ele>105</ele><time>2024-06-01T15:10:27Z</time><name>PT4492</name></trkpt>
<trkpt lat="54.600819" lon="-3.192694"><ele>107</ele><time>2024-06-01T15:11:06Z</time><name>PT4493</name></trkpt>
<trkpt lat="54.600822" lon="-3.192691"><ele>107</ele><time>2024-06-01T15:11:10Z</time><name>PT4494</name></trkpt>
<trkpt lat="54.600820" lon="-3.192675"><ele>108</ele><time>2024-06-01T15:11:13Z</time><name>PT4495</name></trkpt>
<trkpt lat="54.600819" lon="-3.192658"><ele>108</ele><time>2024-06-01T15:11:18Z</time><name>PT4496</name></trkpt></trkseg></trk></gpx>